# Wetter Temperatur Luftdruck Luftfeuchtigkeit Sichtweite Windgeschwindigkeit Windrichtung Zeit
1 Clouds -1 1016 80 10000 3.09 140 06:29 17.01.2021
2 Snow -1 1016 86 10000 2.57 120 04:28 17.01.2021
3 Snow -1 1016 86 10000 2.06 140 02:38 17.01.2021
4 Clear -1 1017 86 10000 2.57 140 00:47 17.01.2021
5 Clear -1 1018 86 10000 3.09 140 00:18 17.01.2021
6 Clear -1 1018 86 10000 2.57 130 23:48 16.01.2021
7 Clear -1 1018 86 10000 2.57 140 23:19 16.01.2021
8 Clouds -1 1018 86 10000 2.57 140 22:36 16.01.2021
9 Clouds 0 1019 80 10000 2.57 130 21:58 16.01.2021
10 Clouds 0 1019 80 10000 2.57 130 21:24 16.01.2021
11 Clouds 0 1019 80 10000 2.57 130 20:59 16.01.2021
12 Clouds 0 1019 80 10000 2.57 130 20:39 16.01.2021
13 Clouds 0 1019 80 10000 2.06 140 20:18 16.01.2021
14 Clouds 0 1019 80 10000 2.06 140 19:41 16.01.2021
15 Clouds 0 1019 80 10000 2.06 140 19:23 16.01.2021
16 Clouds 0 1020 86 10000 1.54 190 18:42 16.01.2021
17 Clouds 0 1020 86 10000 1.54 190 18:21 16.01.2021
18 Clouds 0 1021 86 10000 1.54 180 17:41 16.01.2021
19 Clouds 0 1021 86 10000 1.54 180 17:23 16.01.2021
20 Clouds 0 1021 86 10000 2.06 190 16:45 16.01.2021
21 Clouds 1 1021 80 10000 2.57 190 16:26 16.01.2021
22 Clouds 1 1022 80 10000 2.57 200 15:48 16.01.2021
23 Clouds 1 1022 80 10000 2.06 210 15:18 16.01.2021
24 Clouds 1 1023 75 10000 2.57 180 14:21 16.01.2021
25 Clouds 1 1023 75 10000 3.09 180 13:48 16.01.2021
26 Clouds 0 1024 80 10000 3.09 190 13:21 16.01.2021
27 Clouds 0 1024 74 10000 3.09 170 12:39 16.01.2021
28 Clouds 0 1024 74 10000 2.57 160 12:20 16.01.2021
29 Clouds 0 1025 74 10000 2.57 140 11:48 16.01.2021
30 Clouds 0 1025 74 10000 3.6 160 11:24 16.01.2021
31 Clouds -1 1025 74 10000 4.12 170 10:46 16.01.2021
32 Clouds -1 1025 74 10000 3.09 170 10:22 16.01.2021
33 Clouds -2 1026 80 10000 3.6 160 09:36 16.01.2021
34 Clouds -2 1026 74 10000 2.57 140 08:47 16.01.2021
35 Clouds -2 1027 74 10000 2.06 150 07:50 16.01.2021
36 Clouds -2 1027 80 10000 1.54 140 06:44 16.01.2021
37 Clouds -2 1028 80 10000 1.03 0 04:40 16.01.2021
38 Clouds -1 1028 74 10000 1.03 340 02:56 16.01.2021
39 Clouds -1 1029 69 10000 1.03 0 01:44 16.01.2021
40 Clouds -1 1029 80 10000 1.03 270 00:38 16.01.2021
41 Clouds -1 1029 74 10000 1.03 270 00:19 16.01.2021
42 Clouds -1 1029 69 10000 1.54 330 23:25 15.01.2021
43 Clouds -1 1029 64 10000 2.06 360 22:27 15.01.2021
44 Clouds -1 1029 69 10000 2.57 360 21:48 15.01.2021
45 Clouds -1 1029 69 10000 2.57 350 21:25 15.01.2021
46 Clouds -1 1029 69 10000 3.09 350 20:42 15.01.2021
47 Clouds -1 1029 69 10000 3.6 350 20:23 15.01.2021
48 Clouds 0 1029 64 10000 3.09 360 19:43 15.01.2021
49 Clouds 0 1029 64 10000 4.63 10 19:24 15.01.2021
50 Clouds 0 1028 64 10000 4.12 10 18:45 15.01.2021
51 Clouds 0 1028 64 10000 3.09 360 18:20 15.01.2021
52 Clouds 0 1028 64 10000 4.12 360 17:56 15.01.2021
53 Clouds 0 1028 64 10000 4.12 360 17:37 15.01.2021
54 Clouds 0 1028 69 10000 3.6 340 17:19 15.01.2021
55 Clouds 0 1028 69 10000 3.09 350 16:40 15.01.2021
56 Clouds 0 1028 69 10000 4.12 10 16:21 15.01.2021
57 Clouds 0 1027 69 10000 4.63 360 15:40 15.01.2021
58 Clouds 0 1027 64 10000 4.63 360 15:19 15.01.2021
59 Clouds 1 1027 60 10000 4.63 340 14:41 15.01.2021
60 Clouds 0 1027 64 10000 4.12 360 14:22 15.01.2021
61 Clouds 1 1027 64 10000 4.12 350 13:40 15.01.2021
62 Clouds 0 1027 69 10000 3.6 360 13:40 15.01.2021
63 Clouds 0 1027 69 10000 3.6 360 13:20 15.01.2021
64 Clouds 0 1027 74 10000 3.6 350 12:47 15.01.2021
65 Clouds 0 1027 74 10000 3.09 360 12:26 15.01.2021
66 Clouds 0 1027 80 10000 4.63 10 11:42 15.01.2021
67 Clouds 0 1027 80 10000 5.14 360 11:23 15.01.2021
68 Clouds 0 1027 86 10000 4.63 10 10:52 15.01.2021
69 Clouds 0 1026 86 10000 4.12 20 10:33 15.01.2021
70 Clouds 0 1026 80 10000 4.12 20 09:50 15.01.2021
71 Clouds 0 1026 80 10000 3.09 30 09:30 15.01.2021
72 Snow 1 1025 86 10000 3.6 350 08:37 15.01.2021
73 Snow 1 1025 86 10000 3.09 340 08:18 15.01.2021
74 Snow 1 1025 86 10000 3.6 330 07:39 15.01.2021
75 Clouds 1 1025 86 10000 3.09 350 07:18 15.01.2021
76 Clouds 1 1024 86 10000 2.06 340 03:46 15.01.2021
77 Clouds 0 1023 93 10000 1.54 30 00:57 15.01.2021
78 Clouds 0 1023 93 10000 3.09 30 23:50 14.01.2021
79 Clouds 1 1023 86 10000 3.09 30 23:21 14.01.2021
80 Clouds 1 1023 86 10000 4.12 30 22:42 14.01.2021
81 Clouds 1 1023 80 10000 3.6 20 22:24 14.01.2021
82 Clouds 1 1022 80 10000 3.6 30 21:44 14.01.2021
83 Clouds 1 1022 80 10000 3.6 30 21:21 14.01.2021
84 Clouds 1 1022 80 10000 3.6 20 20:49 14.01.2021
85 Clouds 1 1022 80 10000 4.12 30 20:25 14.01.2021
86 Clouds 1 1022 80 10000 4.12 20 19:46 14.01.2021
87 Clouds 1 1022 80 10000 4.12 20 19:27 14.01.2021
88 Clouds 1 1022 80 10000 4.63 30 18:55 14.01.2021
89 Clouds 1 1022 80 10000 4.12 20 18:30 14.01.2021
90 Clouds 1 1022 80 10000 4.12 20 17:50 14.01.2021
91 Clouds 1 1021 80 10000 3.6 10 17:27 14.01.2021
92 Clouds 1 1021 80 10000 2.57 20 16:46 14.01.2021
93 Clouds 1 1021 80 10000 4.63 20 16:26 14.01.2021
94 Clouds 1 1021 80 10000 4.12 20 15:46 14.01.2021
95 Clouds 2 1021 75 10000 3.09 30 15:23 14.01.2021
96 Clouds 2 1021 80 10000 3.6 30 14:39 14.01.2021
97 Clouds 2 1021 80 10000 3.09 30 14:20 14.01.2021
98 Clouds 2 1021 80 10000 3.6 360 13:54 14.01.2021
99 Clouds 2 1021 80 10000 3.6 30 13:23 14.01.2021
100 Clouds 2 1021 80 10000 4.12 20 12:56 14.01.2021
101 Clouds 2 1021 80 10000 3.6 20 12:21 14.01.2021
102 Clouds 1 1020 86 10000 3.6 20 11:53 14.01.2021
103 Clouds 1 1020 80 10000 3.09 30 11:25 14.01.2021
104 Clouds 1 1020 80 10000 3.6 360 10:57 14.01.2021
105 Clouds 1 1020 80 10000 3.6 360 10:38 14.01.2021
106 Clouds 1 1019 80 10000 4.12 10 10:18 14.01.2021
107 Clouds 1 1019 80 10000 3.09 360 09:42 14.01.2021
108 Clouds 1 1019 80 10000 3.6 360 09:20 14.01.2021
109 Clouds 1 1018 80 10000 4.12 350 08:30 14.01.2021
110 Clouds 1 1017 80 10000 4.63 350 07:53 14.01.2021
111 Snow 1 1017 80 10000 4.12 350 07:30 14.01.2021
112 Clouds 1 1016 80 10000 5.14 340 06:30 14.01.2021
113 Clouds 1 1015 75 10000 6.17 320 04:24 14.01.2021
114 Clouds 1 1011 80 10000 6.17 320 23:59 13.01.2021
115 Snow 1 1011 86 10000 5.66 320 23:27 13.01.2021
116 Snow 0 1010 100 6000 4.63 310 22:48 13.01.2021
117 Snow 1 1010 86 7000 7.2 300 22:20 13.01.2021
118 Snow 1 1010 86 7000 7.2 300 22:20 13.01.2021
119 Snow 1 1009 86 10000 5.14 300 21:43 13.01.2021
120 Clouds 1 1009 86 10000 4.63 300 21:22 13.01.2021
121 Snow 1 1009 86 3800 7.72 310 20:51 13.01.2021
122 Clouds 1 1009 86 10000 5.66 300 20:23 13.01.2021
123 Snow 2 1008 80 10000 6.17 310 19:48 13.01.2021
124 Clouds 2 1008 75 10000 7.2 330 19:24 13.01.2021
125 Clouds 2 1007 75 10000 8.23 320 18:51 13.01.2021
126 Clouds 2 1007 75 10000 8.23 320 18:32 13.01.2021
127 Clouds 3 1006 87 10000 8.23 290 17:47 13.01.2021
128 Rain 3 1006 87 10000 8.23 290 17:18 13.01.2021
129 Rain 4 1006 87 8000 10.29 290 16:45 13.01.2021
130 Rain 4 1005 81 9000 11.32 270 16:21 13.01.2021
131 Rain 4 1005 75 10000 12.35 270 15:49 13.01.2021
132 Clouds 5 1006 81 10000 9.77 270 15:29 13.01.2021
133 Clouds 5 1007 81 10000 11.32 270 14:30 13.01.2021
134 Clouds 5 1007 81 10000 10.8 270 13:49 13.01.2021
135 Clouds 5 1008 81 10000 10.29 260 13:25 13.01.2021
136 Clouds 5 1008 81 10000 10.8 260 12:46 13.01.2021
137 Clouds 4 1009 87 10000 9.77 260 12:27 13.01.2021
138 Clouds 4 1009 81 10000 7.72 260 11:53 13.01.2021
139 Clouds 4 1009 81 10000 7.72 260 11:34 13.01.2021
140 Clouds 3 1009 87 10000 8.23 260 10:50 13.01.2021
141 Clouds 3 1009 87 10000 8.23 250 10:30 13.01.2021
142 Clouds 2 1009 87 10000 7.72 260 09:51 13.01.2021
143 Clouds 2 1009 87 10000 8.75 260 09:30 13.01.2021
144 Clouds 2 1009 93 10000 7.72 260 08:49 13.01.2021
145 Clouds 2 1009 87 10000 6.69 260 08:25 13.01.2021
146 Clouds 2 1010 87 10000 7.72 260 07:32 13.01.2021
147 Snow 2 1010 87 10000 7.2 250 06:53 13.01.2021
148 Clouds 2 1010 93 10000 6.69 250 04:20 13.01.2021
149 Clouds 2 1010 87 10000 7.2 260 03:44 13.01.2021
150 Clouds 1 1010 86 10000 5.66 250 03:24 13.01.2021
151 Clouds 1 1010 93 10000 6.69 270 01:19 13.01.2021
152 Clouds 2 1010 87 10000 4.12 270 23:54 12.01.2021
153 Snow 1 1010 93 10000 4.63 270 23:22 12.01.2021
154 Clouds 2 1010 87 10000 6.17 290 22:46 12.01.2021
155 Clouds 2 1009 80 10000 4.12 270 22:23 12.01.2021
156 Clouds 2 1009 81 10000 7.72 280 21:49 12.01.2021
157 Clouds 2 1009 80 10000 4.63 270 21:30 12.01.2021
158 Clouds 2 1008 80 10000 3.6 290 20:49 12.01.2021
159 Clouds 2 1008 86 10000 4.12 270 20:27 12.01.2021
160 Clouds 3 1008 81 10000 5.66 290 19:55 12.01.2021
161 Clouds 3 1008 81 10000 5.66 290 19:35 12.01.2021
162 Rain 2 1007 87 10000 6.17 280 18:46 12.01.2021
163 Clouds 2 1006 87 10000 5.14 270 18:24 12.01.2021
164 Clouds 2 1006 87 10000 4.63 280 17:44 12.01.2021
165 Clouds 3 1005 87 10000 6.17 290 17:25 12.01.2021
166 Clouds 4 1005 81 10000 8.23 300 16:44 12.01.2021
167 Clouds 5 1004 75 10000 7.2 280 16:24 12.01.2021
168 Clouds 5 1004 75 10000 8.23 290 15:41 12.01.2021
169 Clouds 5 1003 70 10000 8.75 290 15:21 12.01.2021
170 Clouds 6 1003 65 10000 7.2 280 14:43 12.01.2021
171 Clouds 6 1003 70 10000 6.69 290 14:23 12.01.2021
172 Clouds 6 1003 70 10000 6.69 280 13:52 12.01.2021
173 Clouds 6 1003 70 10000 4.63 300 13:22 12.01.2021
174 Clouds 5 1003 81 10000 4.12 300 12:26 12.01.2021
175 Clouds 4 1003 93 10000 2.57 290 11:41 12.01.2021
176 Clouds 4 1002 93 10000 2.06 290 10:55 12.01.2021
177 Clouds 4 1002 93 10000 2.06 290 10:55 12.01.2021
178 Clouds 4 1002 87 10000 3.09 320 10:26 12.01.2021
179 Clouds 4 1001 87 10000 3.6 340 09:59 12.01.2021
180 Clouds 4 1001 87 10000 3.6 340 09:39 12.01.2021
181 Rain 4 1001 87 10000 4.12 10 09:20 12.01.2021
182 Rain 5 1000 87 10000 4.63 340 08:26 12.01.2021
183 Rain 6 1000 93 7000 3.6 260 07:37 12.01.2021
184 Rain 6 1000 93 7000 5.66 240 06:59 12.01.2021
185 Rain 6 1000 93 7000 6.69 230 05:38 12.01.2021
186 Rain 6 1002 93 7000 8.23 230 03:33 12.01.2021
187 Rain 6 1003 87 7000 9.26 230 02:21 12.01.2021
188 Clouds 5 1003 93 7000 8.23 240 01:36 12.01.2021
189 Clouds 5 1005 93 7000 8.75 230 00:30 12.01.2021
190 Clouds 5 1005 87 7000 9.77 230 23:40 11.01.2021
191 Rain 5 1006 87 6000 9.77 230 23:18 11.01.2021
192 Rain 5 1006 87 6000 8.75 230 22:45 11.01.2021
193 Rain 4 1006 93 6000 8.75 220 22:27 11.01.2021
194 Rain 5 1007 87 10000 9.77 230 21:45 11.01.2021
195 Clouds 5 1007 81 10000 8.23 220 21:25 11.01.2021
196 Clouds 5 1008 81 10000 8.23 220 20:58 11.01.2021
197 Rain 5 1008 81 10000 8.23 220 20:37 11.01.2021
198 Rain 4 1008 87 10000 8.23 220 20:19 11.01.2021
199 Clouds 4 1009 87 10000 8.23 210 19:42 11.01.2021
200 Clouds 4 1009 87 10000 8.23 220 19:21 11.01.2021
201 Clouds 4 1010 87 10000 7.2 220 18:42 11.01.2021
202 Clouds 4 1010 87 10000 7.72 220 18:23 11.01.2021
203 Clouds 3 1010 93 10000 7.72 220 17:42 11.01.2021
204 Clouds 3 1011 93 8000 7.72 220 17:24 11.01.2021
205 Clouds 3 1011 93 7000 7.2 210 16:48 11.01.2021
206 Clouds 3 1012 93 8000 7.2 220 16:29 11.01.2021
207 Drizzle 3 1012 93 8000 7.72 220 15:54 11.01.2021
208 Drizzle 3 1012 93 8000 7.72 220 15:34 11.01.2021
209 Drizzle 3 1012 93 3000 8.23 220 14:58 11.01.2021
210 Rain 3 1012 93 3000 8.23 220 14:36 11.01.2021
211 Drizzle 3 1013 93 3800 6.69 220 13:48 11.01.2021
212 Mist 3 1014 93 5000 7.72 220 13:23 11.01.2021
213 Clouds 3 1015 87 6000 7.2 220 12:44 11.01.2021
214 Mist 2 1015 93 3800 7.2 220 12:26 11.01.2021
215 Clouds 2 1015 93 7000 8.23 220 11:48 11.01.2021
216 Rain 2 1015 93 6000 7.72 220 11:18 11.01.2021
217 Mist 2 1015 93 5000 7.72 220 10:42 11.01.2021
218 Clouds 2 1016 93 5000 7.72 220 10:23 11.01.2021
219 Clouds 3 1016 93 5000 7.72 230 09:37 11.01.2021
220 Drizzle 3 1016 93 4000 7.2 220 09:19 11.01.2021
221 Clouds 3 1016 93 3500 7.2 220 08:43 11.01.2021
222 Clouds 3 1016 93 7000 6.69 220 07:58 11.01.2021
223 Clouds 3 1017 93 6000 6.69 230 07:25 11.01.2021
224 Rain 3 1017 93 4500 6.17 220 06:57 11.01.2021
225 Mist 3 1018 93 4000 6.17 230 03:22 11.01.2021
226 Clouds 3 1019 93 7000 5.66 230 01:29 11.01.2021
227 Clouds 3 1020 93 6000 6.17 240 23:53 10.01.2021
228 Clouds 3 1020 93 6000 5.66 240 23:30 10.01.2021
229 Clouds 3 1020 93 6000 6.17 230 22:48 10.01.2021
230 Clouds 3 1020 93 7000 6.69 240 22:23 10.01.2021
231 Drizzle 3 1020 93 10000 5.66 240 21:44 10.01.2021
232 Clouds 3 1020 93 10000 6.17 240 21:20 10.01.2021
233 Clouds 3 1020 93 10000 5.66 240 20:53 10.01.2021
234 Clouds 3 1020 93 10000 5.66 240 20:32 10.01.2021
235 Clouds 3 1020 87 10000 5.14 230 19:43 10.01.2021
236 Clouds 3 1020 87 10000 5.66 230 19:25 10.01.2021
237 Clouds 3 1020 81 10000 5.14 230 18:49 10.01.2021
238 Clouds 3 1021 81 10000 4.63 230 18:21 10.01.2021
239 Clouds 3 1021 81 10000 4.63 220 17:41 10.01.2021
240 Clouds 4 1021 81 10000 4.63 230 17:20 10.01.2021
241 Clouds 4 1021 81 10000 4.12 230 16:33 10.01.2021
242 Clouds 4 1021 81 10000 4.12 230 16:33 10.01.2021
243 Clouds 4 1021 75 10000 5.14 230 15:57 10.01.2021
244 Clouds 4 1021 81 10000 5.66 230 15:25 10.01.2021
245 Clouds 4 1021 81 10000 5.14 230 14:50 10.01.2021
246 Clouds 4 1021 81 10000 5.14 230 14:32 10.01.2021
247 Clouds 4 1022 81 10000 3.6 220 13:55 10.01.2021
248 Clouds 4 1022 81 10000 3.6 220 13:37 10.01.2021
249 Clouds 3 1022 87 10000 3.6 220 13:18 10.01.2021
250 Clouds 3 1023 87 9000 4.63 220 12:50 10.01.2021
251 Clouds 3 1023 87 8000 4.63 220 12:31 10.01.2021
252 Clouds 2 1023 93 7000 5.14 230 11:44 10.01.2021
253 Clouds 2 1023 93 6000 6.17 220 11:19 10.01.2021
254 Clouds 2 1023 87 6000 4.12 210 10:42 10.01.2021
255 Clouds 1 1023 93 6000 2.57 200 10:21 10.01.2021
256 Clouds 1 1023 93 6000 2.57 190 09:28 10.01.2021
257 Clouds 1 1023 93 8000 2.57 200 08:22 10.01.2021
258 Clouds 1 1023 93 8000 2.06 200 07:33 10.01.2021
259 Clouds 1 1023 93 10000 2.57 220 06:20 10.01.2021
260 Clouds 1 1023 86 10000 2.06 200 05:38 10.01.2021
261 Clouds 0 1024 93 7000 2.57 160 03:56 10.01.2021
262 Mist 0 1024 93 1200 2.06 250 01:30 10.01.2021
263 Mist 0 1024 93 4500 1.03 0 23:58 09.01.2021
264 Mist 0 1024 93 4500 1.03 0 23:40 09.01.2021
265 Clouds 0 1024 86 10000 1.54 140 22:57 09.01.2021
266 Clouds 0 1024 86 10000 1.54 130 22:19 09.01.2021
267 Clouds 0 1024 86 10000 1.54 120 21:58 09.01.2021
268 Clouds 0 1024 86 10000 1.54 120 21:39 09.01.2021
269 Clouds 0 1024 86 10000 1.54 120 21:39 09.01.2021
270 Clouds 0 1024 86 10000 1.54 120 21:20 09.01.2021
271 Clouds 0 1024 86 10000 1.54 100 20:47 09.01.2021
272 Clouds 0 1023 86 10000 1.54 90 20:28 09.01.2021
273 Clouds 1 1023 80 10000 1.03 100 19:39 09.01.2021
274 Clouds 1 1023 93 10000 1.54 90 19:20 09.01.2021
275 Clouds 1 1023 80 10000 1.54 320 18:37 09.01.2021
276 Clouds 1 1023 80 10000 1.54 150 17:53 09.01.2021
277 Clouds 1 1023 80 10000 1.54 150 17:33 09.01.2021
278 Clouds 2 1023 80 10000 0.51 0 16:57 09.01.2021
279 Clouds 2 1022 75 10000 1.03 130 16:23 09.01.2021
280 Clouds 2 1022 80 10000 1.54 310 15:41 09.01.2021
281 Clouds 2 1022 80 10000 1.54 320 15:22 09.01.2021
282 Clouds 2 1022 75 10000 2.06 340 14:37 09.01.2021
283 Clouds 2 1022 75 10000 3.6 310 14:19 09.01.2021
284 Clouds 2 1022 80 10000 2.06 320 13:45 09.01.2021
285 Clouds 2 1022 80 10000 2.57 310 13:27 09.01.2021
286 Clouds 2 1022 80 10000 2.57 310 12:46 09.01.2021
287 Clouds 2 1022 80 10000 2.57 300 12:21 09.01.2021
288 Clouds 1 1022 80 10000 1.54 310 11:41 09.01.2021
289 Clouds 1 1022 80 10000 1.03 0 11:23 09.01.2021
290 Clouds 0 1022 80 10000 1.03 0 10:50 09.01.2021
291 Clouds 0 1022 86 10000 3.09 320 10:26 09.01.2021
292 Clouds 0 1022 86 10000 3.09 310 09:46 09.01.2021
293 Clouds 0 1021 93 10000 3.09 300 09:21 09.01.2021
294 Clouds 1 1021 86 10000 2.06 310 08:26 09.01.2021
295 Clouds 1 1020 93 10000 3.09 300 06:56 09.01.2021
296 Clouds 1 1020 93 10000 3.09 300 06:38 09.01.2021
297 Clouds 0 1020 93 10000 1.54 260 04:43 09.01.2021
298 Clouds 0 1019 93 10000 2.57 290 03:20 09.01.2021
299 Clouds 1 1019 86 10000 1.54 290 02:29 09.01.2021
300 Clouds 1 1019 86 10000 3.09 320 01:44 09.01.2021
301 Clouds 1 1019 80 10000 3.09 340 00:34 09.01.2021
302 Clouds 1 1018 80 10000 3.6 340 23:50 08.01.2021
303 Clouds 1 1018 80 10000 3.6 330 22:56 08.01.2021
304 Clouds 0 1018 86 10000 4.63 350 22:18 08.01.2021
305 Clouds 1 1017 80 10000 3.6 330 21:35 08.01.2021
306 Clouds 1 1017 80 10000 3.6 340 20:42 08.01.2021
307 Clouds 1 1017 80 10000 2.57 330 20:23 08.01.2021
308 Clouds 1 1016 80 10000 3.09 340 19:44 08.01.2021
309 Clouds 1 1016 80 10000 3.09 330 19:22 08.01.2021
310 Clouds 1 1016 86 10000 3.09 330 18:35 08.01.2021
311 Clouds 1 1016 80 10000 3.6 330 17:57 08.01.2021
312 Clouds 2 1016 80 10000 3.6 330 17:35 08.01.2021
313 Clouds 2 1015 87 10000 3.09 320 16:56 08.01.2021
314 Clouds 2 1014 87 10000 4.12 330 16:26 08.01.2021
315 Clouds 2 1014 87 10000 4.12 330 16:26 08.01.2021
316 Clouds 2 1014 87 10000 3.09 320 15:40 08.01.2021
317 Clouds 2 1014 87 10000 3.6 330 14:51 08.01.2021
318 Clouds 2 1014 87 10000 3.6 330 14:32 08.01.2021
319 Snow 2 1014 93 8000 2.57 310 13:39 08.01.2021
320 Snow 2 1014 93 5000 3.09 300 13:18 08.01.2021
321 Snow 1 1014 93 5000 3.09 300 13:18 08.01.2021
322 Snow 2 1013 93 4500 2.57 290 12:42 08.01.2021
323 Snow 2 1013 93 6000 3.09 300 12:19 08.01.2021
324 Snow 1 1013 100 10000 2.57 290 11:42 08.01.2021
325 Snow 1 1013 93 9000 2.06 300 11:22 08.01.2021
326 Snow 1 1013 93 9000 2.57 290 10:48 08.01.2021
327 Clouds 1 1013 93 9000 2.06 310 10:26 08.01.2021
328 Clouds 1 1013 93 8000 3.09 330 09:44 08.01.2021
329 Clouds 1 1012 93 8000 2.57 330 09:25 08.01.2021
330 Snow 1 1011 93 8000 3.6 350 08:23 08.01.2021
331 Snow 1 1011 93 6000 3.6 10 07:25 08.01.2021
332 Snow 1 1010 93 9000 3.6 360 05:43 08.01.2021
333 Snow 2 1010 100 6000 1.54 250 23:46 07.01.2021
334 Snow 2 1010 100 5000 1.54 250 23:28 07.01.2021
335 Snow 2 1010 100 5000 1.54 240 22:45 07.01.2021
336 Snow 2 1009 100 5000 1.54 240 22:25 07.01.2021
337 Snow 2 1009 100 5000 1.54 240 22:25 07.01.2021
338 Snow 1 1010 100 5000 1.54 250 21:44 07.01.2021
339 Snow 2 1009 93 5000 2.06 240 21:26 07.01.2021
340 Snow 1 1009 93 6000 2.06 250 20:47 07.01.2021
341 Snow 1 1009 93 6000 2.06 250 20:47 07.01.2021
342 Snow 1 1009 93 6000 2.06 250 20:28 07.01.2021
343 Snow 1 1009 93 8000 1.54 240 19:44 07.01.2021
344 Snow 1 1009 93 8000 2.06 240 19:21 07.01.2021
345 Snow 1 1009 93 10000 1.54 240 18:30 07.01.2021
346 Snow 1 1009 93 10000 1.54 240 18:30 07.01.2021
347 Snow 1 1009 93 10000 2.06 250 17:56 07.01.2021
348 Snow 1 1009 100 10000 2.06 250 17:28 07.01.2021
349 Snow 2 1009 100 8000 2.06 250 16:53 07.01.2021
350 Snow 2 1009 100 8000 2.06 250 16:28 07.01.2021
351 Snow 2 1009 100 5000 2.57 240 15:41 07.01.2021
352 Snow 1 1009 100 5000 3.09 250 15:22 07.01.2021
353 Snow 1 1009 100 5000 3.09 250 14:27 07.01.2021
354 Snow 2 1009 93 6000 2.57 240 13:47 07.01.2021
355 Snow 1 1010 93 6000 3.09 250 13:18 07.01.2021
356 Snow 1 1010 97 6000 3.1 250 12:47 07.01.2021
357 Snow 1 1010 97 6000 3.1 250 11:57 07.01.2021
358 Snow 1 1010 97 6000 2.6 250 11:38 07.01.2021
359 Snow 1 1010 97 3000 2.6 250 10:51 07.01.2021
360 Snow 1 1010 97 2000 3.1 260 10:33 07.01.2021
361 Snow 0 1010 97 2800 3.1 250 09:48 07.01.2021
362 Snow 0 1010 97 2500 3.1 260 09:22 07.01.2021
363 Snow 0 1010 97 4500 3.6 260 08:30 07.01.2021
364 Snow 0 1010 97 4000 3.6 260 07:54 07.01.2021
365 Snow 0 1010 97 5000 3.6 260 07:35 07.01.2021
366 Snow 0 1010 98 3500 3.6 270 05:44 07.01.2021
367 Snow 0 1011 97 4000 3.6 280 00:59 07.01.2021
368 Snow 0 1011 97 5000 3.6 270 23:52 06.01.2021
369 Snow 0 1011 97 10000 3.6 280 22:50 06.01.2021
370 Snow 0 1012 98 5000 3.1 280 22:20 06.01.2021
371 Snow 0 1012 98 7000 3.1 290 21:41 06.01.2021
372 Snow 0 1012 98 7000 3.1 290 21:22 06.01.2021
373 Snow 0 1012 98 7000 3.1 290 20:42 06.01.2021
374 Snow 0 1012 97 5000 3.1 300 20:22 06.01.2021
375 Snow 0 1012 97 4500 3.1 300 19:42 06.01.2021
376 Snow 0 1012 98 4500 3.1 300 19:24 06.01.2021
377 Snow 0 1012 97 2500 3.1 290 18:45 06.01.2021
378 Snow 0 1013 97 2500 3.1 300 18:27 06.01.2021
379 Snow 0 1013 97 3200 2.6 290 17:45 06.01.2021
380 Snow 0 1013 97 3200 2.6 290 17:26 06.01.2021
381 Snow 1 1013 97 2400 3.1 300 16:56 06.01.2021
382 Snow 1 1013 97 3800 3.1 300 16:21 06.01.2021
383 Snow 1 1013 97 3800 3.1 300 15:58 06.01.2021
384 Snow 1 1013 97 6000 4.1 300 15:35 06.01.2021
385 Snow 2 1013 96 7000 3.6 310 14:58 06.01.2021
386 Snow 2 1013 97 7000 3.1 320 14:30 06.01.2021
387 Snow 2 1014 96 7000 3.6 330 13:52 06.01.2021
388 Snow 2 1014 96 8000 3.1 330 13:26 06.01.2021
389 Snow 2 1015 80 10000 4.1 340 12:55 06.01.2021
390 Snow 2 1015 80 10000 4.1 340 12:30 06.01.2021
391 Snow 2 1015 80 10000 3.6 340 11:44 06.01.2021
392 Snow 2 1015 80 10000 3.6 340 11:21 06.01.2021
393 Snow 2 1016 80 9000 3.6 340 10:39 06.01.2021
394 Snow 2 1016 80 10000 3.1 340 09:52 06.01.2021
395 Clouds 2 1016 80 10000 3.1 360 09:31 06.01.2021
396 Clouds 2 1016 80 10000 3.1 360 08:52 06.01.2021
397 Clouds 2 1016 80 10000 2.6 10 08:19 06.01.2021
398 Clouds 2 1016 80 10000 2.6 10 07:51 06.01.2021
399 Clouds 2 1016 80 10000 5.1 20 06:44 06.01.2021
400 Clouds 2 1017 92 10000 4.6 20 05:28 06.01.2021
401 Clouds 2 1018 88 10000 4.6 20 03:21 06.01.2021
402 Clouds 2 1018 88 10000 4.6 30 02:42 06.01.2021
403 Clouds 2 1018 91 10000 4.6 30 02:20 06.01.2021
404 Clouds 3 1018 86 10000 4.6 30 23:51 05.01.2021
405 Clouds 3 1019 86 10000 5.7 30 22:57 05.01.2021
406 Clouds 3 1019 86 10000 5.7 30 22:38 05.01.2021
407 Clouds 3 1019 86 10000 5.7 40 22:19 05.01.2021
408 Clouds 3 1019 86 10000 6.2 40 21:34 05.01.2021
409 Clouds 3 1019 86 10000 6.2 30 20:31 05.01.2021
410 Clouds 3 1018 93 10000 5.7 40 19:59 05.01.2021
411 Clouds 3 1018 93 10000 5.1 40 19:40 05.01.2021
412 Clouds 3 1018 93 10000 5.1 40 19:21 05.01.2021
413 Clouds 3 1018 93 10000 4.6 40 18:42 05.01.2021
414 Clouds 3 1018 93 10000 4.6 40 18:21 05.01.2021
415 Clouds 3 1018 93 10000 4.6 30 17:47 05.01.2021
416 Clouds 3 1018 93 10000 4.6 30 17:26 05.01.2021
417 Clouds 3 1018 86 10000 4.1 30 16:51 05.01.2021
418 Rain 3 1018 86 10000 4.1 30 16:21 05.01.2021
419 Rain 3 1018 86 10000 3.6 40 15:50 05.01.2021
420 Clouds 3 1018 93 10000 4.1 60 14:50 05.01.2021
421 Clouds 3 1018 93 10000 4.1 60 14:26 05.01.2021
422 Clouds 3 1018 86 10000 5.7 60 13:46 05.01.2021
423 Clouds 3 1018 86 10000 5.7 60 13:23 05.01.2021
424 Clouds 3 1019 86 10000 3.6 60 12:48 05.01.2021
425 Clouds 3 1019 86 10000 4.6 60 12:24 05.01.2021
426 Clouds 3 1019 86 10000 5.7 70 11:39 05.01.2021
427 Clouds 3 1019 93 10000 4.6 60 10:56 05.01.2021
428 Clouds 3 1019 93 10000 5.1 70 10:37 05.01.2021
429 Rain 3 1019 93 10000 4.6 70 09:50 05.01.2021
430 Rain 3 1019 93 10000 3.6 70 09:30 05.01.2021
431 Rain 2 1018 100 9000 4.6 70 08:28 05.01.2021
432 Clouds 2 1018 100 10000 4.6 60 07:50 05.01.2021
433 Rain 2 1018 100 10000 4.1 50 04:59 05.01.2021
434 Clouds 2 1018 100 10000 3.6 60 01:31 05.01.2021
435 Clouds 2 1018 93 10000 3.6 60 00:22 05.01.2021
436 Clouds 2 1018 93 10000 4.6 50 23:39 04.01.2021
437 Clouds 2 1018 93 10000 4.6 60 23:19 04.01.2021
438 Rain 2 1018 93 10000 4.1 50 22:42 04.01.2021
439 Rain 2 1018 93 10000 5.1 40 21:57 04.01.2021
440 Rain 2 1018 93 10000 6.2 40 21:38 04.01.2021
441 Rain 2 1018 93 10000 5.7 30 20:58 04.01.2021
442 Rain 2 1018 93 10000 5.1 30 20:34 04.01.2021
443 Rain 2 1018 93 10000 5.1 30 19:59 04.01.2021
444 Rain 2 1018 93 10000 5.1 40 19:38 04.01.2021
445 Rain 2 1018 93 10000 5.7 30 19:18 04.01.2021
446 Rain 2 1018 93 10000 5.7 30 18:40 04.01.2021
447 Rain 2 1018 86 10000 6.2 40 17:47 04.01.2021
448 Rain 3 1018 86 10000 6.2 40 17:28 04.01.2021
449 Rain 3 1018 86 10000 6.2 40 16:57 04.01.2021
450 Rain 3 1018 86 10000 5.7 30 16:38 04.01.2021
451 Rain 3 1018 86 10000 5.7 30 16:20 04.01.2021
452 Rain 3 1018 86 10000 5.7 30 15:41 04.01.2021
453 Rain 3 1018 86 10000 5.7 30 14:55 04.01.2021
454 Rain 3 1018 86 10000 6.7 30 13:57 04.01.2021
455 Rain 3 1018 86 10000 6.7 30 13:35 04.01.2021
456 Rain 3 1019 86 10000 7.2 30 12:53 04.01.2021
457 Rain 3 1019 89 10000 6.2 30 12:27 04.01.2021
458 Clouds 3 1019 89 10000 7.2 40 11:41 04.01.2021
459 Clouds 3 1019 86 10000 7.2 40 11:18 04.01.2021
460 Clouds 3 1019 86 10000 6.2 30 10:44 04.01.2021
461 Clouds 3 1019 86 10000 6.2 30 10:22 04.01.2021
462 Clouds 3 1019 86 10000 6.2 30 09:44 04.01.2021
463 Clouds 3 1019 86 10000 7.2 30 09:18 04.01.2021
464 Clouds 3 1018 86 10000 6.7 30 08:23 04.01.2021
465 Clouds 3 1018 87 10000 6.7 50 07:47 04.01.2021
466 Clouds 4 1018 92 10000 7.2 60 06:40 04.01.2021
467 Clouds 4 1018 93 10000 8.2 60 05:20 04.01.2021
468 Rain 3 1018 86 10000 6.2 50 02:27 04.01.2021
469 Clouds 3 1018 86 10000 6.7 50 00:29 04.01.2021
470 Clouds 4 1018 80 10000 6.7 60 23:38 03.01.2021
471 Clouds 4 1018 80 10000 7.2 50 23:19 03.01.2021
472 Clouds 3 1018 86 10000 6.7 50 22:42 03.01.2021
473 Clouds 3 1018 86 10000 6.7 50 22:23 03.01.2021
474 Clouds 3 1017 86 10000 6.7 50 21:46 03.01.2021
475 Clouds 3 1017 86 10000 6.7 50 21:24 03.01.2021
476 Clouds 3 1017 86 10000 6.2 50 20:42 03.01.2021
477 Clouds 3 1017 86 10000 6.2 50 20:23 03.01.2021
478 Clouds 3 1017 86 10000 6.7 40 19:54 03.01.2021
479 Rain 3 1017 86 10000 6.2 40 19:34 03.01.2021
480 Rain 3 1017 86 10000 8.2 40 18:52 03.01.2021
481 Clouds 3 1017 86 10000 7.2 40 18:34 03.01.2021
482 Rain 3 1017 86 10000 6.2 30 17:57 03.01.2021
483 Clouds 3 1017 86 10000 6.2 30 17:38 03.01.2021
484 Clouds 4 1016 80 10000 5.7 30 17:18 03.01.2021
485 Clouds 4 1016 80 10000 5.1 30 16:41 03.01.2021
486 Clouds 4 1017 80 10000 5.7 30 16:19 03.01.2021
487 Clouds 4 1017 80 10000 5.7 30 15:45 03.01.2021
488 Clouds 4 1017 80 10000 4.6 40 15:23 03.01.2021
489 Clouds 3 1017 86 10000 6.2 40 14:45 03.01.2021
490 Clouds 4 1017 80 10000 5.7 30 14:24 03.01.2021
491 Clouds 4 1017 80 10000 6.2 30 13:39 03.01.2021
492 Clouds 4 1017 80 10000 6.2 30 13:21 03.01.2021
493 Clouds 4 1017 78 10000 5.7 40 12:24 03.01.2021
494 Clouds 3 1018 93 10000 4.1 30 11:40 03.01.2021
495 Clouds 3 1017 86 10000 5.7 20 11:22 03.01.2021
496 Clouds 3 1017 86 10000 4.6 30 10:34 03.01.2021
497 Clouds 3 1017 86 10000 4.6 40 09:55 03.01.2021
498 Clouds 3 1017 86 10000 4.6 40 09:33 03.01.2021
499 Clouds 2 1017 86 9000 4.1 50 08:57 03.01.2021
500 Clouds 3 1017 93 10000 3.1 50 07:26 03.01.2021
501 Clouds 3 1016 93 8000 3.6 70 05:42 03.01.2021
502 Mist 3 1016 100 5000 2.6 80 02:27 03.01.2021
503 Mist 3 1016 100 5000 2.6 80 02:27 03.01.2021
504 Mist 3 1016 100 4000 2.1 70 00:56 03.01.2021
505 Mist 3 1016 100 4200 1.5 90 23:54 02.01.2021
506 Mist 3 1015 100 5000 1.5 80 23:26 02.01.2021
507 Mist 3 1015 100 5000 1.5 80 22:50 02.01.2021
508 Mist 3 1015 93 4800 1.5 80 22:31 02.01.2021
509 Clouds 3 1015 100 6000 1.5 70 21:49 02.01.2021
510 Clouds 3 1015 100 6000 1.5 70 21:30 02.01.2021
511 Clouds 4 1015 93 6000 1 120 20:49 02.01.2021
512 Clouds 4 1015 93 6000 1 120 20:27 02.01.2021
513 Clouds 4 1015 93 10000 1 130 19:50 02.01.2021
514 Clouds 4 1015 93 10000 1.5 140 19:20 02.01.2021
515 Clouds 4 1014 93 8000 1.5 150 18:53 02.01.2021
516 Clouds 4 1014 93 8000 0.5 190 18:33 02.01.2021
517 Clouds 4 1014 93 8000 1 170 17:57 02.01.2021
518 Clouds 4 1014 93 8000 1 170 17:38 02.01.2021
519 Clouds 4 1014 93 8000 2.1 220 16:49 02.01.2021
520 Clouds 4 1014 93 8000 2.1 220 16:23 02.01.2021
521 Clouds 4 1013 93 10000 2.6 230 15:51 02.01.2021
522 Clouds 4 1013 93 10000 2.1 220 15:28 02.01.2021
523 Clouds 4 1013 93 9000 2.1 220 14:54 02.01.2021
524 Clouds 4 1013 93 9000 2.6 230 14:34 02.01.2021
525 Clouds 4 1013 93 8000 3.6 230 13:44 02.01.2021
526 Clouds 4 1013 93 7000 3.6 220 13:18 02.01.2021
527 Clouds 4 1013 93 7000 3.1 220 12:43 02.01.2021
528 Clouds 4 1013 93 7000 3.1 220 12:24 02.01.2021
529 Clouds 4 1013 93 7000 3.1 220 11:43 02.01.2021
530 Clouds 4 1013 93 7000 3.1 230 11:21 02.01.2021
531 Clouds 4 1012 93 6000 3.1 210 10:42 02.01.2021
532 Clouds 4 1012 93 6000 3.1 210 10:24 02.01.2021
533 Clouds 4 1012 93 7000 2.1 200 09:43 02.01.2021
534 Clouds 4 1012 93 7000 2.1 200 09:22 02.01.2021
535 Clouds 4 1012 93 7000 3.1 230 08:49 02.01.2021
536 Clouds 4 1011 93 7000 4.1 220 08:21 02.01.2021
537 Clouds 3 1011 100 6000 3.6 230 07:43 02.01.2021
538 Clouds 3 1011 100 6000 3.6 230 07:20 02.01.2021
539 Clouds 3 1011 100 6000 3.1 220 06:28 02.01.2021
540 Clouds 3 1010 86 9000 4.6 220 04:44 02.01.2021
541 Clouds 4 1010 93 7000 2.6 240 00:56 02.01.2021
542 Clouds 4 1010 93 7000 3.1 230 00:35 02.01.2021
543 Clouds 4 1009 93 7000 3.6 220 23:51 01.01.2021
544 Clouds 4 1009 93 6000 4.1 220 23:20 01.01.2021
545 Mist 4 1009 100 5000 3.6 230 22:47 01.01.2021
546 Mist 3 1009 100 5000 3.6 230 22:24 01.01.2021
547 Mist 3 1009 93 5000 3.6 230 21:44 01.01.2021
548 Mist 3 1009 93 5000 3.6 230 21:22 01.01.2021
549 Mist 4 1008 93 5000 3.6 230 20:53 01.01.2021
550 Mist 3 1008 100 5000 3.6 220 20:22 01.01.2021
551 Mist 3 1008 100 5000 3.6 220 19:59 01.01.2021
552 Mist 3 1008 93 5000 3.6 220 19:40 01.01.2021
553 Mist 3 1008 93 5000 3.1 220 19:20 01.01.2021
554 Clouds 3 1007 93 6000 2.6 220 18:41 01.01.2021
555 Clouds 3 1007 93 6000 2.6 220 18:22 01.01.2021
556 Clouds 3 1007 93 10000 2.6 210 17:43 01.01.2021
557 Clouds 3 1007 93 10000 2.6 210 17:23 01.01.2021
558 Clouds 4 1007 93 10000 3.6 220 16:45 01.01.2021
559 Clouds 4 1007 86 10000 3.6 230 15:57 01.01.2021
560 Clouds 4 1006 86 10000 4.6 230 15:39 01.01.2021
561 Clouds 5 1006 86 10000 2.6 210 14:44 01.01.2021
562 Clouds 5 1006 86 10000 2.6 210 14:25 01.01.2021
563 Clouds 5 1006 86 10000 3.6 220 13:38 01.01.2021
564 Clouds 4 1006 93 10000 2.6 240 12:51 01.01.2021
565 Clouds 3 1006 93 10000 2.6 240 12:27 01.01.2021
566 Clouds 3 1006 93 8000 3.6 230 11:42 01.01.2021
567 Clouds 3 1006 93 8000 3.6 230 11:19 01.01.2021
568 Clouds 2 1006 93 7000 2.1 210 10:56 01.01.2021
569 Clouds 2 1006 93 6000 1 210 10:28 01.01.2021
570 Clouds 2 1006 90 6000 1 220 09:31 01.01.2021
571 Clouds 1 1005 90 6000 1.5 220 08:49 01.01.2021
572 Clouds 1 1005 89 6000 1.5 240 08:25 01.01.2021
573 Clouds 2 1004 100 10000 2.1 230 04:51 01.01.2021
574 Rain 2 1004 93 10000 1.5 220 02:25 01.01.2021
575 Clouds 2 1004 100 10000 2.1 210 00:37 01.01.2021
576 Clouds 2 1004 100 9000 2.1 200 23:56 31.12.2020
577 Clouds 2 1004 93 10000 2.6 190 23:22 31.12.2020
578 Clouds 1 1004 93 10000 2.6 190 22:56 31.12.2020
579 Clouds 1 1004 100 10000 1.5 210 22:37 31.12.2020
580 Clouds 1 1003 100 10000 2.1 190 22:19 31.12.2020
581 Clouds 1 1003 91 10000 2.6 190 21:44 31.12.2020
582 Clouds 1 1003 92 10000 2.6 190 21:21 31.12.2020
583 Clouds 1 1003 100 10000 2.6 210 20:47 31.12.2020
584 Clouds 2 1003 93 10000 1.5 210 20:18 31.12.2020
585 Clouds 2 1003 93 10000 1.5 200 19:45 31.12.2020
586 Clouds 2 1003 93 10000 1.5 200 19:24 31.12.2020
587 Clouds 3 1003 93 10000 1.5 210 18:42 31.12.2020
588 Clouds 3 1003 93 10000 1.5 260 18:23 31.12.2020
589 Clouds 3 1003 93 10000 1.5 200 17:44 31.12.2020
590 Clouds 3 1003 93 10000 1.5 200 17:22 31.12.2020
591 Clouds 3 1002 93 10000 2.6 190 16:43 31.12.2020
592 Clouds 3 1002 93 10000 2.6 190 16:22 31.12.2020
593 Clouds 3 1002 93 10000 2.6 200 15:46 31.12.2020
594 Clouds 4 1002 93 10000 2.6 200 15:22 31.12.2020
595 Clouds 4 1002 93 10000 2.6 200 15:22 31.12.2020
596 Clouds 4 1002 93 10000 2.6 210 14:57 31.12.2020
597 Clouds 4 1002 93 10000 2.6 210 14:39 31.12.2020
598 Clouds 4 1002 93 10000 2.6 210 14:21 31.12.2020
599 Clouds 4 1002 86 10000 3.6 210 13:39 31.12.2020
600 Clouds 4 1002 86 10000 3.6 210 13:39 31.12.2020
601 Clouds 4 1002 86 10000 3.6 210 13:21 31.12.2020
602 Clouds 3 1002 93 10000 3.1 200 12:54 31.12.2020
603 Clouds 3 1002 93 10000 3.6 200 12:35 31.12.2020
604 Clouds 3 1002 93 10000 4.6 190 11:52 31.12.2020
605 Clouds 3 1002 93 10000 4.1 190 11:32 31.12.2020
606 Clouds 3 1002 93 10000 4.1 190 11:32 31.12.2020
607 Clouds 3 1002 93 10000 4.1 190 11:32 31.12.2020
608 Clouds 3 1002 93 10000 3.6 200 10:50 31.12.2020
609 Clouds 3 1002 93 10000 3.6 200 10:30 31.12.2020
610 Clouds 3 1002 93 10000 3.6 200 09:58 31.12.2020
611 Clouds 3 1002 93 9000 3.6 200 09:38 31.12.2020
612 Clouds 3 1002 93 8000 3.1 200 09:18 31.12.2020
613 Clouds 3 1002 93 10000 3.1 200 08:45 31.12.2020
614 Clouds 3 1002 93 10000 3.1 200 08:27 31.12.2020
615 Clouds 3 1002 93 7000 3.1 190 07:33 31.12.2020
616 Clouds 3 1001 86 10000 4.1 200 06:46 31.12.2020
617 Clouds 2 1002 93 10000 3.1 200 05:29 31.12.2020
618 Clouds 3 1002 86 10000 3.6 210 02:59 31.12.2020
619 Clouds 3 1002 93 10000 4.6 220 02:26 31.12.2020
620 Clouds 3 1002 86 10000 5.1 230 01:49 31.12.2020
621 Clouds 3 1002 86 10000 5.1 230 01:31 31.12.2020
622 Clouds 4 1002 86 10000 5.7 230 00:51 31.12.2020
623 Clouds 5 1002 86 10000 6.7 230 23:55 30.12.2020
624 Clouds 5 1001 86 10000 5.7 230 23:20 30.12.2020
625 Clouds 5 1001 86 10000 5.1 230 22:52 30.12.2020
626 Clouds 5 1001 86 10000 4.6 220 22:32 30.12.2020
627 Clouds 4 1001 86 10000 3.6 210 21:49 30.12.2020
628 Clouds 4 1001 86 10000 3.6 210 21:25 30.12.2020
629 Clouds 4 1001 86 10000 4.1 210 20:52 30.12.2020
630 Clouds 4 1001 86 10000 5.1 230 20:25 30.12.2020
631 Clouds 4 1000 93 10000 5.7 220 19:58 30.12.2020
632 Clouds 4 1000 93 10000 5.1 230 19:36 30.12.2020
633 Clouds 4 1000 86 10000 5.1 220 19:18 30.12.2020
634 Clouds 4 1000 86 10000 6.2 220 18:38 30.12.2020
635 Clouds 4 1000 86 10000 5.7 220 18:19 30.12.2020
636 Clouds 4 1000 86 10000 6.2 230 17:42 30.12.2020
637 Clouds 4 1000 86 10000 6.2 230 17:22 30.12.2020
638 Clouds 4 999 93 10000 6.2 220 16:43 30.12.2020
639 Clouds 4 999 93 10000 6.2 230 15:51 30.12.2020
640 Clouds 4 999 93 10000 6.2 230 15:51 30.12.2020
641 Clouds 4 999 93 10000 5.7 230 15:30 30.12.2020
642 Clouds 4 998 93 10000 4.6 230 14:58 30.12.2020
643 Clouds 4 998 93 10000 5.7 220 14:39 30.12.2020
644 Clouds 4 998 93 10000 5.7 220 14:18 30.12.2020
645 Drizzle 4 998 93 10000 6.2 230 13:19 30.12.2020
646 Drizzle 4 998 86 8000 5.7 220 12:26 30.12.2020
647 Drizzle 3 998 93 8000 6.2 210 11:45 30.12.2020
648 Drizzle 3 998 93 8000 6.2 210 11:22 30.12.2020
649 Drizzle 3 998 93 9000 6.2 230 10:58 30.12.2020
650 Clouds 3 997 86 10000 5.1 210 10:38 30.12.2020
651 Clouds 3 997 86 10000 5.1 220 10:18 30.12.2020
652 Clouds 3 997 86 10000 5.7 220 09:42 30.12.2020
653 Clouds 3 996 93 10000 4.6 210 08:49 30.12.2020
654 Clouds 3 996 93 10000 5.7 220 07:53 30.12.2020
655 Clouds 3 996 93 10000 6.2 230 07:27 30.12.2020
656 Clouds 4 995 86 10000 6.2 220 06:40 30.12.2020
657 Clouds 4 995 86 10000 5.1 210 05:49 30.12.2020
658 Clouds 4 995 86 10000 4.6 210 05:30 30.12.2020
659 Clouds 4 994 86 8000 7.2 220 03:43 30.12.2020
660 Clouds 4 994 93 10000 5.7 210 03:23 30.12.2020
661 Clouds 4 994 93 7000 4.6 210 02:35 30.12.2020
662 Clouds 4 993 93 9000 4.6 210 01:47 30.12.2020
663 Clouds 4 993 93 10000 5.1 210 01:29 30.12.2020
664 Clouds 4 993 93 10000 5.1 210 00:45 30.12.2020
665 Clouds 4 993 93 10000 5.1 210 00:26 30.12.2020
666 Clouds 4 992 93 10000 5.1 220 23:50 29.12.2020
667 Clouds 4 992 93 10000 5.1 220 23:32 29.12.2020
668 Clouds 4 992 93 10000 4.1 200 22:49 29.12.2020
669 Clouds 3 992 100 10000 3.1 220 22:31 29.12.2020
670 Clouds 3 992 93 8000 4.6 230 21:56 29.12.2020
671 Clouds 3 991 93 9000 4.6 240 21:37 29.12.2020
672 Rain 3 991 93 10000 4.6 240 21:19 29.12.2020
673 Clouds 2 991 93 10000 4.6 240 20:42 29.12.2020
674 Clouds 2 991 93 10000 4.6 240 20:22 29.12.2020
675 Clouds 2 990 93 10000 4.6 250 19:45 29.12.2020
676 Clouds 2 990 93 10000 4.6 250 19:45 29.12.2020
677 Rain 2 990 93 10000 4.6 250 19:21 29.12.2020
678 Rain 2 990 93 10000 4.6 250 18:53 29.12.2020
679 Rain 2 989 93 10000 5.7 260 18:28 29.12.2020
680 Rain 3 988 100 8000 3.6 270 17:47 29.12.2020
681 Rain 3 988 100 8000 3.6 270 17:23 29.12.2020
682 Clouds 3 988 93 7000 4.1 250 16:56 29.12.2020
683 Clouds 3 987 93 4500 3.6 250 16:27 29.12.2020
684 Clouds 4 987 93 7000 5.7 220 15:52 29.12.2020
685 Clouds 4 986 86 10000 5.1 210 15:33 29.12.2020
686 Clouds 4 985 93 10000 4.6 230 14:46 29.12.2020
687 Clouds 4 985 93 10000 4.6 230 14:28 29.12.2020
688 Clouds 4 985 93 10000 5.7 220 13:59 29.12.2020
689 Clouds 4 985 93 10000 4.6 220 13:26 29.12.2020
690 Clouds 4 985 86 10000 5.7 220 12:59 29.12.2020
691 Clouds 4 985 86 10000 4.6 200 12:36 29.12.2020
692 Clouds 4 984 86 10000 4.6 190 12:18 29.12.2020
693 Clouds 3 984 93 10000 3.1 190 11:49 29.12.2020
694 Clouds 3 984 93 10000 3.1 190 11:27 29.12.2020
695 Clouds 2 983 100 9000 2.6 200 10:22 29.12.2020
696 Clouds 2 982 100 7000 2.6 190 09:42 29.12.2020
697 Clouds 2 982 93 7000 3.1 190 09:19 29.12.2020
698 Clouds 2 982 93 7000 3.1 190 09:19 29.12.2020
699 Clouds 2 982 93 7000 2.6 190 08:49 29.12.2020
700 Clouds 2 981 100 7000 2.6 200 07:58 29.12.2020
701 Clouds 3 981 93 7000 2.1 210 07:26 29.12.2020
702 Drizzle 3 981 100 5000 1.5 170 06:19 29.12.2020
703 Clouds 3 980 100 8000 1.5 70 03:32 29.12.2020
704 Rain 3 980 86 10000 3.1 100 00:44 29.12.2020
705 Rain 3 980 86 10000 3.6 110 23:55 28.12.2020
706 Rain 3 980 86 10000 3.6 90 23:33 28.12.2020
707 Clouds 3 980 86 10000 3.6 100 22:28 28.12.2020
708 Clouds 3 980 86 10000 3.1 90 21:45 28.12.2020
709 Clouds 3 980 86 10000 3.1 90 21:24 28.12.2020
710 Clear 2 980 86 10000 4.1 80 20:42 28.12.2020
711 Clear 2 980 86 10000 4.1 80 20:22 28.12.2020
712 Clear 2 980 86 10000 2.6 70 19:48 28.12.2020
713 Clouds 3 980 86 10000 2.1 100 19:24 28.12.2020
714 Clouds 3 980 86 10000 3.6 110 18:52 28.12.2020
715 Clouds 3 980 86 10000 2.6 90 18:28 28.12.2020
716 Clouds 3 980 86 10000 2.6 90 18:28 28.12.2020
717 Clouds 3 980 80 10000 1.5 80 17:46 28.12.2020
718 Clouds 4 980 86 10000 1 100 17:26 28.12.2020
719 Clouds 4 980 86 10000 1 100 16:50 28.12.2020
720 Clouds 4 980 86 10000 1 0 16:28 28.12.2020
721 Clouds 5 980 80 10000 3.6 140 15:53 28.12.2020
722 Clouds 5 980 80 10000 3.6 140 15:30 28.12.2020
723 Clouds 6 980 81 10000 2.1 200 14:28 28.12.2020
724 Clouds 5 979 86 10000 2.6 200 13:39 28.12.2020
725 Clouds 5 979 86 10000 2.6 210 13:19 28.12.2020
726 Clouds 5 979 86 10000 3.6 200 12:26 28.12.2020
727 Clouds 5 979 86 10000 3.6 180 11:49 28.12.2020
728 Clouds 5 979 86 10000 3.6 180 11:30 28.12.2020
729 Clouds 4 979 86 10000 3.1 170 10:56 28.12.2020
730 Clouds 4 979 93 10000 2.6 150 10:29 28.12.2020
731 Clouds 3 978 86 10000 2.6 130 09:57 28.12.2020
732 Clouds 3 978 86 10000 2.6 130 09:37 28.12.2020
733 Clouds 3 978 86 10000 2.6 130 09:18 28.12.2020
734 Clouds 4 978 86 10000 2.6 150 06:53 28.12.2020
735 Clouds 4 978 86 10000 5.1 160 05:18 28.12.2020
736 Clouds 4 977 86 10000 5.7 160 03:34 28.12.2020
737 Clouds 4 977 86 10000 6.2 160 01:54 28.12.2020
738 Rain 4 977 86 10000 9.3 170 23:52 27.12.2020
739 Rain 4 977 86 10000 9.3 170 23:29 27.12.2020
740 Rain 4 977 86 10000 7.7 160 22:36 27.12.2020
741 Rain 4 978 86 10000 7.7 150 21:55 27.12.2020
742 Rain 4 977 86 10000 7.2 140 21:22 27.12.2020
743 Clouds 4 978 86 10000 8.7 160 20:32 27.12.2020
744 Clouds 4 979 86 10000 9.3 160 19:24 27.12.2020
745 Clouds 4 979 86 10000 9.8 160 18:50 27.12.2020
746 Clouds 4 979 86 10000 9.8 170 18:21 27.12.2020
747 Clouds 4 979 86 10000 10.8 170 17:58 27.12.2020
748 Clouds 4 980 86 10000 10.8 170 17:37 27.12.2020
749 Clouds 4 980 86 10000 10.8 170 17:18 27.12.2020
750 Clouds 4 980 86 10000 10.8 170 17:18 27.12.2020
751 Clouds 4 980 86 10000 10.3 170 16:25 27.12.2020
752 Clouds 4 981 80 10000 12.3 170 15:34 27.12.2020
753 Clouds 4 982 80 10000 10.8 170 14:56 27.12.2020
754 Rain 4 982 80 10000 11.8 170 14:38 27.12.2020
755 Rain 4 984 80 10000 11.8 170 13:41 27.12.2020
756 Rain 5 985 75 10000 11.3 170 12:59 27.12.2020
757 Rain 4 985 80 10000 9.3 160 12:38 27.12.2020
758 Rain 6 987 70 10000 11.3 180 11:43 27.12.2020
759 Rain 6 987 70 10000 11.3 180 11:23 27.12.2020
760 Rain 6 987 70 10000 11.8 180 10:49 27.12.2020
761 Clouds 5 988 75 10000 11.3 180 10:23 27.12.2020
762 Rain 5 989 75 10000 12.3 180 09:39 27.12.2020
763 Rain 4 991 75 10000 9.8 190 08:29 27.12.2020
764 Rain 5 992 74 10000 11.3 190 07:58 27.12.2020
765 Clouds 5 993 73 10000 9.3 190 07:25 27.12.2020
766 Clouds 4 996 73 10000 11.3 190 05:39 27.12.2020
767 Clouds 5 1000 80 10000 8.7 190 03:26 27.12.2020
768 Clouds 5 1002 80 10000 7.7 200 02:42 27.12.2020
769 Clouds 4 1003 86 10000 8.7 210 01:32 27.12.2020
770 Clouds 4 1006 93 10000 8.2 200 23:57 26.12.2020
771 Clouds 4 1006 93 10000 9.3 200 23:27 26.12.2020
772 Clouds 4 1007 93 10000 7.7 210 22:47 26.12.2020
773 Clouds 4 1008 93 10000 8.2 210 22:20 26.12.2020
774 Clouds 4 1008 93 10000 8.2 210 21:55 26.12.2020
775 Clouds 4 1009 93 10000 8.2 200 21:33 26.12.2020
776 Clouds 4 1010 93 10000 7.7 200 20:59 26.12.2020
777 Clouds 4 1010 93 9000 6.7 200 20:36 26.12.2020
778 Clouds 4 1010 93 9000 6.7 200 20:36 26.12.2020
779 Clouds 4 1011 93 10000 7.2 200 20:18 26.12.2020
780 Clouds 4 1011 86 10000 6.7 210 19:25 26.12.2020
781 Clouds 4 1012 86 10000 7.2 210 18:50 26.12.2020
782 Clouds 4 1013 80 10000 6.7 210 18:28 26.12.2020
783 Clouds 4 1014 80 10000 7.7 210 17:41 26.12.2020
784 Clouds 4 1014 80 10000 7.2 210 17:20 26.12.2020
785 Clouds 4 1015 80 10000 7.2 210 16:36 26.12.2020
786 Clouds 4 1015 86 10000 6.2 210 15:27 26.12.2020
787 Clouds 4 1016 86 10000 6.2 210 14:54 26.12.2020
788 Clouds 4 1016 86 10000 6.7 210 14:28 26.12.2020
789 Clouds 4 1017 86 10000 6.7 220 13:53 26.12.2020
790 Clouds 4 1017 86 10000 6.7 220 13:32 26.12.2020
791 Clouds 4 1018 86 10000 6.2 220 12:49 26.12.2020
792 Clouds 4 1018 86 10000 6.2 220 12:30 26.12.2020
793 Clouds 3 1019 93 10000 5.7 220 11:51 26.12.2020
794 Clouds 3 1019 93 10000 5.7 220 11:24 26.12.2020
795 Clouds 3 1020 86 10000 5.7 220 10:55 26.12.2020
796 Clouds 2 1020 93 10000 6.2 220 10:28 26.12.2020
797 Clouds 2 1020 93 10000 4.6 220 09:55 26.12.2020
798 Clouds 2 1020 92 10000 4.6 230 09:32 26.12.2020
799 Clouds 2 1020 92 10000 3.6 230 08:41 26.12.2020
800 Clouds 2 1020 90 10000 3.1 220 08:18 26.12.2020
801 Clouds 2 1020 89 10000 3.1 220 07:20 26.12.2020
802 Clouds 1 1022 92 10000 1 0 03:54 26.12.2020
803 Clear 0 1022 100 10000 1 230 02:34 26.12.2020
804 Fog -1 1022 100 400 0.5 0 00:34 26.12.2020
805 Fog -1 1022 100 600 1.5 210 23:49 25.12.2020
806 Fog -1 1022 92 500 1.5 190 23:28 25.12.2020
807 Fog -1 1022 100 600 1.5 210 22:52 25.12.2020
808 Fog -1 1022 100 600 1.5 210 22:26 25.12.2020
809 Fog 0 1022 100 10000 2.1 210 21:43 25.12.2020
810 Clear 0 1023 100 10000 2.1 220 21:25 25.12.2020
811 Clouds 0 1023 92 10000 1.5 200 20:45 25.12.2020
812 Clouds 0 1023 92 10000 1.5 200 20:26 25.12.2020
813 Clouds 0 1023 95 10000 1 210 19:43 25.12.2020
814 Clouds 0 1023 92 10000 1 240 18:49 25.12.2020
815 Clear 0 1022 95 10000 1 270 18:30 25.12.2020
816 Clear 0 1023 94 10000 1.5 300 17:35 25.12.2020
817 Clear 1 1022 86 10000 2.1 290 16:55 25.12.2020
818 Clear 2 1022 87 10000 2.6 290 16:25 25.12.2020
819 Clouds 4 1022 87 10000 2.6 280 15:50 25.12.2020
820 Clouds 4 1022 80 10000 2.6 290 15:32 25.12.2020
821 Clouds 4 1022 80 10000 3.1 300 14:38 25.12.2020
822 Clouds 4 1022 80 10000 3.1 300 14:19 25.12.2020
823 Clouds 4 1022 80 10000 3.1 310 13:43 25.12.2020
824 Clouds 4 1022 80 10000 3.1 310 13:24 25.12.2020
825 Clear 4 1022 86 10000 2.6 300 12:29 25.12.2020
826 Clear 1 1022 76 10000 1.5 260 11:50 25.12.2020
827 Clear 1 1022 80 10000 1.5 260 11:25 25.12.2020
828 Clear 0 1022 80 10000 1.5 250 10:49 25.12.2020
829 Clear -1 1021 92 10000 2.6 300 10:23 25.12.2020
830 Clouds -2 1021 100 10000 1.5 270 09:27 25.12.2020
831 Clear -2 1020 100 10000 2.1 310 08:47 25.12.2020
832 Clear -2 1020 92 10000 3.1 300 07:57 25.12.2020
833 Clear -1 1019 92 10000 2.1 310 06:44 25.12.2020
834 Clouds 1 1018 93 10000 3.6 360 02:50 25.12.2020
835 Clouds 2 1016 90 10000 5.1 350 01:18 25.12.2020
836 Clear 2 1016 86 10000 5.1 340 00:18 25.12.2020
837 Clouds 3 1016 86 10000 4.1 340 23:23 24.12.2020
838 Clouds 3 1015 93 10000 4.1 340 22:41 24.12.2020
839 Clouds 3 1015 93 10000 4.1 340 22:20 24.12.2020
840 Clouds 4 1014 80 10000 5.1 350 21:33 24.12.2020
841 Clouds 5 1013 80 10000 3.6 350 20:36 24.12.2020
842 Clouds 5 1012 80 10000 5.7 10 18:51 24.12.2020
843 Clouds 5 1011 80 10000 4.6 330 18:18 24.12.2020
844 Clouds 5 1010 81 10000 4.1 320 17:37 24.12.2020
845 Clouds 5 1009 87 10000 3.6 310 16:45 24.12.2020
846 Clouds 5 1009 87 10000 3.6 310 16:22 24.12.2020
847 Clouds 6 1009 87 10000 3.6 280 15:42 24.12.2020
848 Clouds 6 1009 87 10000 3.6 280 15:19 24.12.2020
849 Clouds 6 1008 87 10000 4.1 290 14:49 24.12.2020
850 Clouds 6 1008 87 10000 4.1 290 14:24 24.12.2020
851 Clouds 5 1008 93 10000 4.1 290 13:43 24.12.2020
852 Clouds 5 1008 93 10000 4.1 290 13:25 24.12.2020
853 Clouds 5 1008 93 10000 4.1 280 12:44 24.12.2020
854 Clouds 5 1008 93 10000 4.1 280 12:21 24.12.2020
855 Clouds 4 1008 93 10000 3.6 280 11:47 24.12.2020
856 Clouds 4 1008 93 10000 3.6 280 11:21 24.12.2020
857 Clouds 4 1007 93 10000 3.1 290 10:53 24.12.2020
858 Rain 4 1007 93 10000 3.6 300 10:35 24.12.2020
859 Rain 4 1006 86 10000 3.1 340 09:52 24.12.2020
860 Clouds 4 1006 93 10000 3.6 310 09:30 24.12.2020
861 Rain 4 1005 93 10000 4.6 320 08:43 24.12.2020
862 Clouds 3 1004 93 10000 6.2 340 07:43 24.12.2020
863 Rain 3 1004 93 10000 6.2 340 07:20 24.12.2020
864 Rain 4 1002 100 10000 6.7 10 05:49 24.12.2020
865 Rain 6 1002 100 8000 2.6 360 02:33 24.12.2020
866 Rain 6 1002 100 10000 2.6 20 01:45 24.12.2020
867 Rain 6 1003 100 10000 0.5 0 01:18 24.12.2020
868 Clouds 6 1003 100 10000 1 0 00:22 24.12.2020
869 Clouds 6 1003 93 10000 2.1 40 23:49 23.12.2020
870 Clouds 6 1003 93 10000 4.6 10 23:31 23.12.2020
871 Rain 7 1003 100 7000 4.6 310 22:59 23.12.2020
872 Clouds 8 1003 93 8000 3.6 210 22:40 23.12.2020
873 Clouds 9 1003 93 8000 4.1 220 22:18 23.12.2020
874 Rain 9 1003 100 8000 3.1 220 21:31 23.12.2020
875 Clouds 9 1003 93 9000 3.6 210 20:59 23.12.2020
876 Clouds 9 1003 93 6000 2.6 220 20:37 23.12.2020
877 Clouds 9 1004 100 6000 1 170 20:19 23.12.2020
878 Clouds 8 1004 100 8000 1 0 19:42 23.12.2020
879 Clouds 8 1004 100 8000 1 0 19:22 23.12.2020
880 Clouds 8 1004 100 8000 2.1 80 18:54 23.12.2020
881 Clouds 8 1004 100 5000 2.6 60 18:35 23.12.2020
882 Rain 8 1005 100 6000 1.5 20 17:44 23.12.2020
883 Rain 8 1006 100 5000 2.1 60 17:24 23.12.2020
884 Rain 8 1006 100 5000 2.1 60 16:56 23.12.2020
885 Rain 8 1007 100 5000 1 50 16:37 23.12.2020
886 Rain 8 1007 100 4500 2.1 80 16:18 23.12.2020
887 Rain 8 1007 100 2500 2.6 100 15:40 23.12.2020
888 Rain 8 1007 100 2500 2.6 100 15:22 23.12.2020
889 Mist 8 1008 100 2500 3.1 100 14:51 23.12.2020
890 Mist 8 1008 100 2500 3.1 100 14:25 23.12.2020
891 Mist 8 1008 100 3000 3.1 100 13:58 23.12.2020
892 Rain 7 1009 93 3000 3.6 100 13:39 23.12.2020
893 Rain 7 1009 100 3000 3.6 100 13:18 23.12.2020
894 Rain 7 1010 100 4000 3.1 100 12:46 23.12.2020
895 Mist 7 1010 100 4000 3.1 100 12:21 23.12.2020
896 Rain 7 1011 93 10000 3.6 100 11:45 23.12.2020
897 Clouds 6 1012 100 10000 2.6 90 10:58 23.12.2020
898 Clouds 6 1012 100 10000 3.1 110 10:40 23.12.2020
899 Clouds 6 1012 100 10000 3.1 110 10:22 23.12.2020
900 Rain 5 1013 100 7000 2.1 100 09:28 23.12.2020
901 Mist 4 1013 100 3200 2.1 70 08:44 23.12.2020
902 Mist 4 1013 100 2500 1.5 140 08:19 23.12.2020
903 Mist 4 1013 100 1800 1.5 150 07:27 23.12.2020
904 Fog 4 1013 100 300 2.1 140 06:39 23.12.2020
905 Fog 3 1013 100 400 1 0 05:28 23.12.2020
906 Fog 3 1014 100 300 1 150 04:56 23.12.2020
907 Clear 6 1014 93 10000 1 0 00:34 23.12.2020
908 Clear 6 1014 100 10000 2.6 210 23:58 22.12.2020
909 Clear 6 1014 100 10000 2.1 210 23:33 22.12.2020
910 Rain 6 1014 100 10000 1.5 220 22:58 22.12.2020
911 Clouds 7 1014 93 10000 2.1 200 22:40 22.12.2020
912 Clouds 7 1014 93 10000 2.1 200 22:20 22.12.2020
913 Clouds 8 1014 87 10000 2.1 250 21:44 22.12.2020
914 Clouds 8 1014 87 10000 2.6 240 21:20 22.12.2020
915 Clouds 8 1013 87 10000 3.1 250 20:49 22.12.2020
916 Clouds 8 1013 87 10000 3.1 250 20:22 22.12.2020
917 Clouds 8 1013 87 10000 2.1 250 19:49 22.12.2020
918 Clouds 8 1014 87 10000 2.1 280 19:26 22.12.2020
919 Clouds 8 1014 87 10000 3.6 280 18:56 22.12.2020
920 Clouds 8 1013 87 10000 4.1 270 18:38 22.12.2020
921 Clouds 8 1013 87 10000 4.1 290 18:19 22.12.2020
922 Clouds 9 1013 87 10000 4.1 280 17:36 22.12.2020
923 Clouds 9 1013 87 10000 4.1 280 17:18 22.12.2020
924 Clouds 9 1012 87 10000 5.1 300 16:46 22.12.2020
925 Clouds 9 1011 93 10000 5.7 290 16:19 22.12.2020
926 Clouds 10 1011 87 10000 5.7 290 15:45 22.12.2020
927 Clouds 10 1011 87 10000 5.7 290 15:27 22.12.2020
928 Clouds 10 1010 87 10000 6.2 280 14:55 22.12.2020
929 Clouds 10 1010 87 10000 6.2 280 14:37 22.12.2020
930 Clouds 10 1009 93 10000 7.2 290 14:18 22.12.2020
931 Clouds 10 1009 93 10000 7.2 290 13:42 22.12.2020
932 Clouds 11 1008 87 10000 8.2 290 13:18 22.12.2020
933 Drizzle 11 1007 93 10000 8.7 270 12:44 22.12.2020
934 Drizzle 11 1007 93 10000 8.7 270 12:26 22.12.2020
935 Drizzle 12 1006 100 10000 8.7 260 11:57 22.12.2020
936 Drizzle 12 1006 100 8000 7.7 240 11:39 22.12.2020
937 Drizzle 13 1006 93 10000 7.2 250 11:19 22.12.2020
938 Drizzle 12 1005 100 7000 7.2 240 10:51 22.12.2020
939 Drizzle 12 1005 100 7000 7.2 240 10:24 22.12.2020
940 Drizzle 13 1005 93 8000 7.2 250 09:56 22.12.2020
941 Drizzle 12 1004 100 4800 6.7 250 09:23 22.12.2020
942 Drizzle 13 1004 93 10000 8.2 250 08:53 22.12.2020
943 Drizzle 13 1004 93 4800 7.7 250 08:29 22.12.2020
944 Drizzle 12 1003 93 10000 7.2 240 07:48 22.12.2020
945 Clouds 12 1003 100 10000 7.2 230 06:48 22.12.2020
946 Rain 11 1003 100 10000 5.7 210 05:47 22.12.2020
947 Clouds 10 1004 93 10000 4.6 200 03:46 22.12.2020
948 Rain 8 1005 100 5000 5.7 180 01:35 22.12.2020
949 Drizzle 8 1006 93 3800 5.7 160 23:55 21.12.2020
950 Mist 7 1007 100 3800 5.1 150 23:37 21.12.2020
951 Clouds 7 1008 100 6000 5.7 160 22:59 21.12.2020
952 Rain 7 1008 100 10000 6.7 150 22:36 21.12.2020
953 Clouds 7 1009 100 10000 6.7 150 22:18 21.12.2020
954 Clouds 7 1009 100 5000 6.7 140 21:41 21.12.2020
955 Clouds 7 1009 100 5000 6.7 140 21:22 21.12.2020
956 Rain 7 1010 93 9000 6.7 140 20:42 21.12.2020
957 Rain 7 1010 93 9000 6.7 140 20:20 21.12.2020
958 Clouds 7 1011 93 10000 6.7 140 19:46 21.12.2020
959 Rain 7 1011 93 10000 6.7 140 19:20 21.12.2020
960 Rain 7 1012 93 10000 6.2 140 18:55 21.12.2020
961 Rain 7 1012 87 10000 5.7 140 18:36 21.12.2020
962 Rain 7 1013 87 10000 5.7 140 18:18 21.12.2020
963 Rain 7 1014 87 10000 5.1 140 17:42 21.12.2020
964 Rain 7 1014 87 10000 5.1 140 17:22 21.12.2020
965 Rain 7 1014 87 10000 4.6 140 16:39 21.12.2020
966 Clouds 7 1015 87 10000 4.1 150 16:19 21.12.2020
967 Rain 7 1016 87 10000 3.6 150 15:41 21.12.2020
968 Rain 7 1016 87 10000 3.6 150 14:58 21.12.2020
969 Clouds 8 1016 81 10000 4.1 150 14:22 21.12.2020
970 Clouds 7 1016 87 10000 5.1 170 13:52 21.12.2020
971 Clouds 8 1017 81 10000 5.1 180 13:33 21.12.2020
972 Clear 8 1018 81 10000 5.7 180 12:59 21.12.2020
973 Clear 8 1018 81 10000 4.6 180 12:39 21.12.2020
974 Clear 7 1018 81 10000 4.6 180 12:19 21.12.2020
975 Clear 6 1019 87 10000 4.1 170 11:43 21.12.2020
976 Clear 6 1019 87 10000 4.1 170 11:22 21.12.2020
977 Clear 5 1019 93 10000 4.1 170 10:57 21.12.2020
978 Clear 5 1019 93 10000 3.6 170 10:38 21.12.2020
979 Clear 5 1019 93 10000 4.1 180 09:55 21.12.2020
980 Clouds 4 1019 93 10000 3.1 170 09:37 21.12.2020
981 Clouds 4 1019 93 10000 3.6 180 09:19 21.12.2020
982 Clouds 4 1019 93 10000 3.1 170 08:25 21.12.2020
983 Clouds 6 1019 87 10000 4.1 210 06:48 21.12.2020
984 Clear 5 1019 93 10000 2.1 160 05:39 21.12.2020
985 Clouds 6 1019 93 10000 3.1 200 04:30 21.12.2020
986 Clouds 5 1018 100 10000 3.1 180 00:36 21.12.2020
987 Clouds 6 1018 93 10000 3.1 180 23:50 20.12.2020
988 Clouds 6 1018 93 10000 3.6 180 23:21 20.12.2020
989 Clouds 7 1018 93 10000 4.1 180 22:45 20.12.2020
990 Clouds 7 1018 93 10000 4.1 180 22:25 20.12.2020
991 Clouds 7 1018 93 10000 4.1 170 21:58 20.12.2020
992 Clouds 7 1018 87 10000 3.1 170 21:38 20.12.2020
993 Clouds 8 1018 87 10000 3.6 180 21:18 20.12.2020
994 Clouds 8 1018 87 10000 4.1 190 20:44 20.12.2020
995 Clouds 8 1018 87 10000 4.1 190 20:21 20.12.2020
996 Clouds 8 1018 87 10000 4.1 180 19:43 20.12.2020
997 Clouds 8 1018 87 10000 4.1 180 19:22 20.12.2020
998 Clouds 8 1017 93 10000 3.1 180 18:54 20.12.2020
999 Clouds 8 1017 93 10000 2.6 170 18:36 20.12.2020
1000 Clear 8 1017 93 10000 3.1 170 17:55 20.12.2020
1001 Clouds 8 1017 93 10000 3.6 170 17:36 20.12.2020
1002 Clouds 9 1017 87 10000 3.1 150 17:18 20.12.2020
1003 Clouds 9 1017 87 10000 3.1 150 16:43 20.12.2020
1004 Clouds 9 1017 87 10000 3.1 170 16:23 20.12.2020
1005 Rain 9 1016 87 10000 3.1 180 15:40 20.12.2020
1006 Rain 9 1016 87 10000 3.1 180 15:22 20.12.2020
1007 Clear 10 1016 81 10000 3.1 180 14:48 20.12.2020
1008 Clear 10 1016 81 10000 3.1 180 14:29 20.12.2020
1009 Clear 9 1016 87 10000 4.1 180 13:44 20.12.2020
1010 Clear 9 1016 87 10000 4.1 180 13:23 20.12.2020
1011 Clouds 9 1017 87 10000 3.1 170 12:51 20.12.2020
1012 Clouds 9 1017 81 10000 3.6 160 12:26 20.12.2020
1013 Clear 8 1017 87 10000 2.6 150 11:52 20.12.2020
1014 Clear 8 1017 81 10000 3.6 140 11:28 20.12.2020
1015 Clear 7 1017 87 10000 2.1 140 10:50 20.12.2020
1016 Clear 7 1017 87 10000 2.1 140 10:22 20.12.2020
1017 Clouds 7 1017 87 10000 2.6 140 09:57 20.12.2020
1018 Clouds 7 1017 87 10000 3.1 130 09:39 20.12.2020
1019 Clouds 7 1017 87 10000 3.1 130 09:20 20.12.2020
1020 Clear 7 1016 87 10000 3.1 130 08:48 20.12.2020
1021 Clear 7 1016 87 10000 3.1 130 08:30 20.12.2020
1022 Rain 7 1016 87 10000 3.1 130 07:22 20.12.2020
1023 Clear 7 1016 87 10000 2.6 140 05:33 20.12.2020
1024 Clouds 7 1016 87 10000 3.6 160 01:31 20.12.2020
1025 Clouds 8 1015 87 10000 3.1 160 00:22 20.12.2020
1026 Clouds 9 1015 81 10000 2.6 140 23:19 19.12.2020
1027 Clouds 9 1015 81 10000 3.1 150 22:45 19.12.2020
1028 Clouds 9 1015 81 10000 3.1 150 22:25 19.12.2020
1029 Clouds 9 1015 81 10000 3.6 160 21:59 19.12.2020
1030 Clouds 10 1014 76 10000 3.6 170 21:41 19.12.2020
1031 Clouds 10 1014 76 10000 3.6 170 21:22 19.12.2020
1032 Clouds 9 1014 76 10000 4.6 180 20:42 19.12.2020
1033 Clouds 9 1014 81 10000 3.6 160 20:19 19.12.2020
1034 Clouds 9 1014 81 10000 3.6 160 19:50 19.12.2020
1035 Clouds 9 1013 81 10000 4.1 160 19:31 19.12.2020
1036 Clouds 8 1013 87 10000 5.1 170 18:41 19.12.2020
1037 Clouds 8 1013 87 10000 5.1 170 18:23 19.12.2020
1038 Clear 8 1013 81 10000 4.6 160 17:48 19.12.2020
1039 Clear 8 1013 81 10000 4.6 160 17:48 19.12.2020
1040 Clear 8 1013 81 10000 4.6 160 17:24 19.12.2020
1041 Clear 8 1013 81 10000 4.6 140 16:45 19.12.2020
1042 Clear 9 1013 81 10000 4.6 140 16:27 19.12.2020
1043 Clear 9 1013 81 10000 3.6 140 15:59 19.12.2020
1044 Clear 9 1013 81 10000 4.1 150 15:40 19.12.2020
1045 Clear 9 1013 87 10000 4.6 150 14:44 19.12.2020
1046 Clear 9 1013 87 10000 4.6 150 14:23 19.12.2020
1047 Clear 8 1013 87 10000 5.1 140 13:42 19.12.2020
1048 Clear 8 1014 87 10000 4.1 140 13:21 19.12.2020
1049 Clear 7 1014 87 10000 4.1 140 12:54 19.12.2020
1050 Clear 7 1014 87 10000 5.1 150 12:36 19.12.2020
1051 Clear 6 1014 87 10000 4.6 150 12:18 19.12.2020
1052 Clear 5 1014 93 10000 4.1 140 11:40 19.12.2020
1053 Clear 4 1015 93 7000 2.6 130 10:47 19.12.2020
1054 Clear 4 1015 93 7000 2.6 130 10:27 19.12.2020
1055 Clear 3 1015 100 6000 3.1 130 09:59 19.12.2020
1056 Clear 3 1015 100 6000 3.1 130 09:59 19.12.2020
1057 Clouds 3 1015 100 6000 2.6 130 09:39 19.12.2020
1058 Mist 3 1015 100 4500 2.6 130 08:56 19.12.2020
1059 Clear 3 1015 100 8000 2.6 120 08:18 19.12.2020
1060 Clear 3 1015 100 10000 3.1 120 07:19 19.12.2020
1061 Clear 3 1015 93 10000 2.1 130 06:44 19.12.2020
1062 Clear 3 1016 100 10000 3.1 130 05:21 19.12.2020
1063 Clear 3 1017 93 10000 2.1 120 03:40 19.12.2020
1064 Clear 4 1017 93 10000 4.1 150 00:41 19.12.2020
1065 Clear 4 1017 93 10000 4.1 150 00:41 19.12.2020
1066 Clear 4 1017 93 10000 4.1 150 00:21 19.12.2020
1067 Clear 4 1018 93 10000 3.6 140 23:49 18.12.2020
1068 Clear 4 1018 93 10000 3.6 140 23:49 18.12.2020
1069 Clear 4 1018 93 10000 3.6 140 23:25 18.12.2020
1070 Clear 4 1018 93 10000 3.6 140 22:57 18.12.2020
1071 Clear 4 1018 86 10000 3.6 140 22:39 18.12.2020
1072 Clear 5 1019 86 10000 3.6 140 22:19 18.12.2020
1073 Clear 5 1019 86 10000 3.6 140 21:43 18.12.2020
1074 Clear 5 1019 86 10000 3.1 140 21:22 18.12.2020
1075 Clear 6 1019 87 10000 3.6 140 20:25 18.12.2020
1076 Clear 6 1019 87 10000 4.1 140 19:51 18.12.2020
1077 Clear 6 1019 87 10000 4.1 140 19:25 18.12.2020
1078 Clear 6 1019 81 10000 3.1 140 18:47 18.12.2020
1079 Clear 6 1019 81 10000 3.1 140 18:28 18.12.2020
1080 Clear 7 1019 87 10000 4.1 140 17:59 18.12.2020
1081 Clear 7 1019 81 10000 3.1 160 17:21 18.12.2020
1082 Clear 8 1019 81 10000 4.6 160 16:48 18.12.2020
1083 Clear 8 1019 81 10000 4.6 160 16:22 18.12.2020
1084 Clear 9 1019 81 10000 4.6 180 15:54 18.12.2020
1085 Clear 10 1019 76 10000 5.1 180 15:36 18.12.2020
1086 Clouds 10 1020 76 10000 4.6 190 15:18 18.12.2020
1087 Clouds 10 1020 76 10000 4.6 190 14:51 18.12.2020
1088 Clear 10 1020 76 10000 5.7 190 14:19 18.12.2020
1089 Clear 10 1020 81 10000 5.7 190 13:45 18.12.2020
1090 Clear 9 1020 81 10000 5.7 190 13:23 18.12.2020
1091 Clear 8 1021 81 10000 5.7 180 12:46 18.12.2020
1092 Clear 8 1021 81 10000 5.7 180 12:46 18.12.2020
1093 Clear 7 1021 87 10000 4.1 180 11:38 18.12.2020
1094 Clear 6 1021 87 10000 4.6 180 11:19 18.12.2020
1095 Clear 5 1020 87 10000 4.1 160 10:38 18.12.2020
1096 Clear 5 1021 93 10000 3.6 160 10:20 18.12.2020
1097 Clear 4 1021 93 10000 3.6 170 09:38 18.12.2020
1098 Clear 4 1021 93 10000 3.6 170 09:20 18.12.2020
1099 Clear 4 1021 93 10000 3.6 170 08:52 18.12.2020
1100 Clear 4 1021 93 10000 3.6 170 08:29 18.12.2020
1101 Clear 4 1021 100 10000 3.1 160 07:36 18.12.2020
1102 Clear 4 1021 93 10000 1.5 160 07:18 18.12.2020
1103 Clear 4 1021 100 10000 2.1 160 06:41 18.12.2020
1104 Clear 4 1021 93 10000 2.6 160 05:38 18.12.2020
1105 Clouds 5 1021 100 10000 2.6 180 04:51 18.12.2020
1106 Clear 5 1021 93 10000 2.1 190 01:58 18.12.2020
1107 Clouds 6 1021 93 10000 2.6 190 01:38 18.12.2020
1108 Clouds 7 1020 93 10000 2.6 210 23:58 17.12.2020
1109 Clouds 7 1020 93 10000 2.6 220 23:25 17.12.2020
1110 Clear 7 1020 93 10000 4.1 220 22:54 17.12.2020
1111 Clear 7 1020 87 10000 4.1 230 22:29 17.12.2020
1112 Clear 7 1020 93 10000 4.1 230 21:57 17.12.2020
1113 Clouds 8 1020 93 10000 4.6 230 21:37 17.12.2020
1114 Clouds 8 1020 87 10000 4.1 220 21:19 17.12.2020
1115 Clouds 8 1020 87 10000 4.1 220 20:41 17.12.2020
1116 Clouds 8 1019 93 10000 4.1 240 20:19 17.12.2020
1117 Clouds 9 1019 87 10000 3.6 210 19:48 17.12.2020
1118 Clouds 9 1019 87 10000 3.6 210 19:24 17.12.2020
1119 Clouds 9 1019 81 10000 3.6 210 18:44 17.12.2020
1120 Clouds 9 1019 81 10000 3.6 210 18:26 17.12.2020
1121 Clouds 9 1018 81 10000 3.6 220 17:57 17.12.2020
1122 Clouds 9 1018 81 10000 5.1 230 17:33 17.12.2020
1123 Clouds 9 1018 87 10000 4.6 230 16:55 17.12.2020
1124 Clouds 10 1017 81 10000 5.7 230 16:36 17.12.2020
1125 Clouds 10 1017 81 10000 5.7 230 16:18 17.12.2020
1126 Clouds 10 1017 87 10000 4.6 230 15:40 17.12.2020
1127 Clouds 10 1016 87 10000 4.6 230 15:20 17.12.2020
1128 Clouds 10 1016 87 10000 4.6 230 14:47 17.12.2020
1129 Clouds 10 1016 87 10000 5.1 250 14:19 17.12.2020
1130 Clouds 10 1016 87 10000 5.7 250 13:42 17.12.2020
1131 Clouds 10 1016 87 10000 5.7 250 13:18 17.12.2020
1132 Clouds 10 1015 87 10000 6.7 230 12:39 17.12.2020
1133 Clouds 10 1015 93 9000 5.7 210 12:21 17.12.2020
1134 Clouds 9 1015 93 8000 5.7 200 11:41 17.12.2020
1135 Rain 9 1015 93 8000 5.7 200 11:20 17.12.2020
1136 Rain 9 1014 87 8000 5.1 180 10:40 17.12.2020
1137 Rain 8 1014 93 10000 4.1 150 09:37 17.12.2020
1138 Clouds 8 1013 93 10000 4.1 150 08:52 17.12.2020
1139 Clouds 8 1013 93 10000 3.6 130 07:44 17.12.2020
1140 Clouds 8 1013 93 10000 3.6 130 07:25 17.12.2020
1141 Rain 8 1013 93 10000 3.1 130 06:49 17.12.2020
1142 Rain 8 1014 93 10000 3.6 140 06:30 17.12.2020
1143 Clear 8 1014 87 10000 4.1 140 03:30 17.12.2020
1144 Clouds 8 1015 93 10000 5.1 140 00:28 17.12.2020
1145 Clouds 8 1015 93 10000 5.1 140 23:42 16.12.2020
1146 Clouds 8 1015 93 10000 4.6 140 23:19 16.12.2020
1147 Clouds 8 1015 93 10000 4.6 130 22:49 16.12.2020
1148 Clouds 8 1015 93 10000 4.6 130 22:31 16.12.2020
1149 Clouds 8 1016 93 10000 4.1 130 21:45 16.12.2020
1150 Clouds 8 1016 93 10000 4.1 130 21:25 16.12.2020
1151 Clouds 8 1016 93 10000 3.6 130 20:52 16.12.2020
1152 Clouds 8 1016 93 10000 3.1 130 20:20 16.12.2020
1153 Clouds 8 1016 93 10000 4.6 130 19:43 16.12.2020
1154 Clouds 8 1016 93 10000 4.6 130 19:43 16.12.2020
1155 Clouds 8 1017 93 7000 3.1 130 19:18 16.12.2020
1156 Clouds 7 1017 93 9000 4.1 130 18:51 16.12.2020
1157 Clouds 7 1017 93 9000 4.1 130 18:26 16.12.2020
1158 Mist 7 1017 93 5000 3.6 120 17:42 16.12.2020
1159 Clouds 7 1017 93 8000 3.6 130 16:58 16.12.2020
1160 Clouds 8 1017 93 8000 3.6 130 16:38 16.12.2020
1161 Clouds 8 1017 93 10000 3.1 120 16:19 16.12.2020
1162 Clouds 8 1017 93 10000 3.1 120 15:48 16.12.2020
1163 Clouds 8 1017 93 8000 2.6 130 15:23 16.12.2020
1164 Clouds 8 1017 100 10000 3.6 130 14:46 16.12.2020
1165 Clouds 8 1017 100 10000 3.6 130 14:27 16.12.2020
1166 Mist 7 1018 100 3300 4.1 130 13:42 16.12.2020
1167 Mist 7 1018 100 3300 4.1 130 13:21 16.12.2020
1168 Fog 7 1018 100 700 3.1 120 12:46 16.12.2020
1169 Fog 6 1018 100 400 2.6 110 12:20 16.12.2020
1170 Fog 6 1018 100 400 2.6 130 11:38 16.12.2020
1171 Fog 5 1018 100 400 3.6 130 11:19 16.12.2020
1172 Fog 5 1018 100 400 3.1 130 10:43 16.12.2020
1173 Fog 5 1018 100 800 3.6 130 10:18 16.12.2020
1174 Mist 5 1018 93 4500 2.6 140 09:39 16.12.2020
1175 Clouds 6 1017 93 10000 2.6 130 08:24 16.12.2020
1176 Clouds 6 1017 93 8000 1.5 140 07:49 16.12.2020
1177 Clouds 7 1017 87 10000 1.5 130 07:30 16.12.2020
1178 Clouds 7 1017 87 10000 2.6 140 06:41 16.12.2020
1179 Clouds 8 1015 100 8000 1.5 170 02:24 16.12.2020
1180 Mist 8 1015 93 5000 1.5 220 00:23 16.12.2020
1181 Clouds 9 1014 93 7000 2.1 250 23:44 15.12.2020
1182 Clouds 9 1013 100 9000 2.6 250 22:46 15.12.2020
1183 Clouds 9 1013 100 9000 2.6 250 22:24 15.12.2020
1184 Clouds 9 1013 93 7000 2.6 230 21:51 15.12.2020
1185 Clouds 9 1013 100 7000 2.6 250 21:25 15.12.2020
1186 Clouds 9 1012 100 7000 2.6 240 20:58 15.12.2020
1187 Clouds 9 1012 100 7000 2.6 240 20:39 15.12.2020
1188 Rain 9 1011 100 8000 3.6 230 20:21 15.12.2020
1189 Clouds 9 1011 100 5000 3.1 220 19:41 15.12.2020
1190 Clouds 9 1011 100 5000 3.1 220 19:23 15.12.2020
1191 Clouds 9 1010 100 5000 2.6 210 18:39 15.12.2020
1192 Clouds 9 1010 100 5000 2.6 210 18:20 15.12.2020
1193 Rain 9 1010 100 5000 2.6 190 17:43 15.12.2020
1194 Rain 9 1010 100 5000 2.6 190 17:23 15.12.2020
1195 Clouds 9 1010 100 6000 2.6 170 16:38 15.12.2020
1196 Rain 9 1009 100 6000 2.1 160 16:19 15.12.2020
1197 Rain 9 1009 100 4500 2.1 150 15:37 15.12.2020
1198 Clouds 9 1009 93 10000 2.1 190 15:18 15.12.2020
1199 Clouds 9 1009 93 4000 2.6 190 14:41 15.12.2020
1200 Clouds 9 1009 93 10000 2.1 190 14:19 15.12.2020
1201 Clouds 9 1009 93 10000 2.6 180 13:49 15.12.2020
1202 Clouds 9 1009 93 10000 2.6 180 13:24 15.12.2020
1203 Clouds 9 1009 87 10000 2.6 180 12:46 15.12.2020
1204 Clouds 9 1009 87 10000 2.6 180 12:19 15.12.2020
1205 Rain 8 1009 93 10000 2.6 160 11:51 15.12.2020
1206 Clouds 8 1008 93 10000 2.6 150 11:23 15.12.2020
1207 Clouds 8 1008 93 10000 2.6 150 10:48 15.12.2020
1208 Clouds 7 1008 100 10000 2.6 150 10:20 15.12.2020
1209 Clouds 7 1008 93 10000 2.6 140 09:44 15.12.2020
1210 Clouds 7 1008 93 10000 2.6 140 09:26 15.12.2020
1211 Clouds 7 1008 93 10000 2.6 170 08:46 15.12.2020
1212 Clouds 7 1008 93 10000 2.6 170 08:24 15.12.2020
1213 Rain 7 1008 93 10000 2.6 150 07:48 15.12.2020
1214 Rain 7 1008 93 10000 2.6 160 07:23 15.12.2020
1215 Rain 7 1007 93 10000 2.1 130 06:26 15.12.2020
1216 Rain 8 1009 81 10000 2.6 130 00:54 15.12.2020
1217 Clouds 8 1009 81 10000 2.6 140 00:34 15.12.2020
1218 Clouds 8 1008 81 10000 3.6 140 23:23 14.12.2020
1219 Clouds 8 1009 87 10000 2.6 160 22:47 14.12.2020
1220 Clouds 8 1009 87 10000 2.6 160 22:27 14.12.2020
1221 Clouds 9 1008 87 10000 4.1 140 21:44 14.12.2020
1222 Clouds 9 1008 87 10000 4.1 140 21:22 14.12.2020
1223 Clouds 9 1008 87 10000 3.1 140 20:49 14.12.2020
1224 Clouds 9 1008 93 10000 2.6 140 20:29 14.12.2020
1225 Clouds 9 1008 93 10000 2.1 140 19:53 14.12.2020
1226 Clouds 9 1008 93 10000 2.1 140 19:29 14.12.2020
1227 Clouds 9 1008 100 10000 3.1 170 18:44 14.12.2020
1228 Clouds 9 1008 100 10000 3.1 170 18:25 14.12.2020
1229 Clouds 9 1008 100 10000 3.6 180 17:46 14.12.2020
1230 Clouds 9 1008 100 10000 3.6 180 17:23 14.12.2020
1231 Clouds 9 1008 100 10000 3.6 170 16:50 14.12.2020
1232 Clouds 9 1008 100 10000 3.6 170 16:28 14.12.2020
1233 Clouds 9 1007 93 10000 4.1 190 15:39 14.12.2020
1234 Clouds 9 1007 93 10000 4.1 190 15:20 14.12.2020
1235 Clouds 9 1007 93 10000 4.6 180 14:42 14.12.2020
1236 Clouds 9 1007 93 10000 4.6 180 14:23 14.12.2020
1237 Clouds 9 1007 87 10000 5.1 190 13:42 14.12.2020
1238 Clouds 8 1007 93 10000 4.6 180 13:18 14.12.2020
1239 Clouds 8 1007 93 10000 4.6 180 12:52 14.12.2020
1240 Rain 7 1007 93 10000 4.1 170 12:24 14.12.2020
1241 Clouds 7 1007 87 10000 4.1 150 11:32 14.12.2020
1242 Rain 6 1007 93 10000 5.7 160 10:38 14.12.2020
1243 Clouds 6 1007 93 10000 5.7 160 10:19 14.12.2020
1244 Clouds 6 1007 81 10000 6.2 170 09:31 14.12.2020
1245 Rain 6 1007 81 10000 5.7 140 08:47 14.12.2020
1246 Clouds 6 1007 81 10000 5.7 140 08:28 14.12.2020
1247 Clouds 6 1007 81 10000 5.1 140 07:44 14.12.2020
1248 Clouds 6 1007 81 10000 5.7 150 06:47 14.12.2020
1249 Clouds 6 1008 81 10000 4.6 150 05:35 14.12.2020
1250 Clear 5 1009 87 10000 5.1 130 02:26 14.12.2020
1251 Clear 5 1010 87 10000 4.1 150 00:56 14.12.2020
1252 Clear 5 1010 87 10000 5.1 140 00:33 14.12.2020
1253 Rain 5 1010 93 8000 3.6 150 23:57 13.12.2020
1254 Clouds 5 1010 100 8000 3.6 140 23:36 13.12.2020
1255 Clouds 5 1011 100 6000 3.1 130 22:48 13.12.2020
1256 Clouds 5 1011 100 6000 3.1 130 22:20 13.12.2020
1257 Fog 5 1011 100 1400 3.1 140 21:47 13.12.2020
1258 Fog 5 1011 100 1400 3.1 140 21:27 13.12.2020
1259 Mist 5 1010 100 4200 2.6 130 20:40 13.12.2020
1260 Mist 5 1010 100 4200 2.6 130 20:21 13.12.2020
1261 Clouds 6 1011 100 7000 2.1 130 19:42 13.12.2020
1262 Clouds 6 1011 100 7000 2.1 130 19:20 13.12.2020
1263 Clouds 6 1010 100 8000 2.6 130 18:43 13.12.2020
1264 Clouds 6 1010 100 8000 2.6 130 18:21 13.12.2020
1265 Clouds 6 1010 100 7000 1.5 120 17:47 13.12.2020
1266 Clouds 6 1010 100 7000 1.5 120 17:21 13.12.2020
1267 Clouds 6 1010 93 7000 1 0 16:59 13.12.2020
1268 Clouds 6 1010 93 8000 1 150 16:39 13.12.2020
1269 Clouds 6 1010 93 8000 1 150 16:19 13.12.2020
1270 Clouds 6 1010 93 8000 1.5 180 15:42 13.12.2020
1271 Clouds 6 1010 93 8000 1.5 180 15:23 13.12.2020
1272 Clouds 6 1010 93 8000 1 0 14:44 13.12.2020
1273 Clouds 6 1010 93 8000 1 0 14:25 13.12.2020
1274 Mist 6 1010 93 5000 2.6 220 13:44 13.12.2020
1275 Mist 6 1010 93 5000 2.6 220 13:25 13.12.2020
1276 Clouds 6 1009 93 6000 2.6 270 12:52 13.12.2020
1277 Mist 6 1009 100 5000 1.5 260 12:23 13.12.2020
1278 Fog 5 1009 100 350 1.5 170 11:47 13.12.2020
1279 Fog 5 1009 100 300 1.5 160 11:22 13.12.2020
1280 Fog 5 1009 93 500 1.5 130 10:40 13.12.2020
1281 Drizzle 5 1008 100 1000 1.5 130 09:59 13.12.2020
1282 Mist 5 1008 100 2800 1.5 130 09:31 13.12.2020
1283 Mist 5 1007 100 3500 2.6 130 08:36 13.12.2020
1284 Mist 5 1007 100 3300 2.6 130 07:52 13.12.2020
1285 Drizzle 5 1006 100 2700 2.6 120 05:50 13.12.2020
1286 Mist 5 1005 100 2500 3.1 120 02:43 13.12.2020
1287 Mist 4 1005 100 2800 3.1 110 01:59 13.12.2020
1288 Drizzle 4 1004 100 3500 3.1 110 01:33 13.12.2020
1289 Mist 4 1004 100 3500 2.6 110 00:33 13.12.2020
1290 Clouds 4 1003 93 6000 2.6 120 23:33 12.12.2020
1291 Clouds 4 1003 93 7000 3.1 120 22:59 12.12.2020
1292 Drizzle 4 1003 93 3800 3.1 110 22:28 12.12.2020
1293 Clouds 4 1002 93 7000 3.1 110 21:46 12.12.2020
1294 Clouds 4 1002 93 7000 3.1 110 21:19 12.12.2020
1295 Clouds 4 1002 93 10000 3.6 110 20:44 12.12.2020
1296 Clouds 4 1002 93 10000 3.6 110 20:21 12.12.2020
1297 Clouds 5 1001 86 10000 3.6 120 19:51 12.12.2020
1298 Clouds 5 1001 86 10000 3.6 120 19:33 12.12.2020
1299 Clouds 5 1001 86 10000 3.6 120 19:33 12.12.2020
1300 Clouds 5 1001 86 7000 3.1 120 18:56 12.12.2020
1301 Clouds 5 1001 86 7000 3.6 120 18:37 12.12.2020
1302 Clouds 5 1001 86 6000 3.1 120 18:18 12.12.2020
1303 Clouds 5 1001 86 6000 3.1 120 17:40 12.12.2020
1304 Clouds 5 1000 86 6000 3.1 120 16:44 12.12.2020
1305 Clouds 5 999 86 7000 3.6 120 15:57 12.12.2020
1306 Drizzle 5 999 80 7000 3.1 120 15:39 12.12.2020
1307 Clouds 5 999 80 7000 3.6 120 14:54 12.12.2020
1308 Clouds 4 999 86 6000 4.1 130 14:22 12.12.2020
1309 Clouds 4 998 86 6000 4.1 110 13:41 12.12.2020
1310 Clouds 4 998 86 6000 4.1 110 13:23 12.12.2020
1311 Clouds 4 998 86 6000 3.1 110 12:37 12.12.2020
1312 Clouds 3 998 86 6000 4.1 110 11:28 12.12.2020
1313 Clouds 3 997 86 6000 3.6 100 10:46 12.12.2020
1314 Clouds 3 996 86 6000 4.1 100 09:24 12.12.2020
1315 Clouds 3 996 93 6000 4.1 100 08:41 12.12.2020
1316 Clouds 3 995 86 10000 5.1 110 01:59 12.12.2020
1317 Clouds 3 995 86 10000 5.7 110 23:31 11.12.2020
1318 Clouds 4 995 80 10000 5.7 120 21:32 11.12.2020
1319 Clouds 4 995 80 10000 6.2 120 19:46 11.12.2020
1320 Clouds 4 995 80 10000 6.2 130 17:30 11.12.2020
1321 Clouds 4 996 78 10000 6.7 130 14:39 11.12.2020
1322 Clouds 4 997 77 10000 6.7 120 13:46 11.12.2020
1323 Clouds 3 998 77 10000 5.7 130 12:36 11.12.2020
1324 Clouds 3 998 79 10000 6.2 130 11:56 11.12.2020
1325 Clouds 3 998 79 10000 5.7 130 11:37 11.12.2020
1326 Clouds 2 999 93 10000 4.1 120 10:41 11.12.2020
1327 Clouds 2 1000 94 10000 4.6 120 08:23 11.12.2020
1328 Clouds 3 1001 93 7000 3.6 120 05:40 11.12.2020
1329 Clouds 3 1001 93 6000 4.1 120 04:49 11.12.2020
1330 Mist 2 1004 100 2000 3.6 130 01:32 11.12.2020
1331 Mist 2 1005 100 2000 3.6 130 23:38 10.12.2020
1332 Mist 3 1006 100 1500 3.6 120 22:27 10.12.2020
1333 Mist 3 1006 100 1500 3.6 120 21:35 10.12.2020
1334 Mist 3 1006 93 3500 4.1 130 20:39 10.12.2020
1335 Mist 3 1006 93 5000 3.6 130 19:37 10.12.2020
1336 Mist 3 1006 100 5000 3.6 120 18:53 10.12.2020
1337 Clouds 3 1007 100 7000 2.6 120 17:52 10.12.2020
1338 Clouds 4 1007 93 9000 2.1 140 16:25 10.12.2020
1339 Clouds 4 1007 93 9000 2.1 110 15:26 10.12.2020
1340 Clouds 4 1007 93 9000 2.6 110 14:50 10.12.2020
1341 Clouds 4 1007 93 8000 2.1 110 14:26 10.12.2020
1342 Mist 3 1008 100 4800 1.5 100 12:40 10.12.2020
1343 Mist 3 1008 100 3500 1.5 80 11:35 10.12.2020
1344 Drizzle 2 1008 93 5000 0.5 0 08:51 10.12.2020
1345 Mist 2 1008 93 5000 0.5 0 07:48 10.12.2020
1346 Mist 2 1008 93 4200 1.5 130 06:41 10.12.2020
1347 Rain 2 1009 93 6000 1 110 03:36 10.12.2020
1348 Rain 2 1009 93 6000 1 0 02:23 10.12.2020
1349 Clouds 2 1010 93 6000 2.6 170 00:22 10.12.2020
1350 Mist 3 1011 93 4800 3.1 190 21:58 09.12.2020
1351 Mist 3 1010 93 4500 2.1 170 20:28 09.12.2020
1352 Mist 3 1010 93 5000 3.1 170 19:32 09.12.2020
1353 Mist 3 1010 93 4500 1 0 17:43 09.12.2020
1354 Mist 3 1010 93 4500 2.1 160 16:52 09.12.2020
1355 Mist 3 1010 93 4500 1.5 170 16:22 09.12.2020
1356 Mist 3 1010 93 5000 2.1 230 15:30 09.12.2020
1357 Mist 3 1010 93 5000 2.1 140 14:40 09.12.2020
1358 Mist 3 1010 93 5000 2.1 160 14:18 09.12.2020
1359 Mist 3 1010 93 5000 2.6 140 13:19 09.12.2020
1360 Mist 3 1010 93 5000 3.1 130 12:45 09.12.2020
1361 Clouds 3 1010 93 6000 1.5 140 11:53 09.12.2020
1362 Mist 3 1010 93 5000 2.6 130 10:59 09.12.2020
1363 Mist 3 1010 93 5000 1.5 110 09:39 09.12.2020
1364 Rain 3 1009 86 6000 2.6 120 07:57 09.12.2020
1365 Clouds 3 1009 93 6000 2.1 100 05:55 09.12.2020
1366 Clouds 3 1008 93 6000 3.6 110 04:20 09.12.2020
1367 Clouds 3 1008 93 9000 2.1 110 01:59 09.12.2020
1368 Clouds 5 1008 86 9000 2.1 90 23:44 08.12.2020
1369 Clouds 5 1008 86 10000 2.6 70 23:18 08.12.2020
1370 Clouds 4 1007 86 10000 2.1 100 21:30 08.12.2020
1371 Clouds 4 1007 86 10000 3.1 100 19:40 08.12.2020
1372 Clouds 3 1006 86 10000 3.6 80 18:59 08.12.2020
1373 Clouds 3 1006 86 10000 2.6 70 18:27 08.12.2020
1374 Clouds 5 1005 80 10000 2.6 60 15:54 08.12.2020
1375 Clouds 5 1005 75 10000 2.1 100 14:31 08.12.2020
1376 Clouds 5 1005 86 10000 2.6 80 13:35 08.12.2020
1377 Clouds 4 1005 93 10000 1 0 12:32 08.12.2020
1378 Clouds 4 1005 86 10000 2.1 70 11:52 08.12.2020
1379 Clear 3 1005 100 10000 2.6 90 10:49 08.12.2020
1380 Clear 3 1005 93 10000 2.1 80 10:29 08.12.2020
1381 Clouds 3 1005 93 10000 2.1 90 08:53 08.12.2020
1382 Clouds 3 1004 93 10000 2.6 100 07:25 08.12.2020
1383 Clear 2 1004 93 10000 3.1 120 03:43 08.12.2020
1384 Clouds 3 1004 93 10000 2.6 110 01:36 08.12.2020
1385 Clear 3 1003 93 10000 2.6 130 00:43 08.12.2020
1386 Clouds 3 1003 93 10000 2.6 120 22:48 07.12.2020
1387 Clear 3 1002 93 10000 2.6 140 21:58 07.12.2020
1388 Clouds 5 1002 86 10000 4.1 180 20:32 07.12.2020
1389 Clouds 5 1000 86 10000 4.6 160 18:48 07.12.2020
1390 Clouds 5 999 86 10000 4.6 170 17:31 07.12.2020
1391 Clouds 5 999 86 10000 5.1 180 16:56 07.12.2020
1392 Clouds 5 998 93 10000 6.2 190 15:57 07.12.2020
1393 Clouds 5 997 93 10000 6.7 190 15:23 07.12.2020
1394 Clouds 5 997 93 6000 6.2 180 14:26 07.12.2020
1395 Clouds 4 996 100 7000 6.2 170 13:34 07.12.2020
1396 Clouds 4 996 93 10000 5.7 170 11:46 07.12.2020
1397 Clouds 4 996 93 10000 5.7 170 11:27 07.12.2020
1398 Mist 4 995 93 4500 3.6 150 10:22 07.12.2020
1399 Rain 4 994 93 4000 2.6 130 08:32 07.12.2020
1400 Rain 4 994 93 3500 2.1 140 06:51 07.12.2020
1401 Mist 4 995 93 3000 1.5 120 05:26 07.12.2020
1402 Mist 4 996 93 4000 2.1 120 02:18 07.12.2020
1403 Mist 4 997 93 4000 0.5 0 00:33 07.12.2020
1404 Rain 4 997 93 5000 1.5 130 22:46 06.12.2020
1405 Clouds 4 998 93 7000 1 0 21:44 06.12.2020
1406 Clouds 4 998 93 8000 1 0 20:35 06.12.2020
1407 Clouds 4 999 100 8000 2.1 90 19:57 06.12.2020
1408 Clouds 4 999 100 8000 2.1 120 19:20 06.12.2020
1409 Clouds 5 999 93 6000 1.5 100 17:28 06.12.2020
1410 Clouds 5 999 93 6000 2.1 60 16:33 06.12.2020
1411 Mist 5 999 93 5000 2.1 50 14:49 06.12.2020
1412 Mist 4 1001 93 4500 2.1 10 12:59 06.12.2020
1413 Mist 4 1001 93 5000 2.1 30 12:30 06.12.2020
1414 Clouds 3 1001 100 6000 3.6 20 11:42 06.12.2020
1415 Clouds 3 1001 100 6000 3.6 20 11:23 06.12.2020
1416 Mist 3 1001 93 5000 3.6 20 10:34 06.12.2020
1417 Clouds 3 1002 93 10000 4.6 20 08:59 06.12.2020
1418 Clouds 3 1003 93 10000 2.6 30 07:26 06.12.2020
1419 Snow 2 1003 93 10000 2.6 60 04:47 06.12.2020
1420 Clear 1 1004 93 10000 2.1 110 00:45 06.12.2020
1421 Clear 2 1004 93 10000 2.1 110 00:26 06.12.2020
1422 Clear 2 1004 93 10000 3.6 110 23:55 05.12.2020
1423 Clear 2 1004 93 10000 1.5 80 22:24 05.12.2020
1424 Clear 2 1004 93 10000 1 0 21:55 05.12.2020
1425 Clear 2 1003 93 10000 1.5 120 21:28 05.12.2020
1426 Clear 3 1002 93 10000 3.6 140 19:54 05.12.2020
1427 Clouds 4 1002 93 10000 3.6 130 18:46 05.12.2020
1428 Clouds 4 1001 93 10000 2.6 120 17:39 05.12.2020
1429 Clouds 5 1000 86 10000 3.1 190 16:45 05.12.2020
1430 Clouds 5 1000 86 10000 3.1 190 16:25 05.12.2020
1431 Clouds 6 999 87 10000 4.6 200 14:39 05.12.2020
1432 Mist 4 997 100 5000 2.6 200 12:36 05.12.2020
1433 Mist 3 997 93 4500 2.1 180 11:50 05.12.2020
1434 Snow 2 996 94 3500 3.1 150 10:35 05.12.2020
1435 Snow 1 995 97 2500 3.1 130 08:54 05.12.2020
1436 Snow 1 993 97 5000 1 60 07:48 05.12.2020
1437 Snow 2 993 93 10000 3.1 70 05:33 05.12.2020
1438 Clouds 3 993 86 10000 2.1 100 00:40 05.12.2020
1439 Clear 3 993 86 10000 2.6 110 23:23 04.12.2020
1440 Rain 4 992 86 10000 4.1 110 21:34 04.12.2020
1441 Rain 4 991 80 10000 5.1 120 19:21 04.12.2020
1442 Rain 4 990 80 10000 5.1 120 18:39 04.12.2020
1443 Clear 4 990 80 10000 6.2 120 17:47 04.12.2020
1444 Clear 5 989 80 10000 3.6 110 16:37 04.12.2020
1445 Clear 6 988 81 10000 5.1 120 15:25 04.12.2020
1446 Clouds 6 988 80 10000 4.6 120 13:38 04.12.2020
1447 Clouds 6 988 80 10000 4.6 120 13:20 04.12.2020
1448 Clear 5 987 80 10000 6.2 130 12:41 04.12.2020
1449 Clouds 3 987 75 10000 6.7 120 10:38 04.12.2020
1450 Clouds 3 987 80 10000 7.2 130 09:30 04.12.2020
1451 Rain 2 987 86 10000 7.7 120 06:40 04.12.2020
1452 Clouds 2 987 74 10000 7.2 120 04:54 04.12.2020
1453 Clouds 2 990 74 10000 6.7 130 01:54 04.12.2020
1454 Clear 3 992 81 10000 5.1 130 22:51 03.12.2020
1455 Clear 3 993 80 10000 5.7 120 21:56 03.12.2020
1456 Clouds 3 993 80 10000 6.7 130 20:47 03.12.2020
1457 Clouds 3 994 86 10000 5.7 140 19:26 03.12.2020
1458 Clouds 3 995 86 10000 6.2 140 18:49 03.12.2020
1459 Clouds 3 996 86 10000 6.7 140 17:22 03.12.2020
1460 Clouds 4 996 80 10000 5.7 150 16:59 03.12.2020
1461 Clouds 5 997 80 10000 5.7 160 15:39 03.12.2020
1462 Clouds 5 997 80 10000 5.7 160 15:21 03.12.2020
1463 Clouds 4 998 86 10000 6.2 160 14:25 03.12.2020
1464 Clouds 4 999 86 10000 5.7 170 13:24 03.12.2020
1465 Clouds 4 1000 86 10000 5.1 150 12:26 03.12.2020
1466 Clouds 4 1002 93 10000 5.7 160 11:24 03.12.2020
1467 Drizzle 3 1003 93 8000 5.1 140 08:56 03.12.2020
1468 Clouds 2 1006 93 6000 3.6 140 05:18 03.12.2020
1469 Clouds 2 1008 88 10000 3.1 140 02:27 03.12.2020
1470 Clouds 2 1010 93 10000 3.6 150 00:48 03.12.2020
1471 Clouds 3 1011 86 10000 3.6 160 22:47 02.12.2020
1472 Drizzle 3 1012 86 10000 3.1 180 22:26 02.12.2020
1473 Clouds 3 1012 93 10000 2.6 160 20:57 02.12.2020
1474 Clouds 3 1013 86 10000 3.6 150 20:39 02.12.2020
1475 Clouds 3 1013 86 10000 3.6 150 20:21 02.12.2020
1476 Mist 3 1014 93 5000 3.1 140 18:37 02.12.2020
1477 Mist 3 1014 93 4500 2.6 140 17:45 02.12.2020
1478 Mist 3 1014 93 4500 2.6 140 17:27 02.12.2020
1479 Mist 3 1016 93 4000 2.1 120 15:21 02.12.2020
1480 Clouds 3 1018 93 6000 3.1 120 12:45 02.12.2020
1481 Mist 3 1020 93 5000 2.1 120 10:29 02.12.2020
1482 Mist 3 1020 93 4500 2.1 100 09:27 02.12.2020
1483 Clouds 4 1021 93 6000 3.6 80 04:39 02.12.2020
1484 Clouds 4 1021 100 9000 3.1 70 22:21 01.12.2020
1485 Clouds 4 1021 100 8000 3.1 80 21:53 01.12.2020
1486 Clouds 5 1019 93 10000 4.1 50 19:36 01.12.2020
1487 Clouds 5 1018 93 10000 4.1 50 18:45 01.12.2020
1488 Clouds 5 1016 100 8000 4.1 50 16:37 01.12.2020
1489 Clouds 6 1014 93 10000 4.1 40 13:54 01.12.2020
1490 Mist 6 1013 100 4500 3.6 40 12:28 01.12.2020
1491 Fog 6 1012 100 800 2.1 70 11:28 01.12.2020
1492 Drizzle 6 1011 100 1200 1 90 10:44 01.12.2020
1493 Drizzle 6 1011 100 1200 1 90 10:25 01.12.2020
1494 Drizzle 5 1009 100 1500 1.5 140 07:19 01.12.2020
1495 Clouds 4 1009 100 9000 3.6 190 02:41 01.12.2020
1496 Rain 4 1010 93 9000 5.1 200 00:57 01.12.2020
1497 Rain 3 1011 100 9000 4.6 190 23:49 30.11.2020
1498 Clouds 3 1012 93 7000 5.1 200 23:18 30.11.2020
1499 Rain 3 1012 100 6000 4.6 200 22:36 30.11.2020
1500 Rain 2 1012 100 6000 4.6 200 22:18 30.11.2020
1501 Rain 2 1016 89 4500 4.6 200 19:46 30.11.2020
1502 Rain 1 1017 86 5000 5.1 200 18:44 30.11.2020
1503 Rain 1 1017 86 6000 5.1 200 18:21 30.11.2020
1504 Rain 1 1018 86 7000 5.7 200 17:45 30.11.2020
1505 Clouds 1 1018 80 8000 4.1 200 16:52 30.11.2020
1506 Clouds 2 1020 74 10000 5.1 200 14:47 30.11.2020
1507 Clear 2 1021 74 10000 4.6 200 13:55 30.11.2020
1508 Clear 2 1022 80 10000 4.6 200 12:59 30.11.2020
1509 Clear 2 1023 80 10000 3.6 200 12:25 30.11.2020
1510 Clear 2 1024 74 10000 3.6 180 10:59 30.11.2020
1511 Clear 1 1024 80 10000 3.6 180 10:21 30.11.2020
1512 Clouds 1 1025 86 10000 3.1 190 08:52 30.11.2020
1513 Clouds 2 1027 97 10000 1.5 90 01:25 30.11.2020
1514 Clouds 3 1027 86 10000 1.5 60 23:28 29.11.2020
1515 Clouds 3 1028 80 10000 1 20 21:44 29.11.2020
1516 Clouds 3 1028 80 10000 1 20 21:44 29.11.2020
1517 Clouds 3 1028 80 10000 1 20 21:25 29.11.2020
1518 Clouds 3 1028 80 10000 2.1 30 19:19 29.11.2020
1519 Clouds 4 1027 86 10000 1.5 50 17:34 29.11.2020
1520 Clouds 5 1027 75 10000 1.5 50 14:46 29.11.2020
1521 Clouds 3 1028 80 10000 1.5 60 12:45 29.11.2020
1522 Clouds 3 1028 76 10000 2.1 70 11:37 29.11.2020
1523 Clouds -2 1028 100 10000 0.5 0 08:54 29.11.2020
1524 Clouds -2 1028 92 10000 0.5 30 08:34 29.11.2020
1525 Clear 1 1027 86 10000 2.6 70 02:32 29.11.2020
1526 Clouds 2 1027 95 10000 4.6 110 22:59 28.11.2020
1527 Clouds 2 1027 94 10000 4.1 110 22:27 28.11.2020
1528 Clouds 2 1026 92 10000 4.6 90 20:24 28.11.2020
1529 Clouds 3 1026 91 10000 6.2 80 19:28 28.11.2020
1530 Clouds 4 1026 80 8000 5.1 90 18:58 28.11.2020
1531 Clouds 4 1025 80 8000 3.6 100 18:22 28.11.2020
1532 Clouds 5 1024 80 8000 4.1 110 16:58 28.11.2020
1533 Clouds 5 1024 80 8000 3.6 100 14:59 28.11.2020
1534 Clouds 5 1024 86 6000 4.1 100 13:58 28.11.2020
1535 Mist 5 1024 93 4800 4.6 100 11:29 28.11.2020
1536 Clouds 6 1023 87 6000 3.1 110 09:27 28.11.2020
1537 Clouds 5 1022 93 10000 3.6 80 03:49 28.11.2020
1538 Clouds 6 1021 87 10000 3.6 110 02:22 28.11.2020
1539 Clouds 7 1021 81 10000 3.6 110 23:23 27.11.2020
1540 Clouds 7 1021 81 10000 4.1 110 22:54 27.11.2020
1541 Clouds 7 1021 87 10000 3.1 90 20:55 27.11.2020
1542 Clouds 7 1021 87 10000 3.1 90 20:28 27.11.2020
1543 Clouds 8 1021 87 10000 2.6 100 19:22 27.11.2020
1544 Clouds 8 1021 87 10000 2.1 110 17:50 27.11.2020
1545 Clouds 9 1021 87 10000 3.1 120 14:46 27.11.2020
1546 Clouds 8 1021 93 10000 2.6 100 13:24 27.11.2020
1547 Clouds 8 1021 93 10000 2.6 110 12:47 27.11.2020
1548 Clouds 8 1021 93 10000 2.1 90 11:35 27.11.2020
1549 Clouds 7 1021 93 10000 2.1 70 10:50 27.11.2020
1550 Clouds 7 1021 100 10000 2.1 90 09:57 27.11.2020
1551 Clouds 6 1020 95 10000 2.21 78 07:26 27.11.2020
1552 Clouds 7 1020 94 10000 0.09 53 22:28 26.11.2020
1553 Mist 7 1020 100 2800 1 0 21:56 26.11.2020
1554 Mist 7 1020 100 2800 1 0 20:59 26.11.2020
1555 Clouds 8 1020 100 10000 0.5 260 18:59 26.11.2020
1556 Rain 8 1020 100 10000 1 300 17:53 26.11.2020
1557 Clouds 10 1020 93 10000 2.1 270 14:57 26.11.2020
1558 Clouds 10 1020 93 7000 3.6 260 13:42 26.11.2020
1559 Mist 9 1020 100 3800 4.1 250 12:44 26.11.2020
1560 Mist 9 1020 100 3800 4.1 250 12:23 26.11.2020
1561 Mist 9 1019 100 4000 4.1 250 10:38 26.11.2020
1562 Mist 9 1019 100 4200 4.6 230 09:48 26.11.2020
1563 Clouds 8 1019 100 4500 4.1 230 09:30 26.11.2020
1564 Rain 8 1018 93 6000 4.1 240 08:40 26.11.2020
1565 Clouds 8 1018 93 8000 3.6 220 06:56 26.11.2020
1566 Clouds 5 1018 87 10000 2.6 190 00:46 26.11.2020
1567 Clouds 4 1017 93 10000 2.6 200 21:29 25.11.2020
1568 Clear 4 1017 86 10000 2.6 180 20:19 25.11.2020
1569 Clear 4 1016 93 10000 3.1 180 18:58 25.11.2020
1570 Clear 5 1016 86 10000 3.1 160 17:24 25.11.2020
1571 Clear 8 1016 75 10000 4.1 180 15:42 25.11.2020
1572 Clear 8 1016 75 10000 4.1 190 14:42 25.11.2020
1573 Clear 8 1016 81 10000 3.6 190 13:44 25.11.2020
1574 Clear 7 1017 81 10000 2.6 170 12:30 25.11.2020
1575 Clear 5 1017 86 10000 2.6 140 11:21 25.11.2020
1576 Clouds 1 1017 100 9000 2.1 140 09:20 25.11.2020
1577 Clouds 1 1017 100 9000 2.1 140 08:49 25.11.2020
1578 Clear 2 1017 93 10000 2.1 140 07:20 25.11.2020
1579 Clear 2 1017 93 10000 1.5 140 03:49 25.11.2020
1580 Clear 2 1018 100 10000 2.6 140 01:34 25.11.2020
1581 Clear 3 1019 93 10000 2.6 140 00:18 25.11.2020
1582 Clear 4 1019 93 10000 2.1 130 23:35 24.11.2020
1583 Clear 4 1020 93 10000 3.1 150 22:39 24.11.2020
1584 Clear 4 1020 93 10000 3.1 150 21:35 24.11.2020
1585 Clear 4 1020 100 10000 2.6 150 20:58 24.11.2020
1586 Clear 4 1020 100 10000 2.6 150 19:48 24.11.2020
1587 Clear 7 1021 93 10000 2.6 190 17:32 24.11.2020
1588 Clouds 7 1021 87 10000 3.1 190 16:58 24.11.2020
1589 Clouds 8 1021 81 10000 3.6 190 16:38 24.11.2020
1590 Clouds 9 1021 81 10000 4.6 200 15:56 24.11.2020
1591 Clouds 9 1021 81 10000 5.1 200 15:20 24.11.2020
1592 Clouds 9 1021 81 10000 4.6 210 14:44 24.11.2020
1593 Clouds 9 1022 81 9000 6.2 220 13:38 24.11.2020
1594 Clouds 8 1023 87 7000 5.1 210 12:39 24.11.2020
1595 Clouds 8 1023 87 7000 5.1 210 12:20 24.11.2020
1596 Clouds 8 1023 87 7000 4.1 210 11:33 24.11.2020
1597 Clouds 7 1023 93 6000 5.7 210 10:25 24.11.2020
1598 Clouds 7 1023 93 6000 4.6 220 09:40 24.11.2020
1599 Clouds 7 1023 93 6000 5.1 220 08:59 24.11.2020
1600 Clouds 6 1023 93 10000 4.1 210 06:50 24.11.2020
1601 Clear 2 1026 93 10000 2.6 150 01:24 24.11.2020
1602 Clear 4 1027 93 10000 3.1 200 22:25 23.11.2020
1603 Clear 4 1027 93 10000 3.6 210 21:33 23.11.2020
1604 Clear 5 1027 93 10000 3.1 210 20:36 23.11.2020
1605 Clear 5 1027 93 10000 2.1 220 20:18 23.11.2020
1606 Clouds 7 1027 87 10000 3.1 210 17:59 23.11.2020
1607 Clouds 7 1027 87 10000 3.1 220 17:21 23.11.2020
1608 Clouds 8 1026 75 10000 4.1 240 16:19 23.11.2020
1609 Clouds 10 1026 71 10000 6.2 270 14:46 23.11.2020
1610 Clouds 10 1026 71 10000 6.2 270 14:46 23.11.2020
1611 Clouds 9 1026 76 10000 6.2 260 12:55 23.11.2020
1612 Clouds 9 1026 76 10000 5.7 260 12:34 23.11.2020
1613 Clouds 8 1026 81 10000 5.1 260 11:44 23.11.2020
1614 Clouds 7 1025 81 10000 5.7 250 10:47 23.11.2020
1615 Clouds 5 1025 86 10000 5.1 250 09:31 23.11.2020
1616 Clouds 4 1024 93 10000 4.1 240 08:39 23.11.2020
1617 Clouds 5 1023 86 10000 4.6 240 07:25 23.11.2020
1618 Clear 5 1023 93 10000 3.6 220 00:32 23.11.2020
1619 Clear 4 1023 93 10000 4.1 230 23:28 22.11.2020
1620 Clear 5 1023 86 10000 4.1 230 22:18 22.11.2020
1621 Clear 5 1023 93 10000 3.6 240 20:53 22.11.2020
1622 Clear 6 1023 86 10000 4.1 250 19:53 22.11.2020
1623 Clear 6 1022 93 10000 3.6 250 18:53 22.11.2020
1624 Clouds 9 1022 70 10000 5.7 270 16:54 22.11.2020
1625 Clouds 9 1022 70 10000 5.7 270 15:53 22.11.2020
1626 Clouds 11 1022 71 10000 7.2 260 14:39 22.11.2020
1627 Clouds 10 1022 81 10000 7.2 260 12:50 22.11.2020
1628 Clouds 11 1022 81 10000 6.7 260 11:57 22.11.2020
1629 Clouds 10 1022 87 10000 6.2 250 11:21 22.11.2020
1630 Clouds 10 1021 87 10000 6.7 250 10:45 22.11.2020
1631 Clouds 9 1021 93 10000 5.7 240 09:32 22.11.2020
1632 Drizzle 9 1021 100 3200 7.2 230 01:50 22.11.2020
1633 Drizzle 9 1022 93 10000 6.7 230 23:53 21.11.2020
1634 Clouds 9 1023 87 10000 6.2 230 22:25 21.11.2020
1635 Clouds 8 1023 93 10000 7.2 220 21:30 21.11.2020
1636 Drizzle 8 1023 93 10000 6.2 230 20:35 21.11.2020
1637 Drizzle 8 1023 93 10000 6.2 230 19:57 21.11.2020
1638 Drizzle 8 1023 93 10000 7.2 230 19:37 21.11.2020
1639 Drizzle 8 1024 87 10000 7.7 230 18:31 21.11.2020
1640 Clouds 8 1024 87 10000 6.7 220 17:29 21.11.2020
1641 Clouds 7 1024 93 10000 5.7 220 16:44 21.11.2020
1642 Drizzle 7 1024 93 6000 6.7 210 15:23 21.11.2020
1643 Drizzle 7 1024 93 6000 6.7 210 14:48 21.11.2020
1644 Clouds 7 1024 93 8000 7.2 210 14:27 21.11.2020
1645 Clouds 6 1026 93 7000 6.2 210 12:42 21.11.2020
1646 Clouds 6 1026 93 7000 6.2 210 12:20 21.11.2020
1647 Clouds 6 1026 87 10000 7.2 210 11:23 21.11.2020
1648 Clouds 5 1026 86 10000 6.7 210 10:27 21.11.2020
1649 Clouds 5 1027 80 10000 6.7 220 08:52 21.11.2020
1650 Clouds 5 1027 75 10000 6.7 200 07:52 21.11.2020
1651 Clouds 3 1029 86 10000 4.6 190 05:24 21.11.2020
1652 Clear 2 1032 86 10000 3.1 180 01:43 21.11.2020
1653 Clear 2 1032 85 10000 3.1 190 23:59 20.11.2020
1654 Clear 3 1033 93 10000 3.6 200 22:31 20.11.2020
1655 Clear 3 1033 93 10000 2.1 210 21:44 20.11.2020
1656 Clear 3 1033 93 10000 2.1 210 21:21 20.11.2020
1657 Clear 3 1033 93 10000 2.1 210 21:21 20.11.2020
1658 Clouds 4 1033 93 10000 3.1 190 19:55 20.11.2020
1659 Clouds 4 1033 93 10000 2.1 210 18:53 20.11.2020
1660 Clear 4 1033 93 10000 2.1 220 17:59 20.11.2020
1661 Clouds 5 1033 86 10000 2.6 230 17:29 20.11.2020
1662 Clouds 5 1032 86 10000 3.1 240 16:47 20.11.2020
1663 Clouds 7 1032 81 10000 5.1 250 15:59 20.11.2020
1664 Clouds 7 1032 75 10000 4.6 260 15:34 20.11.2020
1665 Clouds 7 1032 81 10000 2.6 260 13:49 20.11.2020
1666 Clouds 7 1032 81 10000 4.6 260 13:19 20.11.2020
1667 Clouds 7 1032 81 10000 5.1 250 12:40 20.11.2020
1668 Clouds 6 1032 93 10000 2.1 280 11:48 20.11.2020
1669 Clouds 6 1032 93 10000 2.1 280 11:21 20.11.2020
1670 Rain 4 1031 93 10000 4.1 250 09:46 20.11.2020
1671 Clouds 3 1030 93 10000 4.1 260 08:28 20.11.2020
1672 Clouds 3 1029 93 10000 5.1 260 07:35 20.11.2020
1673 Clouds 4 1028 93 10000 5.1 270 03:45 20.11.2020
1674 Clouds 4 1026 86 10000 4.6 260 23:36 19.11.2020
1675 Clear 3 1025 86 10000 4.1 260 22:29 19.11.2020
1676 Clear 4 1025 77 10000 3.6 260 21:50 19.11.2020
1677 Clouds 5 1024 75 10000 5.1 290 20:42 19.11.2020
1678 Clouds 5 1024 75 10000 5.1 290 20:19 19.11.2020
1679 Clouds 6 1023 75 10000 3.6 300 19:26 19.11.2020
1680 Clouds 7 1022 70 10000 5.7 290 18:35 19.11.2020
1681 Clouds 8 1020 70 10000 6.2 300 17:18 19.11.2020
1682 Clouds 8 1019 70 10000 7.2 300 16:26 19.11.2020
1683 Clouds 8 1018 81 10000 9.3 310 15:29 19.11.2020
1684 Clouds 10 1015 76 10000 8.2 290 13:49 19.11.2020
1685 Clouds 9 1015 93 10000 8.7 280 13:30 19.11.2020
1686 Clouds 10 1014 81 10000 8.2 260 12:51 19.11.2020
1687 Clouds 10 1014 87 10000 7.7 260 12:28 19.11.2020
1688 Rain 10 1013 76 10000 8.2 240 11:40 19.11.2020
1689 Clouds 10 1013 76 10000 8.2 240 11:20 19.11.2020
1690 Clouds 9 1012 76 10000 9.8 230 10:29 19.11.2020
1691 Clouds 9 1012 76 10000 8.2 230 09:47 19.11.2020
1692 Clouds 9 1012 76 10000 8.2 230 09:27 19.11.2020
1693 Clouds 9 1013 76 10000 7.7 240 08:21 19.11.2020
1694 Clouds 9 1013 76 10000 8.2 250 07:35 19.11.2020
1695 Clouds 14 1011 67 10000 7.2 210 01:46 19.11.2020
1696 Clouds 14 1012 67 10000 8.7 230 00:32 19.11.2020
1697 Clouds 13 1012 66 10000 6.2 210 23:31 18.11.2020
1698 Clear 13 1012 71 10000 5.1 200 22:58 18.11.2020
1699 Clear 12 1012 76 10000 6.7 200 22:28 18.11.2020
1700 Clear 12 1013 76 10000 5.7 190 21:43 18.11.2020
1701 Clear 12 1013 76 10000 5.7 190 21:25 18.11.2020
1702 Clear 11 1014 81 10000 4.6 180 20:32 18.11.2020
1703 Clear 11 1015 81 10000 5.1 170 19:42 18.11.2020
1704 Clear 11 1015 81 10000 5.1 170 19:21 18.11.2020
1705 Clear 10 1016 87 10000 3.6 160 18:40 18.11.2020
1706 Clear 10 1017 87 10000 4.1 160 17:44 18.11.2020
1707 Clear 12 1018 76 10000 5.1 170 16:27 18.11.2020
1708 Clear 12 1019 76 10000 5.1 180 15:59 18.11.2020
1709 Clouds 13 1020 71 10000 6.2 200 14:41 18.11.2020
1710 Clouds 13 1020 71 10000 6.2 200 13:55 18.11.2020
1711 Clouds 12 1021 76 10000 6.7 200 13:21 18.11.2020
1712 Clouds 12 1022 76 10000 5.1 210 12:43 18.11.2020
1713 Clouds 12 1022 76 10000 5.1 200 11:51 18.11.2020
1714 Clouds 12 1022 81 10000 5.1 200 10:56 18.11.2020
1715 Clouds 12 1022 81 10000 4.6 200 10:27 18.11.2020
1716 Clouds 11 1023 87 10000 4.1 200 08:40 18.11.2020
1717 Clouds 11 1023 87 10000 5.1 210 06:49 18.11.2020
1718 Clouds 11 1023 93 10000 4.1 210 04:24 18.11.2020
1719 Drizzle 11 1023 100 2500 4.6 210 00:20 18.11.2020
1720 Drizzle 11 1023 100 2500 4.1 220 23:24 17.11.2020
1721 Drizzle 11 1023 100 4500 3.1 210 22:44 17.11.2020
1722 Drizzle 12 1023 100 4500 3.1 210 22:25 17.11.2020
1723 Drizzle 12 1023 100 4000 4.6 210 21:46 17.11.2020
1724 Clouds 12 1023 93 4500 4.1 220 21:22 17.11.2020
1725 Clouds 12 1022 93 10000 5.1 220 20:43 17.11.2020
1726 Clouds 12 1022 93 10000 5.1 220 20:22 17.11.2020
1727 Clouds 12 1021 93 10000 4.6 220 18:56 17.11.2020
1728 Clouds 11 1022 100 10000 4.6 220 18:22 17.11.2020
1729 Drizzle 11 1021 100 5000 4.1 220 17:27 17.11.2020
1730 Clouds 12 1021 93 10000 5.7 230 16:33 17.11.2020
1731 Clouds 12 1021 93 10000 6.2 240 15:54 17.11.2020
1732 Clouds 12 1021 93 10000 6.2 240 15:35 17.11.2020
1733 Clouds 12 1021 93 10000 6.7 240 14:58 17.11.2020
1734 Clouds 12 1020 93 8000 6.2 240 14:29 17.11.2020
1735 Clouds 12 1020 93 10000 6.2 230 13:45 17.11.2020
1736 Clouds 12 1020 93 10000 6.2 230 13:20 17.11.2020
1737 Drizzle 12 1020 93 8000 6.7 230 12:41 17.11.2020
1738 Drizzle 11 1019 100 3500 6.2 230 11:44 17.11.2020
1739 Drizzle 11 1019 93 6000 6.2 220 10:57 17.11.2020
1740 Drizzle 11 1019 93 3200 6.2 220 10:37 17.11.2020
1741 Drizzle 11 1019 93 6000 6.2 210 09:51 17.11.2020
1742 Drizzle 10 1018 100 5000 5.7 210 09:30 17.11.2020
1743 Drizzle 10 1018 93 8000 5.1 210 08:25 17.11.2020
1744 Drizzle 10 1018 93 8000 5.1 210 07:50 17.11.2020
1745 Drizzle 10 1018 93 4500 5.7 210 07:26 17.11.2020
1746 Clouds 9 1018 87 10000 5.7 210 04:28 17.11.2020
1747 Clouds 8 1019 93 10000 4.1 210 02:59 17.11.2020
1748 Clouds 9 1019 87 10000 5.7 220 02:21 17.11.2020
1749 Clouds 9 1018 93 10000 5.1 230 00:56 17.11.2020
1750 Clouds 9 1018 93 10000 5.7 230 23:51 16.11.2020
1751 Clouds 10 1018 87 10000 5.7 240 23:29 16.11.2020
1752 Clouds 10 1017 93 10000 5.7 230 22:48 16.11.2020
1753 Clouds 10 1017 93 10000 6.2 240 22:21 16.11.2020
1754 Clouds 10 1016 93 10000 5.7 240 21:49 16.11.2020
1755 Clouds 10 1016 93 10000 4.6 220 21:25 16.11.2020
1756 Clouds 10 1016 93 10000 3.6 220 20:59 16.11.2020
1757 Clouds 10 1015 93 10000 4.6 230 20:25 16.11.2020
1758 Clouds 10 1015 93 10000 4.1 240 19:45 16.11.2020
1759 Clouds 11 1015 87 10000 4.6 240 19:27 16.11.2020
1760 Clouds 11 1014 87 10000 5.7 230 18:48 16.11.2020
1761 Clouds 11 1014 87 10000 5.7 230 17:57 16.11.2020
1762 Clouds 11 1013 81 10000 6.2 240 17:26 16.11.2020
1763 Clouds 11 1013 87 10000 5.7 230 16:57 16.11.2020
1764 Clouds 11 1012 87 10000 5.1 230 16:39 16.11.2020
1765 Clouds 11 1012 87 10000 6.7 230 16:19 16.11.2020
1766 Clouds 11 1011 87 10000 5.7 230 15:43 16.11.2020
1767 Clouds 11 1011 87 10000 5.7 230 15:22 16.11.2020
1768 Drizzle 11 1011 87 10000 7.2 230 14:47 16.11.2020
1769 Clouds 11 1010 81 10000 7.7 230 13:37 16.11.2020
1770 Clouds 11 1010 76 10000 7.2 220 12:45 16.11.2020
1771 Clouds 11 1010 76 10000 7.2 220 12:45 16.11.2020
1772 Clouds 11 1009 81 10000 7.2 220 12:25 16.11.2020
1773 Clouds 11 1009 81 10000 6.7 210 11:38 16.11.2020
1774 Clouds 10 1009 81 10000 6.7 210 11:20 16.11.2020
1775 Clouds 10 1008 81 10000 7.2 230 10:42 16.11.2020
1776 Clouds 10 1008 81 10000 7.2 230 10:24 16.11.2020
1777 Clouds 10 1007 81 10000 6.7 220 09:43 16.11.2020
1778 Clouds 9 1007 81 10000 6.7 220 09:23 16.11.2020
1779 Clouds 9 1006 81 10000 6.7 210 08:41 16.11.2020
1780 Clouds 9 1005 81 10000 5.7 200 07:45 16.11.2020
1781 Clear 8 1005 81 10000 5.1 190 06:50 16.11.2020
1782 Clouds 8 1005 81 10000 4.6 190 06:29 16.11.2020
1783 Clouds 8 1004 81 10000 5.1 200 04:48 16.11.2020
1784 Clouds 8 1003 81 10000 5.1 190 03:45 16.11.2020
1785 Clear 8 1003 93 10000 3.6 180 01:44 16.11.2020
1786 Clear 8 1002 93 10000 3.1 180 23:58 15.11.2020
1787 Clouds 8 1002 93 10000 3.1 190 23:28 15.11.2020
1788 Clouds 8 1002 93 10000 2.1 170 22:54 15.11.2020
1789 Rain 9 1002 93 10000 5.1 270 22:22 15.11.2020
1790 Rain 12 1001 72 10000 7.7 190 21:47 15.11.2020
1791 Rain 13 999 76 10000 7.7 150 21:27 15.11.2020
1792 Clouds 14 999 76 10000 6.7 150 20:48 15.11.2020
1793 Clouds 14 1000 76 10000 6.7 160 20:28 15.11.2020
1794 Clouds 14 1001 76 10000 7.2 170 19:54 15.11.2020
1795 Rain 14 1001 67 10000 7.2 160 19:36 15.11.2020
1796 Rain 15 1001 67 10000 7.2 160 19:18 15.11.2020
1797 Rain 15 1002 72 10000 6.7 160 18:41 15.11.2020
1798 Clear 15 1002 72 10000 6.7 160 18:23 15.11.2020
1799 Clear 14 1002 76 10000 6.2 160 17:47 15.11.2020
1800 Clear 15 1002 72 10000 7.2 160 17:25 15.11.2020
1801 Clear 15 1002 72 10000 7.2 150 16:52 15.11.2020
1802 Clear 15 1003 72 10000 6.2 150 16:24 15.11.2020
1803 Clear 15 1003 72 10000 6.2 150 15:58 15.11.2020
1804 Clear 16 1004 72 10000 6.2 150 15:39 15.11.2020
1805 Clear 16 1005 72 10000 5.1 150 15:21 15.11.2020
1806 Clear 16 1005 72 10000 5.1 150 14:45 15.11.2020
1807 Clear 16 1005 72 10000 6.2 160 14:22 15.11.2020
1808 Clouds 16 1006 67 10000 7.7 180 13:41 15.11.2020
1809 Clear 16 1007 67 10000 7.7 190 13:18 15.11.2020
1810 Clear 16 1007 67 10000 6.7 190 12:42 15.11.2020
1811 Clear 15 1007 67 10000 6.7 190 12:18 15.11.2020
1812 Clear 15 1007 72 10000 6.7 180 11:42 15.11.2020
1813 Clear 15 1007 72 10000 6.7 170 11:18 15.11.2020
1814 Clear 14 1008 76 10000 6.7 170 10:49 15.11.2020
1815 Clear 14 1008 76 10000 6.7 170 10:30 15.11.2020
1816 Clear 13 1008 82 10000 6.2 170 09:46 15.11.2020
1817 Clear 12 1009 76 10000 4.6 170 09:23 15.11.2020
1818 Clear 12 1009 76 10000 4.6 180 08:54 15.11.2020
1819 Clear 12 1009 76 10000 5.1 180 08:32 15.11.2020
1820 Clear 12 1009 81 10000 4.6 180 07:44 15.11.2020
1821 Clear 11 1009 81 10000 5.1 180 05:37 15.11.2020
1822 Clear 11 1010 81 10000 5.1 180 04:52 15.11.2020
1823 Clear 10 1011 87 10000 3.6 160 01:37 15.11.2020
1824 Clear 10 1011 87 10000 3.1 150 00:30 15.11.2020
1825 Clear 9 1012 93 10000 3.1 150 23:44 14.11.2020
1826 Clear 10 1012 87 10000 2.6 150 22:54 14.11.2020
1827 Clear 10 1012 93 10000 3.6 140 22:33 14.11.2020
1828 Clear 10 1012 93 10000 3.1 140 21:56 14.11.2020
1829 Clear 10 1012 93 10000 3.1 130 21:37 14.11.2020
1830 Clear 10 1012 93 10000 3.1 130 21:19 14.11.2020
1831 Clear 11 1013 93 10000 3.1 140 20:37 14.11.2020
1832 Clear 11 1013 93 10000 3.1 140 20:19 14.11.2020
1833 Clear 11 1013 93 10000 2.6 150 19:36 14.11.2020
1834 Clear 12 1013 93 10000 3.1 140 18:58 14.11.2020
1835 Clear 11 1013 100 10000 3.6 150 18:39 14.11.2020
1836 Clear 12 1013 100 10000 3.6 150 18:21 14.11.2020
1837 Clouds 13 1014 93 10000 3.1 150 17:44 14.11.2020
1838 Clouds 13 1014 93 10000 3.1 150 17:26 14.11.2020
1839 Clouds 13 1014 93 10000 2.6 140 16:52 14.11.2020
1840 Clouds 13 1014 93 10000 2.6 150 16:31 14.11.2020
1841 Clouds 13 1014 93 10000 3.6 160 15:55 14.11.2020
1842 Clouds 13 1014 87 10000 3.6 170 15:31 14.11.2020
1843 Clouds 13 1015 87 7000 3.1 170 14:56 14.11.2020
1844 Clouds 13 1015 93 7000 3.1 170 14:30 14.11.2020
1845 Clouds 13 1015 93 4500 3.1 170 13:53 14.11.2020
1846 Clouds 13 1015 93 6000 3.1 160 13:30 14.11.2020
1847 Clouds 13 1016 93 6000 3.6 180 12:56 14.11.2020
1848 Clouds 13 1016 87 6000 3.1 190 12:35 14.11.2020
1849 Rain 12 1016 93 5000 2.6 190 11:56 14.11.2020
1850 Mist 12 1016 93 4700 2.6 180 11:38 14.11.2020
1851 Rain 11 1016 100 4500 2.6 170 11:18 14.11.2020
1852 Rain 11 1016 100 4200 2.1 180 10:40 14.11.2020
1853 Rain 11 1016 100 4200 2.1 180 10:22 14.11.2020
1854 Mist 10 1016 100 4000 2.1 180 09:45 14.11.2020
1855 Mist 10 1016 100 4000 2.1 180 09:26 14.11.2020
1856 Mist 10 1016 100 3800 2.1 200 08:42 14.11.2020
1857 Mist 10 1016 100 3800 2.1 200 08:22 14.11.2020
1858 Mist 11 1016 100 4000 2.1 210 07:42 14.11.2020
1859 Mist 11 1016 100 4000 2.1 210 07:42 14.11.2020
1860 Mist 11 1016 100 4000 2.1 210 07:20 14.11.2020
1861 Mist 11 1016 100 2000 3.1 210 06:28 14.11.2020
1862 Mist 11 1015 100 5000 2.1 190 05:18 14.11.2020
1863 Clouds 12 1016 93 7000 2.1 210 03:21 14.11.2020
1864 Clouds 11 1015 93 9000 3.1 190 00:42 14.11.2020
1865 Clouds 11 1015 100 9000 2.6 210 23:38 13.11.2020
1866 Clouds 11 1015 100 9000 2.6 210 23:20 13.11.2020
1867 Clouds 11 1015 93 10000 2.6 190 22:42 13.11.2020
1868 Clouds 11 1015 93 10000 2.6 190 22:23 13.11.2020
1869 Clouds 11 1015 93 10000 2.6 200 21:51 13.11.2020
1870 Clouds 11 1014 93 10000 3.1 200 21:29 13.11.2020
1871 Clouds 10 1014 93 10000 2.1 180 20:55 13.11.2020
1872 Clouds 10 1014 93 10000 2.6 170 20:37 13.11.2020
1873 Clouds 10 1014 93 10000 2.6 170 20:18 13.11.2020
1874 Clouds 10 1014 87 10000 3.1 140 19:44 13.11.2020
1875 Clouds 10 1014 87 10000 3.1 140 19:22 13.11.2020
1876 Clouds 10 1014 81 10000 3.6 140 18:50 13.11.2020
1877 Clouds 10 1014 87 10000 3.1 140 17:59 13.11.2020
1878 Clouds 10 1014 81 10000 3.1 140 17:39 13.11.2020
1879 Clouds 10 1014 81 10000 3.6 150 17:18 13.11.2020
1880 Clouds 10 1014 81 10000 4.6 150 16:46 13.11.2020
1881 Clouds 10 1014 81 10000 4.6 150 16:21 13.11.2020
1882 Clouds 11 1015 76 10000 4.1 160 15:41 13.11.2020
1883 Clouds 11 1015 76 10000 4.1 160 15:23 13.11.2020
1884 Clouds 11 1015 76 10000 5.1 180 14:40 13.11.2020
1885 Clear 11 1015 76 10000 4.6 170 14:19 13.11.2020
1886 Clear 12 1015 76 10000 4.6 170 13:40 13.11.2020
1887 Clear 11 1015 76 10000 4.6 170 13:21 13.11.2020
1888 Clear 10 1016 81 10000 4.6 190 12:45 13.11.2020
1889 Clear 10 1016 81 10000 4.6 190 12:24 13.11.2020
1890 Clear 10 1017 76 10000 4.6 190 11:48 13.11.2020
1891 Clear 9 1017 81 10000 4.1 170 11:24 13.11.2020
1892 Clear 8 1017 87 10000 4.6 160 10:54 13.11.2020
1893 Clear 7 1017 87 10000 2.6 150 10:34 13.11.2020
1894 Clear 6 1017 93 10000 1.5 140 09:56 13.11.2020
1895 Clear 5 1018 93 10000 1.5 140 09:32 13.11.2020
1896 Fog 4 1018 93 10000 1.5 140 08:57 13.11.2020
1897 Fog 4 1017 100 9000 1.5 140 08:33 13.11.2020
1898 Fog 4 1017 100 8000 1 130 07:57 13.11.2020
1899 Fog 4 1017 100 9000 2.1 150 07:38 13.11.2020
1900 Fog 4 1017 100 9000 2.1 150 07:20 13.11.2020
1901 Fog 5 1018 100 8000 1.5 190 06:42 13.11.2020
1902 Fog 5 1018 100 7000 1.5 190 05:42 13.11.2020
1903 Fog 5 1018 100 6000 2.1 190 04:57 13.11.2020
1904 Clouds 7 1018 93 10000 2.6 220 01:45 13.11.2020
1905 Clear 8 1018 93 10000 3.1 230 00:37 13.11.2020
1906 Clear 9 1018 93 10000 3.1 230 00:18 13.11.2020
1907 Clouds 9 1018 100 10000 2.1 210 23:37 12.11.2020
1908 Clouds 9 1018 100 10000 2.1 210 23:19 12.11.2020
1909 Clouds 9 1018 100 10000 2.6 200 22:48 12.11.2020
1910 Clouds 9 1018 93 10000 3.1 210 22:30 12.11.2020
1911 Clouds 9 1017 100 10000 3.1 210 21:43 12.11.2020
1912 Clouds 9 1017 100 10000 3.1 210 21:24 12.11.2020
1913 Clouds 10 1017 93 10000 3.6 220 20:58 12.11.2020
1914 Clouds 9 1017 100 10000 3.6 210 20:39 12.11.2020
1915 Clouds 9 1017 100 10000 4.1 210 20:20 12.11.2020
1916 Clouds 9 1017 100 10000 4.1 210 20:20 12.11.2020
1917 Clouds 8 1017 93 10000 2.1 230 19:45 12.11.2020
1918 Clouds 8 1017 93 10000 2.1 230 19:27 12.11.2020
1919 Rain 8 1016 100 10000 1.5 200 18:49 12.11.2020
1920 Clouds 8 1016 93 10000 2.6 210 18:24 12.11.2020
1921 Clouds 9 1016 87 10000 3.6 200 17:46 12.11.2020
1922 Clouds 9 1016 87 10000 3.6 200 17:27 12.11.2020
1923 Clouds 10 1016 87 10000 5.1 210 16:47 12.11.2020
1924 Clouds 10 1015 87 10000 3.6 190 16:27 12.11.2020
1925 Rain 12 1015 81 10000 4.1 200 15:59 12.11.2020
1926 Rain 12 1015 81 10000 4.1 200 15:41 12.11.2020
1927 Clouds 12 1015 81 10000 4.1 200 15:21 12.11.2020
1928 Clouds 12 1015 81 10000 3.6 210 14:46 12.11.2020
1929 Clouds 12 1015 81 10000 4.1 200 14:25 12.11.2020
1930 Clouds 11 1015 87 10000 4.6 200 13:55 12.11.2020
1931 Clouds 11 1015 93 10000 4.6 190 13:36 12.11.2020
1932 Clouds 10 1015 93 10000 3.1 160 13:18 12.11.2020
1933 Clouds 9 1015 100 9000 3.6 150 12:42 12.11.2020
1934 Rain 8 1015 100 9000 3.6 150 12:19 12.11.2020
1935 Rain 8 1016 93 10000 4.6 150 11:46 12.11.2020
1936 Clouds 8 1016 93 9000 4.6 140 11:27 12.11.2020
1937 Clouds 7 1016 100 6000 4.1 130 10:43 12.11.2020
1938 Clouds 6 1016 100 6000 4.1 130 10:24 12.11.2020
1939 Clouds 6 1016 100 6000 3.6 130 09:47 12.11.2020
1940 Mist 6 1016 93 5000 4.1 140 09:23 12.11.2020
1941 Mist 6 1016 93 5000 3.6 130 08:57 12.11.2020
1942 Mist 6 1016 93 5000 3.6 130 08:39 12.11.2020
1943 Mist 6 1016 93 5000 3.6 130 08:39 12.11.2020
1944 Mist 6 1016 93 5000 3.6 130 08:19 12.11.2020
1945 Mist 6 1016 93 5000 3.6 130 07:48 12.11.2020
1946 Clouds 6 1016 93 7000 3.1 130 07:22 12.11.2020
1947 Clouds 6 1017 93 7000 3.1 130 06:49 12.11.2020
1948 Clouds 6 1017 100 6000 3.1 120 05:35 12.11.2020
1949 Mist 7 1018 100 1300 3.6 130 03:23 12.11.2020
1950 Mist 8 1019 100 1400 4.1 160 02:41 12.11.2020
1951 Fog 8 1020 100 600 3.1 120 00:22 12.11.2020
1952 Mist 9 1021 100 2500 3.6 120 23:26 11.11.2020
1953 Mist 8 1021 100 2600 2.6 130 22:59 11.11.2020
1954 Mist 8 1021 100 1600 2.6 120 22:40 11.11.2020
1955 Mist 8 1021 100 1600 2.6 120 22:21 11.11.2020
1956 Mist 8 1022 100 1700 3.1 120 21:56 11.11.2020
1957 Mist 8 1022 100 1200 2.6 120 21:36 11.11.2020
1958 Mist 8 1022 100 1200 2.6 120 21:18 11.11.2020
1959 Drizzle 8 1022 100 800 2.1 120 20:41 11.11.2020
1960 Drizzle 8 1022 100 800 2.1 120 20:21 11.11.2020
1961 Drizzle 8 1022 100 400 2.6 120 19:50 11.11.2020
1962 Fog 8 1022 100 500 1.5 120 19:32 11.11.2020
1963 Fog 8 1023 100 500 1.5 120 18:55 11.11.2020
1964 Fog 8 1023 100 500 1 0 18:36 11.11.2020
1965 Fog 8 1023 100 300 2.6 100 17:45 11.11.2020
1966 Fog 8 1023 100 300 2.6 100 17:27 11.11.2020
1967 Fog 8 1023 100 400 2.6 110 16:59 11.11.2020
1968 Fog 8 1023 100 700 1.5 120 16:37 11.11.2020
1969 Fog 8 1023 100 700 1.5 120 16:19 11.11.2020
1970 Fog 8 1023 100 150 1.5 90 15:39 11.11.2020
1971 Fog 8 1023 100 150 1.5 90 15:39 11.11.2020
1972 Fog 8 1023 100 150 1.5 90 15:21 11.11.2020
1973 Fog 8 1024 100 300 1.5 130 14:43 11.11.2020
1974 Fog 8 1024 100 300 1.5 130 14:23 11.11.2020
1975 Fog 8 1024 100 300 1.5 140 13:48 11.11.2020
1976 Fog 8 1024 100 250 2.1 150 13:24 11.11.2020
1977 Fog 7 1025 100 250 2.6 140 12:21 11.11.2020
1978 Fog 7 1025 100 300 1.5 140 11:51 11.11.2020
1979 Fog 7 1025 100 200 2.1 120 11:33 11.11.2020
1980 Fog 6 1025 100 200 3.1 140 10:56 11.11.2020
1981 Fog 6 1026 100 250 1.5 130 10:37 11.11.2020
1982 Fog 6 1026 100 250 1.5 130 10:18 11.11.2020
1983 Mist 6 1026 93 1700 2.1 150 09:42 11.11.2020
1984 Mist 5 1026 93 1700 2.1 150 09:21 11.11.2020
1985 Mist 5 1026 100 2400 2.1 130 08:43 11.11.2020
1986 Mist 5 1026 100 2400 2.1 130 08:25 11.11.2020
1987 Drizzle 5 1026 100 2400 1 0 07:47 11.11.2020
1988 Drizzle 5 1026 100 2500 1.5 130 06:33 11.11.2020
1989 Drizzle 5 1026 100 2500 2.1 130 05:52 11.11.2020
1990 Mist 5 1027 100 2500 2.6 140 02:29 11.11.2020
1991 Mist 5 1027 100 1000 3.1 140 00:58 11.11.2020
1992 Mist 5 1027 100 1000 3.1 140 00:58 11.11.2020
1993 Fog 5 1027 100 900 3.1 140 00:25 11.11.2020
1994 Fog 5 1027 100 800 3.1 140 23:42 10.11.2020
1995 Fog 5 1027 100 800 3.1 140 23:23 10.11.2020
1996 Fog 5 1027 100 500 3.6 130 22:52 10.11.2020
1997 Fog 5 1027 100 500 3.6 130 22:27 10.11.2020
1998 Fog 5 1027 100 500 3.6 140 21:44 10.11.2020
1999 Fog 5 1027 100 500 3.6 140 21:25 10.11.2020
2000 Fog 5 1027 100 500 3.6 140 21:25 10.11.2020
2001 Mist 5 1027 100 1400 4.1 140 20:59 10.11.2020
2002 Mist 5 1027 100 2000 3.6 130 20:41 10.11.2020
2003 Mist 5 1027 100 2000 3.6 130 20:22 10.11.2020
2004 Mist 5 1027 100 2200 3.6 140 19:47 10.11.2020
2005 Mist 5 1027 100 2500 4.1 140 19:28 10.11.2020
2006 Mist 5 1027 100 3000 4.1 150 18:58 10.11.2020
2007 Mist 6 1027 93 3500 4.1 140 18:39 10.11.2020
2008 Mist 6 1027 93 3500 3.1 130 18:18 10.11.2020
2009 Mist 6 1027 93 3200 4.1 140 17:43 10.11.2020
2010 Mist 6 1027 93 3200 4.1 140 17:25 10.11.2020
2011 Mist 6 1026 93 2500 4.6 120 16:44 10.11.2020
2012 Mist 6 1026 93 2500 4.6 120 16:24 10.11.2020
2013 Mist 6 1026 93 3000 4.1 120 15:57 10.11.2020
2014 Mist 6 1026 93 2800 3.6 130 15:38 10.11.2020
2015 Mist 6 1026 93 2800 3.6 130 15:20 10.11.2020
2016 Mist 6 1027 93 3000 3.6 120 14:41 10.11.2020
2017 Mist 6 1027 93 3000 3.6 120 14:22 10.11.2020
2018 Mist 5 1027 100 3800 4.6 120 13:41 10.11.2020
2019 Mist 5 1027 100 3800 4.6 120 13:23 10.11.2020
2020 Mist 5 1027 100 3500 4.6 120 12:58 10.11.2020
2021 Mist 5 1027 100 3200 4.6 120 12:39 10.11.2020
2022 Mist 5 1027 100 3200 4.6 120 12:20 10.11.2020
2023 Mist 5 1027 100 3200 4.6 130 11:39 10.11.2020
2024 Mist 5 1027 100 3200 4.6 130 11:20 10.11.2020
2025 Mist 5 1027 93 3200 4.6 120 10:43 10.11.2020
2026 Mist 5 1027 93 3200 4.6 120 10:43 10.11.2020
2027 Mist 5 1027 93 3200 4.6 120 10:24 10.11.2020
2028 Mist 5 1027 93 2800 4.1 120 09:51 10.11.2020
2029 Mist 5 1027 93 2200 4.6 130 09:27 10.11.2020
2030 Mist 5 1027 93 2200 4.1 140 08:59 10.11.2020
2031 Mist 5 1026 100 2200 3.6 130 08:38 10.11.2020
2032 Mist 5 1026 100 2200 3.6 130 08:19 10.11.2020
2033 Mist 5 1026 93 2500 4.6 120 07:38 10.11.2020
2034 Mist 5 1026 100 2500 5.1 120 07:18 10.11.2020
2035 Clear 5 1026 100 10000 4.6 120 06:38 10.11.2020
2036 Mist 5 1026 100 3500 4.1 140 05:29 10.11.2020
2037 Mist 6 1026 93 3500 4.1 120 03:36 10.11.2020
2038 Mist 6 1026 93 3500 3.6 120 01:41 10.11.2020
2039 Mist 6 1026 93 4000 2.6 120 00:52 10.11.2020
2040 Mist 6 1026 93 5000 4.1 110 23:46 09.11.2020
2041 Mist 6 1026 93 5000 4.1 110 23:23 09.11.2020
2042 Mist 6 1026 93 5000 4.1 110 22:42 09.11.2020
2043 Mist 6 1026 93 5000 4.1 110 22:22 09.11.2020
2044 Mist 6 1026 93 5000 3.6 90 21:44 09.11.2020
2045 Mist 6 1026 93 5000 3.6 90 21:26 09.11.2020
2046 Mist 6 1026 93 5000 4.1 110 20:42 09.11.2020
2047 Mist 6 1026 93 5000 4.1 110 20:22 09.11.2020
2048 Clouds 6 1026 93 6000 4.6 110 19:49 09.11.2020
2049 Clouds 6 1026 93 6000 3.1 100 19:49 09.11.2020
2050 Clouds 6 1026 93 6000 4.6 110 19:24 09.11.2020
2051 Clouds 6 1026 93 6000 2.1 120 18:59 09.11.2020
2052 Clouds 6 1026 93 6000 3.1 120 18:40 09.11.2020
2053 Clouds 6 1025 87 6000 3.6 120 18:19 09.11.2020
2054 Clouds 6 1025 87 6000 3.6 120 17:44 09.11.2020
2055 Clouds 6 1025 87 6000 3.6 120 17:26 09.11.2020
2056 Clouds 7 1025 87 6000 2.6 120 16:44 09.11.2020
2057 Clouds 7 1025 87 6000 2.6 120 16:26 09.11.2020
2058 Clouds 7 1025 87 6000 2.6 110 15:48 09.11.2020
2059 Clouds 7 1025 87 6000 3.6 100 15:29 09.11.2020
2060 Clouds 7 1025 87 6000 4.1 110 14:56 09.11.2020
2061 Mist 7 1025 87 5000 3.1 110 14:37 09.11.2020
2062 Mist 6 1025 93 5000 4.1 110 14:19 09.11.2020
2063 Mist 6 1025 93 5000 4.1 100 13:43 09.11.2020
2064 Mist 6 1025 93 4200 3.6 100 13:19 09.11.2020
2065 Mist 6 1025 93 3500 3.6 120 12:46 09.11.2020
2066 Mist 6 1025 93 3500 3.6 120 12:21 09.11.2020
2067 Mist 8 1025 100 3100 3.6 110 11:43 09.11.2020
2068 Mist 8 1025 100 3100 3.6 110 11:25 09.11.2020
2069 Mist 8 1025 100 2300 3.6 120 10:59 09.11.2020
2070 Mist 5 1025 100 2100 3.6 130 10:41 09.11.2020
2071 Mist 5 1025 100 2100 3.6 130 10:22 09.11.2020
2072 Mist 5 1025 93 1100 3.6 110 09:40 09.11.2020
2073 Mist 5 1025 93 1100 3.6 110 09:21 09.11.2020
2074 Mist 4 1025 100 2700 3.1 110 08:29 09.11.2020
2075 Mist 4 1024 100 4500 1.5 90 07:57 09.11.2020
2076 Mist 4 1024 100 5000 3.1 70 07:38 09.11.2020
2077 Clouds 4 1024 93 8000 2.6 80 07:18 09.11.2020
2078 Clear 4 1024 93 10000 2.6 80 05:54 09.11.2020
2079 Clear 5 1024 100 10000 2.1 80 02:57 09.11.2020
2080 Clear 5 1024 100 10000 3.1 80 01:42 09.11.2020
2081 Clear 6 1024 93 10000 2.1 90 00:57 09.11.2020
2082 Clear 6 1024 93 10000 2.1 90 23:50 08.11.2020
2083 Clear 6 1024 93 10000 1.5 100 23:28 08.11.2020
2084 Clear 7 1024 87 10000 2.1 120 22:45 08.11.2020
2085 Clear 7 1024 87 10000 2.1 120 22:22 08.11.2020
2086 Clear 7 1024 93 10000 2.6 120 21:52 08.11.2020
2087 Clear 6 1023 93 10000 3.1 90 21:25 08.11.2020
2088 Clear 6 1024 100 10000 2.1 90 20:59 08.11.2020
2089 Clear 7 1024 93 10000 1.5 80 20:39 08.11.2020
2090 Clear 7 1024 93 10000 1.5 80 20:20 08.11.2020
2091 Clear 7 1024 93 10000 0.5 160 19:56 08.11.2020
2092 Clear 7 1023 87 10000 2.6 80 19:37 08.11.2020
2093 Clear 8 1023 87 10000 2.6 80 19:18 08.11.2020
2094 Clear 8 1023 87 10000 1.5 90 18:45 08.11.2020
2095 Clear 8 1023 87 10000 1.5 90 18:21 08.11.2020
2096 Clear 9 1023 81 10000 2.1 80 17:57 08.11.2020
2097 Clear 9 1023 81 10000 1 100 17:37 08.11.2020
2098 Clear 11 1023 76 10000 1.5 130 17:18 08.11.2020
2099 Clear 11 1023 71 10000 1.5 120 16:46 08.11.2020
2100 Clear 12 1023 71 10000 1.5 120 16:21 08.11.2020
2101 Clear 12 1023 71 10000 2.6 100 15:50 08.11.2020
2102 Clear 12 1023 66 10000 3.1 130 15:28 08.11.2020
2103 Clear 13 1023 66 10000 3.1 140 14:59 08.11.2020
2104 Clear 13 1023 66 10000 3.1 120 14:38 08.11.2020
2105 Clear 13 1023 66 10000 3.1 120 14:20 08.11.2020
2106 Clear 13 1023 66 10000 3.1 140 13:41 08.11.2020
2107 Clear 13 1023 66 10000 3.1 140 13:20 08.11.2020
2108 Clear 11 1024 71 10000 3.1 110 12:42 08.11.2020
2109 Clear 12 1024 71 10000 3.1 110 12:24 08.11.2020
2110 Clear 11 1024 76 10000 3.1 120 11:57 08.11.2020
2111 Clear 10 1024 76 10000 3.1 110 11:38 08.11.2020
2112 Clear 10 1024 76 10000 3.1 110 11:20 08.11.2020
2113 Clear 8 1024 81 10000 2.1 100 10:49 08.11.2020
2114 Clear 6 1023 93 10000 2.6 80 10:18 08.11.2020
2115 Clear 5 1023 93 10000 3.1 60 09:44 08.11.2020
2116 Clear 5 1023 93 10000 3.1 60 09:24 08.11.2020
2117 Clear 5 1023 93 10000 2.1 50 08:55 08.11.2020
2118 Clear 4 1023 93 10000 1.5 60 08:37 08.11.2020
2119 Clear 4 1023 100 10000 2.1 60 08:18 08.11.2020
2120 Clear 4 1023 100 10000 1.5 80 07:46 08.11.2020
2121 Clear 4 1023 100 10000 1.5 80 07:19 08.11.2020
2122 Clear 4 1023 100 10000 1.5 30 05:55 08.11.2020
2123 Fog 4 1023 100 10000 0.5 0 05:31 08.11.2020
2124 Clear 4 1023 100 10000 1 90 04:18 08.11.2020
2125 Clear 5 1023 93 10000 2.1 70 01:50 08.11.2020
2126 Clear 5 1023 100 10000 1.5 80 01:18 08.11.2020
2127 Clear 6 1023 93 10000 1.5 80 00:27 08.11.2020
2128 Clear 6 1023 93 10000 1.5 80 00:27 08.11.2020
2129 Clear 5 1023 93 10000 1 60 23:46 07.11.2020
2130 Clear 6 1024 93 10000 1 70 23:28 07.11.2020
2131 Clear 6 1024 100 10000 1.5 60 22:43 07.11.2020
2132 Clear 5 1024 100 10000 1.5 60 22:25 07.11.2020
2133 Clear 5 1024 100 10000 0.5 0 21:46 07.11.2020
2134 Clear 6 1024 100 10000 0.5 0 21:23 07.11.2020
2135 Clear 6 1024 100 10000 1 0 20:55 07.11.2020
2136 Clear 6 1024 93 10000 1.5 70 20:37 07.11.2020
2137 Clear 6 1024 93 10000 1.5 70 20:19 07.11.2020
2138 Clear 7 1024 87 10000 2.1 60 19:43 07.11.2020
2139 Clear 7 1024 87 10000 2.1 60 19:24 07.11.2020
2140 Clear 8 1024 87 10000 2.1 80 18:40 07.11.2020
2141 Clear 8 1024 87 10000 2.1 80 18:21 07.11.2020
2142 Clear 9 1024 81 10000 1.5 100 17:46 07.11.2020
2143 Clear 10 1024 81 10000 1.5 100 17:27 07.11.2020
2144 Clear 10 1024 81 10000 1.5 100 17:27 07.11.2020
2145 Clear 11 1024 76 10000 2.1 120 16:45 07.11.2020
2146 Clear 12 1024 76 10000 2.1 120 16:25 07.11.2020
2147 Clear 12 1024 76 10000 2.6 130 15:51 07.11.2020
2148 Clear 12 1024 71 10000 2.6 150 15:25 07.11.2020
2149 Clear 13 1024 66 10000 2.1 140 15:00 07.11.2020
2150 Clear 13 1024 66 10000 2.1 140 15:00 07.11.2020
2151 Clear 13 1024 71 10000 2.1 150 14:41 07.11.2020
2152 Clear 13 1024 71 10000 2.1 150 14:21 07.11.2020
2153 Clear 12 1025 71 10000 2.1 140 13:43 07.11.2020
2154 Clear 12 1025 71 10000 2.1 140 13:23 07.11.2020
2155 Clear 11 1025 76 10000 2.1 150 12:40 07.11.2020
2156 Clear 11 1025 76 10000 2.1 150 12:18 07.11.2020
2157 Clear 11 1025 76 10000 2.1 150 12:18 07.11.2020
2158 Clear 10 1025 81 10000 3.6 150 11:39 07.11.2020
2159 Clear 8 1025 81 10000 3.6 150 11:20 07.11.2020
2160 Clear 6 1025 87 10000 2.6 150 10:45 07.11.2020
2161 Clear 6 1025 87 10000 2.6 150 10:24 07.11.2020
2162 Clear 6 1026 87 10000 2.6 140 09:49 07.11.2020
2163 Clear 5 1026 93 10000 2.6 130 09:25 07.11.2020
2164 Clear 5 1026 93 9000 2.6 130 08:51 07.11.2020
2165 Clouds 5 1026 93 7000 2.6 120 08:33 07.11.2020
2166 Clouds 5 1026 93 6000 2.1 130 07:49 07.11.2020
2167 Clouds 5 1026 100 7000 3.1 130 07:18 07.11.2020
2168 Clouds 6 1026 93 7000 3.1 130 06:43 07.11.2020
2169 Clouds 7 1027 93 7000 4.6 110 04:43 07.11.2020
2170 Clouds 7 1028 93 6000 5.1 120 03:23 07.11.2020
2171 Mist 8 1029 100 3500 3.6 130 01:28 07.11.2020
2172 Fog 8 1029 100 900 4.6 130 00:41 07.11.2020
2173 Fog 8 1030 100 700 5.1 120 23:50 06.11.2020
2174 Fog 8 1030 93 400 3.6 120 23:20 06.11.2020
2175 Clouds 8 1030 100 6000 3.1 100 22:41 06.11.2020
2176 Clouds 8 1030 100 6000 3.1 100 22:19 06.11.2020
2177 Fog 8 1031 100 6000 3.1 110 21:46 06.11.2020
2178 Fog 8 1031 100 6000 1 0 21:21 06.11.2020
2179 Clouds 9 1031 100 7000 2.1 100 20:56 06.11.2020
2180 Clouds 9 1031 100 6000 2.1 80 20:38 06.11.2020
2181 Clouds 9 1031 100 6000 1.5 80 20:18 06.11.2020
2182 Clouds 9 1032 100 8000 1.5 90 19:44 06.11.2020
2183 Clouds 9 1032 100 8000 1.5 90 19:26 06.11.2020
2184 Clouds 10 1032 93 10000 1.5 100 18:45 06.11.2020
2185 Clouds 10 1032 93 10000 1.5 100 18:23 06.11.2020
2186 Clouds 10 1032 93 10000 2.1 90 17:51 06.11.2020
2187 Clouds 11 1032 87 10000 1.5 130 17:27 06.11.2020
2188 Clouds 11 1032 87 10000 1.5 130 16:50 06.11.2020
2189 Clouds 12 1033 87 10000 1.5 150 16:31 06.11.2020
2190 Clouds 12 1033 87 10000 1.5 150 15:54 06.11.2020
2191 Clouds 12 1033 81 10000 0.5 0 15:33 06.11.2020
2192 Clouds 12 1033 81 10000 1.5 190 14:54 06.11.2020
2193 Clouds 12 1034 81 10000 1.5 200 14:28 06.11.2020
2194 Clouds 13 1034 81 10000 1 0 13:49 06.11.2020
2195 Clouds 12 1034 81 10000 1.5 220 13:25 06.11.2020
2196 Clouds 12 1034 81 10000 1 0 12:55 06.11.2020
2197 Clouds 11 1034 81 10000 1.5 240 12:36 06.11.2020
2198 Clouds 11 1035 87 10000 1.5 230 12:18 06.11.2020
2199 Clouds 10 1035 87 10000 1.5 230 11:36 06.11.2020
2200 Clouds 10 1035 87 10000 1.5 220 10:52 06.11.2020
2201 Clouds 10 1035 93 10000 1 0 10:32 06.11.2020
2202 Clouds 9 1035 87 10000 0.5 0 09:55 06.11.2020
2203 Clouds 9 1035 87 10000 0.5 0 09:36 06.11.2020
2204 Clouds 9 1035 93 10000 1 210 09:18 06.11.2020
2205 Clouds 9 1035 93 10000 1 210 08:46 06.11.2020
2206 Clouds 8 1035 93 10000 0.5 200 08:19 06.11.2020
2207 Clouds 9 1035 87 10000 1 0 07:42 06.11.2020
2208 Clouds 9 1035 87 10000 1 0 07:18 06.11.2020
2209 Clouds 9 1034 87 10000 3.6 230 06:40 06.11.2020
2210 Clouds 9 1035 87 10000 2.1 230 05:37 06.11.2020
2211 Clouds 9 1035 93 10000 3.6 260 01:59 06.11.2020
2212 Clouds 9 1035 87 10000 4.1 250 00:29 06.11.2020
2213 Clouds 9 1036 87 10000 3.1 240 23:51 05.11.2020
2214 Clouds 9 1036 87 10000 2.6 240 23:24 05.11.2020
2215 Clouds 9 1036 93 10000 2.6 230 22:48 05.11.2020
2216 Clouds 9 1036 93 10000 2.6 230 22:26 05.11.2020
2217 Clouds 9 1036 87 10000 3.1 250 21:57 05.11.2020
2218 Clouds 9 1036 87 10000 3.6 250 21:38 05.11.2020
2219 Clouds 9 1036 87 10000 3.6 250 21:19 05.11.2020
2220 Clouds 10 1036 81 10000 3.6 250 20:43 05.11.2020
2221 Clouds 10 1036 81 10000 3.6 250 20:24 05.11.2020
2222 Clouds 10 1036 81 10000 3.6 250 20:24 05.11.2020
2223 Clear 10 1036 81 10000 3.6 240 19:44 05.11.2020
2224 Clear 10 1036 81 10000 3.6 240 19:26 05.11.2020
2225 Clear 10 1036 81 10000 3.6 240 19:26 05.11.2020
2226 Clear 10 1036 81 10000 3.6 240 18:58 05.11.2020
2227 Clear 10 1036 81 10000 4.1 250 18:39 05.11.2020
2228 Clear 10 1036 81 10000 4.1 250 18:21 05.11.2020
2229 Clouds 10 1036 81 10000 3.6 250 17:45 05.11.2020
2230 Clouds 10 1036 81 10000 3.6 250 17:25 05.11.2020
2231 Clouds 10 1036 76 10000 4.6 260 16:48 05.11.2020
2232 Clouds 10 1036 76 10000 5.7 260 16:28 05.11.2020
2233 Clouds 11 1036 76 10000 5.1 250 15:53 05.11.2020
2234 Clouds 11 1036 71 10000 5.7 260 15:27 05.11.2020
2235 Rain 11 1036 76 10000 4.6 250 14:57 05.11.2020
2236 Clouds 10 1037 81 10000 5.1 250 14:39 05.11.2020
2237 Clouds 10 1037 81 10000 5.1 250 14:20 05.11.2020
2238 Clouds 10 1037 81 10000 5.7 250 13:40 05.11.2020
2239 Clear 10 1037 81 10000 5.1 240 13:18 05.11.2020
2240 Clear 10 1037 81 10000 5.1 240 12:41 05.11.2020
2241 Clear 10 1037 81 10000 5.1 240 12:22 05.11.2020
2242 Clear 10 1037 87 10000 4.6 250 11:41 05.11.2020
2243 Clear 9 1037 87 10000 4.6 250 11:22 05.11.2020
2244 Clear 8 1037 87 10000 3.6 250 10:48 05.11.2020
2245 Clear 7 1037 93 10000 2.6 240 10:26 05.11.2020
2246 Clear 6 1037 100 10000 2.1 230 09:49 05.11.2020
2247 Clear 5 1037 100 10000 1.5 0 09:25 05.11.2020
2248 Fog 4 1037 100 10000 1.5 230 08:55 05.11.2020
2249 Fog 4 1037 100 10000 1 230 08:36 05.11.2020
2250 Fog 4 1037 100 2000 1 0 08:18 05.11.2020
2251 Fog 4 1036 100 1000 1 240 07:28 05.11.2020
2252 Fog 4 1036 93 1000 1.5 240 06:50 05.11.2020
2253 Fog 4 1036 100 1200 1.5 210 06:32 05.11.2020
2254 Fog 4 1036 100 2000 1 230 03:45 05.11.2020
2255 Clear 5 1035 100 10000 1.5 220 00:45 05.11.2020
2256 Clear 5 1035 100 10000 1.5 220 00:20 05.11.2020
2257 Clear 4 1035 100 10000 1.5 210 23:43 04.11.2020
2258 Clear 4 1035 100 10000 1.5 210 23:24 04.11.2020
2259 Clear 4 1035 100 10000 2.1 240 22:42 04.11.2020
2260 Clear 4 1035 100 10000 2.1 240 22:22 04.11.2020
2261 Clear 4 1035 100 10000 2.1 240 22:22 04.11.2020
2262 Clear 5 1035 93 10000 1.5 240 21:47 04.11.2020
2263 Clear 5 1034 93 10000 2.1 220 21:28 04.11.2020
2264 Clear 5 1034 93 10000 2.6 220 20:56 04.11.2020
2265 Clear 5 1034 93 10000 3.1 220 20:36 04.11.2020
2266 Clear 6 1033 87 10000 3.1 220 20:18 04.11.2020
2267 Clear 6 1033 93 10000 2.6 210 19:41 04.11.2020
2268 Clear 6 1033 93 10000 2.6 210 19:23 04.11.2020
2269 Clouds 7 1032 87 10000 2.1 250 18:43 04.11.2020
2270 Clouds 8 1032 87 10000 2.1 250 18:24 04.11.2020
2271 Clouds 8 1032 81 10000 3.1 250 17:54 04.11.2020
2272 Clouds 9 1032 81 10000 3.1 250 17:36 04.11.2020
2273 Clouds 9 1031 81 10000 4.1 260 17:18 04.11.2020
2274 Clouds 10 1031 76 10000 5.1 250 16:37 04.11.2020
2275 Clouds 11 1031 71 10000 5.1 260 16:18 04.11.2020
2276 Clouds 11 1031 71 10000 5.7 260 15:42 04.11.2020
2277 Clouds 11 1031 71 10000 5.7 260 15:23 04.11.2020
2278 Clouds 11 1030 71 10000 5.7 230 14:46 04.11.2020
2279 Clouds 12 1030 71 10000 5.7 230 14:25 04.11.2020
2280 Clouds 12 1030 76 10000 4.6 240 13:54 04.11.2020
2281 Clouds 12 1030 71 10000 5.1 240 13:36 04.11.2020
2282 Clouds 12 1030 71 10000 5.1 240 13:18 04.11.2020
2283 Clouds 11 1030 76 10000 5.1 250 12:42 04.11.2020
2284 Clouds 11 1030 76 10000 5.1 250 12:24 04.11.2020
2285 Clouds 10 1030 76 10000 5.1 240 11:46 04.11.2020
2286 Clouds 9 1029 81 10000 5.1 250 11:24 04.11.2020
2287 Clouds 8 1029 81 10000 5.7 230 10:51 04.11.2020
2288 Clouds 8 1028 81 10000 5.1 230 10:24 04.11.2020
2289 Clouds 7 1028 87 10000 5.1 230 09:58 04.11.2020
2290 Clouds 7 1027 93 10000 5.1 230 09:40 04.11.2020
2291 Clouds 7 1027 93 10000 5.1 230 09:20 04.11.2020
2292 Clouds 6 1026 93 10000 5.1 230 08:41 04.11.2020
2293 Clouds 6 1026 93 10000 5.1 230 08:18 04.11.2020
2294 Clouds 6 1026 93 10000 5.1 230 08:18 04.11.2020
2295 Clouds 6 1025 93 10000 5.1 230 07:42 04.11.2020
2296 Clouds 6 1025 93 10000 5.1 230 07:23 04.11.2020
2297 Clouds 6 1025 87 10000 5.7 230 06:41 04.11.2020
2298 Clouds 6 1024 87 10000 5.1 230 05:39 04.11.2020
2299 Clear 7 1022 81 10000 6.7 230 02:31 04.11.2020
2300 Clouds 8 1022 75 10000 5.7 220 01:40 04.11.2020
2301 Clouds 8 1021 75 10000 5.7 220 00:27 04.11.2020
2302 Clear 8 1021 75 10000 4.1 210 23:33 03.11.2020
2303 Clouds 8 1021 75 10000 4.6 240 22:59 03.11.2020
2304 Clouds 8 1021 75 10000 6.7 250 22:40 03.11.2020
2305 Clouds 8 1021 75 10000 6.7 250 22:20 03.11.2020
2306 Clouds 9 1021 70 10000 8.2 250 21:55 03.11.2020
2307 Clouds 10 1020 71 10000 8.2 250 21:36 03.11.2020
2308 Clouds 10 1020 71 10000 8.2 250 21:18 03.11.2020
2309 Clouds 10 1019 71 10000 5.7 200 20:41 03.11.2020
2310 Clouds 10 1019 71 10000 5.7 200 20:19 03.11.2020
2311 Clear 9 1019 76 10000 4.6 170 19:42 03.11.2020
2312 Clear 9 1019 76 10000 4.6 170 19:19 03.11.2020
2313 Clear 9 1019 76 10000 4.6 150 18:41 03.11.2020
2314 Clear 9 1019 76 10000 4.6 150 18:20 03.11.2020
2315 Clouds 9 1019 76 10000 4.6 150 17:55 03.11.2020
2316 Clouds 9 1019 81 10000 3.6 160 17:36 03.11.2020
2317 Clear 10 1019 71 10000 4.1 160 16:55 03.11.2020
2318 Clear 11 1019 66 10000 4.6 170 16:36 03.11.2020
2319 Clear 11 1019 66 10000 4.6 170 16:18 03.11.2020
2320 Clouds 12 1020 62 10000 5.1 190 15:41 03.11.2020
2321 Clouds 12 1020 62 10000 5.1 190 15:22 03.11.2020
2322 Clouds 12 1020 62 10000 5.1 190 14:46 03.11.2020
2323 Clouds 12 1021 58 10000 5.1 210 14:27 03.11.2020
2324 Clouds 12 1021 58 10000 5.1 210 14:27 03.11.2020
2325 Clouds 13 1021 62 10000 5.1 230 13:44 03.11.2020
2326 Clouds 13 1021 62 10000 5.1 230 13:23 03.11.2020
2327 Clouds 12 1021 71 10000 5.1 220 12:56 03.11.2020
2328 Clouds 12 1021 71 10000 5.7 220 12:36 03.11.2020
2329 Clouds 12 1021 71 10000 5.7 220 12:18 03.11.2020
2330 Clouds 12 1021 76 10000 5.1 230 11:41 03.11.2020
2331 Clouds 11 1021 76 10000 5.1 230 11:20 03.11.2020
2332 Clouds 11 1021 81 10000 6.2 230 10:39 03.11.2020
2333 Clouds 10 1021 81 10000 6.2 230 10:20 03.11.2020
2334 Clouds 10 1020 81 10000 5.7 230 09:51 03.11.2020
2335 Clear 9 1020 81 10000 4.6 220 09:33 03.11.2020
2336 Clear 9 1020 81 10000 4.6 220 09:33 03.11.2020
2337 Clear 9 1019 87 10000 4.6 220 08:55 03.11.2020
2338 Clouds 9 1019 87 10000 5.1 220 08:35 03.11.2020
2339 Clouds 9 1019 87 10000 5.7 220 07:49 03.11.2020
2340 Clouds 9 1018 81 10000 5.7 220 07:22 03.11.2020
2341 Clear 9 1018 81 10000 5.7 210 06:46 03.11.2020
2342 Clear 9 1016 87 10000 5.7 230 05:38 03.11.2020
2343 Clear 11 1015 81 10000 5.7 220 02:43 03.11.2020
2344 Clear 11 1013 81 10000 4.6 220 00:41 03.11.2020
2345 Clear 11 1013 81 10000 5.1 230 23:52 02.11.2020
2346 Clear 11 1013 81 10000 5.1 230 23:33 02.11.2020
2347 Clear 12 1012 76 10000 6.7 250 22:55 02.11.2020
2348 Clear 12 1012 81 10000 5.1 250 22:36 02.11.2020
2349 Clear 13 1011 71 10000 6.2 260 21:59 02.11.2020
2350 Clouds 13 1010 71 10000 7.2 260 21:38 02.11.2020
2351 Clouds 13 1010 71 10000 7.2 260 21:19 02.11.2020
2352 Clouds 16 1008 72 10000 9.8 270 20:41 02.11.2020
2353 Clouds 16 1008 72 10000 9.8 270 20:20 02.11.2020
2354 Rain 16 1008 87 10000 5.7 250 19:49 02.11.2020
2355 Rain 16 1007 87 10000 6.2 240 19:27 02.11.2020
2356 Clouds 16 1007 82 10000 6.2 240 18:57 02.11.2020
2357 Rain 16 1006 87 10000 10.3 250 18:39 02.11.2020
2358 Clouds 16 1006 87 10000 10.3 250 18:20 02.11.2020
2359 Rain 16 1005 93 7000 5.7 220 17:43 02.11.2020
2360 Rain 17 1005 93 7000 5.7 220 17:25 02.11.2020
2361 Rain 17 1005 93 10000 5.7 210 16:56 02.11.2020
2362 Clouds 18 1005 82 10000 7.7 220 16:38 02.11.2020
2363 Clouds 18 1005 72 10000 7.7 210 16:18 02.11.2020
2364 Clouds 20 1004 68 10000 6.7 210 15:39 02.11.2020
2365 Clouds 20 1004 68 10000 6.7 210 15:20 02.11.2020
2366 Clouds 19 1005 72 10000 6.7 210 14:53 02.11.2020
2367 Clouds 19 1004 72 10000 7.7 210 14:20 02.11.2020
2368 Clouds 20 1004 68 10000 8.7 210 13:52 02.11.2020
2369 Clouds 19 1005 72 10000 10.3 230 13:23 02.11.2020
2370 Clouds 19 1005 72 10000 9.8 220 12:55 02.11.2020
2371 Clouds 19 1005 72 10000 9.3 220 12:30 02.11.2020
2372 Clouds 19 1004 72 10000 10.3 220 11:56 02.11.2020
2373 Clouds 19 1004 82 10000 9.8 220 11:37 02.11.2020
2374 Clouds 19 1004 82 10000 9.8 220 11:18 02.11.2020
2375 Clouds 18 1004 88 10000 7.7 220 10:41 02.11.2020
2376 Clouds 18 1004 88 10000 7.7 220 10:18 02.11.2020
2377 Clouds 18 1004 88 10000 7.7 210 09:48 02.11.2020
2378 Clouds 18 1004 88 10000 7.2 210 09:23 02.11.2020
2379 Clouds 18 1004 88 10000 7.2 220 08:40 02.11.2020
2380 Clouds 18 1004 88 10000 7.2 220 08:20 02.11.2020
2381 Clouds 18 1004 88 10000 7.2 220 08:20 02.11.2020
2382 Clouds 18 1004 88 10000 6.7 210 07:49 02.11.2020
2383 Drizzle 17 1004 93 10000 7.2 210 06:49 02.11.2020
2384 Drizzle 17 1003 93 8000 6.2 210 06:24 02.11.2020
2385 Clouds 17 1004 88 10000 7.7 200 03:23 02.11.2020
2386 Clouds 17 1005 88 10000 6.2 210 01:24 02.11.2020
2387 Clouds 17 1005 88 10000 6.2 210 01:24 02.11.2020
2388 Clouds 17 1005 88 10000 6.2 200 00:35 02.11.2020
2389 Rain 17 1005 88 10000 5.7 210 23:41 01.11.2020
2390 Rain 17 1005 88 10000 5.7 210 23:23 01.11.2020
2391 Clouds 17 1005 88 10000 6.2 210 22:46 01.11.2020
2392 Rain 17 1005 88 10000 5.7 210 22:25 01.11.2020
2393 Rain 17 1005 88 10000 5.7 210 22:25 01.11.2020
2394 Rain 17 1005 88 10000 5.1 210 21:58 01.11.2020
2395 Clouds 16 1005 93 10000 4.6 210 21:38 01.11.2020
2396 Clouds 16 1005 93 10000 4.6 210 21:20 01.11.2020
2397 Clouds 16 1005 87 10000 5.1 200 20:42 01.11.2020
2398 Clouds 16 1005 87 10000 5.1 200 20:23 01.11.2020
2399 Clouds 15 1006 93 10000 5.1 190 19:43 01.11.2020
2400 Clouds 15 1006 93 10000 5.1 190 19:25 01.11.2020
2401 Clouds 14 1006 93 10000 5.7 180 18:44 01.11.2020
2402 Clouds 14 1006 93 10000 5.7 190 18:20 01.11.2020
2403 Clouds 14 1006 93 10000 5.7 190 18:20 01.11.2020
2404 Clouds 14 1006 93 10000 5.7 190 17:59 01.11.2020
2405 Clouds 15 1006 82 10000 6.7 200 17:41 01.11.2020
2406 Clouds 15 1006 82 10000 6.7 200 17:22 01.11.2020
2407 Clouds 16 1007 72 10000 7.7 200 16:41 01.11.2020
2408 Clouds 16 1007 72 10000 7.7 200 16:21 01.11.2020
2409 Clouds 15 1007 72 10000 6.2 180 15:54 01.11.2020
2410 Clouds 15 1007 72 10000 5.1 190 15:36 01.11.2020
2411 Clouds 15 1007 72 10000 5.1 190 15:18 01.11.2020
2412 Clouds 15 1008 72 10000 6.2 200 14:44 01.11.2020
2413 Clouds 15 1008 72 10000 6.2 200 14:22 01.11.2020
2414 Clouds 15 1009 72 10000 6.7 190 13:49 01.11.2020
2415 Clouds 15 1009 72 10000 6.7 190 13:31 01.11.2020
2416 Clouds 15 1010 72 10000 6.2 180 12:56 01.11.2020
2417 Clouds 14 1010 71 10000 4.6 190 12:37 01.11.2020
2418 Clouds 14 1010 71 10000 5.1 180 12:18 01.11.2020
2419 Clouds 13 1011 76 10000 4.1 190 11:44 01.11.2020
2420 Clear 13 1011 76 10000 4.1 170 11:18 01.11.2020
2421 Clear 12 1011 87 10000 3.6 170 10:41 01.11.2020
2422 Clear 12 1011 87 10000 3.6 170 10:22 01.11.2020
2423 Clear 11 1012 87 10000 2.6 180 09:47 01.11.2020
2424 Clear 11 1012 87 10000 2.6 210 08:52 01.11.2020
2425 Clear 11 1012 93 10000 2.6 220 08:33 01.11.2020
2426 Rain 11 1012 93 10000 3.1 160 07:45 01.11.2020
2427 Rain 11 1012 93 10000 2.6 200 06:23 01.11.2020
2428 Clouds 12 1013 100 10000 4.1 210 01:58 01.11.2020
2429 Clouds 12 1013 93 10000 4.1 210 01:23 01.11.2020
2430 Clouds 12 1013 87 10000 4.1 180 23:42 31.10.2020
2431 Rain 12 1013 87 10000 4.1 180 23:23 31.10.2020
2432 Clouds 12 1012 87 10000 4.6 160 22:44 31.10.2020
2433 Rain 12 1012 87 10000 4.6 160 22:23 31.10.2020
2434 Clouds 12 1012 87 10000 4.6 150 21:46 31.10.2020
2435 Clear 12 1013 87 10000 4.6 150 21:21 31.10.2020
2436 Clear 12 1013 87 10000 4.6 140 20:41 31.10.2020
2437 Clear 12 1013 87 10000 4.6 140 20:20 31.10.2020
2438 Clear 12 1014 87 10000 5.1 150 19:44 31.10.2020
2439 Clear 12 1014 87 10000 5.1 150 19:24 31.10.2020
2440 Clear 12 1014 87 10000 5.1 150 18:59 31.10.2020
2441 Clouds 12 1014 82 10000 5.7 140 18:41 31.10.2020
2442 Clouds 13 1015 82 10000 5.7 150 17:47 31.10.2020
2443 Clouds 14 1015 82 10000 6.2 160 17:27 31.10.2020
2444 Clouds 14 1015 87 10000 5.7 150 16:59 31.10.2020
2445 Clouds 14 1016 87 10000 5.1 160 16:39 31.10.2020
2446 Clouds 14 1017 82 10000 4.1 170 15:56 31.10.2020
2447 Clouds 15 1017 82 10000 4.1 170 15:36 31.10.2020
2448 Clouds 15 1017 82 10000 4.1 170 15:18 31.10.2020
2449 Clouds 15 1017 82 10000 5.1 170 14:46 31.10.2020
2450 Clouds 15 1018 82 10000 4.6 190 14:26 31.10.2020
2451 Clouds 15 1018 82 10000 5.1 180 13:49 31.10.2020
2452 Clouds 15 1018 87 10000 5.1 170 13:21 31.10.2020
2453 Clouds 15 1020 87 10000 4.1 200 12:32 31.10.2020
2454 Clouds 15 1020 87 9000 4.1 210 11:48 31.10.2020
2455 Clouds 14 1020 93 8000 3.6 210 11:28 31.10.2020
2456 Drizzle 14 1020 93 6000 3.6 210 10:56 31.10.2020
2457 Clouds 14 1021 93 8000 4.1 210 10:33 31.10.2020
2458 Clouds 14 1021 93 8000 3.1 200 09:42 31.10.2020
2459 Clouds 14 1021 93 8000 3.1 200 09:22 31.10.2020
2460 Clouds 14 1021 100 6000 3.1 200 08:32 31.10.2020
2461 Drizzle 14 1020 100 5000 3.1 200 07:58 31.10.2020
2462 Drizzle 14 1021 100 6000 2.6 210 07:27 31.10.2020
2463 Drizzle 14 1021 100 2200 3.1 230 06:40 31.10.2020
2464 Drizzle 14 1021 100 3200 3.6 240 05:20 31.10.2020
2465 Drizzle 14 1020 100 5000 4.1 230 03:46 31.10.2020
2466 Clouds 14 1020 100 10000 4.1 240 01:30 31.10.2020
2467 Drizzle 14 1020 100 7000 4.1 240 00:47 31.10.2020
2468 Drizzle 14 1019 100 3500 4.6 240 23:52 30.10.2020
2469 Drizzle 14 1019 100 4500 4.6 240 23:25 30.10.2020
2470 Rain 14 1019 100 7000 4.6 240 22:48 30.10.2020
2471 Drizzle 14 1019 100 4200 4.6 230 22:26 30.10.2020
2472 Clouds 14 1018 100 7000 4.6 240 21:58 30.10.2020
2473 Drizzle 14 1018 100 5000 4.1 230 21:39 30.10.2020
2474 Drizzle 14 1018 100 5000 4.1 230 21:20 30.10.2020
2475 Drizzle 14 1018 100 3000 5.1 240 20:42 30.10.2020
2476 Drizzle 14 1018 100 3000 5.1 240 20:24 30.10.2020
2477 Drizzle 14 1018 100 3800 4.6 240 19:52 30.10.2020
2478 Rain 14 1017 100 3000 4.6 240 19:19 30.10.2020
2479 Drizzle 14 1017 100 3500 4.6 240 18:52 30.10.2020
2480 Rain 14 1017 100 6000 5.1 250 18:33 30.10.2020
2481 Drizzle 14 1017 100 4500 5.7 250 17:56 30.10.2020
2482 Drizzle 14 1016 100 7000 5.1 250 17:36 30.10.2020
2483 Clouds 14 1016 100 3000 5.1 250 17:18 30.10.2020
2484 Clouds 14 1016 100 3000 5.1 250 16:49 30.10.2020
2485 Clouds 14 1016 100 7000 5.1 250 16:19 30.10.2020
2486 Clouds 14 1015 100 8000 6.2 250 15:41 30.10.2020
2487 Clouds 14 1015 100 8000 6.2 250 15:20 30.10.2020
2488 Drizzle 14 1015 100 4500 5.7 250 14:45 30.10.2020
2489 Rain 14 1015 100 3500 6.2 250 14:26 30.10.2020
2490 Rain 15 1015 93 7000 6.7 260 13:55 30.10.2020
2491 Rain 14 1014 100 8000 6.7 260 13:37 30.10.2020
2492 Clouds 14 1014 100 7000 6.2 250 13:18 30.10.2020
2493 Drizzle 14 1014 100 5000 6.7 250 12:40 30.10.2020
2494 Drizzle 14 1014 100 5000 6.7 250 12:21 30.10.2020
2495 Clouds 14 1014 93 5000 6.2 240 11:43 30.10.2020
2496 Clouds 14 1014 93 5000 6.2 240 11:20 30.10.2020
2497 Drizzle 14 1013 93 6000 5.7 240 10:47 30.10.2020
2498 Rain 13 1013 100 7000 5.7 240 10:23 30.10.2020
2499 Clouds 13 1013 100 4500 5.7 240 09:46 30.10.2020
2500 Rain 13 1013 100 7000 5.7 240 09:24 30.10.2020
2501 Drizzle 13 1013 100 7000 6.7 240 08:55 30.10.2020
2502 Clouds 13 1013 100 10000 6.7 240 08:31 30.10.2020
2503 Clouds 13 1012 100 8000 5.7 240 07:51 30.10.2020
2504 Clouds 13 1012 100 8000 5.7 240 07:51 30.10.2020
2505 Clouds 13 1012 93 10000 6.2 240 07:33 30.10.2020
2506 Rain 13 1012 93 10000 5.1 240 06:49 30.10.2020
2507 Drizzle 13 1011 93 3000 5.7 230 05:31 30.10.2020
2508 Clouds 11 1012 100 6000 3.1 200 02:30 30.10.2020
2509 Rain 10 1012 100 6000 4.6 180 00:46 30.10.2020
2510 Rain 10 1012 93 8000 5.1 170 23:57 29.10.2020
2511 Rain 10 1013 93 9000 4.6 170 23:39 29.10.2020
2512 Rain 10 1013 93 9000 4.6 170 23:21 29.10.2020
2513 Rain 10 1014 93 10000 4.1 190 22:43 29.10.2020
2514 Rain 10 1014 93 10000 4.1 190 22:24 29.10.2020
2515 Rain 9 1014 93 10000 3.6 200 21:40 29.10.2020
2516 Rain 9 1014 93 10000 3.6 200 21:21 29.10.2020
2517 Rain 10 1015 87 10000 4.1 210 20:42 29.10.2020
2518 Rain 10 1015 87 10000 4.1 210 20:20 29.10.2020
2519 Rain 10 1015 87 10000 4.1 210 20:20 29.10.2020
2520 Rain 10 1015 81 10000 4.6 220 19:54 29.10.2020
2521 Rain 10 1015 81 10000 3.6 220 19:36 29.10.2020
2522 Rain 10 1015 81 10000 3.6 220 19:18 29.10.2020
2523 Rain 10 1015 81 10000 3.6 210 18:41 29.10.2020
2524 Clear 10 1015 81 10000 3.6 210 18:21 29.10.2020
2525 Clouds 10 1014 81 10000 4.6 230 17:42 29.10.2020
2526 Clouds 10 1014 81 10000 4.6 230 17:21 29.10.2020
2527 Clouds 11 1014 76 10000 5.1 240 16:52 29.10.2020
2528 Clouds 11 1014 81 10000 6.7 250 16:23 29.10.2020
2529 Clouds 11 1014 81 10000 6.7 250 15:57 29.10.2020
2530 Clouds 11 1013 76 10000 6.2 250 15:39 29.10.2020
2531 Rain 11 1013 76 10000 6.2 250 15:21 29.10.2020
2532 Clouds 12 1013 71 10000 6.7 250 14:46 29.10.2020
2533 Clouds 12 1013 71 10000 6.7 250 14:24 29.10.2020
2534 Clouds 12 1013 71 10000 8.7 250 13:59 29.10.2020
2535 Clouds 12 1012 76 10000 7.7 250 13:39 29.10.2020
2536 Clouds 12 1012 76 10000 7.7 250 13:21 29.10.2020
2537 Clouds 12 1012 81 10000 8.7 260 12:40 29.10.2020
2538 Clouds 12 1012 76 10000 8.2 260 12:19 29.10.2020
2539 Clouds 11 1011 76 10000 8.2 260 11:45 29.10.2020
2540 Clouds 11 1011 76 10000 8.2 260 11:24 29.10.2020
2541 Clouds 10 1010 81 10000 7.2 250 10:38 29.10.2020
2542 Clouds 10 1010 81 10000 7.2 250 10:19 29.10.2020
2543 Clouds 9 1010 87 10000 7.2 240 09:53 29.10.2020
2544 Rain 9 1009 87 10000 6.2 240 09:28 29.10.2020
2545 Rain 9 1009 87 10000 6.2 240 09:28 29.10.2020
2546 Rain 8 1009 93 10000 6.2 240 08:55 29.10.2020
2547 Rain 8 1008 93 10000 5.7 240 08:34 29.10.2020
2548 Rain 8 1008 93 10000 6.2 240 07:54 29.10.2020
2549 Clouds 8 1007 87 10000 7.2 240 07:35 29.10.2020
2550 Clouds 9 1006 87 10000 8.2 240 06:57 29.10.2020
2551 Clouds 9 1005 93 10000 5.7 230 05:35 29.10.2020
2552 Clouds 9 1005 93 10000 5.7 220 04:45 29.10.2020
2553 Rain 9 1003 95 9934 0.89 209 01:24 29.10.2020
2554 Rain 9 1003 95 9934 0.89 174 00:31 29.10.2020
2555 Rain 9 1003 95 6840 1.34 189 23:48 28.10.2020
2556 Rain 9 1003 94 10000 0.89 175 23:22 28.10.2020
2557 Rain 9 1005 93 10000 4.1 170 22:45 28.10.2020
2558 Clouds 9 1005 93 10000 4.1 170 22:27 28.10.2020
2559 Clouds 9 1005 93 10000 4.1 170 21:59 28.10.2020
2560 Clouds 9 1006 93 10000 3.6 170 21:40 28.10.2020
2561 Clouds 9 1006 93 10000 3.6 170 21:20 28.10.2020
2562 Clouds 9 1006 93 10000 4.1 190 20:42 28.10.2020
2563 Clouds 9 1006 93 10000 4.1 190 20:22 28.10.2020
2564 Rain 9 1006 93 10000 3.1 180 19:51 28.10.2020
2565 Rain 9 1006 93 10000 4.1 210 19:29 28.10.2020
2566 Rain 9 1006 93 5000 5.1 290 18:49 28.10.2020
2567 Rain 10 1006 87 10000 2.6 170 18:22 28.10.2020
2568 Rain 10 1006 87 10000 2.6 170 18:22 28.10.2020
2569 Clouds 10 1006 87 10000 3.6 190 17:57 28.10.2020
2570 Rain 10 1006 76 10000 2.1 250 17:39 28.10.2020
2571 Clouds 10 1007 81 10000 5.1 240 17:18 28.10.2020
2572 Rain 11 1006 76 10000 4.6 230 16:44 28.10.2020
2573 Rain 12 1006 76 10000 4.6 230 16:23 28.10.2020
2574 Rain 13 1006 81 10000 4.1 240 15:40 28.10.2020
2575 Rain 13 1006 81 10000 4.1 240 15:19 28.10.2020
2576 Clouds 14 1006 67 10000 7.7 230 14:44 28.10.2020
2577 Rain 14 1006 67 10000 7.7 230 14:26 28.10.2020
2578 Clouds 14 1005 75 10000 3.13 259 12:55 28.10.2020
2579 Clouds 14 1005 75 10000 2.68 232 12:36 28.10.2020
2580 Clouds 14 1005 82 10000 2.24 278 12:18 28.10.2020
2581 Clouds 13 1005 92 10000 3.13 197 11:41 28.10.2020
2582 Rain 12 1004 94 10000 1.34 221 11:20 28.10.2020
2583 Clouds 11 1005 87 10000 5.1 200 10:53 28.10.2020
2584 Clouds 11 1005 87 10000 5.1 200 10:33 28.10.2020
2585 Clouds 10 1005 93 10000 4.6 200 09:46 28.10.2020
2586 Clouds 10 1005 93 10000 4.6 200 09:24 28.10.2020
2587 Clouds 10 1005 93 10000 4.1 200 08:56 28.10.2020
2588 Clouds 10 1004 93 10000 4.1 190 08:37 28.10.2020
2589 Clouds 10 1004 93 10000 3.6 190 08:18 28.10.2020
2590 Clouds 9 1003 100 10000 3.1 200 07:41 28.10.2020
2591 Clouds 9 1003 100 10000 3.1 200 07:19 28.10.2020
2592 Clouds 10 1003 93 10000 4.6 220 06:39 28.10.2020
2593 Clouds 11 1003 93 10000 4.6 230 05:48 28.10.2020
2594 Clouds 11 1002 93 10000 6.2 220 04:52 28.10.2020
2595 Clouds 11 1001 93 10000 6.2 220 04:23 28.10.2020
2596 Clouds 10 1001 87 10000 6.2 190 02:25 28.10.2020
2597 Rain 11 1001 71 10000 6.2 170 00:39 28.10.2020
2598 Clouds 10 1001 76 10000 6.2 170 23:51 27.10.2020
2599 Clouds 11 1002 71 10000 6.7 170 23:23 27.10.2020
2600 Clouds 11 1002 66 10000 7.7 180 22:55 27.10.2020
2601 Clouds 11 1002 71 10000 6.7 170 22:37 27.10.2020
2602 Clouds 11 1002 71 10000 6.7 170 22:18 27.10.2020
2603 Clouds 11 1002 71 10000 6.7 170 21:55 27.10.2020
2604 Clear 11 1002 71 10000 5.7 170 21:36 27.10.2020
2605 Clear 11 1002 71 10000 5.7 170 21:18 27.10.2020
2606 Clear 11 1003 71 10000 6.2 180 20:39 27.10.2020
2607 Clear 11 1003 71 10000 6.2 180 20:20 27.10.2020
2608 Clear 11 1003 76 10000 4.6 170 19:39 27.10.2020
2609 Clear 11 1003 76 10000 4.6 170 19:21 27.10.2020
2610 Rain 11 1003 76 10000 4.6 180 18:58 27.10.2020
2611 Clouds 11 1003 76 10000 5.1 190 18:40 27.10.2020
2612 Clouds 11 1003 76 10000 5.1 190 18:19 27.10.2020
2613 Clouds 11 1003 81 10000 3.6 190 17:43 27.10.2020
2614 Clouds 11 1003 81 10000 3.6 190 17:21 27.10.2020
2615 Clouds 12 1004 71 10000 5.1 200 16:48 27.10.2020
2616 Clouds 12 1004 71 10000 5.1 200 16:28 27.10.2020
2617 Clouds 12 1004 71 10000 4.1 190 15:55 27.10.2020
2618 Clouds 12 1004 71 10000 5.1 200 15:37 27.10.2020
2619 Clouds 12 1004 71 10000 5.1 200 15:18 27.10.2020
2620 Clouds 12 1004 71 10000 6.2 200 14:42 27.10.2020
2621 Clouds 12 1004 71 10000 6.2 200 14:23 27.10.2020
2622 Clouds 12 1004 71 10000 5.1 200 13:52 27.10.2020
2623 Clouds 12 1004 71 10000 5.7 210 13:22 27.10.2020
2624 Clouds 11 1004 76 10000 5.7 210 12:42 27.10.2020
2625 Clouds 11 1004 76 10000 5.7 210 12:23 27.10.2020
2626 Clouds 11 1004 81 10000 6.7 190 11:43 27.10.2020
2627 Clouds 11 1004 81 10000 6.7 190 11:25 27.10.2020
2628 Clouds 11 1004 81 10000 7.2 190 10:51 27.10.2020
2629 Clouds 11 1004 81 10000 5.1 190 10:33 27.10.2020
2630 Clouds 10 1004 81 10000 5.1 200 09:47 27.10.2020
2631 Clouds 10 1004 87 10000 5.1 190 09:27 27.10.2020
2632 Clouds 9 1003 87 10000 4.6 180 08:56 27.10.2020
2633 Clouds 9 1003 87 10000 3.6 180 08:27 27.10.2020
2634 Clouds 8 1003 87 10000 4.1 180 07:52 27.10.2020
2635 Clouds 8 1003 87 10000 3.6 190 07:33 27.10.2020
2636 Clouds 9 1002 87 10000 3.6 190 06:49 27.10.2020
2637 Clouds 9 1002 81 10000 5.1 200 06:19 27.10.2020
2638 Clouds 9 1002 81 10000 5.1 200 06:19 27.10.2020
2639 Clouds 9 1002 81 10000 4.6 190 05:44 27.10.2020
2640 Clouds 9 1002 81 10000 5.1 190 04:57 27.10.2020
2641 Clouds 8 1002 81 10000 4.1 180 02:49 27.10.2020
2642 Clear 8 1002 81 10000 4.1 180 01:18 27.10.2020
2643 Clear 8 1002 76 10000 4.1 180 23:59 26.10.2020
2644 Clear 8 1002 81 10000 4.1 180 23:36 26.10.2020
2645 Clear 8 1002 81 10000 4.1 180 23:36 26.10.2020
2646 Clouds 9 1002 81 10000 4.1 190 22:56 26.10.2020
2647 Clouds 9 1002 76 10000 4.6 190 22:30 26.10.2020
2648 Clear 9 1002 81 10000 4.1 180 21:57 26.10.2020
2649 Clouds 8 1002 76 10000 3.6 180 21:36 26.10.2020
2650 Clouds 8 1002 76 10000 3.6 180 21:18 26.10.2020
2651 Clear 8 1001 81 10000 4.1 180 20:49 26.10.2020
2652 Clear 8 1001 76 10000 3.6 180 20:27 26.10.2020
2653 Clear 8 1001 76 10000 4.1 180 19:49 26.10.2020
2654 Clear 8 1001 76 10000 4.1 180 19:49 26.10.2020
2655 Clear 9 1001 81 10000 3.6 190 19:28 26.10.2020
2656 Clear 9 1001 81 10000 3.6 200 18:59 26.10.2020
2657 Clear 10 1001 71 10000 4.1 210 18:39 26.10.2020
2658 Clear 10 1001 71 10000 4.1 210 18:20 26.10.2020
2659 Clouds 11 1001 71 10000 3.6 210 17:44 26.10.2020
2660 Clouds 11 1001 71 10000 3.6 210 17:23 26.10.2020
2661 Clouds 12 1001 71 10000 4.1 210 16:45 26.10.2020
2662 Clouds 12 1001 71 10000 4.1 210 16:22 26.10.2020
2663 Clouds 12 1001 71 10000 3.6 210 15:56 26.10.2020
2664 Clouds 12 1001 76 10000 4.6 210 15:38 26.10.2020
2665 Clouds 12 1000 76 10000 4.6 200 15:18 26.10.2020
2666 Clouds 12 1000 76 10000 3.6 210 14:44 26.10.2020
2667 Clouds 12 1000 76 10000 3.6 210 14:19 26.10.2020
2668 Clouds 12 1001 76 10000 5.1 210 13:42 26.10.2020
2669 Clouds 12 1001 76 10000 5.1 210 13:22 26.10.2020
2670 Clouds 11 1001 76 10000 5.7 220 12:47 26.10.2020
2671 Clouds 11 1001 87 10000 4.6 210 12:27 26.10.2020
2672 Clouds 11 1001 87 10000 5.7 210 11:55 26.10.2020
2673 Clouds 11 1000 87 10000 4.6 200 11:37 26.10.2020
2674 Clouds 11 1000 87 10000 4.6 200 11:37 26.10.2020
2675 Clouds 11 1001 87 10000 4.6 200 11:18 26.10.2020
2676 Clouds 11 1000 93 10000 3.6 190 10:42 26.10.2020
2677 Clouds 11 1000 93 10000 3.6 190 10:22 26.10.2020
2678 Clouds 10 1001 100 10000 4.1 170 09:44 26.10.2020
2679 Clouds 10 1001 100 10000 4.1 170 09:23 26.10.2020
2680 Clouds 10 1000 93 10000 2.6 180 08:30 26.10.2020
2681 Clouds 10 1000 93 10000 3.1 180 07:56 26.10.2020
2682 Clouds 10 1000 93 10000 3.1 180 07:56 26.10.2020
2683 Clouds 10 1000 100 10000 2.1 220 07:37 26.10.2020
2684 Clouds 10 1000 93 10000 2.6 180 06:38 26.10.2020
2685 Clear 9 1000 93 10000 2.6 160 04:47 26.10.2020
2686 Clear 9 1001 100 10000 3.1 150 04:18 26.10.2020
2687 Clear 9 1001 93 10000 2.6 160 02:27 26.10.2020
2688 Clear 9 1001 93 10000 2.6 160 01:29 26.10.2020
2689 Clear 10 1001 93 10000 2.6 170 00:33 26.10.2020
2690 Clear 11 1001 93 10000 3.1 180 23:42 25.10.2020
2691 Clear 11 1001 93 10000 3.1 180 23:21 25.10.2020
2692 Clear 11 1001 93 10000 2.6 180 22:41 25.10.2020
2693 Clear 11 1001 93 10000 2.6 180 22:23 25.10.2020
2694 Clear 11 1001 93 10000 3.6 170 21:48 25.10.2020
2695 Clouds 11 1001 93 10000 4.1 170 21:29 25.10.2020
2696 Clouds 11 1001 93 10000 3.1 170 20:57 25.10.2020
2697 Clouds 11 1001 100 10000 3.1 170 20:38 25.10.2020
2698 Rain 11 1001 100 10000 3.1 170 20:19 25.10.2020
2699 Rain 12 1002 93 10000 3.6 180 19:49 25.10.2020
2700 Rain 12 1002 93 10000 3.1 180 19:24 25.10.2020
2701 Clouds 12 1002 93 10000 3.6 170 18:57 25.10.2020
2702 Rain 12 1002 93 10000 3.6 180 18:38 25.10.2020
2703 Rain 12 1002 93 10000 3.6 180 18:38 25.10.2020
2704 Rain 12 1002 93 10000 3.6 180 18:38 25.10.2020
2705 Clouds 12 1002 93 10000 3.6 180 18:20 25.10.2020
2706 Clouds 12 1001 87 10000 2.6 180 17:40 25.10.2020
2707 Clouds 12 1001 87 10000 2.6 180 17:21 25.10.2020
2708 Clouds 12 1001 93 10000 3.6 180 16:58 25.10.2020
2709 Clouds 12 1001 93 10000 3.6 180 16:39 25.10.2020
2710 Rain 12 1001 93 10000 3.6 180 16:20 25.10.2020
2711 Rain 13 1002 87 10000 3.6 200 15:47 25.10.2020
2712 Rain 13 1001 87 10000 4.6 190 15:26 25.10.2020
2713 Rain 13 1001 87 10000 4.6 190 15:26 25.10.2020
2714 Rain 13 1002 93 10000 4.1 210 14:49 25.10.2020
2715 Rain 14 1002 82 10000 5.1 220 14:28 25.10.2020
2716 Rain 14 1002 77 10000 5.7 200 13:44 25.10.2020
2717 Clouds 15 1002 77 10000 5.7 200 13:23 25.10.2020
2718 Rain 15 1001 72 10000 7.2 200 12:49 25.10.2020
2719 Clouds 15 1002 72 10000 7.2 200 12:27 25.10.2020
2720 Clouds 15 1002 77 10000 6.7 190 11:58 25.10.2020
2721 Clouds 15 1002 77 10000 6.7 180 11:40 25.10.2020
2722 Clouds 15 1002 77 10000 6.7 180 11:19 25.10.2020
2723 Rain 15 1002 72 10000 8.2 180 10:45 25.10.2020
2724 Clouds 15 1002 72 10000 8.2 180 10:25 25.10.2020
2725 Rain 15 1002 72 10000 7.2 180 09:50 25.10.2020
2726 Clouds 14 1002 76 10000 5.7 180 09:21 25.10.2020
2727 Clouds 14 1002 76 10000 5.7 180 09:21 25.10.2020
2728 Clouds 14 1002 76 10000 5.7 180 08:58 25.10.2020
2729 Clouds 14 1002 76 10000 6.7 180 08:40 25.10.2020
2730 Clouds 14 1002 76 10000 6.7 180 08:40 25.10.2020
2731 Clouds 14 1002 76 10000 6.7 180 08:22 25.10.2020
2732 Clouds 14 1002 76 10000 6.2 170 07:42 25.10.2020
2733 Clouds 15 1002 72 10000 7.7 180 06:53 25.10.2020
2734 Clouds 15 1002 72 10000 8.7 180 06:27 25.10.2020
2735 Clouds 15 1003 72 10000 7.7 180 05:19 25.10.2020
2736 Clouds 15 1003 72 10000 7.2 180 04:50 25.10.2020
2737 Clouds 14 1005 76 10000 6.2 170 02:30 25.10.2020
2738 Clouds 14 1006 82 10000 6.7 180 00:54 25.10.2020
2739 Clouds 14 1006 82 10000 6.7 180 00:28 25.10.2020
2740 Clouds 14 1006 76 10000 5.7 170 23:55 24.10.2020
2741 Clouds 13 1007 82 10000 5.7 170 23:35 24.10.2020
2742 Clouds 13 1007 87 10000 6.2 180 22:59 24.10.2020
2743 Clouds 13 1007 82 10000 5.7 170 22:41 24.10.2020
2744 Clouds 13 1007 82 10000 5.7 170 22:22 24.10.2020
2745 Clouds 13 1007 87 10000 5.1 180 21:55 24.10.2020
2746 Clouds 13 1008 87 10000 4.6 180 21:36 24.10.2020
2747 Clouds 13 1008 87 10000 4.6 180 21:18 24.10.2020
2748 Clouds 13 1009 87 10000 4.6 170 20:42 24.10.2020
2749 Clouds 13 1009 87 10000 4.6 170 20:20 24.10.2020
2750 Clouds 13 1009 87 10000 3.6 190 19:42 24.10.2020
2751 Clouds 13 1009 87 10000 3.6 190 19:23 24.10.2020
2752 Clouds 13 1009 87 10000 4.1 200 18:54 24.10.2020
2753 Clouds 13 1009 87 10000 4.6 200 18:31 24.10.2020
2754 Clouds 13 1009 93 10000 4.1 200 17:54 24.10.2020
2755 Clouds 13 1010 93 10000 6.7 210 17:27 24.10.2020
2756 Clouds 13 1010 93 10000 6.7 210 17:27 24.10.2020
2757 Clouds 13 1010 93 10000 4.6 210 16:58 24.10.2020
2758 Drizzle 13 1010 93 6000 4.1 210 16:40 24.10.2020
2759 Drizzle 13 1010 93 9000 4.6 200 15:59 24.10.2020
2760 Clouds 14 1010 87 10000 4.6 210 15:38 24.10.2020
2761 Clouds 14 1010 87 10000 4.6 210 15:19 24.10.2020
2762 Clouds 14 1010 82 10000 4.6 200 14:42 24.10.2020
2763 Clouds 14 1010 82 10000 4.6 200 14:22 24.10.2020
2764 Clouds 14 1011 82 10000 4.6 200 13:44 24.10.2020
2765 Clouds 14 1011 82 10000 4.6 200 13:20 24.10.2020
2766 Clouds 14 1011 76 10000 5.1 220 12:41 24.10.2020
2767 Clouds 14 1011 76 10000 5.1 220 12:21 24.10.2020
2768 Clouds 13 1011 82 10000 5.7 220 11:51 24.10.2020
2769 Clouds 13 1011 87 10000 5.1 210 11:24 24.10.2020
2770 Clouds 13 1011 82 10000 5.1 220 10:51 24.10.2020
2771 Clouds 12 1011 87 10000 5.1 220 10:32 24.10.2020
2772 Clouds 12 1010 87 10000 5.7 220 09:50 24.10.2020
2773 Clouds 12 1010 87 10000 5.1 220 09:28 24.10.2020
2774 Clouds 12 1010 87 10000 4.6 220 08:58 24.10.2020
2775 Clouds 12 1010 87 10000 5.1 220 08:19 24.10.2020
2776 Clouds 12 1009 87 10000 4.6 220 07:53 24.10.2020
2777 Clouds 12 1010 87 10000 5.1 220 07:25 24.10.2020
2778 Clouds 12 1009 87 10000 4.6 220 06:53 24.10.2020
2779 Clouds 12 1009 87 10000 4.6 220 06:53 24.10.2020
2780 Clouds 12 1009 93 10000 4.6 230 06:23 24.10.2020
2781 Clouds 13 1009 93 8000 3.6 210 02:56 24.10.2020
2782 Mist 12 1009 100 3500 3.1 210 01:40 24.10.2020
2783 Mist 13 1009 93 3500 2.6 220 00:41 24.10.2020
2784 Mist 13 1009 93 3500 2.6 220 00:21 24.10.2020
2785 Mist 12 1009 100 4000 2.6 210 23:49 23.10.2020
2786 Mist 12 1009 100 4500 2.1 190 23:26 23.10.2020
2787 Fog 12 1009 93 6000 2.1 200 22:58 23.10.2020
2788 Fog 12 1009 93 7000 1 0 22:39 23.10.2020
2789 Fog 11 1009 93 7000 1 0 22:20 23.10.2020
2790 Clear 11 1009 93 8000 2.1 180 21:46 23.10.2020
2791 Clouds 11 1009 100 8000 2.1 190 21:25 23.10.2020
2792 Mist 12 1009 93 5000 2.6 170 20:41 23.10.2020
2793 Mist 12 1009 93 5000 2.6 170 20:23 23.10.2020
2794 Clouds 12 1009 93 7000 2.6 160 19:54 23.10.2020
2795 Clouds 12 1009 93 9000 1.5 160 19:33 23.10.2020
2796 Clear 12 1009 93 10000 1.5 160 18:57 23.10.2020
2797 Clear 13 1009 93 10000 2.6 170 18:37 23.10.2020
2798 Clear 13 1009 93 10000 2.6 170 18:19 23.10.2020
2799 Clouds 14 1009 82 10000 3.1 170 17:42 23.10.2020
2800 Clouds 15 1009 82 10000 3.1 170 17:20 23.10.2020
2801 Rain 15 1009 82 10000 2.6 170 16:39 23.10.2020
2802 Rain 15 1009 82 10000 2.6 170 16:21 23.10.2020
2803 Clouds 14 1010 82 10000 2.1 180 15:43 23.10.2020
2804 Rain 14 1010 82 10000 2.1 180 15:24 23.10.2020
2805 Rain 14 1010 82 10000 2.1 190 14:53 23.10.2020
2806 Rain 14 1010 82 10000 1.5 200 14:35 23.10.2020
2807 Clouds 14 1010 82 10000 2.1 190 13:59 23.10.2020
2808 Clouds 14 1011 82 10000 2.1 210 13:37 23.10.2020
2809 Rain 14 1011 82 10000 2.1 210 13:19 23.10.2020
2810 Rain 14 1011 87 10000 2.6 190 12:47 23.10.2020
2811 Clouds 13 1011 87 10000 2.6 200 12:24 23.10.2020
2812 Clouds 13 1011 87 10000 2.6 210 11:47 23.10.2020
2813 Clouds 12 1011 93 10000 2.1 200 11:22 23.10.2020
2814 Clouds 12 1011 93 9000 2.1 210 10:45 23.10.2020
2815 Clouds 11 1011 93 8000 2.6 190 10:25 23.10.2020
2816 Mist 10 1011 100 2500 1.5 170 09:46 23.10.2020
2817 Mist 10 1011 100 5000 1.5 210 09:27 23.10.2020
2818 Mist 10 1010 93 5000 2.6 200 08:53 23.10.2020
2819 Mist 10 1010 93 5000 3.6 200 08:32 23.10.2020
2820 Mist 10 1010 93 5000 3.1 200 07:46 23.10.2020
2821 Mist 10 1010 93 5000 3.1 200 07:22 23.10.2020
2822 Clear 10 1011 93 8000 2.6 210 06:20 23.10.2020
2823 Clear 10 1011 100 9000 3.1 220 05:36 23.10.2020
2824 Clear 12 1011 93 10000 2.6 220 02:32 23.10.2020
2825 Clear 12 1011 87 10000 3.1 210 01:52 23.10.2020
2826 Clear 12 1010 93 10000 3.6 240 00:48 23.10.2020
2827 Clouds 13 1010 93 10000 3.1 210 23:48 22.10.2020
2828 Clear 12 1010 93 10000 1.5 220 23:30 22.10.2020
2829 Clear 12 1010 100 10000 3.1 200 22:54 22.10.2020
2830 Clear 13 1010 93 10000 3.1 220 22:36 22.10.2020
2831 Clear 13 1010 93 10000 3.1 220 22:18 22.10.2020
2832 Clear 14 1010 87 10000 3.6 210 21:42 22.10.2020
2833 Clear 14 1010 87 10000 3.6 210 21:23 22.10.2020
2834 Clear 14 1009 93 10000 3.1 220 20:56 22.10.2020
2835 Clear 14 1009 93 10000 2.6 220 20:37 22.10.2020
2836 Clear 14 1009 93 10000 2.6 220 20:18 22.10.2020
2837 Rain 15 1009 77 10000 3.1 200 19:40 22.10.2020
2838 Rain 16 1009 77 10000 3.1 200 19:19 22.10.2020
2839 Rain 16 1009 67 10000 2.6 210 18:43 22.10.2020
2840 Rain 16 1009 67 10000 2.6 210 18:20 22.10.2020
2841 Clouds 17 1009 59 10000 6.7 230 17:46 22.10.2020
2842 Clouds 17 1009 59 10000 6.7 230 17:22 22.10.2020
2843 Clouds 17 1009 63 10000 5.1 230 16:56 22.10.2020
2844 Clouds 18 1009 55 10000 7.2 230 16:37 22.10.2020
2845 Clouds 18 1009 55 10000 7.2 230 16:19 22.10.2020
2846 Clouds 18 1009 59 10000 8.7 240 15:43 22.10.2020
2847 Clouds 18 1009 59 10000 8.7 240 15:22 22.10.2020
2848 Clouds 18 1010 59 10000 8.7 230 14:47 22.10.2020
2849 Clouds 19 1009 63 10000 7.7 220 14:24 22.10.2020
2850 Clouds 18 1010 63 10000 8.7 230 13:48 22.10.2020
2851 Clouds 18 1010 68 10000 7.2 230 13:24 22.10.2020
2852 Clouds 18 1010 68 10000 7.2 230 13:24 22.10.2020
2853 Clouds 17 1010 72 10000 8.2 230 12:53 22.10.2020
2854 Clouds 16 1010 77 10000 8.7 230 12:24 22.10.2020
2855 Clouds 16 1010 77 10000 7.7 230 11:50 22.10.2020
2856 Clouds 16 1010 77 10000 6.2 230 11:20 22.10.2020
2857 Clouds 15 1010 82 10000 5.7 220 10:51 22.10.2020
2858 Clouds 15 1009 82 10000 4.1 220 10:29 22.10.2020
2859 Clouds 14 1009 87 10000 4.1 210 09:54 22.10.2020
2860 Clouds 14 1009 87 10000 4.1 220 09:35 22.10.2020
2861 Clouds 14 1008 87 10000 4.6 220 08:53 22.10.2020
2862 Clouds 14 1008 87 10000 4.6 220 08:32 22.10.2020
2863 Clouds 14 1008 87 10000 5.1 220 07:58 22.10.2020
2864 Clouds 14 1008 87 10000 5.1 210 07:40 22.10.2020
2865 Clouds 15 1008 82 10000 3.6 210 06:59 22.10.2020
2866 Clouds 15 1007 77 10000 4.1 210 06:36 22.10.2020
2867 Clouds 14 1007 82 10000 5.1 230 05:42 22.10.2020
2868 Clouds 14 1007 82 10000 5.1 230 05:19 22.10.2020
2869 Clouds 17 1003 63 10000 12.3 240 01:57 22.10.2020
2870 Clouds 18 1001 68 10000 10.8 230 00:27 22.10.2020
2871 Clouds 19 1001 63 10000 11.3 220 23:57 21.10.2020
2872 Clouds 19 1001 63 10000 10.8 220 23:35 21.10.2020
2873 Clouds 19 1000 63 10000 10.3 220 22:58 21.10.2020
2874 Clouds 19 1000 63 10000 7.7 210 22:36 21.10.2020
2875 Clouds 18 1000 68 10000 7.7 200 22:18 21.10.2020
2876 Clouds 18 1000 68 10000 6.7 190 21:42 21.10.2020
2877 Clouds 17 1000 68 10000 6.7 190 21:19 21.10.2020
2878 Clouds 17 1000 67 10000 6.7 190 20:48 21.10.2020
2879 Clouds 16 1000 67 10000 6.2 180 20:19 21.10.2020
2880 Clouds 16 1000 67 10000 6.7 170 19:59 21.10.2020
2881 Clouds 16 1000 72 10000 5.1 160 19:38 21.10.2020
2882 Clouds 16 1000 72 10000 5.1 160 19:19 21.10.2020
2883 Clouds 15 999 82 10000 5.1 160 18:47 21.10.2020
2884 Clouds 15 1000 82 10000 4.6 160 18:26 21.10.2020
2885 Clouds 16 1000 77 10000 5.7 160 17:47 21.10.2020
2886 Clouds 16 1000 77 10000 7.2 160 17:21 21.10.2020
2887 Clouds 16 1000 82 10000 5.7 150 16:57 21.10.2020
2888 Clouds 14 1000 87 10000 5.1 150 16:36 21.10.2020
2889 Clouds 14 1000 87 10000 5.1 150 16:18 21.10.2020
2890 Clouds 14 1001 87 10000 5.1 150 15:44 21.10.2020
2891 Clouds 14 1002 87 10000 5.1 160 15:21 21.10.2020
2892 Clouds 14 1002 87 10000 6.2 170 14:46 21.10.2020
2893 Rain 14 1003 93 10000 5.1 170 14:28 21.10.2020
2894 Clouds 13 1003 93 10000 5.1 170 13:46 21.10.2020
2895 Rain 13 1004 93 5000 5.7 180 13:27 21.10.2020
2896 Rain 13 1004 93 5000 5.7 180 13:27 21.10.2020
2897 Rain 13 1004 93 10000 4.6 160 12:57 21.10.2020
2898 Rain 13 1004 93 10000 4.6 160 12:37 21.10.2020
2899 Rain 13 1004 93 10000 4.1 160 12:19 21.10.2020
2900 Rain 12 1005 100 10000 3.6 160 11:41 21.10.2020
2901 Rain 12 1005 93 5000 4.1 160 11:20 21.10.2020
2902 Rain 12 1005 93 10000 3.6 150 10:46 21.10.2020
2903 Rain 12 1005 93 10000 3.6 160 10:25 21.10.2020
2904 Rain 12 1005 93 5000 3.6 150 09:57 21.10.2020
2905 Rain 12 1005 93 5000 3.6 150 09:34 21.10.2020
2906 Rain 12 1005 93 4500 3.6 140 08:57 21.10.2020
2907 Rain 12 1005 93 4500 3.6 140 08:39 21.10.2020
2908 Rain 12 1005 93 4200 3.1 140 08:21 21.10.2020
2909 Rain 12 1005 100 5000 2.6 140 07:38 21.10.2020
2910 Rain 12 1006 93 8000 2.6 140 06:55 21.10.2020
2911 Rain 12 1006 93 10000 3.1 140 06:32 21.10.2020
2912 Rain 12 1006 93 10000 3.1 160 04:48 21.10.2020
2913 Clouds 13 1007 93 10000 3.6 180 02:27 21.10.2020
2914 Clouds 13 1008 93 10000 3.6 180 00:24 21.10.2020
2915 Clouds 13 1008 93 10000 4.6 180 23:25 20.10.2020
2916 Rain 13 1008 93 10000 4.1 190 22:38 20.10.2020
2917 Rain 12 1008 100 10000 3.6 190 22:20 20.10.2020
2918 Rain 12 1008 93 10000 3.1 190 21:47 20.10.2020
2919 Rain 12 1008 93 10000 3.1 170 21:19 20.10.2020
2920 Rain 11 1008 100 10000 3.1 160 20:43 20.10.2020
2921 Rain 11 1008 93 10000 2.6 150 20:23 20.10.2020
2922 Rain 11 1008 93 10000 3.1 150 19:45 20.10.2020
2923 Rain 11 1008 93 10000 3.1 150 19:22 20.10.2020
2924 Clouds 11 1008 93 10000 2.6 140 18:59 20.10.2020
2925 Clouds 11 1008 93 10000 2.6 140 18:38 20.10.2020
2926 Clouds 11 1008 93 10000 3.1 150 17:57 20.10.2020
2927 Rain 11 1008 93 10000 3.1 150 17:37 20.10.2020
2928 Rain 11 1009 93 10000 2.6 140 17:18 20.10.2020
2929 Rain 10 1009 93 10000 2.6 140 16:41 20.10.2020
2930 Rain 10 1009 93 10000 3.1 150 16:23 20.10.2020
2931 Rain 11 1008 81 10000 3.6 150 15:47 20.10.2020
2932 Rain 11 1008 81 10000 3.6 150 15:28 20.10.2020
2933 Rain 11 1009 76 10000 4.1 170 14:46 20.10.2020
2934 Rain 11 1009 76 10000 3.6 170 14:25 20.10.2020
2935 Rain 11 1009 76 10000 4.1 160 13:59 20.10.2020
2936 Rain 11 1009 76 10000 4.1 160 13:40 20.10.2020
2937 Clouds 10 1010 76 10000 4.1 160 13:20 20.10.2020
2938 Clouds 10 1010 76 10000 4.6 160 12:51 20.10.2020
2939 Clouds 9 1009 76 10000 4.6 130 12:31 20.10.2020
2940 Clouds 9 1010 81 10000 4.1 140 11:48 20.10.2020
2941 Clouds 9 1010 81 10000 4.1 140 11:48 20.10.2020
2942 Clouds 8 1010 81 10000 4.1 140 11:29 20.10.2020
2943 Clouds 7 1010 81 10000 4.1 140 10:53 20.10.2020
2944 Clouds 7 1010 81 10000 3.6 130 10:28 20.10.2020
2945 Clouds 7 1010 81 10000 5.1 130 09:47 20.10.2020
2946 Clouds 6 1010 87 10000 5.7 120 09:20 20.10.2020
2947 Rain 6 1011 81 10000 5.7 130 08:53 20.10.2020
2948 Clouds 6 1011 87 10000 5.1 120 08:27 20.10.2020
2949 Clouds 6 1012 87 10000 3.6 110 07:49 20.10.2020
2950 Clouds 6 1013 87 10000 2.6 130 07:24 20.10.2020
2951 Clouds 6 1013 87 10000 4.6 120 06:24 20.10.2020
2952 Clouds 5 1014 87 10000 4.1 120 04:58 20.10.2020
2953 Clouds 6 1016 87 10000 3.6 130 02:33 20.10.2020
2954 Clouds 6 1017 93 10000 3.1 140 01:59 20.10.2020
2955 Clouds 7 1017 93 10000 2.6 130 00:57 20.10.2020
2956 Clouds 7 1017 93 10000 2.6 130 00:39 20.10.2020
2957 Clouds 7 1018 93 10000 2.6 130 00:18 20.10.2020
2958 Clouds 7 1018 93 10000 2.6 130 00:18 20.10.2020
2959 Clouds 8 1018 93 10000 2.6 130 23:40 19.10.2020
2960 Clouds 8 1018 93 10000 1.5 130 23:19 19.10.2020
2961 Clouds 8 1018 93 10000 2.6 150 22:42 19.10.2020
2962 Clouds 9 1018 87 10000 2.6 140 22:20 19.10.2020
2963 Clouds 9 1019 87 10000 2.6 160 21:42 19.10.2020
2964 Clouds 9 1019 87 10000 2.1 150 21:20 19.10.2020
2965 Clouds 9 1019 81 10000 1.5 150 20:45 19.10.2020
2966 Clouds 9 1019 87 10000 1 180 20:27 19.10.2020
2967 Clouds 9 1019 81 10000 1 170 19:47 19.10.2020
2968 Clouds 10 1019 81 10000 2.6 170 19:22 19.10.2020
2969 Clouds 10 1019 81 10000 2.1 160 18:53 19.10.2020
2970 Clouds 10 1019 81 10000 2.1 160 18:33 19.10.2020
2971 Clouds 11 1020 76 10000 3.1 190 17:58 19.10.2020
2972 Clouds 11 1020 76 10000 3.1 190 17:40 19.10.2020
2973 Clouds 11 1020 76 10000 3.1 210 17:21 19.10.2020
2974 Clouds 12 1020 76 10000 3.1 220 16:43 19.10.2020
2975 Clouds 12 1020 71 10000 4.1 210 16:22 19.10.2020
2976 Clouds 12 1019 75 10000 0.45 238 15:41 19.10.2020
2977 Clouds 12 1019 76 10000 1.79 250 15:23 19.10.2020
2978 Clouds 12 1020 81 10000 1.34 224 14:51 19.10.2020
2979 Clouds 12 1020 82 10000 2.24 215 14:24 19.10.2020
2980 Clouds 11 1020 82 10000 2.24 157 13:52 19.10.2020
2981 Clouds 11 1020 83 10000 1.79 196 13:32 19.10.2020
2982 Clouds 10 1020 85 10000 0.89 209 12:51 19.10.2020
2983 Clouds 10 1020 86 10000 0.45 214 12:33 19.10.2020
2984 Clouds 10 1021 93 10000 3.1 210 11:51 19.10.2020
2985 Clouds 9 1021 93 10000 3.1 210 11:26 19.10.2020
2986 Clouds 9 1021 93 10000 3.1 210 10:59 19.10.2020
2987 Clouds 8 1021 93 10000 1.5 210 10:39 19.10.2020
2988 Clouds 8 1021 93 10000 1.5 210 10:19 19.10.2020
2989 Clouds 8 1021 100 10000 1 170 09:43 19.10.2020
2990 Clouds 7 1021 100 10000 1 170 09:19 19.10.2020
2991 Clouds 7 1021 93 10000 1 190 08:48 19.10.2020
2992 Clouds 7 1020 100 10000 1 0 08:23 19.10.2020
2993 Clouds 8 1020 93 10000 2.1 210 07:44 19.10.2020
2994 Clouds 8 1020 93 10000 2.1 210 07:19 19.10.2020
2995 Clouds 7 1021 93 10000 1.5 220 06:19 19.10.2020
2996 Clouds 7 1021 100 10000 1 300 03:50 19.10.2020
2997 Clouds 7 1021 100 10000 0.5 220 03:32 19.10.2020
2998 Clouds 8 1020 93 10000 2.6 250 00:57 19.10.2020
2999 Clouds 8 1020 93 10000 2.6 250 00:25 19.10.2020
3000 Clouds 8 1020 93 10000 1.5 240 23:48 18.10.2020
3001 Clouds 7 1020 93 10000 0.5 0 23:25 18.10.2020
3002 Clouds 7 1020 93 10000 2.6 240 22:52 18.10.2020
3003 Clouds 7 1020 100 10000 1.5 260 22:22 18.10.2020
3004 Clouds 7 1020 93 10000 3.1 230 21:56 18.10.2020
3005 Clouds 8 1020 93 10000 1.5 290 21:37 18.10.2020
3006 Clouds 8 1020 93 10000 1.5 290 21:18 18.10.2020
3007 Clouds 9 1020 87 10000 2.1 280 20:40 18.10.2020
3008 Clouds 9 1020 87 10000 2.1 280 20:21 18.10.2020
3009 Clouds 9 1019 81 10000 3.1 290 19:47 18.10.2020
3010 Clouds 10 1019 81 10000 3.6 290 19:26 18.10.2020
3011 Clouds 10 1019 81 10000 4.1 300 18:49 18.10.2020
3012 Clouds 10 1019 87 10000 2.6 290 18:28 18.10.2020
3013 Clouds 11 1018 76 10000 4.6 300 17:45 18.10.2020
3014 Clouds 12 1018 76 10000 4.6 300 17:25 18.10.2020
3015 Clouds 12 1018 76 10000 5.1 270 16:58 18.10.2020
3016 Clouds 12 1018 76 10000 4.6 270 16:39 18.10.2020
3017 Clouds 12 1018 76 10000 4.6 270 16:21 18.10.2020
3018 Clouds 12 1018 81 10000 5.7 260 15:42 18.10.2020
3019 Clouds 12 1018 81 10000 5.7 260 15:19 18.10.2020
3020 Clouds 12 1018 76 10000 5.1 270 14:56 18.10.2020
3021 Clouds 12 1019 76 10000 5.1 260 14:30 18.10.2020
3022 Clouds 11 1019 87 10000 6.2 260 13:58 18.10.2020
3023 Clouds 11 1019 87 10000 5.1 260 13:40 18.10.2020
3024 Clouds 11 1019 87 10000 5.1 260 13:21 18.10.2020
3025 Drizzle 11 1019 93 4000 6.2 270 12:43 18.10.2020
3026 Drizzle 11 1019 93 4000 6.2 270 12:22 18.10.2020
3027 Clouds 10 1019 93 7000 5.1 270 11:42 18.10.2020
3028 Clouds 9 1019 93 7000 5.1 270 11:23 18.10.2020
3029 Clouds 9 1018 93 5000 6.2 250 10:45 18.10.2020
3030 Clouds 9 1018 93 5000 6.2 250 10:22 18.10.2020
3031 Clouds 8 1018 93 4000 5.1 260 09:59 18.10.2020
3032 Drizzle 8 1018 93 7000 5.1 260 09:41 18.10.2020
3033 Drizzle 8 1018 93 7000 5.1 260 09:20 18.10.2020
3034 Clouds 8 1018 93 10000 4.1 250 08:44 18.10.2020
3035 Clouds 8 1018 93 10000 4.1 250 08:25 18.10.2020
3036 Clouds 8 1018 87 10000 4.6 260 07:48 18.10.2020
3037 Clouds 7 1018 93 10000 3.6 250 05:56 18.10.2020
3038 Fog 5 1019 100 900 2.6 230 03:40 18.10.2020
3039 Fog 5 1019 100 300 1 270 02:52 18.10.2020
3040 Fog 5 1019 100 400 1.5 230 01:29 18.10.2020
3041 Fog 5 1019 93 400 1.5 220 00:38 18.10.2020
3042 Fog 5 1019 93 400 1.5 220 00:20 18.10.2020
3043 Fog 5 1020 100 200 1.5 230 23:41 17.10.2020
3044 Fog 5 1020 100 200 1.5 230 23:21 17.10.2020
3045 Fog 5 1020 93 400 1 270 22:57 17.10.2020
3046 Fog 7 1020 100 1100 1 270 22:36 17.10.2020
3047 Fog 7 1020 100 1100 1 270 22:18 17.10.2020
3048 Clouds 7 1020 93 10000 2.6 310 21:42 17.10.2020
3049 Clear 8 1020 93 10000 2.6 310 21:20 17.10.2020
3050 Clear 8 1020 87 10000 2.6 290 20:45 17.10.2020
3051 Clouds 8 1020 87 10000 2.6 290 20:20 17.10.2020
3052 Clouds 10 1019 81 10000 2.1 330 19:44 17.10.2020
3053 Clouds 10 1019 81 10000 2.1 330 19:22 17.10.2020
3054 Clouds 11 1019 76 10000 2.6 330 18:46 17.10.2020
3055 Clouds 11 1019 76 10000 2.6 330 18:28 17.10.2020
3056 Clouds 12 1019 76 10000 2.1 300 17:57 17.10.2020
3057 Clouds 12 1019 71 10000 2.6 300 17:38 17.10.2020
3058 Clouds 12 1019 71 10000 2.6 300 17:19 17.10.2020
3059 Clouds 12 1019 71 10000 3.6 290 16:42 17.10.2020
3060 Clouds 12 1019 71 10000 3.6 290 16:19 17.10.2020
3061 Clouds 12 1019 66 10000 2.1 350 15:43 17.10.2020
3062 Clouds 12 1019 66 10000 2.1 350 15:22 17.10.2020
3063 Clouds 13 1019 62 10000 2.1 330 14:59 17.10.2020
3064 Clouds 13 1020 71 10000 2.6 40 14:38 17.10.2020
3065 Clouds 13 1020 71 10000 2.6 40 14:19 17.10.2020
3066 Clouds 13 1020 66 10000 1.5 50 13:45 17.10.2020
3067 Clouds 12 1020 66 10000 1.5 50 13:26 17.10.2020
3068 Clouds 12 1020 76 10000 1.5 70 12:58 17.10.2020
3069 Clouds 11 1020 76 10000 2.6 30 12:38 17.10.2020
3070 Clouds 10 1020 87 10000 2.6 360 12:18 17.10.2020
3071 Clouds 10 1020 87 10000 1.5 300 11:38 17.10.2020
3072 Clouds 10 1020 87 10000 1.5 300 11:18 17.10.2020
3073 Clouds 8 1020 93 10000 2.1 290 10:33 17.10.2020
3074 Clouds 8 1020 93 10000 2.1 280 09:51 17.10.2020
3075 Clouds 7 1020 100 10000 1.5 300 09:32 17.10.2020
3076 Clouds 7 1020 100 8000 1.5 290 08:56 17.10.2020
3077 Clouds 7 1020 100 8000 1.5 290 08:25 17.10.2020
3078 Clouds 7 1020 100 8000 1.5 300 07:46 17.10.2020
3079 Mist 6 1020 100 5000 2.1 280 07:24 17.10.2020
3080 Clouds 7 1020 100 10000 1.5 310 05:37 17.10.2020
3081 Clouds 7 1021 100 10000 1.5 280 03:20 17.10.2020
3082 Clouds 7 1021 93 10000 1 290 02:19 17.10.2020
3083 Clouds 8 1021 81 10000 2.1 350 00:52 17.10.2020
3084 Clouds 8 1022 81 10000 2.1 320 23:58 16.10.2020
3085 Clouds 8 1022 81 10000 1.5 350 23:24 16.10.2020
3086 Clouds 9 1022 76 10000 1.5 360 22:46 16.10.2020
3087 Clouds 9 1022 76 10000 1.5 350 22:25 16.10.2020
3088 Clouds 8 1022 76 10000 2.1 10 21:57 16.10.2020
3089 Clouds 9 1022 76 10000 2.1 360 21:38 16.10.2020
3090 Clouds 9 1022 76 10000 2.1 360 21:20 16.10.2020
3091 Clouds 9 1022 71 10000 2.1 360 20:43 16.10.2020
3092 Clouds 9 1022 71 10000 2.1 360 20:24 16.10.2020
3093 Clouds 10 1021 71 10000 3.6 20 19:44 16.10.2020
3094 Clouds 10 1021 71 10000 3.6 20 19:26 16.10.2020
3095 Clouds 10 1021 76 10000 3.6 20 18:54 16.10.2020
3096 Clouds 10 1021 76 10000 3.1 40 18:33 16.10.2020
3097 Clouds 10 1021 71 10000 3.1 10 17:48 16.10.2020
3098 Clouds 11 1021 71 10000 2.6 340 17:29 16.10.2020
3099 Clouds 11 1022 66 10000 2.6 360 16:56 16.10.2020
3100 Clouds 11 1022 66 10000 3.1 20 16:37 16.10.2020
3101 Clouds 11 1022 66 10000 3.1 20 16:37 16.10.2020
3102 Clouds 11 1022 66 10000 3.1 20 16:18 16.10.2020
3103 Clouds 12 1022 62 10000 3.1 360 15:24 16.10.2020
3104 Clouds 11 1023 61 10000 2.1 70 14:44 16.10.2020
3105 Clouds 11 1023 62 10000 3.6 20 14:21 16.10.2020
3106 Clouds 11 1023 62 10000 3.6 20 13:59 16.10.2020
3107 Clouds 11 1023 66 10000 3.6 30 13:40 16.10.2020
3108 Clouds 10 1023 66 10000 3.6 30 13:22 16.10.2020
3109 Clouds 10 1023 66 10000 3.6 40 12:51 16.10.2020
3110 Clouds 10 1023 66 10000 4.1 30 12:24 16.10.2020
3111 Clouds 9 1023 71 10000 3.1 360 11:55 16.10.2020
3112 Clouds 9 1023 70 10000 3.1 10 11:36 16.10.2020
3113 Clouds 9 1023 70 10000 3.1 10 11:18 16.10.2020
3114 Clouds 7 1024 81 10000 3.6 10 10:42 16.10.2020
3115 Clouds 6 1024 81 10000 3.6 10 10:22 16.10.2020
3116 Clouds 6 1023 87 10000 2.1 10 09:39 16.10.2020
3117 Clouds 6 1023 87 10000 2.1 10 09:21 16.10.2020
3118 Clouds 6 1023 87 10000 3.1 10 08:41 16.10.2020
3119 Clouds 5 1023 87 10000 3.1 10 08:23 16.10.2020
3120 Clouds 6 1022 81 10000 2.6 360 07:43 16.10.2020
3121 Clouds 7 1022 75 10000 3.1 360 06:56 16.10.2020
3122 Clouds 8 1022 75 10000 2.6 10 05:25 16.10.2020
3123 Clouds 8 1023 81 10000 2.6 30 03:52 16.10.2020
3124 Clouds 8 1023 81 10000 3.6 30 01:43 16.10.2020
3125 Clouds 8 1023 81 10000 3.1 30 00:43 16.10.2020
3126 Clouds 8 1023 81 10000 3.6 30 23:57 15.10.2020
3127 Clouds 8 1023 81 10000 4.1 20 23:38 15.10.2020
3128 Clouds 8 1023 76 10000 4.1 20 23:19 15.10.2020
3129 Clouds 9 1023 76 10000 4.1 20 22:46 15.10.2020
3130 Clouds 9 1022 76 10000 4.1 30 22:21 15.10.2020
3131 Clouds 9 1022 76 10000 4.6 20 21:43 15.10.2020
3132 Clouds 9 1022 76 10000 4.6 20 21:21 15.10.2020
3133 Clear 9 1022 76 10000 4.1 30 20:58 15.10.2020
3134 Clear 9 1022 76 10000 5.1 20 20:40 15.10.2020
3135 Clouds 9 1022 76 10000 5.1 20 20:20 15.10.2020
3136 Clouds 9 1021 71 10000 4.1 30 19:41 15.10.2020
3137 Clouds 10 1021 71 10000 4.1 30 19:21 15.10.2020
3138 Clouds 10 1021 71 10000 5.1 30 18:43 15.10.2020
3139 Clouds 10 1021 71 10000 5.1 30 18:25 15.10.2020
3140 Clouds 10 1021 71 10000 5.1 40 17:48 15.10.2020
3141 Clouds 11 1021 71 10000 5.1 40 17:24 15.10.2020
3142 Clouds 11 1020 71 10000 6.2 30 16:50 15.10.2020
3143 Clouds 12 1020 71 10000 6.2 30 16:26 15.10.2020
3144 Clouds 12 1020 66 10000 5.7 40 15:59 15.10.2020
3145 Clouds 12 1020 66 10000 5.1 40 15:40 15.10.2020
3146 Clouds 12 1020 66 10000 5.1 40 15:21 15.10.2020
3147 Clouds 12 1020 66 10000 5.1 50 14:48 15.10.2020
3148 Clouds 12 1020 62 10000 6.2 40 14:24 15.10.2020
3149 Clouds 12 1021 66 10000 5.7 40 13:47 15.10.2020
3150 Clouds 12 1021 66 10000 5.7 20 13:25 15.10.2020
3151 Clouds 12 1021 71 10000 4.6 20 12:55 15.10.2020
3152 Clouds 11 1020 71 10000 5.7 20 12:32 15.10.2020
3153 Clouds 10 1020 76 10000 5.7 40 11:59 15.10.2020
3154 Clouds 10 1020 76 10000 4.6 20 11:41 15.10.2020
3155 Clouds 9 1020 76 10000 4.6 20 11:20 15.10.2020
3156 Clouds 9 1020 81 10000 4.6 10 10:45 15.10.2020
3157 Clouds 8 1020 81 10000 4.6 10 10:25 15.10.2020
3158 Clouds 8 1019 81 10000 4.6 360 09:40 15.10.2020
3159 Clouds 8 1019 81 10000 4.6 360 09:21 15.10.2020
3160 Clouds 8 1019 81 10000 5.1 360 08:54 15.10.2020
3161 Clouds 8 1019 81 10000 6.2 360 08:33 15.10.2020
3162 Clouds 8 1018 81 10000 5.1 360 07:32 15.10.2020
3163 Clouds 8 1018 81 10000 4.6 360 06:27 15.10.2020
3164 Clouds 8 1018 76 10000 4.6 10 04:19 15.10.2020
3165 Clouds 9 1018 76 10000 5.1 10 01:46 15.10.2020
3166 Clouds 9 1018 76 10000 5.7 10 01:20 15.10.2020
3167 Clouds 9 1018 76 10000 6.2 360 00:24 15.10.2020
3168 Clouds 9 1018 76 10000 5.7 360 23:55 14.10.2020
3169 Rain 9 1018 76 10000 5.7 360 23:36 14.10.2020
3170 Clouds 9 1018 76 10000 5.7 360 23:18 14.10.2020
3171 Clouds 9 1018 71 10000 6.2 360 22:42 14.10.2020
3172 Clouds 9 1018 71 10000 6.2 360 22:24 14.10.2020
3173 Clouds 10 1018 71 10000 5.7 360 21:44 14.10.2020
3174 Clouds 10 1018 71 10000 5.7 360 21:23 14.10.2020
3175 Clouds 10 1017 71 10000 5.7 10 20:46 14.10.2020
3176 Clouds 10 1017 71 10000 6.2 10 20:20 14.10.2020
3177 Clouds 10 1017 71 10000 5.1 360 19:52 14.10.2020
3178 Clouds 10 1017 76 10000 4.6 10 19:29 14.10.2020
3179 Clouds 10 1017 76 10000 4.6 10 18:59 14.10.2020
3180 Clouds 11 1017 66 10000 6.7 10 18:40 14.10.2020
3181 Clouds 11 1017 66 10000 6.7 10 18:20 14.10.2020
3182 Clouds 11 1017 66 10000 6.2 10 17:45 14.10.2020
3183 Clouds 11 1017 66 10000 6.2 10 17:21 14.10.2020
3184 Clouds 11 1017 71 10000 5.7 10 16:44 14.10.2020
3185 Clouds 11 1017 71 10000 5.7 10 16:23 14.10.2020
3186 Clouds 11 1016 71 10000 6.7 20 15:53 14.10.2020
3187 Clouds 11 1016 71 10000 5.7 360 15:29 14.10.2020
3188 Clouds 11 1017 71 10000 5.7 360 14:57 14.10.2020
3189 Clouds 11 1017 71 10000 6.7 360 14:38 14.10.2020
3190 Clouds 11 1017 71 10000 6.7 360 14:19 14.10.2020
3191 Clouds 10 1017 76 10000 8.2 360 13:37 14.10.2020
3192 Clouds 10 1017 76 10000 8.2 360 13:19 14.10.2020
3193 Clouds 10 1017 76 10000 6.7 360 12:40 14.10.2020
3194 Clouds 10 1017 76 10000 6.7 360 12:22 14.10.2020
3195 Clouds 10 1018 76 10000 5.7 360 11:47 14.10.2020
3196 Clouds 9 1018 81 10000 6.7 360 11:27 14.10.2020
3197 Clouds 9 1018 87 10000 5.1 10 10:59 14.10.2020
3198 Clouds 9 1018 87 10000 5.1 10 10:40 14.10.2020
3199 Clouds 9 1018 87 10000 5.1 10 10:20 14.10.2020
3200 Clouds 8 1017 93 10000 5.1 360 09:44 14.10.2020
3201 Clouds 8 1017 93 10000 5.1 360 08:53 14.10.2020
3202 Clouds 8 1017 93 10000 4.1 10 08:34 14.10.2020
3203 Clouds 8 1017 93 10000 4.6 10 07:51 14.10.2020
3204 Clouds 8 1017 93 10000 4.1 10 07:22 14.10.2020
3205 Clouds 8 1017 93 10000 4.6 10 06:56 14.10.2020
3206 Clouds 8 1017 93 10000 4.1 10 06:36 14.10.2020
3207 Clouds 8 1017 87 10000 4.1 10 05:49 14.10.2020
3208 Clouds 8 1018 93 10000 4.1 20 02:28 14.10.2020
3209 Clouds 8 1018 87 10000 4.1 30 01:44 14.10.2020
3210 Clouds 8 1017 87 10000 4.1 30 00:36 14.10.2020
3211 Clouds 8 1017 87 10000 4.1 30 23:56 13.10.2020
3212 Clouds 7 1017 93 10000 3.1 40 23:24 13.10.2020
3213 Clouds 8 1017 87 10000 3.1 40 22:56 13.10.2020
3214 Clouds 8 1017 81 10000 3.6 50 22:37 13.10.2020
3215 Clouds 8 1017 81 10000 3.6 50 22:19 13.10.2020
3216 Clouds 8 1017 81 10000 3.1 50 21:38 13.10.2020
3217 Clouds 8 1017 81 10000 3.1 50 21:20 13.10.2020
3218 Clouds 8 1017 81 10000 3.1 50 21:20 13.10.2020
3219 Clouds 9 1016 81 10000 3.1 50 20:43 13.10.2020
3220 Clouds 9 1016 81 10000 3.1 50 20:25 13.10.2020
3221 Clouds 10 1016 76 10000 3.1 40 19:56 13.10.2020
3222 Clouds 10 1016 81 10000 2.6 50 19:38 13.10.2020
3223 Clouds 10 1016 81 10000 2.6 50 19:19 13.10.2020
3224 Clouds 11 1016 76 10000 3.1 50 18:56 13.10.2020
3225 Clouds 12 1015 71 10000 3.6 60 18:37 13.10.2020
3226 Clouds 12 1015 71 10000 3.6 60 18:19 13.10.2020
3227 Clouds 13 1015 66 10000 3.1 100 17:39 13.10.2020
3228 Clouds 13 1015 66 10000 3.1 100 17:21 13.10.2020
3229 Clouds 14 1015 62 10000 3.6 90 16:42 13.10.2020
3230 Clouds 14 1015 62 10000 3.6 90 16:19 13.10.2020
3231 Clouds 15 1015 62 10000 4.1 110 15:43 13.10.2020
3232 Clouds 14 1015 62 10000 4.1 110 15:23 13.10.2020
3233 Clouds 14 1015 62 10000 4.1 110 14:50 13.10.2020
3234 Clouds 14 1015 67 10000 4.1 120 14:28 13.10.2020
3235 Clouds 14 1015 71 10000 3.1 120 13:49 13.10.2020
3236 Clouds 13 1015 71 10000 4.6 130 13:23 13.10.2020
3237 Clouds 12 1015 76 10000 3.6 140 12:50 13.10.2020
3238 Clouds 12 1015 76 10000 3.1 130 12:31 13.10.2020
3239 Clouds 10 1015 81 10000 2.6 140 11:58 13.10.2020
3240 Clouds 9 1015 87 10000 2.1 110 11:39 13.10.2020
3241 Clouds 9 1015 87 10000 2.1 110 11:20 13.10.2020
3242 Clouds 8 1015 87 10000 1.5 110 10:55 13.10.2020
3243 Clouds 7 1015 100 10000 1 0 10:37 13.10.2020
3244 Clouds 7 1015 100 10000 1 0 10:18 13.10.2020
3245 Fog 6 1015 100 8000 0.5 0 09:41 13.10.2020
3246 Fog 4 1015 100 8000 0.5 0 09:21 13.10.2020
3247 Fog 4 1014 100 400 1.5 130 08:49 13.10.2020
3248 Fog 4 1014 100 400 1.5 130 08:27 13.10.2020
3249 Fog 4 1014 93 700 1 0 07:55 13.10.2020
3250 Fog 4 1014 100 5000 1 120 07:26 13.10.2020
3251 Fog 4 1014 100 3500 1 80 06:34 13.10.2020
3252 Fog 5 1014 100 5000 1 100 05:22 13.10.2020
3253 Fog 5 1015 93 600 0.5 0 03:54 13.10.2020
3254 Fog 5 1015 100 10000 1 0 02:51 13.10.2020
3255 Clouds 7 1016 100 10000 1 0 00:54 13.10.2020
3256 Clouds 6 1016 100 10000 1 0 00:25 13.10.2020
3257 Clouds 7 1016 93 10000 1.5 150 23:43 12.10.2020
3258 Clouds 7 1016 93 10000 1.5 150 23:24 12.10.2020
3259 Clouds 7 1016 93 10000 1.5 150 22:50 12.10.2020
3260 Clouds 8 1016 93 10000 1.5 150 22:30 12.10.2020
3261 Clouds 8 1016 93 10000 1.5 180 21:48 12.10.2020
3262 Clouds 8 1016 100 10000 1.5 200 21:25 12.10.2020
3263 Clouds 9 1016 93 10000 1 180 20:58 12.10.2020
3264 Clouds 8 1016 100 10000 2.1 170 20:39 12.10.2020
3265 Clouds 9 1016 100 10000 2.1 170 20:20 12.10.2020
3266 Clouds 10 1016 93 10000 1 310 19:42 12.10.2020
3267 Clouds 10 1016 93 10000 1 310 19:42 12.10.2020
3268 Clouds 9 1016 93 10000 1 310 19:21 12.10.2020
3269 Clouds 10 1016 81 10000 2.6 280 18:49 12.10.2020
3270 Rain 12 1016 76 10000 4.6 290 18:23 12.10.2020
3271 Clouds 12 1016 71 10000 3.1 320 17:49 12.10.2020
3272 Clouds 13 1016 76 10000 2.6 320 17:22 12.10.2020
3273 Rain 13 1016 76 10000 2.6 290 16:57 12.10.2020
3274 Rain 13 1017 76 10000 3.1 280 16:39 12.10.2020
3275 Rain 13 1017 76 10000 3.1 280 16:19 12.10.2020
3276 Clouds 13 1017 82 10000 3.1 260 15:43 12.10.2020
3277 Clouds 14 1017 82 10000 3.1 260 15:24 12.10.2020
3278 Clouds 13 1017 87 10000 2.1 270 14:49 12.10.2020
3279 Rain 13 1017 87 8000 3.1 280 14:23 12.10.2020
3280 Rain 12 1018 87 8000 5.1 280 13:36 12.10.2020
3281 Clouds 12 1018 87 8000 4.6 280 13:18 12.10.2020
3282 Clouds 11 1018 87 10000 3.6 260 12:40 12.10.2020
3283 Clouds 11 1018 87 10000 3.6 260 12:20 12.10.2020
3284 Clouds 10 1018 93 10000 3.1 250 11:39 12.10.2020
3285 Clouds 10 1018 93 10000 3.1 250 11:18 12.10.2020
3286 Clouds 9 1018 93 10000 3.1 260 10:45 12.10.2020
3287 Clouds 9 1018 100 10000 2.6 240 10:24 12.10.2020
3288 Clouds 7 1018 100 10000 2.1 230 09:53 12.10.2020
3289 Clouds 6 1018 100 10000 2.6 230 09:32 12.10.2020
3290 Fog 5 1018 100 4000 2.1 220 08:40 12.10.2020
3291 Fog 5 1018 100 900 2.1 250 07:59 12.10.2020
3292 Fog 6 1018 100 700 1.5 240 07:39 12.10.2020
3293 Fog 5 1018 100 800 1.5 260 06:35 12.10.2020
3294 Mist 6 1017 100 1000 2.1 250 04:44 12.10.2020
3295 Mist 7 1017 100 1200 2.1 240 01:26 12.10.2020
3296 Mist 7 1017 100 4500 2.6 270 23:51 11.10.2020
3297 Clear 8 1017 100 10000 2.1 250 23:27 11.10.2020
3298 Clear 8 1017 93 10000 3.1 270 22:58 11.10.2020
3299 Clouds 9 1017 93 10000 3.6 290 22:37 11.10.2020
3300 Clouds 9 1017 100 10000 3.6 260 21:58 11.10.2020
3301 Clouds 8 1017 93 10000 3.1 270 21:36 11.10.2020
3302 Rain 9 1017 93 10000 3.1 270 21:18 11.10.2020
3303 Clouds 9 1016 93 10000 2.6 230 20:39 11.10.2020
3304 Clouds 9 1016 93 10000 3.1 250 20:18 11.10.2020
3305 Clouds 10 1016 87 10000 4.1 260 19:44 11.10.2020
3306 Clouds 10 1016 87 10000 4.1 260 19:24 11.10.2020
3307 Clouds 10 1016 87 10000 5.1 260 18:48 11.10.2020
3308 Clouds 11 1015 87 10000 4.1 240 18:30 11.10.2020
3309 Clouds 11 1015 87 10000 4.6 250 17:54 11.10.2020
3310 Clouds 11 1015 76 10000 6.7 260 17:36 11.10.2020
3311 Clouds 12 1015 76 10000 6.7 250 17:18 11.10.2020
3312 Rain 12 1015 76 10000 6.7 260 16:42 11.10.2020
3313 Rain 12 1015 76 10000 6.7 260 16:23 11.10.2020
3314 Rain 12 1015 71 10000 7.7 260 15:49 11.10.2020
3315 Rain 12 1015 81 10000 7.2 250 15:31 11.10.2020
3316 Clouds 12 1015 81 10000 8.7 240 14:44 11.10.2020
3317 Clouds 12 1015 81 10000 8.7 240 14:25 11.10.2020
3318 Clouds 11 1015 76 10000 7.7 240 13:45 11.10.2020
3319 Clouds 11 1015 76 10000 7.7 240 13:24 11.10.2020
3320 Rain 11 1015 76 10000 8.2 240 12:48 11.10.2020
3321 Clouds 10 1015 81 10000 7.7 230 12:30 11.10.2020
3322 Clouds 10 1015 81 10000 7.2 240 11:50 11.10.2020
3323 Clouds 9 1015 87 10000 6.2 230 11:26 11.10.2020
3324 Clouds 8 1016 87 10000 6.7 240 10:57 11.10.2020
3325 Clouds 8 1015 87 10000 6.2 240 10:38 11.10.2020
3326 Clouds 8 1015 87 10000 6.2 240 10:19 11.10.2020
3327 Clouds 7 1016 93 10000 3.6 230 09:41 11.10.2020
3328 Clouds 7 1016 93 10000 3.6 230 09:22 11.10.2020
3329 Clouds 6 1015 93 10000 4.1 220 08:50 11.10.2020
3330 Clouds 5 1016 100 10000 3.6 210 08:23 11.10.2020
3331 Clouds 5 1016 100 10000 3.6 220 07:44 11.10.2020
3332 Clouds 5 1016 93 10000 2.6 220 05:38 11.10.2020
3333 Clouds 6 1016 93 10000 2.6 210 02:48 11.10.2020
3334 Clouds 5 1016 100 10000 2.1 180 02:23 11.10.2020
3335 Clouds 6 1016 93 10000 1.5 200 00:58 11.10.2020
3336 Clouds 6 1016 93 10000 2.1 210 00:30 11.10.2020
3337 Clouds 7 1016 93 10000 3.6 190 23:40 10.10.2020
3338 Clouds 7 1016 93 10000 3.6 190 23:19 10.10.2020
3339 Clouds 8 1017 93 10000 4.1 220 22:40 10.10.2020
3340 Clouds 8 1017 93 10000 4.1 220 22:20 10.10.2020
3341 Clouds 8 1017 87 10000 5.1 210 21:46 10.10.2020
3342 Rain 8 1017 87 10000 3.1 220 21:28 10.10.2020
3343 Clouds 8 1017 87 10000 3.1 220 20:55 10.10.2020
3344 Clouds 8 1017 87 10000 3.1 220 20:37 10.10.2020
3345 Clouds 8 1017 87 10000 3.1 220 20:18 10.10.2020
3346 Clouds 8 1017 87 10000 2.6 210 19:42 10.10.2020
3347 Clouds 8 1017 87 10000 2.6 210 19:22 10.10.2020
3348 Clouds 8 1017 87 10000 2.6 250 18:47 10.10.2020
3349 Clouds 9 1017 81 10000 3.6 240 18:24 10.10.2020
3350 Clouds 9 1016 81 10000 6.2 240 17:44 10.10.2020
3351 Clouds 10 1016 81 10000 6.2 240 17:25 10.10.2020
3352 Clouds 10 1016 76 10000 6.7 250 16:51 10.10.2020
3353 Clouds 10 1016 81 10000 8.2 260 16:26 10.10.2020
3354 Clouds 10 1016 76 10000 5.1 240 15:44 10.10.2020
3355 Rain 10 1016 66 10000 8.7 250 15:21 10.10.2020
3356 Clouds 11 1016 66 10000 8.7 250 14:58 10.10.2020
3357 Clouds 12 1016 62 10000 8.7 250 14:35 10.10.2020
3358 Clouds 12 1016 66 10000 7.7 260 13:59 10.10.2020
3359 Clouds 12 1016 71 10000 8.2 250 13:41 10.10.2020
3360 Clouds 12 1016 71 10000 8.2 250 13:21 10.10.2020
3361 Clouds 11 1016 71 10000 8.2 240 12:55 10.10.2020
3362 Clouds 11 1016 76 10000 7.2 240 12:34 10.10.2020
3363 Clouds 10 1016 76 10000 8.2 240 11:51 10.10.2020
3364 Clouds 10 1016 87 10000 9.8 240 11:24 10.10.2020
3365 Clouds 10 1016 81 10000 6.7 230 10:59 10.10.2020
3366 Clouds 9 1015 87 10000 6.7 230 10:40 10.10.2020
3367 Clouds 9 1015 87 10000 6.7 230 10:22 10.10.2020
3368 Clouds 8 1015 93 10000 6.2 220 09:47 10.10.2020
3369 Clouds 8 1015 87 10000 5.7 220 09:19 10.10.2020
3370 Clouds 8 1015 87 10000 5.7 220 08:48 10.10.2020
3371 Clouds 7 1015 93 10000 4.1 220 08:25 10.10.2020
3372 Clouds 7 1015 93 10000 4.6 230 07:40 10.10.2020
3373 Clouds 8 1014 93 10000 5.1 230 06:57 10.10.2020
3374 Rain 10 1014 87 6000 5.1 260 03:44 10.10.2020
3375 Clouds 10 1014 87 10000 4.1 220 01:55 10.10.2020
3376 Clouds 10 1014 87 10000 3.1 210 00:27 10.10.2020
3377 Clouds 10 1014 87 10000 3.1 200 23:49 09.10.2020
3378 Clouds 10 1014 87 10000 2.6 220 23:30 09.10.2020
3379 Clouds 10 1014 87 10000 3.1 230 22:53 09.10.2020
3380 Clouds 11 1014 87 10000 2.1 210 22:26 09.10.2020
3381 Clouds 11 1014 87 10000 2.6 190 21:56 09.10.2020
3382 Clouds 11 1014 93 10000 2.6 180 21:36 09.10.2020
3383 Clouds 10 1014 93 10000 2.6 180 21:18 09.10.2020
3384 Clouds 12 1015 87 10000 3.1 180 20:42 09.10.2020
3385 Clouds 12 1015 87 10000 3.1 180 20:19 09.10.2020
3386 Clouds 13 1015 82 10000 2.6 190 19:38 09.10.2020
3387 Clouds 13 1015 82 10000 2.6 190 19:19 09.10.2020
3388 Clouds 13 1015 82 10000 3.1 180 18:57 09.10.2020
3389 Clouds 13 1015 82 10000 2.6 180 18:26 09.10.2020
3390 Clouds 13 1015 76 10000 3.6 190 17:57 09.10.2020
3391 Clouds 14 1015 71 10000 3.6 200 17:20 09.10.2020
3392 Clouds 14 1015 71 10000 3.6 200 16:56 09.10.2020
3393 Clouds 14 1016 71 10000 3.6 210 16:37 09.10.2020
3394 Clouds 14 1016 71 10000 4.1 210 16:19 09.10.2020
3395 Clouds 14 1016 71 10000 4.1 210 15:40 09.10.2020
3396 Clouds 14 1016 71 10000 4.1 210 15:20 09.10.2020
3397 Clouds 14 1016 71 10000 4.6 220 15:20 09.10.2020
3398 Clouds 15 1017 71 10000 4.6 200 14:36 09.10.2020
3399 Clouds 15 1017 71 10000 4.6 200 14:36 09.10.2020
3400 Clouds 15 1017 71 10000 4.1 200 13:46 09.10.2020
3401 Clouds 15 1017 71 10000 3.6 230 13:27 09.10.2020
3402 Clouds 15 1017 71 10000 3.6 230 12:55 09.10.2020
3403 Clouds 14 1017 71 10000 3.1 230 12:36 09.10.2020
3404 Clouds 14 1017 82 10000 2.6 230 12:18 09.10.2020
3405 Clouds 13 1017 76 10000 2.1 240 11:43 09.10.2020
3406 Clear 13 1017 76 10000 2.1 240 11:22 09.10.2020
3407 Clear 12 1017 81 10000 2.1 250 10:52 09.10.2020
3408 Clear 11 1017 87 10000 2.1 230 10:32 09.10.2020
3409 Clear 10 1017 93 10000 2.1 230 09:44 09.10.2020
3410 Clear 10 1017 93 10000 2.1 230 09:44 09.10.2020
3411 Clouds 10 1017 93 10000 2.1 230 09:22 09.10.2020
3412 Clouds 10 1017 93 10000 2.6 240 08:50 09.10.2020
3413 Clouds 10 1017 93 10000 2.6 240 08:20 09.10.2020
3414 Clouds 9 1016 100 10000 2.1 220 07:51 09.10.2020
3415 Clouds 9 1016 100 10000 2.6 220 07:20 09.10.2020
3416 Clouds 9 1016 93 10000 2.6 250 06:44 09.10.2020
3417 Clouds 10 1016 93 10000 2.6 250 06:23 09.10.2020
3418 Clouds 11 1015 93 10000 3.6 250 04:18 09.10.2020
3419 Clouds 12 1012 93 10000 5.1 280 01:18 09.10.2020
3420 Clouds 13 1012 93 10000 5.1 280 00:48 09.10.2020
3421 Clouds 13 1012 93 10000 4.6 280 00:24 09.10.2020
3422 Clouds 13 1011 93 10000 6.2 280 23:42 08.10.2020
3423 Clouds 13 1011 93 10000 6.2 280 23:22 08.10.2020
3424 Clouds 14 1009 93 10000 6.2 270 22:40 08.10.2020
3425 Clouds 14 1009 93 10000 6.2 270 22:21 08.10.2020
3426 Clouds 14 1008 93 2800 7.2 230 21:54 08.10.2020
3427 Clouds 15 1008 93 5000 7.7 220 21:24 08.10.2020
3428 Drizzle 15 1007 93 10000 7.7 210 20:58 08.10.2020
3429 Rain 15 1007 93 7000 7.7 220 20:39 08.10.2020
3430 Drizzle 15 1007 93 7000 7.7 220 20:20 08.10.2020
3431 Drizzle 15 1007 93 7000 8.2 220 19:47 08.10.2020
3432 Clouds 15 1007 93 5000 8.7 220 19:26 08.10.2020
3433 Clouds 15 1007 93 10000 8.2 210 18:48 08.10.2020
3434 Clouds 15 1007 93 6000 7.7 210 18:22 08.10.2020
3435 Rain 15 1007 93 3800 9.3 210 17:57 08.10.2020
3436 Rain 15 1007 87 10000 8.7 220 17:20 08.10.2020
3437 Rain 14 1007 93 10000 7.2 210 16:57 08.10.2020
3438 Clouds 14 1007 93 8000 8.2 210 16:38 08.10.2020
3439 Rain 14 1007 93 8000 8.2 210 16:20 08.10.2020
3440 Rain 14 1007 93 5000 7.7 200 15:43 08.10.2020
3441 Rain 14 1007 93 5000 7.7 200 15:20 08.10.2020
3442 Rain 13 1008 100 5000 7.2 190 14:39 08.10.2020
3443 Rain 12 1008 93 4500 7.7 190 14:18 08.10.2020
3444 Rain 12 1008 100 5000 7.2 190 14:18 08.10.2020
3445 Rain 12 1008 93 4500 7.7 190 14:18 08.10.2020
3446 Rain 12 1008 93 4500 7.7 190 13:46 08.10.2020
3447 Clouds 11 1009 100 6000 6.2 180 13:23 08.10.2020
3448 Clouds 11 1009 93 3800 7.7 170 12:57 08.10.2020
3449 Rain 11 1010 93 7000 6.7 160 12:39 08.10.2020
3450 Rain 11 1010 93 7000 6.7 160 12:19 08.10.2020
3451 Rain 10 1011 100 8000 6.2 160 11:44 08.10.2020
3452 Rain 10 1011 100 8000 6.2 160 11:25 08.10.2020
3453 Rain 10 1012 93 9000 5.7 160 10:47 08.10.2020
3454 Rain 10 1012 93 10000 5.7 180 10:28 08.10.2020
3455 Rain 10 1013 93 10000 5.7 180 09:51 08.10.2020
3456 Rain 10 1013 87 10000 4.6 180 09:33 08.10.2020
3457 Rain 10 1013 87 10000 3.6 180 08:48 08.10.2020
3458 Rain 10 1014 87 10000 3.6 190 08:25 08.10.2020
3459 Clouds 10 1014 87 10000 3.6 200 07:55 08.10.2020
3460 Clouds 10 1014 87 10000 4.1 210 07:37 08.10.2020
3461 Rain 10 1014 87 10000 3.6 210 07:18 08.10.2020
3462 Clouds 10 1014 87 10000 4.1 210 05:24 08.10.2020
3463 Clouds 10 1014 93 10000 4.1 210 04:37 08.10.2020
3464 Clear 10 1014 93 10000 4.6 220 02:51 08.10.2020
3465 Clouds 10 1014 93 10000 5.7 230 00:38 08.10.2020
3466 Clouds 10 1013 93 10000 5.1 240 23:40 07.10.2020
3467 Clouds 10 1013 93 10000 5.1 240 23:21 07.10.2020
3468 Clouds 11 1013 87 10000 5.1 240 22:58 07.10.2020
3469 Clouds 11 1013 93 10000 5.1 240 22:39 07.10.2020
3470 Clouds 11 1013 93 10000 5.1 240 22:19 07.10.2020
3471 Clouds 11 1012 93 10000 4.6 240 21:41 07.10.2020
3472 Clouds 11 1012 93 10000 4.6 240 21:20 07.10.2020
3473 Rain 11 1011 93 10000 3.6 250 20:43 07.10.2020
3474 Rain 11 1011 93 10000 3.6 250 20:24 07.10.2020
3475 Clouds 12 1011 93 10000 5.1 250 19:47 07.10.2020
3476 Rain 12 1010 93 5000 4.1 240 19:20 07.10.2020
3477 Clouds 13 1010 93 5000 4.1 240 18:55 07.10.2020
3478 Rain 13 1009 87 10000 4.1 240 18:36 07.10.2020
3479 Rain 13 1009 87 10000 5.1 250 18:18 07.10.2020
3480 Clouds 14 1009 82 10000 6.7 240 17:41 07.10.2020
3481 Rain 14 1009 82 10000 6.7 240 17:22 07.10.2020
3482 Clouds 15 1008 82 10000 5.7 250 16:47 07.10.2020
3483 Clouds 15 1008 82 10000 8.2 260 16:20 07.10.2020
3484 Rain 16 1007 72 10000 6.7 240 15:42 07.10.2020
3485 Rain 16 1007 72 10000 6.7 240 15:20 07.10.2020
3486 Clouds 16 1007 82 10000 3.6 230 14:50 07.10.2020
3487 Clouds 16 1007 76 10000 4.6 250 14:31 07.10.2020
3488 Clouds 15 1007 82 10000 3.1 260 13:59 07.10.2020
3489 Clouds 16 1006 72 10000 5.7 270 13:40 07.10.2020
3490 Rain 16 1006 72 10000 5.7 270 13:20 07.10.2020
3491 Clouds 15 1006 82 10000 5.7 250 12:46 07.10.2020
3492 Clouds 15 1006 82 10000 5.7 250 12:46 07.10.2020
3493 Clouds 15 1006 82 10000 5.7 250 12:23 07.10.2020
3494 Clouds 14 1005 87 10000 5.1 250 11:49 07.10.2020
3495 Clouds 13 1005 87 10000 5.7 250 11:26 07.10.2020
3496 Clouds 12 1004 93 10000 5.1 240 10:42 07.10.2020
3497 Clouds 12 1004 93 10000 5.1 240 10:18 07.10.2020
3498 Clouds 12 1003 87 10000 3.6 240 09:37 07.10.2020
3499 Clouds 11 1003 93 10000 2.6 230 08:58 07.10.2020
3500 Clouds 11 1002 100 10000 3.1 230 08:37 07.10.2020
3501 Clouds 11 1002 100 10000 3.1 230 08:18 07.10.2020
3502 Clouds 11 1001 93 10000 3.1 230 06:57 07.10.2020
3503 Clouds 11 1001 87 10000 3.6 210 05:51 07.10.2020
3504 Clouds 11 1000 93 10000 3.6 210 05:26 07.10.2020
3505 Clouds 11 999 93 10000 4.1 210 02:27 07.10.2020
3506 Clouds 11 999 93 10000 3.6 220 01:18 07.10.2020
3507 Clouds 11 998 93 10000 3.1 210 23:58 06.10.2020
3508 Clouds 12 998 87 10000 3.1 210 23:25 06.10.2020
3509 Clouds 12 998 87 10000 3.1 210 23:25 06.10.2020
3510 Clouds 11 998 93 10000 3.1 200 22:58 06.10.2020
3511 Clouds 12 998 93 10000 3.1 210 22:39 06.10.2020
3512 Clouds 12 998 93 10000 3.1 210 22:39 06.10.2020
3513 Rain 12 998 93 10000 3.1 210 22:21 06.10.2020
3514 Clouds 12 997 93 10000 4.6 220 21:43 06.10.2020
3515 Clouds 12 997 93 10000 4.6 220 21:24 06.10.2020
3516 Clouds 13 997 87 10000 5.7 220 20:45 06.10.2020
3517 Clouds 13 997 87 10000 5.7 220 20:19 06.10.2020
3518 Clouds 13 996 87 10000 5.1 230 19:52 06.10.2020
3519 Clouds 13 996 87 7000 4.6 200 19:20 06.10.2020
3520 Rain 13 996 93 10000 4.1 190 18:50 06.10.2020
3521 Rain 14 996 82 10000 5.1 180 18:25 06.10.2020
3522 Rain 14 996 82 10000 2.6 180 17:50 06.10.2020
3523 Clouds 14 996 76 10000 6.2 170 17:26 06.10.2020
3524 Clouds 15 997 72 10000 6.2 170 16:58 06.10.2020
3525 Clouds 14 997 76 10000 5.7 180 16:39 06.10.2020
3526 Clouds 14 997 76 10000 5.7 180 16:20 06.10.2020
3527 Clouds 14 997 76 10000 6.7 180 15:46 06.10.2020
3528 Clouds 14 997 76 10000 5.7 200 15:28 06.10.2020
3529 Clouds 15 997 76 10000 6.7 190 14:46 06.10.2020
3530 Clouds 15 998 67 10000 7.7 200 14:23 06.10.2020
3531 Clouds 15 998 72 10000 6.2 200 13:55 06.10.2020
3532 Clouds 15 998 76 10000 6.2 200 13:36 06.10.2020
3533 Clouds 14 998 76 10000 7.7 210 12:59 06.10.2020
3534 Clouds 14 998 76 10000 7.7 210 12:38 06.10.2020
3535 Clouds 14 998 82 10000 7.2 210 12:20 06.10.2020
3536 Clouds 13 998 87 10000 7.2 220 11:41 06.10.2020
3537 Clouds 13 998 87 10000 7.2 220 11:22 06.10.2020
3538 Clouds 13 998 87 10000 5.1 210 10:40 06.10.2020
3539 Clouds 13 998 87 10000 5.1 210 10:22 06.10.2020
3540 Clouds 12 998 93 10000 4.1 200 09:41 06.10.2020
3541 Clouds 12 998 93 10000 4.1 200 09:20 06.10.2020
3542 Clouds 12 998 93 10000 4.1 200 08:46 06.10.2020
3543 Clouds 12 997 93 10000 4.6 190 08:20 06.10.2020
3544 Clouds 11 997 93 9000 6.2 170 07:37 06.10.2020
3545 Rain 11 997 93 10000 4.6 170 06:59 06.10.2020
3546 Rain 11 998 87 10000 4.1 170 05:47 06.10.2020
3547 Clouds 10 999 87 10000 3.6 170 02:32 06.10.2020
3548 Clouds 10 1000 87 10000 4.1 180 00:44 06.10.2020
3549 Clouds 11 1000 87 10000 4.1 180 00:24 06.10.2020
3550 Clouds 11 1000 87 10000 3.6 180 23:55 05.10.2020
3551 Clouds 10 1000 87 10000 3.1 160 23:31 05.10.2020
3552 Clouds 11 1000 87 10000 3.1 170 22:51 05.10.2020
3553 Clouds 12 1000 81 10000 3.1 170 22:24 05.10.2020
3554 Clouds 12 1000 81 10000 4.1 170 21:47 05.10.2020
3555 Clouds 12 1000 81 10000 4.6 160 21:28 05.10.2020
3556 Clouds 12 1000 81 10000 3.1 150 20:48 05.10.2020
3557 Clouds 12 1000 81 10000 3.6 150 20:30 05.10.2020
3558 Clouds 12 1000 81 10000 3.6 150 19:55 05.10.2020
3559 Clouds 12 1000 81 10000 3.1 140 19:37 05.10.2020
3560 Clouds 12 1000 81 10000 3.1 140 19:19 05.10.2020
3561 Clouds 12 1000 81 10000 2.1 200 18:41 05.10.2020
3562 Clouds 13 1000 81 10000 2.1 200 18:19 05.10.2020
3563 Rain 14 1000 67 10000 4.1 180 17:40 05.10.2020
3564 Rain 14 1000 67 10000 4.1 180 17:22 05.10.2020
3565 Clouds 14 1000 67 10000 6.2 160 16:47 05.10.2020
3566 Clouds 15 1000 58 10000 6.2 160 16:29 05.10.2020
3567 Clouds 15 1000 58 10000 6.2 170 15:48 05.10.2020
3568 Clouds 15 1000 58 10000 7.7 170 15:25 05.10.2020
3569 Clouds 15 1000 62 10000 6.2 170 14:57 05.10.2020
3570 Clouds 15 1000 58 10000 5.7 170 14:37 05.10.2020
3571 Clouds 15 1000 58 10000 5.7 170 14:19 05.10.2020
3572 Clouds 15 1000 72 10000 4.6 130 13:43 05.10.2020
3573 Clouds 15 1000 72 10000 4.6 130 13:21 05.10.2020
3574 Clouds 14 1001 76 10000 5.1 130 12:45 05.10.2020
3575 Clouds 14 1001 81 10000 5.1 130 12:24 05.10.2020
3576 Clouds 13 1001 81 10000 5.1 120 11:55 05.10.2020
3577 Clouds 12 1001 76 10000 5.7 130 11:32 05.10.2020
3578 Clouds 12 1001 76 10000 5.1 130 10:57 05.10.2020
3579 Clouds 11 1001 76 10000 5.7 130 10:37 05.10.2020
3580 Clouds 11 1001 76 10000 5.7 130 10:19 05.10.2020
3581 Clouds 11 1001 76 10000 6.2 130 09:49 05.10.2020
3582 Clouds 11 1000 76 10000 5.1 120 09:18 05.10.2020
3583 Rain 9 1000 76 10000 4.1 140 08:38 05.10.2020
3584 Rain 9 1000 76 10000 4.1 140 08:20 05.10.2020
3585 Clouds 9 1000 76 10000 4.1 140 07:26 05.10.2020
3586 Clear 8 1000 76 10000 4.1 130 05:26 05.10.2020
3587 Clouds 10 999 71 10000 4.1 140 02:23 05.10.2020
3588 Clouds 11 999 66 10000 5.1 140 00:38 05.10.2020
3589 Clouds 11 999 71 10000 5.7 150 23:43 04.10.2020
3590 Clouds 11 999 71 10000 5.7 150 23:19 04.10.2020
3591 Clouds 12 999 66 10000 5.7 150 22:43 04.10.2020
3592 Clouds 12 999 66 10000 5.7 150 22:21 04.10.2020
3593 Clouds 11 999 66 10000 5.7 150 21:47 04.10.2020
3594 Clouds 11 999 66 10000 5.1 150 21:21 04.10.2020
3595 Clouds 11 998 66 10000 4.1 150 20:57 04.10.2020
3596 Clouds 12 998 62 10000 4.1 150 20:39 04.10.2020
3597 Clouds 11 998 62 10000 4.1 150 20:20 04.10.2020
3598 Clouds 12 998 66 10000 4.6 170 19:47 04.10.2020
3599 Clouds 13 998 66 10000 5.7 180 19:29 04.10.2020
3600 Clouds 14 997 71 10000 5.1 180 18:50 04.10.2020
3601 Clouds 14 997 67 10000 5.7 180 18:25 04.10.2020
3602 Clouds 15 996 62 10000 7.2 190 17:45 04.10.2020
3603 Clouds 15 996 62 10000 7.2 190 17:26 04.10.2020
3604 Clouds 15 996 62 10000 6.2 190 16:59 04.10.2020
3605 Clouds 15 995 67 10000 6.2 190 16:40 04.10.2020
3606 Clouds 15 995 67 10000 6.2 190 16:19 04.10.2020
3607 Clouds 15 995 62 10000 7.7 200 15:48 04.10.2020
3608 Clouds 15 994 62 10000 8.2 200 15:19 04.10.2020
3609 Clouds 15 994 62 10000 8.2 200 14:57 04.10.2020
3610 Clouds 15 994 63 10000 6.7 200 14:37 04.10.2020
3611 Clouds 15 994 63 10000 6.7 200 14:19 04.10.2020
3612 Clouds 15 992 63 10000 8.7 190 13:44 04.10.2020
3613 Clouds 16 992 63 10000 8.7 190 13:20 04.10.2020
3614 Clouds 16 992 67 10000 9.8 190 12:43 04.10.2020
3615 Clouds 15 992 67 10000 9.8 190 12:24 04.10.2020
3616 Clouds 15 991 67 10000 9.3 190 11:55 04.10.2020
3617 Clouds 15 991 71 10000 8.7 190 11:36 04.10.2020
3618 Clouds 13 991 71 10000 8.7 190 11:18 04.10.2020
3619 Clouds 12 990 76 10000 6.2 140 10:44 04.10.2020
3620 Clouds 12 990 76 10000 6.2 140 10:25 04.10.2020
3621 Clouds 11 990 76 10000 6.7 120 09:43 04.10.2020
3622 Clear 11 990 76 10000 6.7 120 09:20 04.10.2020
3623 Clear 10 989 81 10000 4.6 110 08:45 04.10.2020
3624 Clouds 9 989 81 10000 4.6 110 08:19 04.10.2020
3625 Clouds 9 989 81 10000 4.1 100 07:50 04.10.2020
3626 Clear 8 989 87 10000 3.6 100 07:23 04.10.2020
3627 Clear 8 989 87 10000 4.6 110 06:43 04.10.2020
3628 Clear 8 989 87 10000 4.6 110 06:25 04.10.2020
3629 Clear 8 990 87 10000 4.1 120 05:37 04.10.2020
3630 Clouds 10 991 93 10000 3.6 150 01:47 04.10.2020
3631 Clouds 10 991 93 10000 3.1 150 00:53 04.10.2020
3632 Clouds 12 991 93 10000 3.6 180 23:52 03.10.2020
3633 Clouds 12 991 93 10000 4.1 210 23:25 03.10.2020
3634 Clouds 12 991 93 10000 4.1 200 22:45 03.10.2020
3635 Clouds 13 991 87 10000 3.6 220 22:27 03.10.2020
3636 Clouds 13 991 87 10000 5.7 210 21:58 03.10.2020
3637 Rain 13 990 87 10000 4.6 230 21:40 03.10.2020
3638 Clouds 13 990 87 10000 4.6 230 21:21 03.10.2020
3639 Rain 14 990 93 10000 8.2 210 20:43 03.10.2020
3640 Clouds 15 990 93 10000 8.2 210 20:22 03.10.2020
3641 Rain 18 989 72 10000 3.6 110 19:56 03.10.2020
3642 Rain 17 989 72 10000 3.1 110 19:37 03.10.2020
3643 Clouds 18 989 72 10000 3.1 110 19:19 03.10.2020
3644 Clouds 19 989 72 10000 3.1 130 18:44 03.10.2020
3645 Clouds 19 989 72 10000 3.1 130 18:23 03.10.2020
3646 Clouds 19 989 72 10000 4.1 120 17:43 03.10.2020
3647 Clouds 20 989 72 10000 4.1 120 17:25 03.10.2020
3648 Clouds 20 989 72 10000 5.7 100 16:47 03.10.2020
3649 Clouds 20 989 72 10000 5.7 100 16:26 03.10.2020
3650 Clouds 20 989 72 10000 5.1 110 15:48 03.10.2020
3651 Clouds 18 989 72 10000 4.6 90 15:23 03.10.2020
3652 Clouds 18 990 72 10000 4.6 100 14:59 03.10.2020
3653 Clouds 17 990 77 10000 4.6 110 14:39 03.10.2020
3654 Clouds 17 990 77 10000 4.6 110 14:21 03.10.2020
3655 Clouds 17 990 77 10000 4.6 90 13:59 03.10.2020
3656 Clouds 16 990 82 10000 5.1 90 13:40 03.10.2020
3657 Clouds 16 990 82 10000 5.1 90 13:20 03.10.2020
3658 Clouds 15 991 87 10000 5.7 90 12:40 03.10.2020
3659 Clouds 15 991 87 10000 5.7 90 12:19 03.10.2020
3660 Clouds 15 992 82 10000 5.7 90 11:47 03.10.2020
3661 Clouds 15 992 82 10000 5.7 90 11:47 03.10.2020
3662 Clouds 15 992 82 10000 5.7 80 11:23 03.10.2020
3663 Clouds 15 992 82 10000 5.7 80 10:46 03.10.2020
3664 Clouds 14 992 87 10000 6.7 80 10:26 03.10.2020
3665 Clouds 14 992 87 10000 7.2 80 09:52 03.10.2020
3666 Clouds 14 992 87 10000 7.7 80 09:30 03.10.2020
3667 Clouds 14 992 87 10000 7.2 80 08:58 03.10.2020
3668 Clouds 14 992 87 10000 7.2 80 08:39 03.10.2020
3669 Clouds 14 992 87 10000 7.2 80 08:21 03.10.2020
3670 Clouds 14 993 87 10000 6.7 90 07:39 03.10.2020
3671 Clouds 14 993 87 10000 6.7 90 07:20 03.10.2020
3672 Clouds 14 993 87 10000 6.7 80 06:18 03.10.2020
3673 Clouds 14 993 87 10000 7.2 80 05:40 03.10.2020
3674 Clouds 13 994 87 10000 5.7 80 03:47 03.10.2020
3675 Clouds 13 996 82 10000 5.1 90 01:41 03.10.2020
3676 Clouds 14 996 82 10000 6.7 80 00:28 03.10.2020
3677 Clouds 14 996 82 10000 6.7 80 23:57 02.10.2020
3678 Clouds 14 996 82 10000 5.7 80 23:39 02.10.2020
3679 Clouds 14 996 82 10000 5.7 80 23:18 02.10.2020
3680 Clouds 14 997 77 10000 6.7 80 22:42 02.10.2020
3681 Clouds 14 997 77 10000 6.7 80 22:20 02.10.2020
3682 Clouds 14 997 77 10000 6.2 80 21:43 02.10.2020
3683 Clouds 15 997 77 10000 6.2 80 21:23 02.10.2020
3684 Clouds 15 997 82 10000 6.2 80 20:55 02.10.2020
3685 Clouds 15 997 82 10000 6.2 80 20:30 02.10.2020
3686 Clouds 15 997 82 10000 6.7 80 19:50 02.10.2020
3687 Clouds 15 997 82 10000 6.7 80 19:24 02.10.2020
3688 Clouds 16 997 77 10000 7.2 80 18:59 02.10.2020
3689 Clouds 16 997 77 10000 6.7 80 18:41 02.10.2020
3690 Clouds 16 997 77 10000 6.7 80 18:19 02.10.2020
3691 Clouds 16 997 77 10000 6.7 80 17:47 02.10.2020
3692 Clouds 16 997 72 10000 7.2 90 17:29 02.10.2020
3693 Clouds 17 997 67 10000 7.7 90 16:53 02.10.2020
3694 Clouds 18 997 72 10000 7.7 80 16:23 02.10.2020
3695 Clouds 18 997 72 10000 6.7 80 15:52 02.10.2020
3696 Clouds 18 997 72 10000 8.2 80 15:33 02.10.2020
3697 Clouds 18 998 67 10000 5.7 120 14:44 02.10.2020
3698 Clouds 18 998 67 10000 5.7 120 14:26 02.10.2020
3699 Clouds 18 998 72 10000 6.2 110 13:53 02.10.2020
3700 Clouds 17 998 72 10000 6.2 100 13:20 02.10.2020
3701 Clouds 16 999 77 10000 5.1 110 12:59 02.10.2020
3702 Clouds 16 999 82 10000 5.1 110 12:41 02.10.2020
3703 Clouds 15 999 82 10000 5.1 110 12:20 02.10.2020
3704 Clouds 15 999 82 10000 5.1 100 11:45 02.10.2020
3705 Clouds 15 999 82 10000 5.1 100 11:22 02.10.2020
3706 Clouds 15 999 82 10000 5.1 100 11:22 02.10.2020
3707 Clouds 14 999 82 8000 3.1 100 10:46 02.10.2020
3708 Clouds 13 999 93 7000 3.1 80 10:27 02.10.2020
3709 Clouds 13 999 93 7000 3.1 80 10:27 02.10.2020
3710 Clouds 10 999 100 6000 0.5 0 09:41 02.10.2020
3711 Clouds 9 999 100 6000 0.5 0 09:22 02.10.2020
3712 Fog 9 999 100 800 1.5 90 08:47 02.10.2020
3713 Fog 8 999 100 800 1.5 90 08:29 02.10.2020
3714 Fog 8 999 100 1800 2.1 80 07:50 02.10.2020
3715 Fog 8 999 100 1500 1.5 80 06:46 02.10.2020
3716 Fog 9 999 100 200 0.5 0 05:39 02.10.2020
3717 Clouds 12 1000 93 10000 0.5 0 02:24 02.10.2020
3718 Clouds 14 1000 87 10000 3.6 230 00:49 02.10.2020
3719 Clouds 14 1000 82 10000 4.1 220 00:21 02.10.2020
3720 Clouds 14 1000 93 10000 1.5 120 23:57 01.10.2020
3721 Clouds 14 1000 87 10000 2.1 140 23:38 01.10.2020
3722 Clouds 15 1000 87 10000 2.1 140 23:20 01.10.2020
3723 Clouds 15 1000 87 10000 2.6 140 22:40 01.10.2020
3724 Clouds 15 1000 87 10000 2.6 140 22:20 01.10.2020
3725 Rain 16 1000 77 10000 3.6 150 21:42 01.10.2020
3726 Rain 16 1000 77 10000 3.6 150 21:21 01.10.2020
3727 Rain 16 1000 72 10000 4.1 130 20:57 01.10.2020
3728 Rain 16 1000 72 10000 4.1 120 20:37 01.10.2020
3729 Rain 16 1000 72 10000 4.1 120 20:18 01.10.2020
3730 Clouds 17 1000 72 10000 4.1 130 19:42 01.10.2020
3731 Clouds 17 1000 72 10000 4.1 130 19:22 01.10.2020
3732 Clouds 18 1000 68 10000 4.1 130 18:42 01.10.2020
3733 Clouds 18 1000 68 10000 4.1 130 18:24 01.10.2020
3734 Clouds 18 1001 63 10000 5.7 130 17:42 01.10.2020
3735 Clouds 18 1001 63 10000 5.7 130 17:24 01.10.2020
3736 Clouds 18 1001 63 10000 6.7 140 16:45 01.10.2020
3737 Clouds 18 1001 63 10000 6.7 140 16:22 01.10.2020
3738 Clouds 19 1001 68 10000 8.2 140 15:54 01.10.2020
3739 Clouds 19 1001 63 10000 6.2 130 15:23 01.10.2020
3740 Clouds 19 1002 68 10000 7.2 120 14:46 01.10.2020
3741 Clouds 19 1002 68 10000 7.2 120 14:28 01.10.2020
3742 Clouds 18 1003 72 10000 6.7 120 13:43 01.10.2020
3743 Clouds 18 1003 72 10000 6.7 120 13:20 01.10.2020
3744 Clouds 16 1004 82 10000 5.1 110 12:40 01.10.2020
3745 Clouds 16 1004 82 10000 5.1 110 12:20 01.10.2020
3746 Clouds 15 1004 77 10000 5.7 130 11:38 01.10.2020
3747 Clouds 15 1004 77 10000 5.7 130 11:19 01.10.2020
3748 Clouds 14 1005 82 10000 5.7 120 10:46 01.10.2020
3749 Clouds 14 1005 82 10000 6.2 120 10:25 01.10.2020
3750 Clouds 13 1005 87 10000 4.6 120 09:45 01.10.2020
3751 Clouds 12 1006 93 10000 4.6 120 09:27 01.10.2020
3752 Clouds 11 1006 93 9000 4.6 110 08:58 01.10.2020
3753 Clouds 11 1006 93 8000 4.1 110 08:39 01.10.2020
3754 Clouds 10 1006 100 8000 4.1 110 07:56 01.10.2020
3755 Clouds 11 1007 93 8000 4.1 130 07:27 01.10.2020
3756 Clouds 11 1007 100 9000 4.1 120 06:41 01.10.2020
3757 Clouds 11 1008 93 10000 4.6 110 04:20 01.10.2020
3758 Clouds 14 1011 87 10000 3.6 120 00:37 01.10.2020
3759 Clouds 15 1011 87 10000 4.6 120 23:41 30.09.2020
3760 Clouds 15 1012 87 10000 3.6 120 22:58 30.09.2020
3761 Clouds 15 1012 87 10000 4.6 110 22:40 30.09.2020
3762 Rain 15 1012 87 10000 4.6 110 22:21 30.09.2020
3763 Rain 16 1012 82 10000 3.6 110 21:43 30.09.2020
3764 Clouds 15 1012 82 10000 3.6 110 21:19 30.09.2020
3765 Clouds 15 1012 82 10000 2.6 110 20:44 30.09.2020
3766 Clouds 15 1012 82 10000 2.6 110 20:25 30.09.2020
3767 Clouds 16 1012 77 10000 2.6 120 19:43 30.09.2020
3768 Clouds 17 1012 77 10000 2.6 120 19:21 30.09.2020
3769 Clouds 18 1012 72 10000 3.1 130 18:57 30.09.2020
3770 Clouds 18 1013 68 10000 2.1 140 18:39 30.09.2020
3771 Clouds 19 1013 68 10000 2.1 140 18:20 30.09.2020
3772 Clouds 20 1013 68 10000 4.1 140 17:45 30.09.2020
3773 Clouds 19 1013 68 10000 4.1 140 17:20 30.09.2020
3774 Clouds 20 1013 77 10000 3.6 130 16:43 30.09.2020
3775 Clouds 20 1013 77 10000 3.6 130 16:21 30.09.2020
3776 Clouds 20 1014 72 10000 2.6 180 15:45 30.09.2020
3777 Clouds 20 1014 72 10000 2.6 180 15:18 30.09.2020
3778 Clouds 19 1015 77 10000 2.1 200 14:43 30.09.2020
3779 Clouds 19 1015 77 10000 2.1 200 14:22 30.09.2020
3780 Clouds 18 1015 82 10000 3.1 220 13:55 30.09.2020
3781 Clouds 18 1015 82 10000 3.1 190 13:37 30.09.2020
3782 Clouds 17 1015 82 10000 3.6 180 12:48 30.09.2020
3783 Clouds 16 1015 82 8000 4.1 160 12:26 30.09.2020
3784 Clouds 15 1015 87 7000 4.1 150 11:55 30.09.2020
3785 Clouds 15 1015 93 7000 3.6 140 11:36 30.09.2020
3786 Clouds 15 1015 93 7000 3.6 140 11:18 30.09.2020
3787 Mist 14 1016 93 5000 3.1 160 10:42 30.09.2020
3788 Mist 14 1016 93 3000 3.1 140 10:18 30.09.2020
3789 Mist 13 1016 100 3000 2.6 140 09:42 30.09.2020
3790 Mist 13 1016 100 3000 2.6 140 09:23 30.09.2020
3791 Mist 13 1015 93 3000 2.1 140 08:42 30.09.2020
3792 Mist 13 1015 93 3000 2.1 140 08:19 30.09.2020
3793 Mist 13 1015 100 3800 1.5 210 07:36 30.09.2020
3794 Mist 13 1015 100 3500 1.5 230 06:46 30.09.2020
3795 Mist 13 1015 100 1500 1.5 220 06:22 30.09.2020
3796 Clouds 13 1016 100 6000 2.1 130 04:43 30.09.2020
3797 Clouds 13 1016 100 6000 1.5 140 03:34 30.09.2020
3798 Drizzle 13 1016 100 5000 1.5 190 00:54 30.09.2020
3799 Drizzle 13 1016 100 5000 1.5 190 00:54 30.09.2020
3800 Clouds 13 1016 100 8000 1 0 00:25 30.09.2020
3801 Clouds 13 1016 100 7000 1.5 210 23:48 29.09.2020
3802 Mist 13 1017 100 3500 1.5 190 23:22 29.09.2020
3803 Mist 13 1017 100 3000 1.5 200 22:49 29.09.2020
3804 Clouds 13 1016 100 7000 2.1 210 22:22 29.09.2020
3805 Drizzle 13 1016 100 3000 2.1 210 21:42 29.09.2020
3806 Drizzle 13 1016 100 3000 2.1 210 21:23 29.09.2020
3807 Drizzle 14 1016 93 4500 2.1 220 20:59 29.09.2020
3808 Clouds 14 1016 87 10000 2.6 210 20:41 29.09.2020
3809 Clouds 14 1016 87 10000 2.6 210 20:22 29.09.2020
3810 Clouds 14 1016 87 10000 1.5 190 19:43 29.09.2020
3811 Clouds 14 1016 87 10000 1.5 190 19:22 29.09.2020
3812 Clouds 15 1015 77 10000 3.1 180 18:43 29.09.2020
3813 Clouds 15 1015 77 10000 3.1 180 18:20 29.09.2020
3814 Clouds 15 1015 77 10000 3.1 170 17:52 29.09.2020
3815 Clouds 15 1015 77 10000 3.6 190 17:23 29.09.2020
3816 Clouds 16 1015 72 10000 3.6 180 16:43 29.09.2020
3817 Clouds 16 1015 72 10000 3.6 180 16:24 29.09.2020
3818 Clouds 16 1015 72 10000 4.6 180 15:50 29.09.2020
3819 Clouds 16 1015 72 10000 4.1 170 15:29 29.09.2020
3820 Clouds 16 1015 72 10000 4.1 200 14:54 29.09.2020
3821 Clouds 16 1015 72 10000 3.6 190 14:36 29.09.2020
3822 Clouds 16 1015 72 10000 3.6 190 14:18 29.09.2020
3823 Clouds 16 1015 71 10000 3.6 200 13:40 29.09.2020
3824 Clouds 16 1015 71 10000 3.6 200 13:19 29.09.2020
3825 Clouds 16 1015 71 10000 3.6 200 13:19 29.09.2020
3826 Clouds 15 1015 71 10000 3.6 190 12:44 29.09.2020
3827 Clear 15 1015 71 10000 3.6 190 12:25 29.09.2020
3828 Clear 15 1015 67 10000 3.6 190 11:46 29.09.2020
3829 Clear 14 1015 71 10000 4.1 190 11:20 29.09.2020
3830 Clear 12 1015 87 10000 3.1 170 10:40 29.09.2020
3831 Clear 12 1015 87 10000 3.1 170 10:19 29.09.2020
3832 Clouds 10 1014 93 10000 2.6 140 09:42 29.09.2020
3833 Clouds 10 1014 93 10000 2.6 140 09:21 29.09.2020
3834 Fog 8 1014 100 2000 1.5 110 08:45 29.09.2020
3835 Fog 8 1014 100 2000 1.5 110 08:25 29.09.2020
3836 Fog 7 1014 100 200 1.5 120 07:46 29.09.2020
3837 Fog 7 1013 100 300 0.5 0 06:47 29.09.2020
3838 Fog 8 1013 100 500 1.5 130 05:40 29.09.2020
3839 Fog 8 1013 100 500 1.5 130 05:40 29.09.2020
3840 Clouds 10 1013 100 10000 1 100 03:34 29.09.2020
3841 Clouds 11 1013 93 10000 2.1 130 02:20 29.09.2020
3842 Clouds 12 1013 93 10000 2.1 140 00:32 29.09.2020
3843 Clouds 13 1012 93 9000 1.5 140 23:43 28.09.2020
3844 Clouds 13 1012 93 9000 1.5 140 23:19 28.09.2020
3845 Drizzle 13 1012 93 6000 1 110 22:39 28.09.2020
3846 Drizzle 13 1012 93 6000 1 110 22:20 28.09.2020
3847 Drizzle 13 1012 93 6000 1 280 21:43 28.09.2020
3848 Drizzle 13 1012 93 6000 1 280 21:24 28.09.2020
3849 Drizzle 13 1012 87 8000 2.1 210 20:58 28.09.2020
3850 Clouds 13 1011 87 10000 2.1 150 20:40 28.09.2020
3851 Clouds 13 1011 87 10000 2.1 150 20:19 28.09.2020
3852 Clouds 14 1010 82 10000 2.1 170 19:40 28.09.2020
3853 Clouds 14 1010 82 10000 2.1 170 19:20 28.09.2020
3854 Clouds 14 1010 82 10000 2.1 160 18:50 28.09.2020
3855 Clouds 14 1010 82 10000 2.1 170 18:32 28.09.2020
3856 Clouds 14 1010 82 10000 2.6 170 17:59 28.09.2020
3857 Clouds 14 1009 82 10000 3.6 180 17:39 28.09.2020
3858 Clouds 14 1009 82 10000 3.6 180 17:21 28.09.2020
3859 Drizzle 14 1009 87 10000 3.6 180 16:42 28.09.2020
3860 Drizzle 14 1009 87 10000 3.6 180 16:42 28.09.2020
3861 Drizzle 14 1009 87 10000 3.6 180 16:23 28.09.2020
3862 Clouds 14 1009 76 10000 3.6 190 15:38 28.09.2020
3863 Clouds 14 1009 76 10000 3.6 190 15:19 28.09.2020
3864 Clouds 14 1009 76 10000 3.6 210 14:49 28.09.2020
3865 Clouds 14 1009 76 10000 4.1 180 14:28 28.09.2020
3866 Clouds 14 1009 82 10000 3.1 200 13:58 28.09.2020
3867 Clouds 13 1009 87 10000 2.6 180 13:27 28.09.2020
3868 Clouds 13 1009 82 10000 3.1 190 12:59 28.09.2020
3869 Clouds 13 1009 87 10000 3.6 190 12:40 28.09.2020
3870 Clouds 12 1009 93 10000 3.6 190 11:57 28.09.2020
3871 Clouds 12 1009 93 10000 3.6 170 11:37 28.09.2020
3872 Clouds 12 1009 93 10000 3.6 170 11:19 28.09.2020
3873 Clouds 11 1008 93 10000 2.6 170 10:45 28.09.2020
3874 Clouds 11 1008 93 10000 2.6 170 10:45 28.09.2020
3875 Clouds 11 1008 93 10000 2.6 170 10:45 28.09.2020
3876 Clouds 11 1008 93 10000 2.6 170 10:23 28.09.2020
3877 Clouds 11 1008 93 10000 2.6 170 09:49 28.09.2020
3878 Clouds 11 1008 93 6000 3.6 160 09:18 28.09.2020
3879 Clouds 11 1007 93 9000 2.6 170 08:43 28.09.2020
3880 Rain 11 1007 93 9000 2.6 170 08:19 28.09.2020
3881 Rain 11 1007 93 9000 2.6 170 08:19 28.09.2020
3882 Clouds 11 1007 93 10000 2.6 180 07:41 28.09.2020
3883 Clouds 11 1007 93 10000 2.1 180 06:49 28.09.2020
3884 Clouds 11 1007 93 10000 1.5 200 03:54 28.09.2020
3885 Clouds 11 1007 93 10000 2.1 230 02:30 28.09.2020
3886 Clouds 12 1007 93 10000 2.6 180 00:38 28.09.2020
3887 Clouds 12 1007 87 10000 2.1 200 23:47 27.09.2020
3888 Clouds 12 1007 87 10000 2.1 200 23:28 27.09.2020
3889 Clouds 12 1007 93 10000 1.5 180 22:55 27.09.2020
3890 Clouds 12 1007 87 10000 1 250 22:35 27.09.2020
3891 Rain 12 1006 87 10000 1.5 220 21:49 27.09.2020
3892 Clouds 12 1006 87 10000 1.5 240 21:30 27.09.2020
3893 Clouds 12 1006 87 10000 1 270 20:58 27.09.2020
3894 Clouds 12 1006 87 10000 1.5 210 20:36 27.09.2020
3895 Clouds 12 1006 87 10000 1.5 210 20:18 27.09.2020
3896 Clouds 12 1006 81 10000 1.5 220 19:42 27.09.2020
3897 Clouds 12 1006 81 10000 1.5 220 19:19 27.09.2020
3898 Clouds 13 1005 76 10000 2.1 230 18:45 27.09.2020
3899 Clouds 13 1005 76 10000 2.1 230 18:26 27.09.2020
3900 Clouds 13 1005 76 10000 1.5 240 17:59 27.09.2020
3901 Clouds 13 1005 76 10000 1.5 250 17:39 27.09.2020
3902 Clouds 13 1005 76 10000 1.5 250 17:20 27.09.2020
3903 Clouds 13 1005 76 10000 1.5 190 16:43 27.09.2020
3904 Clouds 13 1005 76 10000 1.5 190 16:24 27.09.2020
3905 Clouds 13 1004 76 10000 0.5 0 15:38 27.09.2020
3906 Clouds 13 1004 76 10000 0.5 0 15:38 27.09.2020
3907 Clouds 13 1004 76 10000 0.5 0 15:38 27.09.2020
3908 Clouds 13 1004 76 10000 0.5 0 15:20 27.09.2020
3909 Clouds 12 1004 76 10000 0.5 0 14:40 27.09.2020
3910 Clouds 13 1004 76 10000 0.5 0 14:22 27.09.2020
3911 Clouds 12 1004 76 10000 1 0 13:46 27.09.2020
3912 Clouds 12 1003 76 10000 1.5 180 13:24 27.09.2020
3913 Clouds 12 1003 76 10000 2.1 160 12:49 27.09.2020
3914 Clouds 11 1004 81 10000 1.5 100 12:28 27.09.2020
3915 Rain 11 1004 81 10000 2.6 130 11:56 27.09.2020
3916 Rain 11 1003 81 10000 3.6 120 11:37 27.09.2020
3917 Rain 11 1003 81 10000 3.6 120 11:19 27.09.2020
3918 Clouds 11 1002 81 10000 2.6 90 10:36 27.09.2020
3919 Clouds 10 1002 93 10000 4.1 90 10:18 27.09.2020
3920 Clouds 10 1001 93 10000 3.1 100 09:39 27.09.2020
3921 Clouds 10 1001 93 10000 3.1 100 09:20 27.09.2020
3922 Drizzle 10 1001 93 10000 3.1 100 08:42 27.09.2020
3923 Drizzle 10 1001 93 10000 3.1 100 08:22 27.09.2020
3924 Drizzle 11 999 100 8000 4.1 100 07:39 27.09.2020
3925 Drizzle 11 999 93 5000 2.1 120 06:47 27.09.2020
3926 Clouds 13 996 93 10000 4.1 90 04:55 27.09.2020
3927 Clouds 14 992 87 10000 7.7 60 02:37 27.09.2020
3928 Clouds 15 991 93 10000 4.6 50 01:37 27.09.2020
3929 Clouds 14 991 93 10000 6.2 30 00:56 27.09.2020
3930 Clouds 14 991 93 10000 8.2 10 00:32 27.09.2020
3931 Clouds 13 991 93 3500 7.2 340 23:42 26.09.2020
3932 Clouds 13 991 93 3500 7.2 340 23:22 26.09.2020
3933 Clouds 12 993 93 7000 6.7 340 22:41 26.09.2020
3934 Clouds 12 993 93 7000 6.7 340 22:21 26.09.2020
3935 Rain 12 993 93 4800 6.7 340 21:50 26.09.2020
3936 Rain 13 994 87 10000 6.7 340 21:26 26.09.2020
3937 Rain 12 994 93 8000 5.1 300 20:58 26.09.2020
3938 Rain 12 995 93 10000 5.7 300 20:39 26.09.2020
3939 Rain 12 995 93 10000 5.7 300 20:20 26.09.2020
3940 Rain 12 996 87 10000 4.1 300 19:47 26.09.2020
3941 Rain 12 996 87 10000 4.1 300 19:24 26.09.2020
3942 Rain 13 997 76 10000 3.6 300 18:55 26.09.2020
3943 Rain 13 997 76 10000 3.6 310 18:35 26.09.2020
3944 Rain 14 997 67 10000 4.6 310 17:58 26.09.2020
3945 Rain 14 997 71 10000 4.1 310 17:35 26.09.2020
3946 Rain 14 998 71 10000 5.7 300 16:45 26.09.2020
3947 Rain 14 998 71 10000 3.6 300 16:25 26.09.2020
3948 Rain 14 998 71 10000 4.1 290 15:58 26.09.2020
3949 Rain 14 998 67 10000 3.1 310 15:39 26.09.2020
3950 Rain 15 998 67 10000 3.1 310 15:19 26.09.2020
3951 Rain 15 998 62 10000 2.6 320 14:42 26.09.2020
3952 Clouds 15 998 62 10000 2.6 320 14:18 26.09.2020
3953 Rain 14 998 62 10000 0.5 0 13:45 26.09.2020
3954 Clouds 14 998 62 10000 0.5 0 13:24 26.09.2020
3955 Clouds 14 998 66 10000 1 0 12:44 26.09.2020
3956 Clouds 13 998 66 10000 1 0 12:21 26.09.2020
3957 Clouds 13 998 66 10000 1 0 11:53 26.09.2020
3958 Clouds 13 998 66 10000 0.5 0 11:23 26.09.2020
3959 Clouds 12 998 76 10000 0.5 0 10:52 26.09.2020
3960 Clouds 9 998 87 10000 0.5 0 10:30 26.09.2020
3961 Clouds 9 997 81 10000 0.5 40 09:56 26.09.2020
3962 Clouds 8 997 93 10000 0.5 0 09:38 26.09.2020
3963 Clouds 8 997 93 10000 0.5 0 09:20 26.09.2020
3964 Clouds 6 997 100 10000 1.12 30 08:48 26.09.2020
3965 Clouds 6 996 93 10000 1.5 70 07:35 26.09.2020
3966 Clouds 5 996 93 10000 1.5 90 05:28 26.09.2020
3967 Clouds 9 996 81 10000 2.1 140 02:19 26.09.2020
3968 Clouds 9 996 76 10000 1.5 140 01:18 26.09.2020
3969 Clouds 9 996 76 10000 2.1 130 00:21 26.09.2020
3970 Clouds 8 996 81 10000 2.1 140 23:36 25.09.2020
3971 Clouds 9 996 81 10000 2.1 140 23:18 25.09.2020
3972 Clouds 10 996 71 10000 3.1 140 22:41 25.09.2020
3973 Clouds 9 996 71 10000 3.1 140 22:22 25.09.2020
3974 Clouds 10 996 71 10000 3.1 120 21:49 25.09.2020
3975 Clouds 10 996 71 10000 2.1 130 21:25 25.09.2020
3976 Clouds 11 996 66 10000 2.1 110 20:40 25.09.2020
3977 Clouds 11 996 66 10000 2.1 120 20:18 25.09.2020
3978 Clouds 12 996 66 10000 3.1 160 19:29 25.09.2020
3979 Clouds 13 996 62 10000 3.1 190 18:53 25.09.2020
3980 Clouds 14 996 54 10000 4.6 200 18:24 25.09.2020
3981 Clouds 15 996 51 10000 5.7 220 17:45 25.09.2020
3982 Clouds 15 996 51 10000 5.7 220 17:23 25.09.2020
3983 Clouds 15 996 54 10000 5.7 200 16:59 25.09.2020
3984 Clouds 15 996 54 10000 6.7 220 16:31 25.09.2020
3985 Clouds 16 996 51 10000 5.1 210 15:44 25.09.2020
3986 Clouds 16 996 51 10000 5.1 210 15:20 25.09.2020
3987 Clouds 15 996 58 10000 6.7 230 14:40 25.09.2020
3988 Clouds 15 996 58 10000 6.7 230 14:19 25.09.2020
3989 Clouds 16 996 54 10000 6.7 210 13:26 25.09.2020
3990 Clouds 15 996 58 10000 6.7 220 12:53 25.09.2020
3991 Clouds 14 996 71 10000 4.1 230 12:33 25.09.2020
3992 Clouds 14 996 71 10000 6.2 230 11:50 25.09.2020
3993 Clouds 13 996 87 10000 5.1 210 11:20 25.09.2020
3994 Clouds 12 996 87 10000 4.6 210 10:40 25.09.2020
3995 Clouds 12 996 87 10000 4.6 210 10:19 25.09.2020
3996 Clouds 12 996 87 10000 4.6 200 09:45 25.09.2020
3997 Clouds 12 996 87 10000 3.6 180 09:22 25.09.2020
3998 Clouds 12 995 93 10000 2.6 190 08:39 25.09.2020
3999 Rain 12 995 93 10000 2.1 200 07:59 25.09.2020
4000 Clouds 12 995 93 10000 4.6 210 07:29 25.09.2020
4001 Clouds 13 994 76 10000 3.1 160 06:31 25.09.2020
4002 Clouds 11 996 71 10000 3.1 110 03:45 25.09.2020
4003 Clouds 12 998 71 10000 2.6 120 00:36 25.09.2020
4004 Clouds 12 999 62 10000 3.6 120 23:33 24.09.2020
4005 Clouds 13 1000 62 10000 3.1 120 22:58 24.09.2020
4006 Clouds 13 1000 62 10000 3.1 120 22:37 24.09.2020
4007 Clouds 13 1000 62 10000 3.1 120 22:18 24.09.2020
4008 Clouds 13 1000 58 10000 3.6 130 21:45 24.09.2020
4009 Clouds 13 1001 58 10000 3.1 130 21:19 24.09.2020
4010 Clouds 14 1001 62 10000 2.1 120 20:44 24.09.2020
4011 Clouds 14 1001 62 10000 2.1 120 20:26 24.09.2020
4012 Clouds 15 1001 62 10000 1.5 140 19:47 24.09.2020
4013 Clouds 17 1001 59 10000 3.1 180 19:26 24.09.2020
4014 Clouds 17 1002 55 10000 4.1 190 18:48 24.09.2020
4015 Clouds 18 1002 51 10000 5.1 190 18:19 24.09.2020
4016 Clouds 19 1002 48 10000 5.7 190 17:40 24.09.2020
4017 Clouds 19 1002 48 10000 7.2 190 16:50 24.09.2020
4018 Clouds 19 1003 48 10000 7.7 190 16:28 24.09.2020
4019 Clouds 19 1003 48 10000 5.1 200 15:44 24.09.2020
4020 Clouds 19 1003 48 10000 5.1 200 15:18 24.09.2020
4021 Clouds 18 1003 51 10000 7.2 220 14:40 24.09.2020
4022 Clouds 18 1003 55 10000 7.2 220 13:52 24.09.2020
4023 Clouds 18 1003 59 10000 8.2 240 13:24 24.09.2020
4024 Clouds 17 1003 59 10000 8.7 240 12:55 24.09.2020
4025 Clouds 17 1003 59 10000 8.2 230 12:36 24.09.2020
4026 Clouds 16 1003 63 10000 7.7 240 11:53 24.09.2020
4027 Clouds 16 1002 67 10000 6.7 230 11:20 24.09.2020
4028 Clouds 15 1002 71 10000 7.2 240 10:49 24.09.2020
4029 Clouds 15 1002 76 10000 7.7 220 10:30 24.09.2020
4030 Clouds 14 1001 76 10000 6.7 230 09:49 24.09.2020
4031 Clouds 14 1001 76 10000 6.7 230 09:20 24.09.2020
4032 Clouds 14 1000 82 10000 6.2 240 08:49 24.09.2020
4033 Clouds 14 1000 76 10000 7.2 240 08:27 24.09.2020
4034 Clouds 16 998 87 10000 5.1 210 06:45 24.09.2020
4035 Rain 16 998 77 10000 4.6 200 04:48 24.09.2020
4036 Clouds 16 1000 77 10000 3.1 160 00:49 24.09.2020
4037 Clouds 16 1000 72 10000 3.1 170 00:20 24.09.2020
4038 Clouds 17 1001 63 10000 2.6 190 23:43 23.09.2020
4039 Clouds 18 1001 63 10000 3.1 170 22:58 23.09.2020
4040 Clouds 18 1001 63 10000 1.5 160 22:38 23.09.2020
4041 Rain 18 1001 63 10000 1.5 160 22:19 23.09.2020
4042 Clouds 18 1001 59 10000 1.5 200 21:42 23.09.2020
4043 Rain 19 1001 59 10000 1.5 200 21:21 23.09.2020
4044 Clouds 19 1001 59 10000 3.1 180 20:50 23.09.2020
4045 Clouds 19 1001 63 10000 3.1 160 19:58 23.09.2020
4046 Clouds 20 1001 59 10000 2.6 160 19:31 23.09.2020
4047 Clouds 21 1002 52 10000 3.1 210 18:58 23.09.2020
4048 Clouds 22 1002 49 10000 3.6 210 18:24 23.09.2020
4049 Clouds 23 1003 46 10000 4.6 210 17:43 23.09.2020
4050 Clear 23 1003 46 10000 4.6 210 17:24 23.09.2020
4051 Clear 23 1003 49 10000 4.6 220 16:29 23.09.2020
4052 Clear 24 1003 49 10000 5.1 220 15:53 23.09.2020
4053 Clear 23 1003 49 10000 7.2 220 15:23 23.09.2020
4054 Clear 23 1004 49 10000 5.1 220 14:51 23.09.2020
4055 Clouds 23 1004 53 10000 4.6 220 14:28 23.09.2020
4056 Clouds 23 1004 60 10000 3.6 230 13:43 23.09.2020
4057 Clouds 22 1004 60 10000 3.6 230 13:24 23.09.2020
4058 Clouds 20 1005 68 10000 3.6 240 12:41 23.09.2020
4059 Clouds 20 1005 68 10000 3.6 240 12:19 23.09.2020
4060 Clouds 17 1005 77 10000 2.1 220 11:28 23.09.2020
4061 Clouds 15 1005 82 10000 2.1 160 10:58 23.09.2020
4062 Clouds 15 1005 87 10000 1.5 170 10:36 23.09.2020
4063 Clouds 12 1004 93 8000 1 160 09:55 23.09.2020
4064 Clear 11 1004 93 8000 1.5 170 09:25 23.09.2020
4065 Clear 10 1004 93 7000 1.5 160 08:36 23.09.2020
4066 Clear 10 1004 93 7000 1.5 160 08:18 23.09.2020
4067 Fog 9 1004 93 3500 1.5 150 07:19 23.09.2020
4068 Fog 9 1004 100 500 2.6 229 05:41 23.09.2020
4069 Fog 10 1005 100 800 0.5 0 02:19 23.09.2020
4070 Mist 11 1006 100 4500 1 180 00:59 23.09.2020
4071 Clear 12 1006 93 10000 0.5 280 23:42 22.09.2020
4072 Clear 12 1006 93 10000 0.5 280 23:22 22.09.2020
4073 Clear 13 1006 87 10000 0.5 150 22:34 22.09.2020
4074 Clear 14 1006 87 10000 1 170 21:55 22.09.2020
4075 Clear 15 1006 77 10000 0.5 0 21:36 22.09.2020
4076 Clear 15 1006 77 10000 0.5 0 21:18 22.09.2020
4077 Clear 17 1007 63 10000 0.5 0 20:44 22.09.2020
4078 Clear 17 1007 63 10000 0.5 0 20:25 22.09.2020
4079 Clear 19 1007 59 10000 0.5 0 19:47 22.09.2020
4080 Clear 22 1007 52 10000 1.5 240 19:27 22.09.2020
4081 Clear 21 1007 49 10000 2.1 220 18:49 22.09.2020
4082 Clear 23 1007 46 10000 3.1 210 18:29 22.09.2020
4083 Clear 23 1008 44 10000 2.1 230 17:31 22.09.2020
4084 Clear 24 1008 44 10000 2.6 230 16:48 22.09.2020
4085 Clear 24 1009 44 10000 2.1 250 16:26 22.09.2020
4086 Clear 24 1009 44 10000 3.1 200 15:43 22.09.2020
4087 Clear 24 1009 44 10000 2.6 0 14:51 22.09.2020
4088 Clear 24 1009 44 10000 1 0 14:28 22.09.2020
4089 Clear 24 1010 46 10000 2.1 0 13:53 22.09.2020
4090 Clear 24 1010 46 10000 1 0 13:20 22.09.2020
4091 Clear 22 1010 60 10000 0.5 0 12:45 22.09.2020
4092 Clear 20 1010 60 10000 0.5 0 12:25 22.09.2020
4093 Clear 19 1011 68 10000 0.5 0 11:37 22.09.2020
4094 Clear 18 1011 68 10000 0.5 0 11:18 22.09.2020
4095 Clear 14 1011 82 10000 0.5 0 10:35 22.09.2020
4096 Clear 12 1011 93 10000 0.5 0 09:54 22.09.2020
4097 Clear 11 1011 100 10000 0.5 0 09:34 22.09.2020
4098 Fog 10 1011 100 10000 0.5 0 08:55 22.09.2020
4099 Fog 8 1011 100 700 0.83 193 07:58 22.09.2020
4100 Fog 8 1011 100 600 0.5 0 07:39 22.09.2020
4101 Fog 8 1011 100 600 0.5 0 07:20 22.09.2020
4102 Fog 9 1011 100 800 0.37 134 06:29 22.09.2020
4103 Fog 9 1012 100 800 0.31 330 04:53 22.09.2020
4104 Clear 11 1013 100 10000 0.86 139 01:58 22.09.2020
4105 Clear 11 1013 100 10000 0.5 260 00:56 22.09.2020
4106 Clear 11 1014 100 10000 0.5 150 00:38 22.09.2020
4107 Clear 12 1014 93 10000 1 290 23:23 21.09.2020
4108 Clear 13 1014 82 10000 1 70 22:44 21.09.2020
4109 Clear 13 1014 82 10000 1 70 22:23 21.09.2020
4110 Clear 14 1014 77 10000 1 70 21:41 21.09.2020
4111 Clear 15 1014 77 10000 1 70 21:22 21.09.2020
4112 Clear 17 1014 63 10000 1 50 20:45 21.09.2020
4113 Clear 17 1014 59 10000 1.5 60 20:27 21.09.2020
4114 Clear 19 1015 46 10000 2.1 40 19:45 21.09.2020
4115 Clear 22 1015 46 10000 2.1 40 19:21 21.09.2020
4116 Clear 22 1015 43 10000 1.5 70 18:49 21.09.2020
4117 Clear 24 1015 41 10000 1 0 18:24 21.09.2020
4118 Clear 24 1015 33 10000 0.5 0 17:47 21.09.2020
4119 Clear 24 1015 31 10000 1 0 17:26 21.09.2020
4120 Clear 23 1016 38 10000 1.5 160 16:30 21.09.2020
4121 Clear 24 1016 38 10000 2.1 0 15:38 21.09.2020
4122 Clear 23 1016 38 10000 2.1 0 15:19 21.09.2020
4123 Clear 23 1017 40 10000 3.1 120 14:32 21.09.2020
4124 Clear 23 1017 46 10000 3.1 110 13:55 21.09.2020
4125 Clear 22 1017 49 10000 3.6 130 13:21 21.09.2020
4126 Clear 20 1018 55 10000 2.6 120 12:43 21.09.2020
4127 Clear 19 1018 55 10000 2.6 120 12:20 21.09.2020
4128 Clear 18 1018 63 10000 2.1 130 11:38 21.09.2020
4129 Clear 16 1018 63 10000 2.1 130 11:18 21.09.2020
4130 Clear 13 1018 71 10000 1.5 120 10:26 21.09.2020
4131 Clear 12 1018 76 10000 2.1 70 09:55 21.09.2020
4132 Clear 11 1018 81 10000 2.6 70 09:36 21.09.2020
4133 Clear 8 1018 100 10000 1 60 08:31 21.09.2020
4134 Clear 8 1018 93 10000 1 70 07:47 21.09.2020
4135 Clear 9 1018 93 10000 2.1 50 07:24 21.09.2020
4136 Clear 9 1018 100 10000 1 60 05:50 21.09.2020
4137 Clear 10 1019 81 10000 2.1 60 02:55 21.09.2020
4138 Clear 11 1019 76 10000 2.6 50 00:48 21.09.2020
4139 Clear 12 1019 71 10000 3.6 80 23:19 20.09.2020
4140 Clear 14 1019 62 10000 3.6 50 22:37 20.09.2020
4141 Clear 14 1019 62 10000 3.6 50 22:19 20.09.2020
4142 Clear 14 1019 59 10000 3.1 40 21:32 20.09.2020
4143 Clear 16 1019 55 10000 3.6 40 20:50 20.09.2020
4144 Clear 17 1019 52 10000 3.6 30 20:21 20.09.2020
4145 Clear 19 1018 49 10000 4.1 20 19:44 20.09.2020
4146 Clear 19 1018 49 10000 4.1 20 19:19 20.09.2020
4147 Clear 20 1018 43 10000 4.1 50 18:46 20.09.2020
4148 Clear 22 1018 43 10000 4.1 40 18:23 20.09.2020
4149 Clear 22 1018 40 10000 4.6 40 17:57 20.09.2020
4150 Clear 22 1018 40 10000 4.1 50 17:31 20.09.2020
4151 Clear 22 1018 40 10000 4.1 50 17:31 20.09.2020
4152 Clear 22 1018 40 10000 3.6 60 16:34 20.09.2020
4153 Clear 22 1019 40 10000 3.6 50 15:53 20.09.2020
4154 Clear 22 1019 40 10000 4.6 70 14:58 20.09.2020
4155 Clear 22 1019 43 10000 4.1 80 14:22 20.09.2020
4156 Clear 21 1019 45 10000 4.1 60 13:51 20.09.2020
4157 Clear 20 1020 48 10000 5.1 50 12:56 20.09.2020
4158 Clear 20 1020 52 10000 4.1 70 12:36 20.09.2020
4159 Clear 18 1020 55 10000 3.6 70 11:59 20.09.2020
4160 Clear 15 1020 62 10000 3.6 60 11:33 20.09.2020
4161 Clear 14 1020 62 10000 3.1 50 10:57 20.09.2020
4162 Clear 13 1020 66 10000 2.6 60 10:34 20.09.2020
4163 Clear 10 1020 71 10000 2.6 70 09:58 20.09.2020
4164 Clear 9 1020 76 10000 3.6 60 09:25 20.09.2020
4165 Clear 7 1020 87 10000 3.1 50 07:50 20.09.2020
4166 Clear 7 1019 93 10000 1.5 70 06:23 20.09.2020
4167 Clear 9 1020 76 10000 3.6 60 01:53 20.09.2020
4168 Clear 10 1020 71 10000 3.1 50 00:31 20.09.2020
4169 Clear 12 1020 66 10000 2.6 60 23:32 19.09.2020
4170 Clear 12 1020 66 10000 3.1 60 22:48 19.09.2020
4171 Clear 12 1020 66 10000 3.1 70 22:29 19.09.2020
4172 Clear 15 1020 58 10000 4.1 70 21:41 19.09.2020
4173 Clear 14 1020 55 10000 4.6 70 20:57 19.09.2020
4174 Clear 15 1019 55 10000 3.6 60 20:35 19.09.2020
4175 Clouds 18 1020 39 10000 4.1 60 19:28 19.09.2020
4176 Clouds 19 1020 37 10000 5.1 60 18:54 19.09.2020
4177 Clouds 20 1019 34 10000 5.7 60 18:22 19.09.2020
4178 Clouds 22 1020 35 10000 5.1 70 17:40 19.09.2020
4179 Clouds 22 1020 35 10000 5.1 70 17:20 19.09.2020
4180 Clouds 22 1020 30 10000 5.1 90 16:26 19.09.2020
4181 Clouds 22 1020 30 10000 5.1 90 15:54 19.09.2020
4182 Clouds 21 1021 35 10000 5.1 80 15:35 19.09.2020
4183 Clouds 20 1022 39 10000 4.6 90 13:27 19.09.2020
4184 Clouds 17 1023 51 10000 4.6 90 11:56 19.09.2020
4185 Clouds 16 1023 54 10000 4.1 80 11:28 19.09.2020
4186 Clouds 11 1023 66 10000 4.6 60 10:26 19.09.2020
4187 Clouds 10 1023 70 10000 3.6 60 09:40 19.09.2020
4188 Clouds 9 1023 70 10000 3.6 60 09:22 19.09.2020
4189 Clouds 8 1023 75 10000 3.1 60 08:41 19.09.2020
4190 Clouds 7 1023 81 10000 3.6 70 07:37 19.09.2020
4191 Clouds 6 1023 81 10000 3.6 70 06:48 19.09.2020
4192 Clouds 7 1023 75 10000 2.1 70 05:51 19.09.2020
4193 Clouds 8 1024 75 10000 4.1 70 04:19 19.09.2020
4194 Clouds 10 1025 66 10000 4.1 80 00:50 19.09.2020
4195 Clouds 10 1026 71 10000 4.1 70 23:24 18.09.2020
4196 Clouds 11 1026 62 10000 3.6 60 22:59 18.09.2020
4197 Clouds 11 1026 58 10000 3.6 60 22:19 18.09.2020
4198 Clouds 11 1026 54 10000 4.1 80 21:42 18.09.2020
4199 Clouds 12 1026 54 10000 4.1 80 21:22 18.09.2020
4200 Clouds 14 1025 47 10000 3.6 60 20:33 18.09.2020
4201 Clouds 17 1025 42 10000 3.6 80 19:39 18.09.2020
4202 Clouds 18 1025 42 10000 3.6 80 19:19 18.09.2020
4203 Clouds 20 1026 37 10000 4.1 90 18:26 18.09.2020
4204 Clouds 20 1026 34 10000 4.6 80 17:25 18.09.2020
4205 Clouds 19 1027 37 10000 5.7 80 16:40 18.09.2020
4206 Clouds 19 1027 37 10000 5.7 80 16:20 18.09.2020
4207 Clouds 19 1028 39 10000 5.7 90 15:39 18.09.2020
4208 Clear 18 1028 45 10000 4.6 80 14:44 18.09.2020
4209 Clouds 19 1029 48 10000 4.1 110 13:56 18.09.2020
4210 Clouds 18 1029 48 10000 4.6 90 13:20 18.09.2020
4211 Clouds 17 1030 55 10000 3.6 100 12:37 18.09.2020
4212 Clouds 12 1030 66 10000 3.1 110 10:54 18.09.2020
4213 Clouds 11 1030 66 10000 3.1 120 10:35 18.09.2020
4214 Clouds 10 1030 76 10000 2.6 110 09:59 18.09.2020
4215 Clouds 8 1029 81 10000 1.5 100 09:23 18.09.2020
4216 Clouds 5 1029 93 10000 3.6 70 08:31 18.09.2020
4217 Clouds 5 1029 93 10000 2.1 60 07:34 18.09.2020
4218 Clouds 5 1029 93 10000 2.6 80 05:45 18.09.2020
4219 Clear 7 1030 81 10000 2.6 90 02:22 18.09.2020
4220 Clear 7 1030 81 10000 3.1 70 01:19 18.09.2020
4221 Clear 9 1030 66 10000 3.6 60 23:51 17.09.2020
4222 Clear 10 1030 62 10000 3.6 60 22:52 17.09.2020
4223 Clear 10 1030 62 10000 3.6 60 22:33 17.09.2020
4224 Clear 11 1030 58 10000 3.1 60 21:44 17.09.2020
4225 Clear 11 1030 58 10000 3.1 60 21:23 17.09.2020
4226 Clear 11 1030 58 10000 3.1 60 21:23 17.09.2020
4227 Clear 12 1029 50 10000 3.1 50 20:37 17.09.2020
4228 Clouds 15 1029 47 10000 4.1 50 19:39 17.09.2020
4229 Clouds 16 1029 48 10000 5.1 60 18:57 17.09.2020
4230 Clouds 17 1029 45 10000 4.6 70 18:30 17.09.2020
4231 Clouds 18 1029 45 10000 5.1 70 17:42 17.09.2020
4232 Clouds 18 1030 42 10000 4.6 60 17:21 17.09.2020
4233 Clouds 19 1030 36 10000 3.1 60 15:59 17.09.2020
4234 Clouds 18 1030 45 10000 3.6 60 15:41 17.09.2020
4235 Clouds 18 1030 45 10000 4.1 80 14:46 17.09.2020
4236 Clouds 18 1030 42 10000 4.6 70 14:25 17.09.2020
4237 Clouds 17 1031 48 10000 4.1 40 13:35 17.09.2020
4238 Clouds 17 1031 48 10000 4.6 60 12:53 17.09.2020
4239 Clear 16 1031 51 10000 5.1 70 12:27 17.09.2020
4240 Clear 15 1031 54 10000 4.6 60 11:32 17.09.2020
4241 Clear 13 1030 66 10000 3.1 40 10:43 17.09.2020
4242 Clouds 13 1030 66 10000 3.1 40 10:23 17.09.2020
4243 Clouds 12 1030 76 10000 3.1 30 09:50 17.09.2020
4244 Clear 11 1030 81 10000 3.6 30 09:22 17.09.2020
4245 Clear 9 1029 81 10000 4.1 30 08:40 17.09.2020
4246 Clear 9 1029 81 10000 4.1 30 08:21 17.09.2020
4247 Clear 9 1028 81 10000 5.1 20 07:20 17.09.2020
4248 Clear 9 1028 81 10000 4.6 20 06:47 17.09.2020
4249 Clear 10 1027 76 10000 4.1 30 04:48 17.09.2020
4250 Clouds 11 1026 82 10000 3.6 360 01:43 17.09.2020
4251 Clouds 12 1026 82 10000 3.6 360 01:25 17.09.2020
4252 Clouds 12 1025 76 10000 4.1 340 00:23 17.09.2020
4253 Clear 13 1024 76 10000 5.1 330 23:32 16.09.2020
4254 Clouds 14 1024 72 10000 5.7 340 22:44 16.09.2020
4255 Clouds 14 1024 72 10000 5.7 340 22:19 16.09.2020
4256 Clouds 15 1023 77 10000 6.2 340 21:33 16.09.2020
4257 Clouds 16 1023 77 10000 8.2 340 20:46 16.09.2020
4258 Clouds 16 1022 77 10000 6.7 330 20:27 16.09.2020
4259 Clouds 17 1021 77 10000 5.7 330 19:35 16.09.2020
4260 Clouds 20 1020 72 10000 6.2 320 17:25 16.09.2020
4261 Clouds 21 1020 72 10000 6.7 320 16:39 16.09.2020
4262 Clouds 21 1020 68 10000 6.7 320 15:53 16.09.2020
4263 Clouds 22 1020 68 10000 6.2 320 15:23 16.09.2020
4264 Clouds 22 1020 68 10000 5.7 320 14:48 16.09.2020
4265 Clouds 22 1019 68 8000 5.7 360 14:19 16.09.2020
4266 Clouds 22 1019 73 6000 5.1 330 12:55 16.09.2020
4267 Mist 20 1019 82 3600 3.6 340 11:45 16.09.2020
4268 Mist 19 1018 82 4000 3.1 320 10:39 16.09.2020
4269 Mist 18 1018 93 4000 0.5 0 09:55 16.09.2020
4270 Mist 17 1018 100 5000 0.5 0 09:33 16.09.2020
4271 Mist 16 1018 100 5000 1 0 08:58 16.09.2020
4272 Mist 14 1017 100 1000 1 190 07:49 16.09.2020
4273 Fog 14 1017 100 800 0.5 20 06:23 16.09.2020
4274 Fog 17 1018 100 700 0.36 238 00:27 16.09.2020
4275 Mist 18 1018 93 3500 0.5 140 23:40 15.09.2020
4276 Clear 19 1018 93 10000 0.5 250 22:52 15.09.2020
4277 Clouds 19 1018 93 10000 0.97 313 22:26 15.09.2020
4278 Clouds 20 1018 82 10000 0.5 0 21:42 15.09.2020
4279 Clouds 20 1018 82 10000 0.5 0 21:22 15.09.2020
4280 Clouds 22 1018 64 10000 0.5 0 20:42 15.09.2020
4281 Clouds 23 1018 64 10000 0.5 0 20:22 15.09.2020
4282 Clouds 27 1018 57 10000 1 280 19:29 15.09.2020
4283 Clouds 28 1018 48 10000 1 0 17:49 15.09.2020
4284 Clouds 29 1018 42 10000 1.5 220 16:57 15.09.2020
4285 Clouds 29 1018 45 10000 2.1 210 16:36 15.09.2020
4286 Clouds 29 1019 45 10000 1.5 220 15:42 15.09.2020
4287 Clouds 29 1019 45 10000 1 0 14:54 15.09.2020
4288 Clouds 28 1020 54 10000 1 0 13:39 15.09.2020
4289 Clouds 23 1020 68 10000 1 0 11:40 15.09.2020
4290 Clouds 17 1020 88 10000 0.5 0 09:24 15.09.2020
4291 Clouds 16 1020 87 10000 1 100 08:58 15.09.2020
4292 Clouds 16 1020 93 10000 1.5 130 08:24 15.09.2020
4293 Clouds 15 1020 93 10000 1 0 07:24 15.09.2020
4294 Clouds 17 1022 88 10000 2.1 70 03:36 15.09.2020
4295 Clouds 19 1023 77 10000 2.6 80 23:32 14.09.2020
4296 Clouds 19 1023 77 10000 2.6 70 22:31 14.09.2020
4297 Clouds 21 1023 77 10000 1.5 60 20:58 14.09.2020
4298 Clouds 23 1023 60 10000 1.5 90 19:56 14.09.2020
4299 Clouds 27 1023 45 10000 2.1 140 18:31 14.09.2020
4300 Clouds 28 1024 45 10000 2.6 150 16:24 14.09.2020
4301 Clouds 28 1024 42 10000 3.6 140 15:53 14.09.2020
4302 Clouds 26 1025 50 10000 3.1 140 14:43 14.09.2020
4303 Clouds 27 1025 50 10000 3.1 140 14:18 14.09.2020
4304 Clouds 22 1026 64 10000 3.1 140 11:50 14.09.2020
4305 Clouds 21 1026 68 10000 2.1 120 11:27 14.09.2020
4306 Mist 12 1026 100 2500 1.5 140 08:45 14.09.2020
4307 Clear 12 1026 100 10000 1.56 203 03:56 14.09.2020
4308 Clouds 16 1025 82 10000 1.5 170 21:57 13.09.2020
4309 Clouds 19 1024 68 10000 2.1 210 20:45 13.09.2020
4310 Clouds 23 1024 60 10000 5.7 220 16:52 13.09.2020
4311 Clouds 21 1024 64 10000 7.7 220 13:56 13.09.2020
4312 Clouds 17 1024 82 10000 6.2 230 10:54 13.09.2020
4313 Clouds 16 1023 87 10000 5.7 220 10:20 13.09.2020
4314 Clouds 12 1023 93 10000 3.1 200 07:20 13.09.2020
4315 Clouds 11 1023 87 10000 3.6 200 06:49 13.09.2020
4316 Clouds 14 1021 87 10000 2.6 280 21:22 12.09.2020
4317 Rain 16 1020 77 10000 4.1 240 19:48 12.09.2020
4318 Clouds 17 1019 77 10000 4.1 240 19:29 12.09.2020
4319 Clouds 18 1019 72 10000 7.2 250 18:18 12.09.2020
4320 Clouds 19 1019 72 10000 7.2 250 17:45 12.09.2020
4321 Clouds 19 1018 68 10000 6.2 240 16:53 12.09.2020
4322 Clouds 19 1017 63 10000 7.7 260 14:35 12.09.2020
4323 Clouds 19 1016 68 10000 7.7 250 12:50 12.09.2020
4324 Clouds 16 1016 77 8000 3.1 250 10:58 12.09.2020
4325 Mist 9 1015 100 1200 1 150 06:45 12.09.2020
4326 Mist 9 1015 100 3000 2.15 221 04:59 12.09.2020
4327 Clear 11 1016 93 5000 1.5 170 00:50 12.09.2020
4328 Clear 13 1016 87 10000 1 0 22:36 11.09.2020
4329 Clear 14 1015 82 10000 2.1 160 21:32 11.09.2020
4330 Clouds 17 1015 67 10000 1.79 285 19:42 11.09.2020
4331 Clouds 20 1015 59 10000 1.79 223 17:47 11.09.2020
4332 Clouds 21 1015 56 10000 0.89 219 16:59 11.09.2020
4333 Clouds 20 1017 48 10000 4.1 240 14:27 11.09.2020
4334 Clouds 18 1017 67 10000 2.1 220 12:37 11.09.2020
4335 Clouds 16 1017 72 10000 2.6 230 10:49 11.09.2020
4336 Clouds 11 1017 100 10000 1 150 07:33 11.09.2020
4337 Clouds 14 1020 72 10000 0.5 0 22:27 10.09.2020
4338 Clouds 17 1020 59 10000 2.6 30 19:34 10.09.2020
4339 Clouds 17 1020 55 10000 1.5 270 18:35 10.09.2020
4340 Clouds 18 1022 55 10000 4.6 300 15:54 10.09.2020
4341 Clouds 18 1021 73 10000 0.45 290 14:21 10.09.2020
4342 Clouds 16 1022 72 10000 3.1 290 11:43 10.09.2020
4343 Clouds 14 1022 87 10000 3.1 260 10:26 10.09.2020
4344 Clouds 11 1021 93 10000 2.1 270 07:49 10.09.2020
4345 Clouds 10 1021 100 10000 1 0 07:21 10.09.2020
4346 Clouds 15 1018 94 10000 0.45 304 21:51 09.09.2020
4347 Clouds 17 1016 94 10000 0.45 317 19:50 09.09.2020
4348 Clouds 20 1017 82 10000 7.2 250 17:23 09.09.2020
4349 Clouds 20 1017 82 10000 7.2 250 16:25 09.09.2020
4350 Clouds 18 1019 88 10000 6.7 220 10:51 09.09.2020
4351 Clouds 18 1019 88 10000 5.7 220 10:27 09.09.2020
4352 Clouds 17 1019 93 10000 5.7 220 09:29 09.09.2020
4353 Clouds 17 1020 93 9000 3.6 210 07:38 09.09.2020
4354 Clouds 17 1021 93 8000 3.6 210 04:41 09.09.2020
4355 Clouds 17 1021 93 8000 3.6 210 04:41 09.09.2020
4356 Clouds 17 1021 93 8000 3.6 210 04:41 09.09.2020
4357 Clouds 17 1023 93 10000 4.1 230 01:21 09.09.2020
4358 Clouds 17 1024 93 10000 4.1 220 23:36 08.09.2020
4359 Clouds 17 1024 93 10000 4.1 220 23:36 08.09.2020
4360 Clouds 17 1024 93 10000 4.1 220 23:36 08.09.2020
4361 Clouds 17 1024 93 10000 3.1 220 21:46 08.09.2020
4362 Clouds 17 1023 93 10000 3.1 210 21:22 08.09.2020
4363 Clouds 18 1023 88 10000 5.1 240 19:45 08.09.2020
4364 Clouds 18 1024 88 10000 6.7 230 16:58 08.09.2020
4365 Drizzle 17 1023 88 6000 5.7 240 12:27 08.09.2020
4366 Clouds 16 1023 87 8000 5.7 240 11:24 08.09.2020
4367 Clouds 16 1022 87 10000 5.7 240 10:53 08.09.2020
4368 Clouds 15 1022 87 10000 5.7 230 09:40 08.09.2020
4369 Clouds 15 1021 77 10000 4.6 220 07:52 08.09.2020
4370 Clouds 15 1021 77 10000 4.1 210 06:36 08.09.2020
4371 Clouds 14 1023 82 10000 2.6 210 22:48 07.09.2020
4372 Clouds 14 1022 87 10000 2.6 200 21:55 07.09.2020
4373 Clouds 18 1022 68 10000 3.6 220 18:59 07.09.2020
4374 Clouds 18 1023 72 10000 3.6 230 15:56 07.09.2020
4375 Clouds 18 1023 72 10000 3.1 210 13:31 07.09.2020
4376 Clouds 17 1023 67 10000 2.1 270 12:20 07.09.2020
4377 Clouds 16 1023 82 10000 1.5 0 11:49 07.09.2020
4378 Clouds 14 1023 87 10000 3.1 220 11:19 07.09.2020
4379 Clouds 11 1021 100 10000 3.1 280 07:39 07.09.2020
4380 Clouds 12 1020 93 10000 1 220 00:53 07.09.2020
4381 Clouds 13 1019 87 10000 2.1 250 21:40 06.09.2020
4382 Clouds 13 1019 87 10000 2.1 250 21:18 06.09.2020
4383 Clouds 14 1019 82 10000 2.6 240 20:32 06.09.2020
4384 Clouds 15 1019 77 10000 3.1 270 18:53 06.09.2020
4385 Clouds 16 1018 77 10000 5.1 320 15:40 06.09.2020
4386 Clouds 17 1017 59 10000 6.2 260 13:58 06.09.2020
4387 Clouds 18 1017 55 10000 6.7 260 13:21 06.09.2020
4388 Clouds 14 1017 82 10000 5.1 240 09:58 06.09.2020
4389 Clear 12 1017 87 10000 3.1 220 08:57 06.09.2020
4390 Clouds 12 1017 87 10000 4.1 240 00:20 06.09.2020
4391 Clouds 14 1017 71 10000 4.6 260 22:36 05.09.2020
4392 Clouds 16 1016 77 10000 4.6 260 17:51 05.09.2020
4393 Clouds 18 1016 55 10000 6.2 260 14:38 05.09.2020
4394 Clouds 19 1016 59 10000 6.7 260 13:28 05.09.2020
4395 Clouds 18 1016 72 10000 6.2 250 12:41 05.09.2020
4396 Clouds 17 1016 77 10000 6.7 260 11:40 05.09.2020
4397 Clouds 15 1015 82 10000 4.1 250 10:33 05.09.2020
4398 Clouds 14 1015 93 10000 2.6 240 09:25 05.09.2020
4399 Rain 14 1015 93 10000 2.6 210 06:30 05.09.2020
4400 Clouds 16 1018 82 10000 1.5 210 22:41 04.09.2020
4401 Clouds 19 1018 63 10000 4.1 260 19:53 04.09.2020
4402 Clouds 20 1018 68 10000 6.7 250 18:42 04.09.2020
4403 Clouds 21 1018 68 10000 5.1 260 17:56 04.09.2020
4404 Clouds 21 1018 64 10000 5.1 220 15:31 04.09.2020
4405 Clouds 20 1019 77 10000 4.6 230 12:51 04.09.2020
4406 Clouds 17 1019 88 6000 3.6 230 10:49 04.09.2020
4407 Clouds 14 1018 100 8000 1.5 230 07:20 04.09.2020
4408 Clouds 14 1017 100 10000 3.1 210 05:51 04.09.2020
4409 Drizzle 16 1015 93 6000 6.2 220 22:42 03.09.2020
4410 Drizzle 15 1015 93 4500 5.1 210 21:44 03.09.2020
4411 Drizzle 15 1015 93 3700 5.1 210 20:56 03.09.2020
4412 Clouds 14 1015 100 2300 4.6 210 20:25 03.09.2020
4413 Clouds 14 1016 93 4000 5.7 180 18:20 03.09.2020
4414 Rain 14 1017 93 5000 5.1 190 16:27 03.09.2020
4415 Clouds 16 1017 77 10000 5.1 210 14:45 03.09.2020
4416 Rain 16 1018 72 10000 4.1 230 12:27 03.09.2020
4417 Rain 14 1017 76 10000 4.1 210 10:49 03.09.2020
4418 Clouds 12 1017 100 10000 1 0 08:39 03.09.2020
4419 Fog 12 1018 100 10000 1 250 00:20 03.09.2020
4420 Clouds 16 1018 72 10000 2.1 350 21:36 02.09.2020
4421 Clouds 18 1018 68 10000 3.1 350 20:25 02.09.2020
4422 Clouds 21 1017 60 10000 4.1 340 17:58 02.09.2020
4423 Clouds 20 1018 52 10000 2.6 320 15:26 02.09.2020
4424 Clouds 18 1018 67 10000 2.6 40 11:52 02.09.2020
4425 Clouds 10 1018 93 10000 0.5 0 08:46 02.09.2020
4426 Clouds 7 1018 93 10000 1.5 250 07:26 02.09.2020
4427 Clouds 11 1019 76 10000 2.6 50 00:20 02.09.2020
4428 Clear 14 1019 62 10000 3.6 40 22:23 01.09.2020
4429 Clear 18 1017 45 10000 4.6 20 19:52 01.09.2020
4430 Clear 20 1018 48 10000 4.6 20 18:40 01.09.2020
4431 Clear 19 1018 48 10000 4.6 20 18:19 01.09.2020
4432 Clear 20 1018 45 10000 4.6 40 16:37 01.09.2020
4433 Clear 20 1018 40 10000 4.1 70 15:53 01.09.2020
4434 Clouds 20 1019 52 10000 3.6 60 13:59 01.09.2020
4435 Clouds 17 1019 63 10000 4.1 50 11:18 01.09.2020
4436 Clouds 15 1020 72 10000 3.6 60 09:46 01.09.2020
4437 Clouds 11 1020 93 10000 0.5 0 07:59 01.09.2020
4438 Clouds 15 1019 72 10000 2.1 20 23:37 31.08.2020
4439 Clouds 16 1019 63 10000 2.6 30 21:44 31.08.2020
4440 Clouds 19 1018 59 10000 3.6 360 17:55 31.08.2020
4441 Clouds 20 1018 59 10000 4.1 340 17:18 31.08.2020
4442 Clouds 19 1018 59 10000 3.1 340 14:35 31.08.2020
4443 Clouds 17 1018 63 10000 2.1 290 12:29 31.08.2020
4444 Clouds 15 1017 82 10000 2.1 290 09:40 31.08.2020
4445 Clouds 14 1015 72 10000 3.6 350 06:58 31.08.2020
4446 Clouds 14 1013 77 10000 4.1 340 02:30 31.08.2020
4447 Clouds 15 1012 87 10000 5.1 340 23:21 30.08.2020
4448 Clouds 17 1011 72 10000 5.7 340 21:51 30.08.2020
4449 Clouds 21 1010 60 10000 5.7 10 19:24 30.08.2020
4450 Clouds 21 1009 52 10000 4.1 360 18:43 30.08.2020
4451 Rain 23 1009 52 10000 4.1 360 18:19 30.08.2020
4452 Clouds 23 1009 49 10000 1.5 0 15:25 30.08.2020
4453 Clouds 23 1009 49 10000 1.5 0 14:54 30.08.2020
4454 Clouds 22 1009 52 10000 1 0 13:49 30.08.2020
4455 Clouds 20 1009 63 10000 2.1 160 11:40 30.08.2020
4456 Clear 17 1008 77 10000 1.5 120 10:21 30.08.2020
4457 Clear 13 1008 87 10000 1 0 09:18 30.08.2020
4458 Clear 13 1006 93 10000 1 130 00:31 30.08.2020
4459 Clear 15 1005 82 10000 2.1 170 22:36 29.08.2020
4460 Clear 18 1004 72 10000 2.1 200 20:28 29.08.2020
4461 Clouds 20 1004 59 10000 4.6 220 18:49 29.08.2020
4462 Clouds 20 1003 60 10000 4.6 220 17:56 29.08.2020
4463 Clouds 20 1003 63 10000 5.1 210 16:51 29.08.2020
4464 Clouds 20 1003 60 10000 5.1 200 15:56 29.08.2020
4465 Clouds 19 1003 68 10000 4.6 230 12:50 29.08.2020
4466 Clouds 14 1001 87 10000 4.6 200 09:24 29.08.2020
4467 Clear 13 1001 87 10000 2.6 180 08:19 29.08.2020
4468 Clouds 15 1000 77 10000 3.6 300 23:35 28.08.2020
4469 Clouds 17 999 72 10000 1.5 210 21:32 28.08.2020
4470 Clouds 20 999 56 10000 2.6 200 19:41 28.08.2020
4471 Clouds 21 999 56 10000 3.6 210 19:18 28.08.2020
4472 Clouds 21 1000 68 10000 3.6 240 17:37 28.08.2020
4473 Rain 21 1000 64 10000 4.1 220 16:25 28.08.2020
4474 Clouds 21 1001 60 10000 6.7 230 14:48 28.08.2020
4475 Clouds 21 1001 52 10000 7.7 230 14:26 28.08.2020
4476 Clouds 21 1000 64 10000 6.2 220 13:52 28.08.2020
4477 Clouds 18 1001 77 10000 4.6 210 11:33 28.08.2020
4478 Clouds 15 1001 87 10000 4.6 140 09:30 28.08.2020
4479 Clouds 14 1002 87 10000 4.1 130 08:44 28.08.2020
4480 Rain 14 1003 87 10000 4.6 120 06:23 28.08.2020
4481 Rain 14 1003 87 10000 4.6 110 05:38 28.08.2020
4482 Clouds 15 1010 82 10000 2.6 90 23:41 27.08.2020
4483 Clouds 14 1011 87 10000 2.6 90 22:46 27.08.2020
4484 Clouds 16 1012 77 10000 1 70 20:55 27.08.2020
4485 Clouds 18 1012 72 10000 1.09 36 19:47 27.08.2020
4486 Clouds 19 1013 63 10000 2.1 260 18:49 27.08.2020
4487 Clouds 20 1014 59 10000 3.6 260 17:24 27.08.2020
4488 Clouds 19 1014 63 10000 4.1 270 16:44 27.08.2020
4489 Clouds 19 1015 63 10000 4.6 280 13:57 27.08.2020
4490 Clouds 19 1015 63 10000 4.6 280 13:23 27.08.2020
4491 Clouds 17 1015 72 10000 6.2 280 11:19 27.08.2020
4492 Clouds 15 1015 82 10000 5.7 270 09:28 27.08.2020
4493 Clouds 14 1015 87 10000 5.1 260 08:43 27.08.2020
4494 Clouds 14 1013 93 10000 5.7 260 04:44 27.08.2020
4495 Rain 16 1009 93 10000 9.3 260 23:45 26.08.2020
4496 Rain 16 1008 93 7000 9.8 260 22:29 26.08.2020
4497 Rain 17 1006 93 10000 6.7 250 20:37 26.08.2020
4498 Clouds 17 1006 88 10000 5.7 260 19:57 26.08.2020
4499 Clouds 18 1003 88 10000 8.2 250 17:43 26.08.2020
4500 Drizzle 17 1000 88 5000 11.8 240 14:59 26.08.2020
4501 Drizzle 17 1000 93 3200 10.3 240 14:39 26.08.2020
4502 Drizzle 16 998 93 7000 10.8 230 11:47 26.08.2020
4503 Drizzle 15 997 93 8000 9.8 220 08:59 26.08.2020
4504 Rain 16 1001 87 10000 3.6 150 00:25 26.08.2020
4505 Rain 16 1002 93 10000 5.7 160 21:53 25.08.2020
4506 Rain 17 1003 82 10000 6.7 160 21:23 25.08.2020
4507 Clouds 17 1004 88 10000 4.6 150 20:42 25.08.2020
4508 Clouds 17 1004 88 10000 4.6 150 20:20 25.08.2020
4509 Rain 17 1005 88 10000 4.6 160 19:42 25.08.2020
4510 Rain 17 1006 88 10000 5.1 130 18:35 25.08.2020
4511 Clouds 18 1008 77 10000 4.1 140 16:58 25.08.2020
4512 Rain 19 1009 77 10000 5.1 180 15:50 25.08.2020
4513 Clouds 20 1010 60 10000 5.7 160 14:42 25.08.2020
4514 Rain 20 1011 63 10000 5.1 160 13:24 25.08.2020
4515 Clouds 17 1012 72 10000 4.1 160 11:36 25.08.2020
4516 Clouds 13 1013 93 10000 1 0 08:57 25.08.2020
4517 Fog 11 1013 100 500 0.5 0 07:47 25.08.2020
4518 Fog 10 1013 100 450 1 0 07:21 25.08.2020
4519 Fog 11 1013 100 700 1 230 06:41 25.08.2020
4520 Fog 11 1013 100 600 1 190 05:55 25.08.2020
4521 Fog 11 1013 100 900 0.5 250 05:33 25.08.2020
4522 Clear 12 1014 100 9000 1 260 03:51 25.08.2020
4523 Clear 12 1013 100 10000 2.1 260 03:33 25.08.2020
4524 Clear 12 1013 100 10000 2.1 260 02:48 25.08.2020
4525 Clouds 14 1013 93 10000 3.1 210 23:30 24.08.2020
4526 Clouds 14 1013 93 10000 1 220 21:51 24.08.2020
4527 Rain 14 1013 93 10000 2.1 190 21:18 24.08.2020
4528 Rain 15 1013 87 10000 3.6 310 20:21 24.08.2020
4529 Rain 17 1012 72 10000 4.6 250 19:32 24.08.2020
4530 Rain 19 1012 72 8000 6.7 230 17:36 24.08.2020
4531 Clouds 19 1012 77 10000 5.1 220 16:35 24.08.2020
4532 Clouds 19 1012 68 10000 6.2 250 15:24 24.08.2020
4533 Clouds 19 1012 68 10000 6.2 240 14:52 24.08.2020
4534 Clouds 19 1012 68 10000 7.2 240 14:25 24.08.2020
4535 Clouds 19 1013 77 10000 7.2 250 12:46 24.08.2020
4536 Clouds 18 1013 77 10000 7.2 250 12:20 24.08.2020
4537 Clouds 16 1013 87 10000 6.7 230 11:45 24.08.2020
4538 Clouds 16 1013 87 10000 6.7 230 11:23 24.08.2020
4539 Clouds 15 1012 93 10000 5.7 220 09:58 24.08.2020
4540 Clouds 15 1012 87 10000 3.6 210 08:28 24.08.2020
4541 Clouds 14 1012 93 10000 3.1 210 07:27 24.08.2020
4542 Clouds 14 1014 87 10000 3.1 250 00:31 24.08.2020
4543 Clouds 14 1014 93 10000 3.1 230 23:55 23.08.2020
4544 Clouds 14 1014 93 10000 2.6 230 23:35 23.08.2020
4545 Clouds 17 1013 88 10000 3.1 230 20:50 23.08.2020
4546 Rain 18 1013 88 10000 4.1 240 19:37 23.08.2020
4547 Clouds 17 1013 88 10000 4.1 230 18:36 23.08.2020
4548 Clouds 17 1013 88 10000 4.6 230 17:47 23.08.2020
4549 Rain 19 1012 68 10000 7.2 240 16:34 23.08.2020
4550 Rain 21 1012 68 10000 8.2 240 14:57 23.08.2020
4551 Clouds 20 1013 72 10000 8.2 240 14:27 23.08.2020
4552 Rain 19 1013 82 9000 8.2 240 13:19 23.08.2020
4553 Clouds 19 1012 72 10000 6.7 240 10:55 23.08.2020
4554 Clouds 19 1012 72 10000 8.2 240 10:30 23.08.2020
4555 Clouds 16 1012 77 10000 5.1 230 07:57 23.08.2020
4556 Clouds 16 1012 77 10000 4.6 220 06:36 23.08.2020
4557 Clouds 16 1013 82 10000 4.1 220 00:37 23.08.2020
4558 Clouds 17 1013 82 10000 4.1 220 00:19 23.08.2020
4559 Clouds 16 1013 87 10000 3.6 220 23:21 22.08.2020
4560 Clouds 16 1013 87 10000 3.6 220 23:21 22.08.2020
4561 Clouds 17 1013 82 10000 4.1 230 22:30 22.08.2020
4562 Clouds 17 1013 88 10000 3.6 210 19:55 22.08.2020
4563 Rain 17 1013 93 6000 7.2 310 18:31 22.08.2020
4564 Clouds 21 1012 47 10000 7.7 230 17:43 22.08.2020
4565 Rain 24 1012 47 10000 8.2 220 16:57 22.08.2020
4566 Clouds 25 1012 56 10000 7.7 220 13:49 22.08.2020
4567 Clouds 23 1012 60 10000 8.2 230 13:31 22.08.2020
4568 Clouds 23 1012 64 10000 7.2 230 11:47 22.08.2020
4569 Clouds 21 1012 73 10000 5.7 240 10:28 22.08.2020
4570 Clouds 20 1012 88 10000 2.1 220 09:22 22.08.2020
4571 Clouds 17 1011 100 10000 1.5 150 03:36 22.08.2020
4572 Clouds 21 1010 94 10000 2.1 270 23:30 21.08.2020
4573 Clouds 24 1009 88 10000 2.6 190 21:28 21.08.2020
4574 Rain 27 1008 58 10000 4.6 160 19:59 21.08.2020
4575 Rain 27 1008 57 10000 6.7 160 16:52 21.08.2020
4576 Clouds 24 1009 83 10000 4.1 160 14:39 21.08.2020
4577 Rain 22 1008 88 10000 2.6 120 13:37 21.08.2020
4578 Rain 22 1009 78 10000 2.1 250 11:25 21.08.2020
4579 Rain 21 1007 88 10000 6.7 120 09:26 21.08.2020
4580 Rain 21 1007 88 10000 3.6 80 07:25 21.08.2020
4581 Rain 23 1009 78 10000 3.6 110 00:19 21.08.2020
4582 Clouds 23 1009 73 10000 2.6 120 22:41 20.08.2020
4583 Clouds 25 1009 73 10000 2.1 140 20:38 20.08.2020
4584 Clouds 27 1009 65 10000 4.1 190 18:30 20.08.2020
4585 Clouds 27 1009 61 10000 3.6 210 17:35 20.08.2020
4586 Clouds 27 1009 65 10000 3.1 210 14:56 20.08.2020
4587 Clouds 25 1009 78 10000 5.1 260 13:43 20.08.2020
4588 Clouds 24 1008 73 10000 4.1 200 11:48 20.08.2020
4589 Clouds 24 1007 64 10000 4.6 200 11:30 20.08.2020
4590 Clouds 21 1007 73 10000 2.1 150 09:55 20.08.2020
4591 Clouds 20 1007 72 10000 2.6 140 08:49 20.08.2020
4592 Rain 20 1006 77 10000 2.6 130 07:44 20.08.2020
4593 Clouds 20 1006 68 10000 2.6 130 04:53 20.08.2020
4594 Clouds 19 1006 68 10000 3.6 130 04:26 20.08.2020
4595 Clouds 20 1007 68 10000 3.1 110 00:43 20.08.2020
4596 Clouds 21 1007 60 10000 2.6 110 22:47 19.08.2020
4597 Clouds 23 1008 56 10000 2.6 120 20:52 19.08.2020
4598 Clouds 27 1008 50 10000 3.1 140 18:39 19.08.2020
4599 Clouds 26 1009 50 10000 3.1 150 17:54 19.08.2020
4600 Clouds 26 1009 47 10000 3.1 150 17:33 19.08.2020
4601 Clouds 25 1009 57 10000 3.1 170 15:38 19.08.2020
4602 Clouds 24 1010 56 10000 2.1 190 13:53 19.08.2020
4603 Clouds 24 1010 60 10000 4.1 150 12:36 19.08.2020
4604 Clear 21 1011 68 10000 1.5 180 10:37 19.08.2020
4605 Clear 19 1011 77 10000 1 0 09:50 19.08.2020
4606 Clouds 19 1011 82 9000 0.5 0 09:28 19.08.2020
4607 Fog 14 1010 100 500 0.5 0 05:54 19.08.2020
4608 Clouds 18 1010 93 8000 1.5 240 22:20 18.08.2020
4609 Clouds 19 1010 93 10000 1 0 21:47 18.08.2020
4610 Thunderstorm 21 1010 77 10000 6.7 290 20:58 18.08.2020
4611 Thunderstorm 22 1009 60 10000 3.6 290 20:40 18.08.2020
4612 Thunderstorm 22 1009 60 10000 3.6 290 20:22 18.08.2020
4613 Clouds 25 1009 53 10000 1.5 240 17:48 18.08.2020
4614 Clouds 25 1009 53 10000 1.5 0 17:21 18.08.2020
4615 Rain 23 1009 64 10000 3.1 200 15:53 18.08.2020
4616 Clouds 24 1009 60 10000 3.6 210 14:37 18.08.2020
4617 Clouds 23 1010 64 10000 3.6 240 13:21 18.08.2020
4618 Clouds 22 1010 68 10000 3.6 230 12:20 18.08.2020
4619 Clouds 20 1010 82 10000 1.5 250 09:56 18.08.2020
4620 Fog 17 1009 100 8000 0.5 90 08:18 18.08.2020
4621 Fog 15 1009 100 150 0.5 0 07:34 18.08.2020
4622 Fog 17 1010 100 3800 2.1 140 01:58 18.08.2020
4623 Fog 18 1010 100 5000 1.4 220 23:46 17.08.2020
4624 Clouds 18 1010 100 10000 0.5 110 23:22 17.08.2020
4625 Clouds 18 1009 100 10000 0.5 110 21:47 17.08.2020
4626 Rain 19 1009 93 10000 0.5 170 20:28 17.08.2020
4627 Rain 19 1009 93 10000 0.5 0 19:24 17.08.2020
4628 Rain 20 1009 93 8000 2.1 230 17:29 17.08.2020
4629 Thunderstorm 21 1009 88 10000 2.1 120 15:37 17.08.2020
4630 Clouds 21 1009 88 10000 3.1 150 14:56 17.08.2020
4631 Clouds 21 1009 88 10000 2.1 110 13:47 17.08.2020
4632 Clouds 19 1009 93 10000 2.6 250 11:58 17.08.2020
4633 Rain 18 1009 93 10000 1.5 160 11:39 17.08.2020
4634 Rain 18 1009 93 10000 1.5 160 11:20 17.08.2020
4635 Thunderstorm 18 1009 93 10000 3.6 30 10:19 17.08.2020
4636 Thunderstorm 19 1009 88 4000 1.5 70 07:33 17.08.2020
4637 Thunderstorm 19 1009 77 10000 1.5 110 06:46 17.08.2020
4638 Rain 22 1010 78 10000 2.6 90 23:33 16.08.2020
4639 Clouds 23 1010 69 10000 3.1 90 22:18 16.08.2020
4640 Rain 25 1010 65 10000 3.6 90 20:19 16.08.2020
4641 Rain 28 1009 69 10000 2.86 138 18:38 16.08.2020
4642 Clear 30 1010 52 10000 3.95 132 17:40 16.08.2020
4643 Clear 30 1009 36 10000 0.89 114 16:34 16.08.2020
4644 Clear 31 1012 54 10000 0.89 202 15:23 16.08.2020
4645 Clear 30 1012 54 10000 0.89 202 14:55 16.08.2020
4646 Rain 29 1011 50 10000 0.89 152 12:32 16.08.2020
4647 Clouds 28 1012 64 10000 0.89 135 11:58 16.08.2020
4648 Clouds 27 1012 69 10000 1.34 169 11:24 16.08.2020
4649 Clouds 26 1012 77 10000 0.45 156 10:51 16.08.2020
4650 Clouds 24 1012 95 10000 3.24 127 09:46 16.08.2020
4651 Mist 20 1013 94 4000 0.5 0 08:27 16.08.2020
4652 Fog 17 1013 100 300 0.5 0 07:21 16.08.2020
4653 Clouds 18 1013 100 10000 1.5 60 04:39 16.08.2020
4654 Clouds 21 1014 83 10000 2.1 50 22:48 15.08.2020
4655 Clouds 24 1013 73 10000 1 230 20:39 15.08.2020
4656 Clouds 25 1014 73 10000 1.5 250 20:21 15.08.2020
4657 Clouds 27 1013 65 10000 1.5 180 19:19 15.08.2020
4658 Thunderstorm 27 1014 65 10000 3.1 60 16:49 15.08.2020
4659 Thunderstorm 29 1014 69 10000 4.1 260 16:20 15.08.2020
4660 Clouds 27 1014 58 10000 1.5 0 14:51 15.08.2020
4661 Rain 28 1015 61 10000 2.1 210 13:25 15.08.2020
4662 Rain 26 1015 65 10000 2.1 170 12:31 15.08.2020
4663 Rain 25 1015 69 10000 1 0 11:31 15.08.2020
4664 Rain 25 1015 69 10000 1 0 11:31 15.08.2020
4665 Rain 25 1015 69 10000 1 0 11:31 15.08.2020
4666 Rain 25 1015 69 10000 1 0 11:31 15.08.2020
4667 Rain 23 1015 77 10000 1 0 10:51 15.08.2020
4668 Rain 22 1015 77 10000 1 0 10:33 15.08.2020
4669 Clouds 21 1014 73 10000 2.1 50 09:32 15.08.2020
4670 Clouds 21 1014 73 10000 2.1 50 09:32 15.08.2020
4671 Clouds 21 1014 73 10000 2.1 50 09:32 15.08.2020
4672 Clouds 20 1014 88 10000 1 0 08:30 15.08.2020
4673 Fog 19 1013 100 10000 1.5 250 05:56 15.08.2020
4674 Rain 21 1013 100 2500 6.2 160 01:57 15.08.2020
4675 Clouds 22 1013 83 10000 2.1 230 23:52 14.08.2020
4676 Rain 23 1013 78 10000 2.1 200 22:27 14.08.2020
4677 Clouds 25 1012 69 10000 4.1 230 20:37 14.08.2020
4678 Clouds 27 1012 51 10000 2.1 300 18:49 14.08.2020
4679 Clouds 28 1012 51 10000 1.5 220 15:53 14.08.2020
4680 Clouds 28 1012 54 10000 3.1 330 14:53 14.08.2020
4681 Clouds 28 1012 58 10000 3.1 10 13:58 14.08.2020
4682 Rain 28 1012 61 10000 3.6 340 13:27 14.08.2020
4683 Clouds 26 1012 65 10000 4.1 310 11:21 14.08.2020
4684 Rain 22 1012 73 10000 2.1 280 08:54 14.08.2020
4685 Clouds 19 1011 82 10000 1 150 06:29 14.08.2020
4686 Rain 23 1012 60 10000 3.1 60 00:49 14.08.2020
4687 Clouds 23 1012 60 10000 3.6 50 00:27 14.08.2020
4688 Clouds 26 1012 54 10000 4.6 60 22:38 13.08.2020
4689 Clouds 26 1011 54 10000 3.1 70 21:47 13.08.2020
4690 Clouds 28 1011 48 10000 3.6 60 21:18 13.08.2020
4691 Clouds 29 1011 48 10000 3.1 60 20:19 13.08.2020
4692 Rain 31 1011 42 10000 4.6 60 18:30 13.08.2020
4693 Clouds 31 1012 38 10000 3.1 0 17:23 13.08.2020
4694 Clouds 30 1012 40 10000 4.6 100 15:24 13.08.2020
4695 Clouds 29 1013 45 10000 4.1 50 12:56 13.08.2020
4696 Clouds 29 1013 45 10000 4.1 50 12:31 13.08.2020
4697 Clouds 27 1013 47 10000 4.6 60 11:28 13.08.2020
4698 Clouds 21 1014 56 10000 4.6 70 08:43 13.08.2020
4699 Clouds 20 1014 64 10000 3.6 80 07:36 13.08.2020
4700 Clouds 24 1015 44 10000 4.1 90 23:37 12.08.2020
4701 Clouds 26 1015 42 10000 4.1 80 22:45 12.08.2020
4702 Clouds 27 1014 39 10000 4.6 80 22:18 12.08.2020
4703 Clear 28 1014 39 10000 5.1 80 21:29 12.08.2020
4704 Clear 30 1014 35 10000 3.1 80 20:55 12.08.2020
4705 Clear 30 1014 35 10000 3.1 80 20:37 12.08.2020
4706 Clouds 30 1014 30 10000 4.1 90 20:19 12.08.2020
4707 Clouds 32 1014 27 10000 4.6 100 18:53 12.08.2020
4708 Clouds 32 1015 29 10000 5.7 100 17:32 12.08.2020
4709 Clear 32 1016 27 10000 6.2 100 15:25 12.08.2020
4710 Clear 32 1016 29 10000 5.7 100 14:52 12.08.2020
4711 Clouds 31 1017 31 10000 7.2 110 13:42 12.08.2020
4712 Clouds 31 1017 38 10000 6.2 130 12:32 12.08.2020
4713 Clouds 26 1017 51 10000 4.6 100 10:54 12.08.2020
4714 Clouds 24 1017 57 10000 4.1 110 09:43 12.08.2020
4715 Clouds 23 1018 56 10000 4.6 80 01:57 12.08.2020
4716 Clouds 25 1018 47 10000 5.1 80 23:38 11.08.2020
4717 Clouds 27 1017 42 10000 5.1 90 22:22 11.08.2020
4718 Clouds 28 1017 42 10000 5.1 80 21:50 11.08.2020
4719 Clear 28 1017 39 10000 5.7 80 21:20 11.08.2020
4720 Clear 31 1016 35 10000 6.7 80 19:37 11.08.2020
4721 Clear 33 1016 27 10000 4.6 110 18:54 11.08.2020
4722 Clear 33 1016 27 10000 6.2 100 17:50 11.08.2020
4723 Clear 32 1017 29 10000 5.1 110 16:27 11.08.2020
4724 Clear 32 1017 29 10000 6.2 100 15:23 11.08.2020
4725 Clear 32 1017 31 10000 6.7 90 14:51 11.08.2020
4726 Clear 31 1018 35 10000 6.7 110 13:51 11.08.2020
4727 Clear 31 1018 45 10000 5.7 90 12:33 11.08.2020
4728 Clear 28 1018 54 10000 4.6 70 11:48 11.08.2020
4729 Clear 27 1018 61 10000 3.6 70 10:55 11.08.2020
4730 Clouds 24 1018 69 10000 4.1 80 09:40 11.08.2020
4731 Clear 20 1018 77 10000 4.1 80 07:31 11.08.2020
4732 Clear 19 1018 77 10000 4.1 70 05:50 11.08.2020
4733 Clear 20 1018 77 10000 3.6 70 03:20 11.08.2020
4734 Clear 20 1018 77 10000 3.6 80 02:51 11.08.2020
4735 Clear 21 1018 77 10000 4.1 70 02:21 11.08.2020
4736 Clear 21 1017 77 10000 3.6 80 00:35 11.08.2020
4737 Clear 23 1017 69 10000 4.1 80 23:30 10.08.2020
4738 Clear 23 1016 64 10000 3.6 70 21:44 10.08.2020
4739 Clouds 26 1016 57 10000 3.6 70 20:55 10.08.2020
4740 Clouds 28 1016 54 10000 5.1 70 19:42 10.08.2020
4741 Clouds 28 1016 51 10000 3.1 40 19:20 10.08.2020
4742 Clouds 28 1016 57 10000 4.6 30 18:44 10.08.2020
4743 Clouds 33 1016 36 10000 2.6 180 15:55 10.08.2020
4744 Clear 32 1016 35 10000 2.1 0 15:29 10.08.2020
4745 Clear 30 1016 42 10000 2.1 90 12:56 10.08.2020
4746 Clear 28 1017 51 10000 2.1 0 11:32 10.08.2020
4747 Clear 27 1017 57 10000 1.5 150 10:39 10.08.2020
4748 Clear 24 1017 65 10000 1 0 09:48 10.08.2020
4749 Clear 21 1017 73 10000 3.1 80 08:44 10.08.2020
4750 Rain 24 1017 50 10000 1.5 60 23:19 09.08.2020
4751 Rain 27 1017 47 10000 4.6 50 21:45 09.08.2020
4752 Rain 29 1017 45 10000 5.1 40 19:49 09.08.2020
4753 Clouds 30 1017 45 10000 6.2 50 19:27 09.08.2020
4754 Clouds 30 1017 42 10000 6.2 30 18:22 09.08.2020
4755 Clouds 31 1017 42 10000 6.2 30 17:41 09.08.2020
4756 Clouds 31 1017 40 10000 5.7 40 17:21 09.08.2020
4757 Clouds 29 1018 51 10000 4.6 30 15:24 09.08.2020
4758 Clouds 28 1018 48 10000 4.6 40 14:37 09.08.2020
4759 Clouds 29 1018 48 10000 4.1 30 13:39 09.08.2020
4760 Clouds 28 1019 48 10000 3.6 40 12:55 09.08.2020
4761 Rain 27 1019 51 10000 4.1 50 12:21 09.08.2020
4762 Clouds 26 1019 57 10000 3.6 70 10:52 09.08.2020
4763 Clouds 24 1019 64 10000 2.6 60 09:19 09.08.2020
4764 Clouds 23 1019 60 10000 2.6 50 08:31 09.08.2020
4765 Clouds 21 1019 73 10000 1.5 30 05:42 09.08.2020
4766 Clouds 23 1019 60 10000 2.6 60 00:51 09.08.2020
4767 Clouds 29 1019 42 10000 5.1 20 20:56 08.08.2020
4768 Clouds 32 1018 36 10000 5.7 20 18:28 08.08.2020
4769 Clouds 33 1018 36 10000 5.7 20 17:51 08.08.2020
4770 Clouds 34 1018 34 10000 4.6 340 16:34 08.08.2020
4771 Clouds 33 1019 32 10000 2.1 0 15:50 08.08.2020
4772 Clouds 33 1019 33 10000 3.1 20 14:49 08.08.2020
4773 Clouds 33 1019 32 10000 2.1 0 14:25 08.08.2020
4774 Clouds 32 1020 40 10000 3.1 60 12:44 08.08.2020
4775 Clouds 30 1020 45 10000 2.6 40 11:46 08.08.2020
4776 Clouds 20 1020 82 10000 1 70 07:52 08.08.2020
4777 Clouds 19 1020 93 10000 1 80 07:34 08.08.2020
4778 Clear 20 1020 82 10000 0.5 70 02:25 08.08.2020
4779 Clear 27 1019 47 10000 2.6 60 22:24 07.08.2020
4780 Clear 27 1019 44 10000 2.1 60 21:35 07.08.2020
4781 Clear 30 1019 33 10000 1.5 120 20:48 07.08.2020
4782 Clouds 32 1019 31 10000 2.6 120 18:50 07.08.2020
4783 Clouds 32 1020 26 10000 2.1 0 17:21 07.08.2020
4784 Clear 31 1020 24 10000 1.5 0 14:55 07.08.2020
4785 Clear 31 1021 29 10000 3.6 110 13:29 07.08.2020
4786 Clear 31 1021 30 10000 3.6 110 12:47 07.08.2020
4787 Clear 27 1021 42 10000 2.1 100 10:44 07.08.2020
4788 Clear 23 1022 50 10000 1.5 130 09:51 07.08.2020
4789 Clear 15 1021 77 10000 1.5 70 07:20 07.08.2020
4790 Clear 17 1021 68 10000 0.5 0 02:30 07.08.2020
4791 Clear 19 1021 72 10000 1.5 80 01:21 07.08.2020
4792 Clear 21 1020 64 10000 1 0 23:21 06.08.2020
4793 Clear 23 1020 44 10000 0.5 0 21:46 06.08.2020
4794 Clear 28 1019 30 10000 1 130 20:41 06.08.2020
4795 Clouds 30 1019 30 10000 2.1 140 19:47 06.08.2020
4796 Clouds 30 1019 29 10000 1.5 120 19:21 06.08.2020
4797 Clouds 31 1019 27 10000 2.1 180 18:29 06.08.2020
4798 Clouds 31 1019 27 10000 3.1 0 17:36 06.08.2020
4799 Clouds 31 1019 29 10000 3.1 170 16:50 06.08.2020
4800 Clouds 31 1019 27 10000 3.6 170 15:41 06.08.2020
4801 Clouds 30 1019 28 10000 3.6 180 14:44 06.08.2020
4802 Clouds 30 1020 30 10000 5.1 170 13:29 06.08.2020
4803 Clouds 28 1020 37 10000 2.6 190 12:23 06.08.2020
4804 Clouds 27 1019 34 10000 2.6 200 11:32 06.08.2020
4805 Clear 24 1019 47 10000 2.6 160 09:45 06.08.2020
4806 Clear 19 1019 60 10000 2.1 150 08:55 06.08.2020
4807 Clear 19 1019 60 10000 2.1 150 08:34 06.08.2020
4808 Clear 18 1018 67 10000 2.1 120 07:37 06.08.2020
4809 Clear 17 1017 63 10000 2.1 130 01:53 06.08.2020
4810 Clear 19 1017 59 10000 0.5 0 23:36 05.08.2020
4811 Clear 19 1016 68 10000 2.1 140 22:56 05.08.2020
4812 Clear 21 1016 56 10000 1.5 140 22:20 05.08.2020
4813 Clear 24 1016 41 10000 2.1 140 21:32 05.08.2020
4814 Clear 26 1016 36 10000 2.1 210 20:42 05.08.2020
4815 Clear 27 1015 34 10000 3.1 190 19:35 05.08.2020
4816 Clear 28 1015 30 10000 4.6 220 18:34 05.08.2020
4817 Clear 28 1015 30 10000 4.6 210 17:29 05.08.2020
4818 Clear 27 1015 30 10000 5.1 230 15:48 05.08.2020
4819 Clouds 27 1015 32 10000 7.2 220 15:30 05.08.2020
4820 Clouds 27 1015 32 10000 7.2 230 14:48 05.08.2020
4821 Clouds 26 1016 31 10000 7.2 230 14:23 05.08.2020
4822 Clouds 26 1016 34 10000 6.7 200 13:19 05.08.2020
4823 Clouds 24 1016 38 10000 7.7 210 12:21 05.08.2020
4824 Clouds 23 1016 43 10000 5.1 210 10:55 05.08.2020
4825 Clouds 22 1016 46 10000 5.1 200 10:21 05.08.2020
4826 Clouds 22 1016 46 10000 5.1 200 10:21 05.08.2020
4827 Clouds 21 1016 46 10000 6.2 190 09:47 05.08.2020
4828 Clouds 15 1015 77 10000 3.1 170 07:54 05.08.2020
4829 Clouds 15 1015 77 10000 3.1 170 07:33 05.08.2020
4830 Clouds 15 1016 82 10000 1.5 120 01:27 05.08.2020
4831 Clouds 14 1016 82 10000 1 140 23:56 04.08.2020
4832 Clouds 14 1016 82 10000 1 140 23:38 04.08.2020
4833 Clouds 15 1017 77 10000 1.5 50 23:20 04.08.2020
4834 Clouds 15 1017 72 10000 2.1 40 22:30 04.08.2020
4835 Clouds 16 1016 67 10000 2.6 30 21:58 04.08.2020
4836 Clouds 19 1016 55 10000 2.1 300 20:35 04.08.2020
4837 Clouds 21 1016 49 10000 2.6 300 19:30 04.08.2020
4838 Clouds 21 1016 52 10000 4.6 310 18:33 04.08.2020
4839 Clouds 21 1016 52 10000 3.1 280 17:31 04.08.2020
4840 Clouds 20 1016 55 10000 4.1 300 16:25 04.08.2020
4841 Clouds 20 1016 55 10000 6.2 300 15:36 04.08.2020
4842 Clouds 22 1016 46 10000 3.6 280 14:51 04.08.2020
4843 Clouds 21 1016 46 10000 4.6 300 13:46 04.08.2020
4844 Clouds 19 1016 59 10000 4.1 290 11:35 04.08.2020
4845 Clouds 18 1016 67 10000 2.1 300 10:57 04.08.2020
4846 Clouds 18 1016 67 10000 2.1 300 10:35 04.08.2020
4847 Clouds 16 1016 72 10000 2.1 260 09:36 04.08.2020
4848 Clouds 12 1015 93 10000 2.1 250 07:32 04.08.2020
4849 Fog 10 1014 100 400 1 240 06:47 04.08.2020
4850 Clouds 15 1013 77 10000 2.6 350 22:59 03.08.2020
4851 Clouds 16 1013 72 10000 3.6 340 22:23 03.08.2020
4852 Clouds 16 1013 72 10000 4.1 340 21:28 03.08.2020
4853 Rain 17 1012 59 10000 3.6 320 20:57 03.08.2020
4854 Rain 18 1012 55 10000 3.6 330 20:22 03.08.2020
4855 Clouds 18 1012 59 10000 4.1 340 19:41 03.08.2020
4856 Clouds 19 1012 55 10000 3.1 310 18:34 03.08.2020
4857 Clouds 19 1012 52 10000 5.1 300 17:57 03.08.2020
4858 Clouds 19 1013 45 10000 5.1 320 16:45 03.08.2020
4859 Clouds 19 1013 52 10000 6.7 340 15:47 03.08.2020
4860 Clouds 22 1013 43 10000 4.1 310 14:31 03.08.2020
4861 Clouds 23 1013 40 10000 4.1 300 13:48 03.08.2020
4862 Clouds 21 1013 52 10000 3.6 270 12:41 03.08.2020
4863 Clouds 20 1014 52 10000 2.6 310 11:34 03.08.2020
4864 Clouds 18 1014 63 10000 2.1 320 10:25 03.08.2020
4865 Clouds 16 1014 77 10000 1.5 250 09:26 03.08.2020
4866 Fog 10 1014 100 800 1 220 06:23 03.08.2020
4867 Clouds 12 1014 93 10000 1 210 02:23 03.08.2020
4868 Clouds 13 1015 93 10000 1 0 01:51 03.08.2020
4869 Clouds 13 1015 93 10000 2.6 290 00:45 03.08.2020
4870 Clouds 17 1014 68 10000 5.1 300 21:49 02.08.2020
4871 Clouds 19 1014 59 10000 7.2 310 21:22 02.08.2020
4872 Clouds 19 1013 59 10000 6.2 300 20:38 02.08.2020
4873 Clouds 20 1013 56 10000 5.7 310 20:18 02.08.2020
4874 Clouds 20 1013 56 10000 5.7 310 20:18 02.08.2020
4875 Clouds 20 1013 60 10000 6.7 320 19:41 02.08.2020
4876 Clouds 21 1013 64 10000 7.2 320 18:55 02.08.2020
4877 Clouds 21 1013 64 10000 7.2 320 18:36 02.08.2020
4878 Clouds 21 1013 72 10000 9.3 310 16:45 02.08.2020
4879 Clouds 24 1012 47 10000 4.1 260 15:19 02.08.2020
4880 Clouds 25 1012 47 10000 4.6 240 14:46 02.08.2020
4881 Clouds 25 1013 53 10000 4.1 260 13:58 02.08.2020
4882 Clouds 25 1013 50 10000 4.6 250 13:28 02.08.2020
4883 Clouds 24 1013 53 10000 4.1 250 12:48 02.08.2020
4884 Clouds 22 1013 60 10000 3.6 250 11:34 02.08.2020
4885 Clouds 21 1013 64 10000 3.1 250 10:51 02.08.2020
4886 Clouds 21 1013 64 10000 3.1 250 10:28 02.08.2020
4887 Clouds 19 1013 72 10000 2.1 240 09:26 02.08.2020
4888 Clouds 18 1013 77 10000 1.5 260 08:29 02.08.2020
4889 Clouds 16 1013 93 10000 1 260 07:52 02.08.2020
4890 Clouds 17 1014 88 10000 2.6 290 04:49 02.08.2020
4891 Clouds 20 1014 82 10000 3.1 300 02:27 02.08.2020
4892 Clouds 21 1014 77 10000 3.6 350 00:23 02.08.2020
4893 Clouds 22 1013 69 10000 3.1 10 22:50 01.08.2020
4894 Clouds 24 1013 64 10000 4.6 330 21:31 01.08.2020
4895 Clouds 25 1013 65 10000 5.1 330 20:25 01.08.2020
4896 Clouds 27 1012 65 10000 2.1 260 19:28 01.08.2020
4897 Clouds 28 1013 61 10000 1.5 290 18:41 01.08.2020
4898 Clouds 28 1013 57 10000 3.1 270 17:48 01.08.2020
4899 Clouds 28 1013 54 10000 3.6 230 16:38 01.08.2020
4900 Clouds 29 1013 51 10000 4.6 240 15:58 01.08.2020
4901 Clouds 28 1013 54 10000 5.1 220 15:23 01.08.2020
4902 Clouds 28 1013 54 10000 4.1 210 14:54 01.08.2020
4903 Clouds 28 1013 47 10000 6.2 220 13:24 01.08.2020
4904 Clouds 25 1013 57 10000 3.6 170 11:48 01.08.2020
4905 Clouds 24 1012 53 10000 4.6 120 10:56 01.08.2020
4906 Clear 19 1013 63 10000 3.6 110 07:43 01.08.2020
4907 Clear 18 1015 72 10000 3.1 90 03:21 01.08.2020
4908 Clouds 19 1015 68 10000 2.6 100 01:54 01.08.2020
4909 Clouds 19 1015 68 10000 2.6 100 01:33 01.08.2020
4910 Clouds 19 1016 72 10000 4.1 80 00:37 01.08.2020
4911 Clouds 21 1016 68 10000 3.1 80 22:49 31.07.2020
4912 Clouds 25 1016 53 10000 4.6 60 20:51 31.07.2020
4913 Clouds 25 1016 53 10000 4.6 60 20:29 31.07.2020
4914 Clouds 26 1016 50 10000 3.6 60 19:58 31.07.2020
4915 Clouds 27 1017 45 10000 3.1 50 18:39 31.07.2020
4916 Clouds 27 1017 44 10000 1.5 0 17:28 31.07.2020
4917 Clouds 27 1017 42 10000 2.1 0 16:39 31.07.2020
4918 Clouds 26 1018 44 10000 2.1 0 15:23 31.07.2020
4919 Clear 26 1018 44 10000 2.1 80 13:42 31.07.2020
4920 Clear 25 1018 44 10000 2.6 70 13:22 31.07.2020
4921 Clear 25 1019 44 10000 1.5 0 12:19 31.07.2020
4922 Clear 25 1019 44 10000 2.1 70 11:38 31.07.2020
4923 Clear 24 1019 46 10000 1 0 10:47 31.07.2020
4924 Clear 20 1019 56 10000 1 0 09:50 31.07.2020
4925 Clouds 19 1019 59 10000 1 0 09:25 31.07.2020
4926 Clouds 17 1019 63 10000 1.5 140 08:45 31.07.2020
4927 Clear 12 1019 82 10000 1 0 06:39 31.07.2020
4928 Clear 13 1019 87 10000 0.5 100 03:31 31.07.2020
4929 Clear 13 1019 87 10000 0.5 100 03:31 31.07.2020
4930 Clear 13 1019 87 10000 0.5 100 03:31 31.07.2020
4931 Clouds 14 1020 82 10000 1.5 80 01:50 31.07.2020
4932 Clouds 15 1020 82 10000 1 70 00:34 31.07.2020
4933 Clouds 16 1019 77 10000 1 80 23:47 30.07.2020
4934 Clouds 16 1020 67 10000 1 50 22:46 30.07.2020
4935 Clouds 18 1020 63 10000 1.5 80 22:21 30.07.2020
4936 Clouds 20 1019 56 10000 2.1 40 21:18 30.07.2020
4937 Clouds 21 1019 49 10000 1 0 20:54 30.07.2020
4938 Clouds 22 1020 46 10000 2.6 310 19:41 30.07.2020
4939 Clouds 23 1020 46 10000 4.1 320 18:54 30.07.2020
4940 Clouds 22 1020 43 10000 3.6 320 17:38 30.07.2020
4941 Clouds 22 1021 43 10000 3.6 300 16:55 30.07.2020
4942 Clouds 22 1021 43 10000 3.6 300 16:34 30.07.2020
4943 Clouds 22 1021 43 10000 3.1 290 15:55 30.07.2020
4944 Clouds 21 1021 43 10000 3.1 290 15:36 30.07.2020
4945 Clouds 21 1021 40 10000 3.6 310 14:56 30.07.2020
4946 Clouds 21 1021 40 10000 3.6 310 14:37 30.07.2020
4947 Clouds 21 1021 43 10000 3.1 300 14:19 30.07.2020
4948 Clouds 20 1021 45 10000 3.6 280 13:20 30.07.2020
4949 Clouds 20 1021 45 10000 3.6 280 13:20 30.07.2020
4950 Clouds 20 1021 45 10000 3.6 280 13:00 30.07.2020
4951 Clouds 20 1021 48 10000 2.6 290 12:31 30.07.2020
4952 Clouds 18 1022 52 10000 4.1 260 10:49 30.07.2020
4953 Clouds 18 1022 59 10000 5.1 270 10:25 30.07.2020
4954 Clouds 15 1022 67 10000 3.6 260 09:23 30.07.2020
4955 Clouds 15 1022 67 10000 3.6 260 08:59 30.07.2020
4956 Clouds 14 1021 76 10000 2.6 250 08:38 30.07.2020
4957 Clouds 9 1020 100 10000 1 0 05:23 30.07.2020
4958 Clouds 11 1020 93 10000 2.6 240 02:19 30.07.2020
4959 Clouds 11 1020 87 10000 2.1 260 01:22 30.07.2020
4960 Clouds 13 1020 71 10000 2.1 270 22:58 29.07.2020
4961 Clouds 15 1020 62 10000 3.1 300 22:22 29.07.2020
4962 Clouds 16 1019 59 10000 4.1 310 21:47 29.07.2020
4963 Clouds 17 1019 55 10000 4.1 320 21:19 29.07.2020
4964 Clouds 17 1019 59 10000 5.7 290 20:41 29.07.2020
4965 Clouds 18 1019 55 10000 6.7 290 19:57 29.07.2020
4966 Clouds 18 1019 55 10000 6.7 290 19:37 29.07.2020
4967 Clouds 18 1019 55 10000 6.7 280 19:19 29.07.2020
4968 Clouds 18 1019 55 10000 6.2 270 18:38 29.07.2020
4969 Clouds 20 1019 52 10000 6.2 280 18:18 29.07.2020
4970 Clouds 20 1019 48 10000 7.7 270 17:26 29.07.2020
4971 Clouds 20 1019 48 10000 7.7 290 16:35 29.07.2020
4972 Clouds 20 1018 42 10000 7.2 270 15:46 29.07.2020
4973 Clouds 19 1018 45 10000 9.8 280 15:21 29.07.2020
4974 Clouds 19 1018 55 10000 9.8 260 14:22 29.07.2020
4975 Clouds 19 1018 55 10000 7.2 260 13:56 29.07.2020
4976 Clouds 18 1018 59 10000 7.2 270 13:20 29.07.2020
4977 Clouds 18 1017 55 10000 7.2 260 12:29 29.07.2020
4978 Clouds 18 1017 55 10000 8.2 260 11:59 29.07.2020
4979 Clouds 18 1017 55 10000 8.2 260 11:38 29.07.2020
4980 Clouds 18 1017 59 10000 7.7 250 10:57 29.07.2020
4981 Clouds 18 1016 67 10000 8.2 250 09:52 29.07.2020
4982 Clouds 17 1016 67 10000 7.7 240 09:22 29.07.2020
4983 Clouds 16 1015 72 10000 7.2 240 08:21 29.07.2020
4984 Clouds 15 1015 72 10000 5.1 240 07:25 29.07.2020
4985 Clear 14 1014 76 10000 3.6 220 02:56 29.07.2020
4986 Clear 14 1014 76 10000 3.6 230 01:19 29.07.2020
4987 Clear 14 1014 76 10000 3.6 230 00:24 29.07.2020
4988 Clear 15 1013 67 10000 4.1 270 22:42 28.07.2020
4989 Clear 15 1013 67 10000 4.1 280 22:18 28.07.2020
4990 Clouds 17 1013 67 10000 7.2 290 21:33 28.07.2020
4991 Clouds 18 1012 52 10000 6.2 270 20:54 28.07.2020
4992 Clouds 19 1012 52 10000 6.2 270 20:29 28.07.2020
4993 Clouds 20 1012 49 10000 6.7 270 19:56 28.07.2020
4994 Clouds 21 1012 52 10000 7.2 280 19:24 28.07.2020
4995 Clouds 21 1012 52 10000 7.2 270 18:56 28.07.2020
4996 Clouds 21 1012 52 10000 7.2 270 18:36 28.07.2020
4997 Clouds 21 1011 46 10000 9.3 260 17:52 28.07.2020
4998 Rain 21 1011 56 10000 7.7 280 17:20 28.07.2020
4999 Rain 22 1011 49 10000 8.2 300 16:35 28.07.2020
5000 Rain 23 1010 40 10000 8.2 260 15:31 28.07.2020
5001 Clouds 23 1010 46 10000 7.2 260 14:51 28.07.2020
5002 Clouds 23 1010 46 10000 7.2 260 14:32 28.07.2020
5003 Clouds 22 1009 49 10000 7.7 260 13:41 28.07.2020
5004 Clouds 20 1009 64 10000 7.7 250 12:42 28.07.2020
5005 Clouds 19 1009 68 10000 7.2 260 12:21 28.07.2020
5006 Clouds 19 1008 68 10000 8.2 260 11:57 28.07.2020
5007 Clouds 18 1008 82 10000 7.2 270 11:19 28.07.2020
5008 Rain 18 1008 93 10000 5.7 230 10:43 28.07.2020
5009 Rain 18 1007 88 10000 5.1 230 10:20 28.07.2020
5010 Rain 18 1007 88 8000 6.2 230 09:39 28.07.2020
5011 Clouds 18 1007 82 10000 5.1 230 09:19 28.07.2020
5012 Clouds 19 1007 77 10000 6.2 230 08:40 28.07.2020
5013 Clouds 18 1006 82 10000 5.7 220 07:51 28.07.2020
5014 Clouds 18 1006 82 10000 5.1 220 07:19 28.07.2020
5015 Clouds 18 1005 82 10000 2.1 160 02:21 28.07.2020
5016 Clouds 18 1005 82 10000 2.1 160 02:21 28.07.2020
5017 Clouds 18 1005 77 10000 2.1 140 01:51 28.07.2020
5018 Clouds 18 1006 68 10000 4.6 130 00:57 28.07.2020
5019 Clouds 19 1006 63 10000 5.1 130 23:55 27.07.2020
5020 Rain 19 1007 60 10000 5.1 120 23:25 27.07.2020
5021 Rain 19 1007 68 10000 5.7 120 22:44 27.07.2020
5022 Clouds 19 1008 64 10000 4.6 120 22:21 27.07.2020
5023 Rain 19 1008 64 10000 3.1 120 21:46 27.07.2020
5024 Clouds 20 1009 68 10000 3.6 110 20:56 27.07.2020
5025 Clouds 20 1009 68 10000 3.6 110 20:56 27.07.2020
5026 Clouds 20 1009 68 10000 3.6 110 20:38 27.07.2020
5027 Clouds 20 1009 64 10000 3.1 120 20:20 27.07.2020
5028 Clouds 20 1010 73 10000 4.1 120 19:35 27.07.2020
5029 Clouds 20 1011 73 10000 4.1 140 18:57 27.07.2020
5030 Rain 20 1011 73 10000 1.5 100 17:52 27.07.2020
5031 Rain 20 1011 73 10000 1.5 100 17:33 27.07.2020
5032 Rain 19 1012 77 10000 2.6 180 17:00 27.07.2020
5033 Rain 20 1013 60 10000 3.6 170 16:24 27.07.2020
5034 Rain 21 1013 64 10000 4.1 180 15:51 27.07.2020
5035 Rain 21 1013 64 10000 4.1 180 15:32 27.07.2020
5036 Rain 22 1014 56 10000 5.1 170 14:56 27.07.2020
5037 Rain 22 1014 56 10000 5.1 170 14:37 27.07.2020
5038 Clouds 21 1014 60 10000 4.1 190 13:51 27.07.2020
5039 Clouds 21 1015 60 10000 3.6 190 13:28 27.07.2020
5040 Clouds 20 1015 64 10000 4.6 200 12:53 27.07.2020
5041 Clouds 20 1015 64 10000 4.6 200 12:34 27.07.2020
5042 Clouds 19 1015 68 10000 4.6 200 11:41 27.07.2020
5043 Clouds 19 1015 72 10000 4.1 190 11:19 27.07.2020
5044 Clouds 18 1015 77 10000 4.1 170 09:59 27.07.2020
5045 Clouds 17 1015 82 10000 2.6 140 09:41 27.07.2020
5046 Clouds 17 1015 82 10000 3.1 140 09:19 27.07.2020
5047 Clouds 17 1016 82 10000 2.6 150 08:54 27.07.2020
5048 Clouds 16 1016 82 10000 2.6 150 08:33 27.07.2020
5049 Clouds 15 1016 87 10000 1 150 07:48 27.07.2020
5050 Clouds 12 1016 100 10000 1 140 06:36 27.07.2020
5051 Clouds 12 1016 100 10000 1.5 140 04:30 27.07.2020
5052 Clouds 15 1016 87 10000 0.5 0 02:18 27.07.2020
5053 Clear 16 1015 87 10000 0.5 0 00:22 27.07.2020
5054 Clear 16 1015 82 10000 0.5 0 23:30 26.07.2020
5055 Clear 16 1014 72 10000 1 0 22:49 26.07.2020
5056 Clear 17 1014 72 10000 1 0 22:31 26.07.2020
5057 Clear 20 1013 63 10000 3.6 290 21:55 26.07.2020
5058 Clear 20 1013 63 10000 3.6 290 21:37 26.07.2020
5059 Clouds 20 1013 60 10000 4.6 280 21:18 26.07.2020
5060 Clouds 21 1013 68 10000 1.5 250 20:44 26.07.2020
5061 Clear 21 1012 64 10000 2.1 240 20:20 26.07.2020
5062 Clear 19 1012 68 10000 4.6 230 19:42 26.07.2020
5063 Clouds 20 1012 68 10000 6.2 220 19:20 26.07.2020
5064 Rain 20 1012 77 10000 5.1 210 18:45 26.07.2020
5065 Rain 22 1011 60 10000 4.6 270 18:25 26.07.2020
5066 Clouds 23 1011 49 10000 5.1 260 17:47 26.07.2020
5067 Clouds 24 1010 47 10000 5.7 280 17:23 26.07.2020
5068 Clouds 23 1010 47 10000 6.7 260 16:52 26.07.2020
5069 Clouds 23 1010 53 10000 4.6 250 16:26 26.07.2020
5070 Clouds 23 1010 56 10000 5.7 300 15:42 26.07.2020
5071 Clouds 23 1009 53 10000 7.7 280 15:24 26.07.2020
5072 Clouds 23 1009 53 10000 7.2 270 14:56 26.07.2020
5073 Clouds 23 1009 53 10000 7.2 270 14:33 26.07.2020
5074 Clouds 23 1008 53 10000 9.3 260 13:48 26.07.2020
5075 Clouds 22 1008 60 10000 7.7 260 13:18 26.07.2020
5076 Clouds 21 1008 64 10000 7.2 260 12:39 26.07.2020
5077 Clouds 22 1008 68 10000 7.2 250 12:20 26.07.2020
5078 Rain 20 1007 72 10000 6.7 240 11:41 26.07.2020
5079 Rain 20 1007 77 10000 6.7 240 11:22 26.07.2020
5080 Clouds 19 1007 82 10000 5.7 240 10:42 26.07.2020
5081 Clouds 19 1006 88 10000 5.7 220 09:59 26.07.2020
5082 Rain 18 1006 100 10000 3.1 210 09:38 26.07.2020
5083 Rain 17 1006 93 10000 3.1 200 08:56 26.07.2020
5084 Rain 17 1005 93 10000 4.1 210 07:57 26.07.2020
5085 Rain 17 1005 93 10000 3.1 150 06:30 26.07.2020
5086 Rain 18 1005 88 10000 5.1 140 03:52 26.07.2020
5087 Clouds 18 1007 88 10000 3.6 130 01:23 26.07.2020
5088 Clouds 18 1008 93 10000 3.1 140 00:21 26.07.2020
5089 Clouds 18 1008 93 10000 2.1 130 23:32 25.07.2020
5090 Clouds 18 1009 93 10000 2.1 130 22:46 25.07.2020
5091 Clouds 19 1009 88 10000 2.1 130 22:19 25.07.2020
5092 Clouds 19 1009 93 10000 2.1 160 21:28 25.07.2020
5093 Clouds 19 1009 88 10000 3.1 190 20:55 25.07.2020
5094 Clouds 20 1009 88 10000 3.1 190 20:33 25.07.2020
5095 Clouds 19 1010 88 10000 3.6 200 19:48 25.07.2020
5096 Clouds 19 1010 88 10000 3.1 210 19:23 25.07.2020
5097 Clouds 19 1010 88 10000 3.6 200 18:40 25.07.2020
5098 Rain 19 1010 88 10000 4.1 210 18:21 25.07.2020
5099 Rain 20 1010 88 10000 3.6 250 17:43 25.07.2020
5100 Rain 20 1010 82 10000 5.1 250 17:24 25.07.2020
5101 Rain 20 1010 82 10000 5.1 250 16:59 25.07.2020
5102 Clouds 21 1010 68 10000 5.1 230 16:40 25.07.2020
5103 Clouds 22 1010 60 10000 5.1 240 16:20 25.07.2020
5104 Clouds 23 1011 60 10000 7.2 240 15:41 25.07.2020
5105 Clouds 23 1011 60 10000 7.2 240 15:41 25.07.2020
5106 Clouds 23 1011 60 10000 7.2 250 15:21 25.07.2020
5107 Clouds 22 1011 60 10000 8.2 230 14:37 25.07.2020
5108 Clouds 23 1011 56 10000 7.2 230 13:59 25.07.2020
5109 Clouds 22 1011 64 10000 6.7 210 13:37 25.07.2020
5110 Clouds 22 1010 60 10000 4.6 200 13:19 25.07.2020
5111 Clouds 23 1011 60 10000 5.1 210 12:47 25.07.2020
5112 Clouds 22 1011 60 10000 6.2 200 12:18 25.07.2020
5113 Clouds 22 1011 60 10000 5.1 220 11:42 25.07.2020
5114 Clouds 22 1011 64 10000 5.1 220 11:19 25.07.2020
5115 Clouds 21 1011 68 10000 4.1 210 10:39 25.07.2020
5116 Clouds 21 1011 68 10000 4.1 210 10:19 25.07.2020
5117 Clouds 19 1011 77 10000 3.6 190 09:46 25.07.2020
5118 Clouds 18 1011 77 10000 3.6 190 09:23 25.07.2020
5119 Clouds 18 1011 82 10000 2.1 160 08:55 25.07.2020
5120 Clouds 17 1011 88 10000 2.6 170 08:23 25.07.2020
5121 Clouds 16 1011 93 10000 2.1 170 07:51 25.07.2020
5122 Clouds 15 1011 100 10000 2.1 180 07:24 25.07.2020
5123 Clouds 14 1011 100 10000 1 230 05:28 25.07.2020
5124 Clouds 14 1011 100 10000 1.5 120 02:55 25.07.2020
5125 Clouds 15 1012 100 10000 1 230 01:58 25.07.2020
5126 Clouds 15 1012 100 10000 1 230 01:32 25.07.2020
5127 Clouds 15 1012 93 10000 1 0 00:57 25.07.2020
5128 Clouds 15 1012 93 10000 1 0 00:39 25.07.2020
5129 Clouds 16 1012 82 10000 1.5 90 00:20 25.07.2020
5130 Clouds 17 1012 82 10000 2.6 340 23:46 24.07.2020
5131 Clouds 18 1012 82 10000 4.1 350 23:27 24.07.2020
5132 Clouds 19 1011 77 10000 4.1 360 22:45 24.07.2020
5133 Clouds 19 1011 72 10000 4.6 360 22:23 24.07.2020
5134 Clouds 20 1011 64 10000 3.1 310 21:55 24.07.2020
5135 Clouds 20 1011 64 10000 3.1 310 21:35 24.07.2020
5136 Clouds 21 1010 64 10000 3.6 340 20:55 24.07.2020
5137 Clouds 21 1010 64 10000 3.6 340 20:36 24.07.2020
5138 Clouds 21 1010 64 10000 4.1 330 20:18 24.07.2020
5139 Clouds 21 1010 60 10000 4.1 320 19:39 24.07.2020
5140 Clouds 22 1010 60 10000 4.6 330 19:20 24.07.2020
5141 Clouds 23 1010 53 10000 6.2 310 18:34 24.07.2020
5142 Clouds 24 1010 53 10000 6.7 300 17:53 24.07.2020
5143 Clouds 24 1010 53 10000 6.2 290 17:19 24.07.2020
5144 Clouds 24 1010 56 10000 4.1 280 16:52 24.07.2020
5145 Clouds 23 1010 60 10000 5.1 290 16:28 24.07.2020
5146 Clouds 23 1010 64 10000 5.1 280 15:51 24.07.2020
5147 Clouds 22 1010 64 10000 5.1 280 15:32 24.07.2020
5148 Clouds 22 1010 64 10000 5.1 260 14:47 24.07.2020
5149 Clouds 22 1010 64 10000 5.1 260 14:29 24.07.2020
5150 Clouds 21 1010 72 10000 4.1 270 13:46 24.07.2020
5151 Clouds 20 1010 77 10000 5.7 260 13:22 24.07.2020
5152 Drizzle 19 1010 88 10000 4.1 260 12:52 24.07.2020
5153 Drizzle 19 1010 77 10000 5.7 270 12:28 24.07.2020
5154 Clouds 19 1010 68 10000 5.1 280 11:57 24.07.2020
5155 Clouds 19 1009 68 10000 5.1 260 11:22 24.07.2020
5156 Clouds 18 1009 77 10000 6.2 270 10:49 24.07.2020
5157 Rain 18 1009 72 10000 4.1 280 10:22 24.07.2020
5158 Rain 18 1009 72 10000 4.1 280 09:59 24.07.2020
5159 Clouds 18 1009 68 10000 5.1 270 09:40 24.07.2020
5160 Clouds 18 1009 68 10000 4.1 260 09:21 24.07.2020
5161 Clouds 18 1009 72 10000 3.1 240 08:47 24.07.2020
5162 Clouds 17 1009 77 10000 2.1 240 08:27 24.07.2020
5163 Clouds 17 1008 77 10000 2.1 250 07:40 24.07.2020
5164 Clouds 17 1009 82 10000 1.5 230 07:22 24.07.2020
5165 Clouds 16 1009 82 10000 2.6 230 06:48 24.07.2020
5166 Clouds 16 1009 77 10000 2.1 220 05:54 24.07.2020
5167 Clouds 16 1009 77 10000 2.1 220 05:31 24.07.2020
5168 Clouds 16 1010 82 10000 1.5 160 03:55 24.07.2020
5169 Clouds 17 1011 77 10000 2.1 160 01:46 24.07.2020
5170 Clouds 17 1012 72 10000 2.1 170 00:43 24.07.2020
5171 Rain 18 1012 72 10000 1.5 220 00:19 24.07.2020
5172 Rain 18 1012 68 10000 1 240 23:39 23.07.2020
5173 Rain 18 1012 72 10000 0.5 220 23:20 23.07.2020
5174 Rain 20 1012 68 10000 1 270 22:43 23.07.2020
5175 Rain 20 1012 64 10000 1.5 270 22:20 23.07.2020
5176 Rain 21 1012 60 10000 2.6 270 21:55 23.07.2020
5177 Rain 21 1012 60 10000 2.6 270 21:36 23.07.2020
5178 Clouds 21 1013 56 10000 3.6 290 21:18 23.07.2020
5179 Clouds 22 1013 53 10000 3.1 250 20:42 23.07.2020
5180 Clouds 22 1013 49 10000 3.6 260 20:20 23.07.2020
5181 Clouds 23 1013 46 10000 3.6 250 19:59 23.07.2020
5182 Clouds 23 1013 46 10000 3.6 250 19:38 23.07.2020
5183 Rain 23 1013 46 10000 3.6 240 19:20 23.07.2020
5184 Rain 23 1013 46 10000 3.6 240 19:20 23.07.2020
5185 Rain 23 1013 43 10000 3.6 230 18:42 23.07.2020
5186 Clouds 23 1014 43 10000 5.7 260 18:22 23.07.2020
5187 Clouds 23 1014 38 10000 4.6 250 17:56 23.07.2020
5188 Clouds 24 1014 38 10000 4.6 250 17:36 23.07.2020
5189 Clouds 24 1014 38 10000 5.1 250 17:18 23.07.2020
5190 Clouds 23 1014 41 10000 6.7 220 16:41 23.07.2020
5191 Clouds 23 1015 38 10000 4.6 250 16:21 23.07.2020
5192 Clouds 23 1015 43 10000 3.1 240 15:39 23.07.2020
5193 Clouds 22 1015 43 10000 4.1 200 15:19 23.07.2020
5194 Clouds 21 1016 40 10000 3.1 250 14:40 23.07.2020
5195 Clouds 21 1016 43 10000 2.1 0 14:20 23.07.2020
5196 Clouds 21 1017 40 10000 2.6 210 13:58 23.07.2020
5197 Clouds 21 1017 40 10000 2.6 210 13:40 23.07.2020
5198 Clouds 20 1017 42 10000 3.6 230 13:22 23.07.2020
5199 Clouds 20 1017 42 10000 4.1 210 12:44 23.07.2020
5200 Clouds 20 1018 40 10000 2.6 200 12:23 23.07.2020
5201 Clouds 19 1018 55 10000 3.1 220 11:50 23.07.2020
5202 Clouds 18 1018 52 10000 3.1 210 11:26 23.07.2020
5203 Clouds 18 1018 52 10000 3.1 210 10:58 23.07.2020
5204 Clouds 18 1018 59 10000 3.1 230 10:39 23.07.2020
5205 Clouds 17 1018 63 10000 2.1 210 10:19 23.07.2020
5206 Clouds 17 1018 59 10000 2.6 210 09:48 23.07.2020
5207 Clouds 16 1018 63 10000 2.1 0 09:28 23.07.2020
5208 Clouds 15 1019 67 10000 1.5 180 08:52 23.07.2020
5209 Clouds 15 1019 67 10000 1.5 180 08:33 23.07.2020
5210 Clouds 13 1019 82 10000 0.5 0 07:54 23.07.2020
5211 Clouds 13 1019 87 10000 1 0 07:33 23.07.2020
5212 Clouds 12 1019 93 10000 1 200 06:47 23.07.2020
5213 Clouds 12 1019 87 10000 1.5 220 06:20 23.07.2020
5214 Clouds 12 1019 93 10000 1.5 180 05:45 23.07.2020
5215 Clouds 13 1020 87 10000 0.5 250 04:47 23.07.2020
5216 Clouds 13 1020 87 10000 1 230 04:25 23.07.2020
5217 Clouds 13 1020 82 10000 1 240 02:42 23.07.2020
5218 Clouds 15 1021 67 10000 3.1 350 00:33 23.07.2020
5219 Clouds 15 1021 63 10000 3.6 360 23:57 22.07.2020
5220 Clouds 15 1021 63 10000 3.6 360 23:39 22.07.2020
5221 Clouds 15 1021 63 10000 2.6 360 23:20 22.07.2020
5222 Clouds 16 1021 63 10000 3.1 360 22:40 22.07.2020
5223 Clouds 16 1021 59 10000 3.6 360 22:22 22.07.2020
5224 Clouds 16 1020 59 10000 3.6 340 21:55 22.07.2020
5225 Clouds 16 1020 59 10000 3.6 340 21:37 22.07.2020
5226 Clouds 16 1020 63 10000 4.1 10 21:18 22.07.2020
5227 Clouds 17 1020 59 10000 4.1 360 20:56 22.07.2020
5228 Clouds 17 1020 59 10000 4.1 360 20:37 22.07.2020
5229 Clouds 18 1020 52 10000 3.6 360 20:19 22.07.2020
5230 Clouds 18 1020 55 10000 4.1 330 19:45 22.07.2020
5231 Clouds 19 1021 55 10000 4.1 320 19:27 22.07.2020
5232 Clouds 19 1021 52 10000 4.1 320 18:55 22.07.2020
5233 Clouds 20 1021 52 10000 3.1 320 18:32 22.07.2020
5234 Clouds 20 1021 48 10000 3.1 320 17:57 22.07.2020
5235 Clouds 20 1021 48 10000 3.1 320 17:38 22.07.2020
5236 Clouds 20 1022 48 10000 4.6 320 17:19 22.07.2020
5237 Clouds 19 1022 48 10000 4.1 340 16:55 22.07.2020
5238 Clouds 19 1022 48 10000 4.1 340 16:37 22.07.2020
5239 Clouds 20 1022 52 10000 4.1 320 16:18 22.07.2020
5240 Clouds 21 1022 40 10000 3.1 310 15:42 22.07.2020
5241 Clouds 20 1022 48 10000 4.6 310 15:22 22.07.2020
5242 Clouds 20 1023 48 10000 5.1 310 14:55 22.07.2020
5243 Clouds 19 1023 48 10000 5.1 310 14:37 22.07.2020
5244 Clouds 19 1023 48 10000 5.7 320 14:18 22.07.2020
5245 Clouds 19 1023 48 10000 5.7 300 13:40 22.07.2020
5246 Clouds 20 1023 45 10000 4.1 290 13:22 22.07.2020
5247 Clouds 19 1023 52 10000 4.1 300 12:46 22.07.2020
5248 Clouds 19 1023 55 10000 4.6 300 12:28 22.07.2020
5249 Clouds 19 1023 63 10000 3.1 290 11:56 22.07.2020
5250 Clouds 18 1023 63 10000 3.1 290 11:38 22.07.2020
5251 Clouds 19 1023 59 10000 3.1 290 11:18 22.07.2020
5252 Clouds 18 1023 72 10000 4.6 300 10:42 22.07.2020
5253 Clouds 18 1023 72 10000 4.6 300 10:42 22.07.2020
5254 Clouds 17 1023 63 10000 4.6 310 10:23 22.07.2020
5255 Clouds 16 1023 72 10000 4.6 310 09:58 22.07.2020
5256 Clouds 16 1023 72 10000 4.6 310 09:39 22.07.2020
5257 Clouds 15 1023 72 10000 3.6 300 09:19 22.07.2020
5258 Clouds 14 1023 77 10000 3.1 270 08:39 22.07.2020
5259 Clouds 13 1023 87 10000 2.6 270 08:19 22.07.2020
5260 Clear 11 1023 93 10000 1 280 07:21 22.07.2020
5261 Clear 10 1023 100 10000 2.1 230 06:45 22.07.2020
5262 Fog 10 1023 100 800 1.5 230 06:18 22.07.2020
5263 Clear 10 1023 100 10000 1 250 05:51 22.07.2020
5264 Clear 10 1023 100 10000 0.5 0 05:19 22.07.2020
5265 Clear 10 1023 100 10000 1 230 04:24 22.07.2020
5266 Clear 11 1024 100 10000 1 240 02:53 22.07.2020
5267 Clouds 11 1023 93 10000 1 0 01:44 22.07.2020
5268 Clouds 11 1023 93 10000 1 0 01:44 22.07.2020
5269 Clouds 12 1023 82 10000 2.1 290 00:33 22.07.2020
5270 Clouds 13 1023 76 10000 2.1 300 23:56 21.07.2020
5271 Clouds 14 1023 76 10000 2.1 300 23:37 21.07.2020
5272 Clouds 15 1023 67 10000 1.5 340 23:18 21.07.2020
5273 Clouds 16 1023 67 10000 3.1 350 22:55 21.07.2020
5274 Clouds 16 1023 67 10000 3.1 350 22:36 21.07.2020
5275 Clouds 16 1023 67 10000 3.1 350 22:18 21.07.2020
5276 Clouds 16 1022 63 10000 4.1 350 21:55 21.07.2020
5277 Clouds 17 1022 63 10000 4.1 350 21:36 21.07.2020
5278 Clouds 17 1022 63 10000 3.6 320 21:18 21.07.2020
5279 Clouds 18 1022 55 10000 4.1 330 20:42 21.07.2020
5280 Clouds 18 1022 55 10000 3.6 310 20:22 21.07.2020
5281 Clouds 19 1022 55 10000 3.6 290 19:45 21.07.2020
5282 Clouds 20 1022 52 10000 4.1 330 19:20 21.07.2020
5283 Clouds 20 1022 52 10000 3.1 290 18:45 21.07.2020
5284 Clouds 20 1023 55 10000 4.1 310 18:26 21.07.2020
5285 Clouds 20 1023 55 10000 4.1 310 17:58 21.07.2020
5286 Clouds 20 1023 55 10000 4.1 310 17:39 21.07.2020
5287 Clouds 20 1023 52 10000 4.6 300 17:19 21.07.2020
5288 Clouds 20 1023 52 10000 6.7 310 16:41 21.07.2020
5289 Clouds 19 1023 52 10000 4.6 300 16:21 21.07.2020
5290 Clouds 19 1023 55 10000 6.7 320 15:46 21.07.2020
5291 Clouds 19 1023 55 10000 5.1 290 15:27 21.07.2020
5292 Clouds 19 1023 59 10000 7.2 310 14:58 21.07.2020
5293 Clouds 19 1023 59 10000 7.2 310 14:39 21.07.2020
5294 Clouds 18 1023 55 10000 4.6 310 14:19 21.07.2020
5295 Clouds 18 1023 59 10000 3.1 320 13:43 21.07.2020
5296 Rain 17 1023 63 10000 3.6 350 13:25 21.07.2020
5297 Rain 18 1023 63 10000 5.1 270 12:57 21.07.2020
5298 Rain 17 1023 63 10000 5.1 270 12:38 21.07.2020
5299 Rain 18 1022 55 10000 5.1 260 12:20 21.07.2020
5300 Clouds 19 1022 55 10000 3.6 280 11:55 21.07.2020
5301 Clouds 19 1022 55 10000 3.6 280 11:37 21.07.2020
5302 Clouds 19 1022 59 10000 4.6 240 11:18 21.07.2020
5303 Clouds 18 1022 55 10000 5.1 250 10:42 21.07.2020
5304 Clouds 18 1022 55 10000 6.2 270 10:21 21.07.2020
5305 Clouds 17 1022 63 10000 4.6 260 09:46 21.07.2020
5306 Clouds 16 1022 67 10000 4.6 260 09:25 21.07.2020
5307 Clouds 15 1022 72 10000 3.6 260 08:47 21.07.2020
5308 Clouds 13 1022 82 10000 3.1 250 08:26 21.07.2020
5309 Clouds 13 1022 82 10000 3.1 250 07:58 21.07.2020
5310 Clouds 12 1022 87 10000 2.1 240 07:40 21.07.2020
5311 Clouds 11 1022 93 10000 1 0 07:21 21.07.2020
5312 Clouds 9 1022 100 10000 1 0 06:47 21.07.2020
5313 Clouds 9 1022 100 10000 1 220 04:31 21.07.2020
5314 Clouds 9 1022 93 10000 1 200 03:35 21.07.2020
5315 Clear 10 1022 93 10000 1 220 02:23 21.07.2020
5316 Clear 11 1022 93 10000 2.1 290 01:20 21.07.2020
5317 Clear 11 1021 81 10000 2.1 290 00:38 21.07.2020
5318 Clear 13 1021 81 10000 2.1 290 00:19 21.07.2020
5319 Clear 14 1021 67 10000 2.6 330 23:46 20.07.2020
5320 Clear 14 1021 72 10000 3.6 340 23:28 20.07.2020
5321 Clear 14 1021 72 10000 3.6 340 22:59 20.07.2020
5322 Clouds 15 1021 67 10000 3.6 350 22:39 20.07.2020
5323 Clouds 15 1021 63 10000 4.6 350 22:19 20.07.2020
5324 Clouds 16 1021 63 10000 4.6 350 21:55 20.07.2020
5325 Clouds 16 1021 63 10000 4.6 350 21:37 20.07.2020
5326 Clouds 17 1020 59 10000 4.1 340 21:18 20.07.2020
5327 Clouds 18 1020 63 10000 4.1 350 20:41 20.07.2020
5328 Clouds 18 1020 59 10000 4.6 350 20:20 20.07.2020
5329 Clouds 19 1020 55 10000 5.1 320 19:39 20.07.2020
5330 Clouds 19 1020 55 10000 5.1 330 19:19 20.07.2020
5331 Clouds 20 1019 55 10000 5.7 320 18:59 20.07.2020
5332 Clouds 20 1019 55 10000 5.7 320 18:41 20.07.2020
5333 Clouds 21 1019 52 10000 5.7 330 18:19 20.07.2020
5334 Clouds 21 1019 52 10000 5.1 310 17:45 20.07.2020
5335 Clouds 21 1019 52 10000 6.2 320 17:24 20.07.2020
5336 Clouds 20 1019 52 10000 5.7 320 16:51 20.07.2020
5337 Clear 21 1019 43 10000 5.1 310 16:24 20.07.2020
5338 Clouds 21 1019 46 10000 4.1 320 15:49 20.07.2020
5339 Clouds 21 1019 46 10000 5.1 330 15:21 20.07.2020
5340 Clouds 21 1019 46 10000 5.1 330 14:58 20.07.2020
5341 Clouds 20 1019 49 10000 4.1 330 14:40 20.07.2020
5342 Clouds 21 1019 49 10000 5.7 330 14:19 20.07.2020
5343 Clouds 21 1019 49 10000 5.1 330 13:58 20.07.2020
5344 Clouds 21 1019 49 10000 5.1 330 13:39 20.07.2020
5345 Clouds 20 1019 55 10000 6.2 330 13:20 20.07.2020
5346 Clouds 21 1019 52 10000 5.1 350 12:56 20.07.2020
5347 Clouds 20 1019 52 10000 5.1 350 12:38 20.07.2020
5348 Clouds 20 1019 55 10000 6.2 320 12:19 20.07.2020
5349 Clouds 19 1018 55 10000 4.6 310 11:55 20.07.2020
5350 Clouds 19 1018 55 10000 4.6 310 11:36 20.07.2020
5351 Clouds 18 1018 59 10000 5.1 300 11:18 20.07.2020
5352 Clouds 18 1018 63 10000 5.7 320 10:41 20.07.2020
5353 Clouds 17 1017 77 10000 4.6 330 10:23 20.07.2020
5354 Clouds 16 1017 82 10000 3.6 320 09:43 20.07.2020
5355 Clouds 16 1017 82 10000 4.6 320 09:25 20.07.2020
5356 Clouds 16 1017 87 10000 4.1 330 08:59 20.07.2020
5357 Clouds 16 1017 87 10000 4.1 330 08:39 20.07.2020
5358 Clouds 15 1016 87 10000 5.7 320 08:21 20.07.2020
5359 Clouds 15 1016 93 10000 4.6 310 07:41 20.07.2020
5360 Rain 15 1016 93 10000 4.6 310 07:20 20.07.2020
5361 Rain 16 1016 87 10000 5.1 320 06:41 20.07.2020
5362 Clouds 17 1015 93 10000 4.1 300 04:30 20.07.2020
5363 Clouds 17 1015 88 10000 3.1 320 02:23 20.07.2020
5364 Clouds 18 1015 82 10000 3.1 350 00:49 20.07.2020
5365 Clouds 18 1015 77 10000 4.1 360 23:58 19.07.2020
5366 Clouds 19 1015 77 10000 4.1 360 23:38 19.07.2020
5367 Clouds 19 1015 72 10000 4.6 350 23:19 19.07.2020
5368 Clouds 21 1014 73 10000 4.1 20 22:44 19.07.2020
5369 Clouds 21 1014 73 10000 1.5 30 22:21 19.07.2020
5370 Clouds 21 1014 73 10000 1 70 21:59 19.07.2020
5371 Clouds 21 1014 73 10000 1 70 21:41 19.07.2020
5372 Rain 23 1014 56 10000 1.5 10 21:23 19.07.2020
5373 Rain 23 1014 53 10000 2.1 340 20:56 19.07.2020
5374 Rain 24 1014 53 10000 2.1 340 20:38 19.07.2020
5375 Clouds 24 1014 56 10000 2.6 310 20:18 19.07.2020
5376 Clouds 24 1014 53 10000 3.6 320 19:56 19.07.2020
5377 Clouds 24 1014 53 10000 3.6 320 19:36 19.07.2020
5378 Clouds 24 1014 56 10000 4.6 310 19:18 19.07.2020
5379 Clouds 25 1014 56 10000 5.1 310 18:41 19.07.2020
5380 Clouds 25 1014 47 10000 6.2 290 18:23 19.07.2020
5381 Clouds 25 1014 47 10000 6.2 290 18:23 19.07.2020
5382 Clouds 26 1014 50 10000 5.7 270 17:48 19.07.2020
5383 Clouds 26 1014 50 10000 5.7 270 17:28 19.07.2020
5384 Clouds 26 1014 47 10000 4.1 260 16:58 19.07.2020
5385 Clouds 25 1014 54 10000 4.1 280 16:39 19.07.2020
5386 Clouds 25 1014 53 10000 5.7 300 16:20 19.07.2020
5387 Clouds 25 1014 61 10000 4.6 290 15:49 19.07.2020
5388 Clouds 26 1014 61 10000 4.6 290 15:31 19.07.2020
5389 Clouds 26 1014 54 10000 4.1 280 14:48 19.07.2020
5390 Rain 25 1014 54 10000 4.1 260 14:27 19.07.2020
5391 Rain 26 1014 54 10000 4.1 260 13:59 19.07.2020
5392 Clouds 25 1014 57 10000 3.6 270 13:41 19.07.2020
5393 Clouds 25 1014 50 10000 2.6 210 13:22 19.07.2020
5394 Clouds 25 1014 53 10000 2.6 260 12:50 19.07.2020
5395 Clouds 25 1014 53 10000 3.6 230 12:25 19.07.2020
5396 Clouds 25 1014 53 10000 3.6 230 12:25 19.07.2020
5397 Rain 25 1014 53 10000 3.1 210 11:58 19.07.2020
5398 Rain 24 1014 53 10000 3.1 210 11:39 19.07.2020
5399 Rain 24 1014 53 10000 3.6 190 11:21 19.07.2020
5400 Rain 22 1014 60 10000 2.6 180 10:42 19.07.2020
5401 Clouds 22 1015 64 10000 2.6 170 10:22 19.07.2020
5402 Clouds 21 1015 64 10000 3.1 140 09:47 19.07.2020
5403 Clear 20 1015 68 10000 2.6 150 09:22 19.07.2020
5404 Clear 18 1015 77 10000 2.6 140 08:54 19.07.2020
5405 Clouds 18 1015 77 10000 2.6 140 08:28 19.07.2020
5406 Clouds 18 1015 82 10000 1.5 130 07:59 19.07.2020
5407 Clouds 17 1015 82 10000 2.1 130 07:28 19.07.2020
5408 Clouds 17 1015 82 10000 1.5 140 06:52 19.07.2020
5409 Clouds 17 1015 87 10000 1 0 06:22 19.07.2020
5410 Clouds 17 1015 87 10000 0.5 0 05:52 19.07.2020
5411 Clouds 17 1016 82 10000 2.18 170 05:21 19.07.2020
5412 Clouds 18 1017 77 10000 2.22 162 02:48 19.07.2020
5413 Clouds 18 1017 77 10000 1.81 158 02:28 19.07.2020
5414 Clouds 18 1017 88 10000 1.81 158 01:55 19.07.2020
5415 Clouds 19 1017 72 10000 1.7 161 01:21 19.07.2020
5416 Clouds 19 1017 77 10000 1.7 161 00:40 19.07.2020
5417 Clouds 20 1017 72 10000 1.56 160 00:21 19.07.2020
5418 Clouds 20 1017 72 10000 1 150 23:43 18.07.2020
5419 Clouds 21 1017 64 10000 1.5 140 23:23 18.07.2020
5420 Clouds 21 1017 64 10000 2.1 140 22:45 18.07.2020
5421 Clouds 21 1017 60 10000 2.1 130 22:21 18.07.2020
5422 Clouds 22 1017 60 10000 1.5 210 21:55 18.07.2020
5423 Clouds 23 1017 60 10000 1.5 210 21:36 18.07.2020
5424 Clouds 23 1017 60 10000 2.1 240 21:18 18.07.2020
5425 Clouds 24 1017 60 10000 2.6 160 20:42 18.07.2020
5426 Clouds 24 1017 56 10000 2.1 140 20:21 18.07.2020
5427 Clouds 25 1017 53 10000 2.6 160 19:50 18.07.2020
5428 Clouds 24 1017 53 10000 2.6 180 19:31 18.07.2020
5429 Clouds 24 1017 50 10000 3.6 200 18:59 18.07.2020
5430 Clouds 24 1017 50 10000 3.6 200 18:39 18.07.2020
5431 Clouds 24 1017 53 10000 3.1 210 18:39 18.07.2020
5432 Clouds 25 1017 53 10000 3.1 210 18:19 18.07.2020
5433 Clouds 25 1017 47 10000 3.6 210 17:42 18.07.2020
5434 Clouds 25 1018 47 10000 4.1 220 17:21 18.07.2020
5435 Clouds 25 1018 47 10000 4.6 200 16:57 18.07.2020
5436 Clouds 25 1018 47 10000 4.6 200 16:36 18.07.2020
5437 Clouds 25 1018 47 10000 4.1 200 16:18 18.07.2020
5438 Clouds 26 1018 44 10000 4.6 210 15:44 18.07.2020
5439 Clouds 25 1018 53 10000 3.6 160 15:23 18.07.2020
5440 Clouds 25 1018 53 10000 3.1 200 14:55 18.07.2020
5441 Clouds 25 1018 53 10000 3.1 200 14:37 18.07.2020
5442 Clouds 24 1019 56 10000 4.1 210 14:18 18.07.2020
5443 Clouds 24 1019 56 10000 4.1 210 14:18 18.07.2020
5444 Clouds 24 1019 60 10000 3.6 200 13:41 18.07.2020
5445 Clouds 24 1019 56 10000 2.1 210 13:22 18.07.2020
5446 Clouds 24 1019 60 10000 2.6 240 12:55 18.07.2020
5447 Clouds 24 1019 60 10000 2.6 240 12:37 18.07.2020
5448 Clouds 22 1019 64 10000 2.1 250 12:18 18.07.2020
5449 Clouds 23 1019 60 10000 1.5 0 11:44 18.07.2020
5450 Clouds 23 1020 60 10000 2.1 180 11:19 18.07.2020
5451 Clouds 21 1020 68 10000 2.1 190 10:56 18.07.2020
5452 Clouds 20 1020 68 10000 2.1 190 10:37 18.07.2020
5453 Clouds 20 1020 72 10000 2.1 160 10:19 18.07.2020
5454 Clouds 20 1020 77 10000 1 0 09:42 18.07.2020
5455 Clouds 16 1020 77 10000 0.5 0 09:23 18.07.2020
5456 Clouds 15 1020 87 10000 0.5 0 08:52 18.07.2020
5457 Clouds 15 1020 87 10000 0.5 0 08:31 18.07.2020
5458 Clouds 16 1020 87 10000 0.5 200 07:57 18.07.2020
5459 Clouds 16 1020 87 10000 0.5 200 07:39 18.07.2020
5460 Clouds 14 1020 100 10000 0.5 0 07:20 18.07.2020
5461 Clouds 12 1020 100 10000 0.5 0 06:44 18.07.2020
5462 Clouds 13 1020 93 10000 2.05 150 04:29 18.07.2020
5463 Clouds 14 1020 93 10000 1 80 03:38 18.07.2020
5464 Clear 16 1020 77 10000 1.5 40 01:46 18.07.2020
5465 Clear 17 1020 72 10000 2.6 10 01:19 18.07.2020
5466 Clear 17 1020 72 10000 3.6 30 00:35 18.07.2020
5467 Clear 17 1020 82 10000 2.1 360 23:56 17.07.2020
5468 Clear 17 1020 82 10000 2.1 360 23:38 17.07.2020
5469 Clear 18 1020 72 10000 1 0 23:18 17.07.2020
5470 Clear 18 1020 77 10000 2.1 290 22:41 17.07.2020
5471 Clear 19 1020 68 10000 2.1 270 22:20 17.07.2020
5472 Clear 19 1020 68 10000 2.1 270 21:58 17.07.2020
5473 Clear 20 1019 68 10000 2.1 280 21:39 17.07.2020
5474 Clear 21 1019 60 10000 2.1 240 21:20 17.07.2020
5475 Clouds 22 1019 56 10000 2.1 220 20:44 17.07.2020
5476 Clouds 22 1019 60 10000 2.1 230 20:26 17.07.2020
5477 Clouds 23 1019 56 10000 2.1 230 19:57 17.07.2020
5478 Clouds 23 1019 56 10000 2.1 230 19:39 17.07.2020
5479 Clouds 24 1019 43 10000 0.5 0 19:20 17.07.2020
5480 Clouds 24 1019 43 10000 1.87 345 18:47 17.07.2020
5481 Clouds 23 1019 43 10000 1.5 40 18:25 17.07.2020
5482 Clouds 23 1019 46 10000 2.6 80 17:45 17.07.2020
5483 Clouds 23 1020 46 10000 2.6 50 17:27 17.07.2020
5484 Clouds 23 1020 44 10000 3.1 70 16:57 17.07.2020
5485 Clouds 23 1020 44 10000 3.1 70 16:39 17.07.2020
5486 Clouds 23 1020 43 10000 1.5 0 16:19 17.07.2020
5487 Clouds 24 1020 44 10000 2.1 190 15:37 17.07.2020
5488 Clouds 23 1020 43 10000 2.1 180 15:18 17.07.2020
5489 Clouds 22 1020 46 10000 1.5 240 14:42 17.07.2020
5490 Clouds 23 1020 46 10000 3.1 250 14:22 17.07.2020
5491 Clouds 23 1020 43 10000 1 0 13:57 17.07.2020
5492 Clouds 23 1020 43 10000 1 0 13:39 17.07.2020
5493 Clouds 23 1020 40 10000 1.5 0 13:19 17.07.2020
5494 Clouds 23 1020 43 10000 1.5 300 12:42 17.07.2020
5495 Clouds 23 1020 43 10000 1.5 300 12:42 17.07.2020
5496 Clouds 22 1020 46 10000 1.5 0 12:21 17.07.2020
5497 Clouds 22 1020 49 10000 2.1 0 11:56 17.07.2020
5498 Clouds 22 1020 49 10000 2.1 0 11:38 17.07.2020
5499 Clouds 21 1020 49 10000 1.5 0 11:20 17.07.2020
5500 Clouds 21 1020 52 10000 1.5 0 10:55 17.07.2020
5501 Clouds 20 1020 52 10000 1.5 0 10:37 17.07.2020
5502 Clear 20 1020 56 10000 1.5 0 10:18 17.07.2020
5503 Clear 19 1020 55 10000 1.5 180 09:55 17.07.2020
5504 Clear 18 1020 55 10000 1.5 180 09:36 17.07.2020
5505 Clear 17 1020 63 10000 1.5 180 09:18 17.07.2020
5506 Clear 16 1020 67 10000 1 0 08:41 17.07.2020
5507 Clouds 16 1020 72 10000 1 0 08:19 17.07.2020
5508 Clouds 14 1019 87 10000 0.5 0 07:40 17.07.2020
5509 Clouds 13 1019 93 10000 1.5 140 07:19 17.07.2020
5510 Clouds 13 1019 93 10000 0.5 230 06:48 17.07.2020
5511 Clear 10 1019 100 10000 0.71 357 05:50 17.07.2020
5512 Clear 11 1019 93 10000 0.5 0 04:48 17.07.2020
5513 Clear 12 1019 87 10000 1 0 02:40 17.07.2020
5514 Clear 13 1019 82 10000 0.5 0 01:33 17.07.2020
5515 Clear 14 1019 77 10000 3.1 30 00:43 17.07.2020
5516 Clear 15 1018 72 10000 2.6 40 00:22 17.07.2020
5517 Clear 15 1018 72 10000 3.1 30 23:44 16.07.2020
5518 Clear 16 1018 67 10000 2.6 30 23:21 16.07.2020
5519 Clear 17 1018 63 10000 2.6 40 22:57 16.07.2020
5520 Clear 17 1018 63 10000 2.6 40 22:39 16.07.2020
5521 Clear 18 1018 59 10000 2.6 20 22:20 16.07.2020
5522 Clear 18 1017 63 10000 2.1 310 21:55 16.07.2020
5523 Clear 19 1017 63 10000 2.1 310 21:36 16.07.2020
5524 Clear 19 1017 59 10000 2.6 300 21:18 16.07.2020
5525 Clear 19 1017 59 10000 2.6 280 20:56 16.07.2020
5526 Clear 19 1017 59 10000 2.6 280 20:37 16.07.2020
5527 Rain 20 1017 56 10000 3.1 290 20:18 16.07.2020
5528 Rain 21 1016 52 10000 3.1 290 19:45 16.07.2020
5529 Rain 20 1016 49 10000 2.1 0 19:26 16.07.2020
5530 Rain 21 1016 52 10000 2.6 250 18:44 16.07.2020
5531 Rain 21 1016 52 10000 2.1 260 18:25 16.07.2020
5532 Clouds 22 1016 49 10000 1.5 270 17:59 16.07.2020
5533 Clouds 22 1016 49 10000 1.5 270 17:37 16.07.2020
5534 Clouds 21 1016 52 10000 1 0 17:19 16.07.2020
5535 Clouds 21 1016 52 10000 0.5 0 16:57 16.07.2020
5536 Clouds 22 1016 52 10000 0.5 0 16:38 16.07.2020
5537 Clouds 21 1016 59 10000 1.5 170 16:20 16.07.2020
5538 Clouds 21 1016 55 10000 1.5 90 15:44 16.07.2020
5539 Clouds 21 1016 55 10000 1 0 15:26 16.07.2020
5540 Clouds 21 1016 59 10000 2.1 230 14:57 16.07.2020
5541 Clouds 21 1016 59 10000 2.1 230 14:37 16.07.2020
5542 Clouds 21 1016 55 10000 1 0 14:19 16.07.2020
5543 Clouds 20 1016 55 10000 0.5 0 13:42 16.07.2020
5544 Clouds 20 1016 59 10000 1 0 13:23 16.07.2020
5545 Clouds 20 1016 49 10000 1.5 0 13:00 16.07.2020
5546 Clouds 20 1016 49 10000 1.5 0 12:41 16.07.2020
5547 Clouds 20 1016 55 10000 1 0 12:19 16.07.2020
5548 Clouds 20 1016 59 10000 2.6 270 11:39 16.07.2020
5549 Clouds 19 1016 55 10000 1 0 11:20 16.07.2020
5550 Clouds 19 1016 55 10000 1 0 10:59 16.07.2020
5551 Clouds 19 1016 63 10000 1 0 10:40 16.07.2020
5552 Clouds 19 1016 63 10000 1 0 10:40 16.07.2020
5553 Clouds 18 1016 63 10000 1 0 10:20 16.07.2020
5554 Clouds 17 1016 72 10000 1 0 09:57 16.07.2020
5555 Clouds 16 1016 72 10000 1 0 09:38 16.07.2020
5556 Clouds 16 1016 77 10000 0.5 0 09:18 16.07.2020
5557 Clouds 15 1016 82 10000 0.5 0 08:41 16.07.2020
5558 Clouds 15 1016 87 10000 0.5 0 08:22 16.07.2020
5559 Clouds 13 1015 93 10000 0.5 0 07:46 16.07.2020
5560 Clouds 12 1015 100 10000 1 0 07:25 16.07.2020
5561 Fog 11 1015 100 1300 0.57 217 06:49 16.07.2020
5562 Fog 10 1015 100 400 0.69 225 06:20 16.07.2020
5563 Fog 10 1015 100 500 1 200 05:55 16.07.2020
5564 Fog 10 1015 100 500 1 200 05:29 16.07.2020
5565 Fog 11 1015 100 1000 1 230 04:18 16.07.2020
5566 Fog 11 1015 100 1000 1 230 04:18 16.07.2020
5567 Fog 11 1015 100 6000 0.5 0 03:37 16.07.2020
5568 Fog 12 1015 100 10000 1.5 240 03:18 16.07.2020
5569 Clouds 12 1015 100 10000 1 250 02:26 16.07.2020
5570 Fog 12 1015 93 10000 1 280 01:49 16.07.2020
5571 Fog 12 1015 100 10000 1 250 00:59 16.07.2020
5572 Clouds 13 1015 93 10000 1.5 280 00:37 16.07.2020
5573 Clouds 14 1015 87 10000 2.1 290 23:57 15.07.2020
5574 Clouds 14 1015 87 10000 2.1 290 23:39 15.07.2020
5575 Clouds 14 1015 87 10000 1.5 280 23:21 15.07.2020
5576 Clouds 15 1015 82 10000 1.5 290 22:58 15.07.2020
5577 Clouds 15 1015 82 10000 1.5 290 22:38 15.07.2020
5578 Clouds 15 1015 82 10000 2.6 290 22:18 15.07.2020
5579 Clouds 15 1014 82 10000 2.6 290 21:55 15.07.2020
5580 Clouds 15 1014 82 10000 2.6 290 21:37 15.07.2020
5581 Clouds 16 1014 67 10000 3.1 330 21:19 15.07.2020
5582 Clouds 17 1014 67 10000 3.6 340 20:57 15.07.2020
5583 Clouds 17 1014 67 10000 3.6 340 20:36 15.07.2020
5584 Clouds 17 1014 72 10000 5.1 340 20:18 15.07.2020
5585 Rain 17 1014 67 10000 4.6 320 19:55 15.07.2020
5586 Rain 17 1014 67 10000 4.6 320 19:37 15.07.2020
5587 Rain 18 1014 67 10000 5.1 290 19:18 15.07.2020
5588 Clouds 18 1014 59 10000 4.6 300 18:44 15.07.2020
5589 Clouds 19 1013 55 10000 5.7 300 18:25 15.07.2020
5590 Clouds 19 1013 59 10000 5.1 290 17:58 15.07.2020
5591 Clouds 19 1013 59 10000 5.1 290 17:39 15.07.2020
5592 Clouds 20 1014 59 10000 5.7 310 17:20 15.07.2020
5593 Clouds 20 1013 52 10000 5.1 320 16:57 15.07.2020
5594 Clouds 20 1013 52 10000 5.1 320 16:39 15.07.2020
5595 Clouds 20 1013 59 10000 6.2 300 16:20 15.07.2020
5596 Clouds 19 1013 55 10000 5.7 310 15:42 15.07.2020
5597 Clouds 20 1013 59 10000 7.2 300 15:23 15.07.2020
5598 Clouds 20 1013 59 10000 7.2 300 14:58 15.07.2020
5599 Clouds 20 1013 56 10000 5.1 320 14:40 15.07.2020
5600 Clouds 20 1013 55 10000 6.2 310 14:19 15.07.2020
5601 Clouds 20 1013 55 10000 4.1 310 13:58 15.07.2020
5602 Clouds 20 1013 55 10000 4.1 310 13:38 15.07.2020
5603 Clouds 20 1013 52 10000 2.1 270 13:19 15.07.2020
5604 Clouds 19 1013 55 10000 2.6 330 12:39 15.07.2020
5605 Clouds 20 1013 59 10000 3.1 290 12:20 15.07.2020
5606 Clouds 19 1013 59 10000 3.1 270 11:56 15.07.2020
5607 Clouds 19 1013 59 10000 3.1 270 11:38 15.07.2020
5608 Clouds 18 1013 68 10000 1.5 0 11:19 15.07.2020
5609 Clouds 18 1012 63 10000 2.1 340 10:54 15.07.2020
5610 Clouds 18 1012 63 10000 2.1 340 10:36 15.07.2020
5611 Clouds 16 1012 77 10000 2.1 310 10:18 15.07.2020
5612 Clouds 16 1012 82 10000 2.1 270 09:42 15.07.2020
5613 Clouds 15 1012 82 10000 2.6 280 09:24 15.07.2020
5614 Clouds 15 1012 87 10000 3.1 280 08:46 15.07.2020
5615 Clouds 14 1012 87 10000 3.1 290 08:27 15.07.2020
5616 Clouds 14 1012 93 10000 2.1 280 07:48 15.07.2020
5617 Clouds 13 1012 93 10000 1.5 280 07:26 15.07.2020
5618 Clouds 13 1012 93 10000 2.1 290 06:44 15.07.2020
5619 Clouds 14 1012 93 10000 1 250 05:59 15.07.2020
5620 Clouds 14 1012 93 10000 1 250 05:40 15.07.2020
5621 Clouds 14 1012 93 10000 1.5 290 04:29 15.07.2020
5622 Clouds 14 1012 100 8000 1.5 240 03:40 15.07.2020
5623 Mist 14 1013 100 3500 1.5 230 01:54 15.07.2020
5624 Mist 14 1013 100 3500 1.5 230 01:35 15.07.2020
5625 Rain 14 1013 100 4000 1 0 00:57 15.07.2020
5626 Mist 14 1013 100 4500 1.5 220 00:29 15.07.2020
5627 Clouds 14 1013 100 7000 1.5 230 23:51 14.07.2020
5628 Clouds 14 1013 93 9000 1.5 210 23:28 14.07.2020
5629 Clouds 14 1013 93 10000 2.6 220 22:56 14.07.2020
5630 Clouds 14 1013 93 10000 2.6 220 22:37 14.07.2020
5631 Clouds 14 1013 93 10000 1 0 22:19 14.07.2020
5632 Clouds 14 1013 93 10000 1 0 22:19 14.07.2020
5633 Clouds 14 1013 93 10000 1.5 210 21:55 14.07.2020
5634 Clouds 14 1013 93 10000 1.5 210 21:37 14.07.2020
5635 Clouds 14 1013 93 10000 2.1 230 21:19 14.07.2020
5636 Rain 14 1013 93 10000 1.5 220 20:42 14.07.2020
5637 Rain 14 1013 93 10000 2.1 200 20:21 14.07.2020
5638 Rain 14 1013 93 10000 1.5 200 19:56 14.07.2020
5639 Rain 14 1013 93 10000 1.5 200 19:38 14.07.2020
5640 Rain 14 1013 93 10000 2.6 250 19:20 14.07.2020
5641 Rain 14 1013 93 10000 3.1 270 18:44 14.07.2020
5642 Rain 15 1014 87 10000 3.6 260 18:20 14.07.2020
5643 Rain 15 1014 87 10000 4.6 270 17:58 14.07.2020
5644 Rain 15 1014 87 10000 4.6 270 17:40 14.07.2020
5645 Rain 16 1014 82 10000 5.1 260 17:21 14.07.2020
5646 Rain 16 1014 82 10000 3.6 240 16:56 14.07.2020
5647 Rain 16 1014 82 10000 3.6 240 16:37 14.07.2020
5648 Rain 16 1014 87 10000 2.6 240 16:18 14.07.2020
5649 Rain 17 1014 88 10000 3.6 260 15:44 14.07.2020
5650 Rain 17 1014 82 10000 3.1 220 15:23 14.07.2020
5651 Rain 17 1014 88 10000 4.1 210 14:57 14.07.2020
5652 Rain 18 1014 88 10000 4.1 210 14:39 14.07.2020
5653 Rain 18 1014 77 10000 4.6 210 14:19 14.07.2020
5654 Rain 18 1014 77 10000 4.1 210 13:41 14.07.2020
5655 Rain 18 1014 77 10000 4.1 200 13:23 14.07.2020
5656 Rain 18 1014 77 10000 3.6 210 12:56 14.07.2020
5657 Rain 18 1014 77 10000 3.6 210 12:37 14.07.2020
5658 Rain 18 1015 72 10000 2.6 260 12:18 14.07.2020
5659 Rain 18 1015 68 10000 4.1 260 11:44 14.07.2020
5660 Rain 18 1015 68 10000 4.1 270 11:21 14.07.2020
5661 Rain 19 1014 63 10000 3.6 260 10:56 14.07.2020
5662 Rain 19 1014 63 10000 3.6 260 10:38 14.07.2020
5663 Clouds 19 1014 60 10000 2.6 280 10:18 14.07.2020
5664 Clouds 18 1014 68 10000 1.5 250 09:40 14.07.2020
5665 Clouds 17 1015 72 10000 1.5 220 09:21 14.07.2020
5666 Clouds 16 1015 77 10000 1 0 08:44 14.07.2020
5667 Clouds 15 1015 87 10000 1 0 08:25 14.07.2020
5668 Clouds 14 1015 87 10000 1 0 07:59 14.07.2020
5669 Clouds 14 1015 93 10000 1 0 07:38 14.07.2020
5670 Clouds 13 1015 93 10000 1.84 206 07:18 14.07.2020
5671 Clouds 12 1015 100 10000 1.84 206 06:47 14.07.2020
5672 Clouds 12 1015 100 10000 1.82 188 06:24 14.07.2020
5673 Clouds 12 1015 93 10000 1.82 188 05:36 14.07.2020
5674 Clouds 11 1016 100 10000 1.97 166 04:38 14.07.2020
5675 Clouds 12 1017 93 10000 2.03 160 03:48 14.07.2020
5676 Clouds 12 1017 93 10000 0.5 0 02:58 14.07.2020
5677 Clouds 13 1017 82 10000 0.5 0 02:26 14.07.2020
5678 Clouds 14 1017 82 10000 1 80 01:38 14.07.2020
5679 Clouds 15 1018 77 10000 2.1 60 00:58 14.07.2020
5680 Clouds 15 1018 77 10000 2.1 60 00:40 14.07.2020
5681 Clouds 15 1018 72 10000 2.6 60 00:20 14.07.2020
5682 Clouds 16 1018 67 10000 3.1 60 23:38 13.07.2020
5683 Clouds 17 1019 68 10000 2.6 40 23:19 13.07.2020
5684 Clouds 17 1019 59 10000 3.1 20 22:56 13.07.2020
5685 Clouds 18 1019 59 10000 3.1 20 22:38 13.07.2020
5686 Clouds 18 1019 59 10000 3.6 20 22:19 13.07.2020
5687 Clouds 19 1019 56 10000 3.1 20 21:54 13.07.2020
5688 Clouds 20 1019 56 10000 3.1 20 21:36 13.07.2020
5689 Clear 21 1019 49 10000 2.1 330 21:18 13.07.2020
5690 Clouds 22 1019 46 10000 2.6 340 20:42 13.07.2020
5691 Clouds 22 1019 46 10000 2.6 310 20:23 13.07.2020
5692 Clouds 23 1019 40 10000 2.6 270 19:59 13.07.2020
5693 Clouds 23 1019 40 10000 2.6 270 19:41 13.07.2020
5694 Clouds 23 1019 41 10000 2.6 290 19:22 13.07.2020
5695 Clouds 23 1020 43 10000 2.6 280 18:56 13.07.2020
5696 Clouds 23 1020 43 10000 2.6 280 18:38 13.07.2020
5697 Clouds 23 1020 40 10000 1.5 220 18:19 13.07.2020
5698 Clouds 23 1020 38 10000 2.6 230 17:43 13.07.2020
5699 Clouds 23 1021 40 10000 1 0 17:22 13.07.2020
5700 Clouds 23 1021 40 10000 1 0 16:59 13.07.2020
5701 Clouds 23 1021 40 10000 3.6 270 16:41 13.07.2020
5702 Clouds 23 1021 43 10000 2.6 300 16:20 13.07.2020
5703 Clouds 23 1022 41 10000 3.6 270 15:58 13.07.2020
5704 Clouds 23 1022 41 10000 3.6 270 15:39 13.07.2020
5705 Clouds 22 1022 43 10000 2.1 0 15:20 13.07.2020
5706 Clouds 22 1022 43 10000 2.1 0 14:58 13.07.2020
5707 Clouds 22 1022 46 10000 2.1 0 14:39 13.07.2020
5708 Clouds 22 1023 43 10000 2.6 0 14:20 13.07.2020
5709 Clouds 22 1023 49 10000 4.1 250 13:55 13.07.2020
5710 Clouds 22 1023 49 10000 4.1 250 13:37 13.07.2020
5711 Clouds 22 1023 52 10000 2.1 350 13:19 13.07.2020
5712 Clouds 21 1024 56 10000 3.1 300 12:43 13.07.2020
5713 Clouds 20 1024 52 10000 2.1 0 12:22 13.07.2020
5714 Clouds 20 1024 52 10000 2.1 230 11:56 13.07.2020
5715 Clouds 20 1024 52 10000 2.1 230 11:36 13.07.2020
5716 Clouds 20 1024 55 10000 1.5 0 11:18 13.07.2020
5717 Clouds 18 1025 59 10000 1 0 10:38 13.07.2020
5718 Clouds 18 1025 59 10000 1 0 10:20 13.07.2020
5719 Clear 17 1025 59 10000 1 0 09:43 13.07.2020
5720 Clouds 16 1025 63 10000 0.5 0 09:24 13.07.2020
5721 Clouds 15 1025 72 10000 0.5 0 08:53 13.07.2020
5722 Clouds 15 1025 72 10000 0.5 0 08:34 13.07.2020
5723 Clouds 12 1025 93 10000 0.5 0 07:42 13.07.2020
5724 Clouds 11 1025 100 10000 0.5 0 07:19 13.07.2020
5725 Fog 9 1025 93 6000 1.37 260 06:42 13.07.2020
5726 Fog 8 1026 100 1800 1.39 238 06:22 13.07.2020
5727 Mist 9 1026 93 10000 1 210 04:43 13.07.2020
5728 Clouds 11 1027 87 10000 0.5 0 01:57 13.07.2020
5729 Clouds 11 1027 81 10000 1 0 01:29 13.07.2020
5730 Clouds 12 1027 71 10000 2.1 360 00:59 13.07.2020
5731 Clouds 12 1027 71 10000 2.1 350 00:28 13.07.2020
5732 Clouds 14 1027 62 10000 1.5 360 23:59 12.07.2020
5733 Clouds 14 1027 62 10000 1.5 360 23:40 12.07.2020
5734 Clouds 14 1027 62 10000 1.5 340 23:22 12.07.2020
5735 Clouds 14 1027 59 10000 3.1 340 22:54 12.07.2020
5736 Clouds 15 1027 59 10000 3.1 340 22:36 12.07.2020
5737 Clouds 15 1027 59 10000 3.1 340 22:36 12.07.2020
5738 Clouds 15 1027 59 10000 3.1 340 22:36 12.07.2020
5739 Clouds 15 1027 59 10000 3.1 340 22:36 12.07.2020
5740 Clouds 15 1027 67 10000 3.6 360 22:18 12.07.2020
5741 Clouds 16 1027 67 10000 4.1 360 21:42 12.07.2020
5742 Clouds 17 1027 67 10000 4.1 360 21:20 12.07.2020
5743 Clouds 17 1027 67 10000 4.1 360 20:59 12.07.2020
5744 Clouds 18 1027 63 10000 3.6 10 20:41 12.07.2020
5745 Clouds 18 1027 63 10000 3.6 10 20:41 12.07.2020
5746 Clouds 19 1027 59 10000 3.6 30 20:20 12.07.2020
5747 Clouds 19 1027 59 10000 3.6 30 19:59 12.07.2020
5748 Clouds 20 1027 59 10000 4.1 20 19:39 12.07.2020
5749 Clouds 20 1027 56 10000 3.6 10 19:19 12.07.2020
5750 Clouds 20 1027 52 10000 2.6 350 18:44 12.07.2020
5751 Clouds 20 1027 49 10000 3.6 300 18:21 12.07.2020
5752 Clouds 20 1027 52 10000 3.1 310 17:59 12.07.2020
5753 Clouds 20 1027 52 10000 3.1 310 17:38 12.07.2020
5754 Rain 19 1027 55 10000 3.6 310 17:20 12.07.2020
5755 Rain 19 1027 52 10000 4.1 300 16:47 12.07.2020
5756 Rain 20 1028 49 10000 3.1 310 16:22 12.07.2020
5757 Rain 20 1028 45 10000 3.6 300 15:50 12.07.2020
5758 Rain 20 1028 45 10000 3.6 300 15:30 12.07.2020
5759 Rain 20 1028 45 10000 2.6 300 14:58 12.07.2020
5760 Rain 20 1028 45 10000 3.6 280 14:40 12.07.2020
5761 Rain 20 1028 45 10000 3.6 280 14:40 12.07.2020
5762 Clouds 19 1028 45 10000 3.1 260 14:22 12.07.2020
5763 Clouds 19 1028 48 10000 3.6 0 13:40 12.07.2020
5764 Clouds 19 1028 48 10000 3.1 280 13:21 12.07.2020
5765 Clouds 18 1028 48 10000 3.6 290 12:57 12.07.2020
5766 Clouds 18 1028 48 10000 3.6 290 12:57 12.07.2020
5767 Clouds 19 1028 48 10000 3.6 290 12:38 12.07.2020
5768 Clouds 19 1028 48 10000 3.6 290 12:38 12.07.2020
5769 Clouds 19 1028 52 10000 3.1 300 12:18 12.07.2020
5770 Clouds 18 1028 51 10000 3.1 280 11:45 12.07.2020
5771 Clouds 17 1028 55 10000 3.1 310 11:21 12.07.2020
5772 Clouds 18 1028 59 10000 3.6 290 10:57 12.07.2020
5773 Clouds 17 1028 59 10000 3.6 290 10:39 12.07.2020
5774 Clouds 17 1028 67 10000 4.1 320 10:19 12.07.2020
5775 Clouds 15 1028 67 10000 3.6 320 09:43 12.07.2020
5776 Clouds 14 1028 72 10000 3.1 310 09:21 12.07.2020
5777 Clouds 14 1027 82 10000 1 0 08:57 12.07.2020
5778 Clouds 13 1027 82 10000 1 0 08:38 12.07.2020
5779 Clear 12 1027 93 10000 1.5 270 08:19 12.07.2020
5780 Clear 11 1027 93 10000 0.5 0 07:47 12.07.2020
5781 Clear 10 1027 93 10000 0.5 0 07:28 12.07.2020
5782 Clear 10 1027 93 10000 0.5 0 07:28 12.07.2020
5783 Fog 9 1027 100 900 1 0 06:53 12.07.2020
5784 Fog 8 1026 100 500 1 230 06:22 12.07.2020
5785 Fog 8 1026 100 500 1.5 230 05:59 12.07.2020
5786 Fog 8 1026 100 500 1 260 04:58 12.07.2020
5787 Fog 8 1026 100 700 0.5 270 04:29 12.07.2020
5788 Fog 9 1026 100 800 0.5 270 03:45 12.07.2020
5789 Fog 9 1026 100 900 1.5 250 03:24 12.07.2020
5790 Fog 10 1026 100 600 0.5 240 02:21 12.07.2020
5791 Fog 10 1026 100 800 1.5 230 01:28 12.07.2020
5792 Fog 11 1026 93 800 1 250 00:39 12.07.2020
5793 Fog 11 1026 100 10000 0.5 300 00:20 12.07.2020
5794 Clouds 12 1026 100 10000 0.5 0 23:41 11.07.2020
5795 Clouds 12 1026 100 10000 0.5 240 23:21 11.07.2020
5796 Clouds 13 1025 93 10000 0.5 230 22:57 11.07.2020
5797 Clouds 13 1025 93 10000 0.5 230 22:38 11.07.2020
5798 Clouds 14 1025 87 10000 0.5 0 22:20 11.07.2020
5799 Clouds 15 1025 93 10000 1.5 250 21:54 11.07.2020
5800 Clouds 15 1025 93 10000 1.5 250 21:36 11.07.2020
5801 Rain 16 1025 87 10000 1.5 270 21:18 11.07.2020
5802 Rain 16 1025 82 10000 1.5 250 20:54 11.07.2020
5803 Rain 16 1025 82 10000 1.5 250 20:36 11.07.2020
5804 Clouds 16 1025 82 10000 2.1 280 20:18 11.07.2020
5805 Clouds 16 1025 82 10000 2.1 280 20:18 11.07.2020
5806 Clouds 16 1024 82 10000 1.5 290 19:44 11.07.2020
5807 Clouds 16 1024 87 10000 2.1 280 19:26 11.07.2020
5808 Rain 16 1024 82 10000 2.6 270 18:58 11.07.2020
5809 Rain 16 1024 82 10000 2.6 270 18:39 11.07.2020
5810 Clouds 15 1024 82 10000 1.5 250 18:20 11.07.2020
5811 Rain 16 1024 63 10000 7.7 310 17:56 11.07.2020
5812 Rain 16 1024 63 10000 7.7 310 17:38 11.07.2020
5813 Clouds 17 1024 59 10000 3.1 290 17:19 11.07.2020
5814 Clouds 17 1024 67 10000 4.1 340 16:56 11.07.2020
5815 Clouds 17 1024 67 10000 4.1 340 16:36 11.07.2020
5816 Clouds 17 1024 63 10000 4.6 310 16:18 11.07.2020
5817 Clouds 17 1024 67 10000 3.6 310 15:41 11.07.2020
5818 Clouds 16 1024 72 10000 3.6 270 15:21 11.07.2020
5819 Clouds 16 1024 72 10000 3.6 270 14:58 11.07.2020
5820 Clouds 16 1024 87 10000 4.6 290 14:39 11.07.2020
5821 Clouds 16 1023 63 10000 5.7 350 14:20 11.07.2020
5822 Clouds 17 1023 59 10000 5.7 300 13:44 11.07.2020
5823 Clouds 17 1023 55 10000 3.1 300 13:22 11.07.2020
5824 Clouds 17 1023 59 10000 4.6 320 12:59 11.07.2020
5825 Clouds 17 1023 59 10000 4.6 320 12:40 11.07.2020
5826 Clouds 18 1023 59 10000 5.1 280 12:21 11.07.2020
5827 Clouds 17 1023 63 10000 5.1 280 11:57 11.07.2020
5828 Clouds 17 1023 63 10000 5.1 280 11:39 11.07.2020
5829 Clouds 17 1022 67 10000 5.7 270 11:19 11.07.2020
5830 Clouds 17 1022 67 10000 4.6 270 10:44 11.07.2020
5831 Clouds 17 1022 67 10000 4.6 270 10:44 11.07.2020
5832 Clouds 17 1022 67 10000 5.1 280 10:25 11.07.2020
5833 Clouds 16 1022 72 10000 5.7 280 09:55 11.07.2020
5834 Clouds 15 1022 72 10000 5.7 280 09:36 11.07.2020
5835 Clouds 14 1022 76 10000 5.1 290 09:18 11.07.2020
5836 Clouds 14 1021 76 10000 5.1 280 08:37 11.07.2020
5837 Clouds 12 1021 82 10000 4.1 270 08:19 11.07.2020
5838 Clouds 11 1021 87 10000 3.6 260 07:45 11.07.2020
5839 Rain 11 1021 87 10000 3.1 260 07:27 11.07.2020
5840 Rain 10 1021 93 10000 2.6 260 06:56 11.07.2020
5841 Clouds 10 1021 100 10000 1 0 06:22 11.07.2020
5842 Clouds 9 1020 100 10000 2.1 260 05:36 11.07.2020
5843 Clouds 9 1020 93 10000 1 0 04:57 11.07.2020
5844 Clouds 9 1020 93 10000 1 0 04:33 11.07.2020
5845 Clouds 9 1020 93 10000 2.1 250 03:38 11.07.2020
5846 Clouds 9 1019 93 10000 1.5 230 02:48 11.07.2020
5847 Clear 10 1019 87 10000 1.5 220 01:53 11.07.2020
5848 Clear 10 1018 93 10000 1 0 01:20 11.07.2020
5849 Clear 10 1018 93 10000 2.1 250 00:41 11.07.2020
5850 Clear 10 1018 93 10000 2.1 250 00:22 11.07.2020
5851 Clear 10 1018 87 10000 2.6 290 23:58 10.07.2020
5852 Clear 10 1018 87 10000 2.6 290 23:58 10.07.2020
5853 Clear 11 1018 87 10000 2.6 290 23:40 10.07.2020
5854 Clear 10 1017 87 10000 3.1 290 23:21 10.07.2020
5855 Clouds 11 1017 87 10000 3.1 290 22:49 10.07.2020
5856 Clouds 12 1017 81 10000 3.6 300 22:24 10.07.2020
5857 Clouds 12 1017 81 10000 3.6 300 21:59 10.07.2020
5858 Clouds 14 1016 76 10000 4.1 290 21:38 10.07.2020
5859 Clouds 14 1016 82 10000 3.1 300 21:20 10.07.2020
5860 Clouds 15 1016 82 10000 3.6 280 20:54 10.07.2020
5861 Clouds 15 1016 82 10000 3.6 280 20:36 10.07.2020
5862 Clouds 15 1016 72 10000 3.1 290 20:18 10.07.2020
5863 Clouds 14 1015 76 10000 4.1 290 19:43 10.07.2020
5864 Rain 15 1015 72 10000 4.6 320 19:22 10.07.2020
5865 Rain 15 1015 72 10000 6.2 310 18:58 10.07.2020
5866 Rain 15 1015 72 10000 6.2 310 18:58 10.07.2020
5867 Rain 15 1015 72 10000 6.2 310 18:37 10.07.2020
5868 Rain 15 1014 72 10000 5.7 300 18:18 10.07.2020
5869 Rain 16 1014 67 10000 5.1 300 17:55 10.07.2020
5870 Rain 16 1014 67 10000 5.1 300 17:36 10.07.2020
5871 Clouds 16 1014 77 10000 5.1 290 17:18 10.07.2020
5872 Rain 15 1013 77 10000 6.7 310 16:40 10.07.2020
5873 Clouds 15 1013 72 10000 7.2 310 16:19 10.07.2020
5874 Rain 15 1012 77 10000 6.2 330 15:44 10.07.2020
5875 Rain 15 1011 77 10000 5.7 330 15:22 10.07.2020
5876 Clouds 14 1011 82 10000 6.2 340 14:54 10.07.2020
5877 Clouds 14 1011 82 10000 6.2 340 14:36 10.07.2020
5878 Rain 14 1010 87 10000 6.7 340 14:18 10.07.2020
5879 Drizzle 13 1009 93 10000 5.7 330 13:55 10.07.2020
5880 Drizzle 13 1009 93 10000 5.7 330 13:36 10.07.2020
5881 Clouds 13 1009 93 6000 6.7 330 13:18 10.07.2020
5882 Drizzle 13 1008 93 8000 5.7 330 12:42 10.07.2020
5883 Clouds 13 1007 93 10000 5.7 340 12:24 10.07.2020
5884 Drizzle 14 1007 93 10000 4.6 320 11:58 10.07.2020
5885 Drizzle 14 1007 93 10000 4.6 320 11:38 10.07.2020
5886 Drizzle 14 1006 93 4600 5.23 252 11:18 10.07.2020
5887 Drizzle 14 1006 93 4600 5.23 252 10:54 10.07.2020
5888 Drizzle 14 1005 100 4200 4.1 340 10:36 10.07.2020
5889 Drizzle 14 1005 100 4200 4.1 340 10:18 10.07.2020
5890 Drizzle 14 1005 93 4200 3.6 340 09:37 10.07.2020
5891 Drizzle 15 1005 93 3800 4.1 220 09:19 10.07.2020
5892 Clouds 15 1005 93 8000 3.1 210 08:56 10.07.2020
5893 Clouds 15 1005 93 8000 3.1 210 08:38 10.07.2020
5894 Clouds 15 1005 100 8000 2.1 200 08:20 10.07.2020
5895 Clouds 15 1005 100 8000 2.1 210 07:42 10.07.2020
5896 Clouds 15 1006 93 8000 2.1 180 07:22 10.07.2020
5897 Drizzle 14 1006 100 3200 1.5 170 06:49 10.07.2020
5898 Drizzle 13 1006 100 2500 1.5 320 06:24 10.07.2020
5899 Drizzle 13 1007 93 2800 2.6 80 04:43 10.07.2020
5900 Clouds 13 1008 100 7000 1.5 100 03:38 10.07.2020
5901 Drizzle 13 1009 100 3800 3.1 80 02:52 10.07.2020
5902 Drizzle 13 1010 100 2300 3.1 70 01:50 10.07.2020
5903 Drizzle 13 1010 100 4500 2.6 80 00:49 10.07.2020
5904 Drizzle 13 1011 100 4500 2.1 60 00:21 10.07.2020
5905 Drizzle 13 1011 100 2500 2.6 50 23:49 09.07.2020
5906 Drizzle 13 1011 100 3200 2.1 50 23:24 09.07.2020
5907 Drizzle 13 1011 100 3200 2.1 50 22:59 09.07.2020
5908 Drizzle 13 1011 100 4500 2.1 70 22:41 09.07.2020
5909 Drizzle 13 1011 100 3500 2.1 50 22:21 09.07.2020
5910 Drizzle 13 1011 100 3500 2.1 50 21:59 09.07.2020
5911 Drizzle 13 1011 93 3500 1.5 60 21:39 09.07.2020
5912 Drizzle 14 1011 93 7000 2.1 50 21:19 09.07.2020
5913 Drizzle 14 1011 93 7000 2.1 50 20:58 09.07.2020
5914 Drizzle 14 1011 93 4200 2.1 40 20:39 09.07.2020
5915 Drizzle 14 1011 93 4200 2.1 20 20:21 09.07.2020
5916 Drizzle 14 1011 93 3800 1.5 30 19:43 09.07.2020
5917 Drizzle 14 1011 93 4200 1.5 30 19:21 09.07.2020
5918 Drizzle 14 1011 93 3800 2.1 20 18:56 09.07.2020
5919 Drizzle 14 1011 93 3800 2.1 20 18:38 09.07.2020
5920 Drizzle 14 1011 93 3800 2.1 10 18:18 09.07.2020
5921 Drizzle 14 1011 93 4000 2.6 10 17:42 09.07.2020
5922 Drizzle 14 1011 93 5000 2.6 360 17:22 09.07.2020
5923 Drizzle 14 1011 93 4500 2.1 360 16:56 09.07.2020
5924 Drizzle 14 1011 93 4500 2.1 360 16:38 09.07.2020
5925 Clouds 14 1011 93 8000 3.1 10 16:19 09.07.2020
5926 Clouds 14 1011 93 7000 3.1 360 15:57 09.07.2020
5927 Clouds 14 1011 93 7000 3.1 360 15:37 09.07.2020
5928 Drizzle 14 1011 93 4500 2.6 20 15:18 09.07.2020
5929 Clouds 14 1010 93 8000 3.6 20 14:57 09.07.2020
5930 Clouds 14 1010 93 8000 3.6 20 14:39 09.07.2020
5931 Clouds 14 1010 93 8000 3.6 20 14:39 09.07.2020
5932 Clouds 13 1010 93 7000 4.1 10 14:20 09.07.2020
5933 Drizzle 13 1010 93 6000 4.1 30 13:56 09.07.2020
5934 Drizzle 13 1010 93 6000 4.1 30 13:38 09.07.2020
5935 Drizzle 13 1010 93 6000 3.6 40 13:18 09.07.2020
5936 Drizzle 13 1010 100 4000 2.6 50 12:41 09.07.2020
5937 Drizzle 12 1010 100 3600 3.6 50 12:23 09.07.2020
5938 Mist 12 1010 100 5000 3.6 70 11:57 09.07.2020
5939 Drizzle 12 1010 100 5000 3.6 70 11:38 09.07.2020
5940 Rain 12 1011 93 6000 4.1 70 11:18 09.07.2020
5941 Rain 12 1011 100 4800 4.6 70 10:55 09.07.2020
5942 Rain 12 1011 100 4800 4.6 70 10:37 09.07.2020
5943 Rain 12 1011 100 5000 5.1 70 10:19 09.07.2020
5944 Rain 12 1012 100 4800 4.6 60 09:42 09.07.2020
5945 Rain 12 1012 100 5000 3.6 70 09:22 09.07.2020
5946 Drizzle 12 1012 100 4400 4.1 70 08:49 09.07.2020
5947 Drizzle 12 1013 100 2500 4.1 60 08:26 09.07.2020
5948 Drizzle 12 1013 100 3600 3.1 50 07:56 09.07.2020
5949 Mist 12 1013 100 3600 3.1 50 07:37 09.07.2020
5950 Drizzle 12 1013 93 4600 3.6 70 07:19 09.07.2020
5951 Mist 12 1014 100 4000 2.6 70 06:20 09.07.2020
5952 Mist 12 1014 100 4000 3.1 60 05:50 09.07.2020
5953 Drizzle 12 1014 100 7000 2.6 50 04:29 09.07.2020
5954 Clouds 13 1015 93 10000 1 100 02:47 09.07.2020
5955 Clouds 13 1015 93 10000 1.5 150 01:55 09.07.2020
5956 Rain 13 1016 87 10000 1.28 73 00:59 09.07.2020
5957 Clouds 13 1016 87 10000 1.28 73 00:40 09.07.2020
5958 Clouds 14 1016 87 10000 0.5 0 00:21 09.07.2020
5959 Clouds 14 1016 87 10000 0.5 0 23:43 08.07.2020
5960 Clouds 14 1016 87 10000 1 190 23:25 08.07.2020
5961 Clouds 14 1016 87 10000 2.1 180 22:56 08.07.2020
5962 Clouds 14 1016 87 10000 2.1 180 22:38 08.07.2020
5963 Clouds 15 1016 82 10000 1.5 200 22:19 08.07.2020
5964 Clouds 15 1016 82 10000 1.5 180 21:56 08.07.2020
5965 Clouds 15 1016 82 10000 1.5 180 21:36 08.07.2020
5966 Clouds 15 1016 77 10000 1.5 90 21:18 08.07.2020
5967 Clouds 16 1015 77 10000 2.1 70 20:41 08.07.2020
5968 Clouds 16 1015 72 10000 1.5 260 20:23 08.07.2020
5969 Clouds 16 1015 72 10000 1 0 19:56 08.07.2020
5970 Clouds 17 1015 72 10000 1 0 19:37 08.07.2020
5971 Clouds 17 1015 72 10000 1.5 260 19:19 08.07.2020
5972 Clouds 17 1015 72 10000 1.5 220 18:42 08.07.2020
5973 Clouds 17 1015 72 10000 1.5 210 18:21 08.07.2020
5974 Clouds 17 1016 67 10000 1 280 17:58 08.07.2020
5975 Clouds 17 1016 67 10000 1 280 17:39 08.07.2020
5976 Clouds 17 1015 72 10000 3.1 10 17:20 08.07.2020
5977 Clouds 16 1015 72 10000 3.1 10 16:58 08.07.2020
5978 Clouds 16 1015 72 10000 3.1 10 16:38 08.07.2020
5979 Clouds 16 1015 63 10000 2.6 310 16:19 08.07.2020
5980 Clouds 16 1015 63 10000 2.6 310 15:58 08.07.2020
5981 Clouds 16 1015 55 10000 2.6 260 15:38 08.07.2020
5982 Clouds 17 1015 59 10000 3.1 250 15:19 08.07.2020
5983 Clouds 17 1015 59 10000 2.6 240 14:44 08.07.2020
5984 Clouds 17 1015 59 10000 3.1 280 14:25 08.07.2020
5985 Clouds 17 1015 59 10000 3.1 280 13:58 08.07.2020
5986 Clouds 17 1015 55 10000 3.1 230 13:40 08.07.2020
5987 Clouds 18 1015 55 10000 2.6 220 13:19 08.07.2020
5988 Rain 17 1015 59 10000 2.6 0 12:42 08.07.2020
5989 Clouds 17 1015 63 10000 2.6 250 12:21 08.07.2020
5990 Clouds 17 1014 67 10000 2.1 260 11:56 08.07.2020
5991 Clouds 17 1014 67 10000 2.1 260 11:38 08.07.2020
5992 Clouds 16 1015 67 10000 2.6 250 11:20 08.07.2020
5993 Clouds 17 1015 67 10000 2.1 250 10:44 08.07.2020
5994 Clouds 15 1014 72 10000 2.6 260 10:25 08.07.2020
5995 Clouds 15 1014 72 10000 3.1 260 09:46 08.07.2020
5996 Clouds 14 1014 76 10000 2.1 240 09:26 08.07.2020
5997 Clouds 14 1014 76 10000 2.1 240 08:58 08.07.2020
5998 Clouds 14 1014 76 10000 3.1 230 08:39 08.07.2020
5999 Clouds 13 1014 82 10000 2.1 240 08:20 08.07.2020
6000 Clouds 13 1014 82 10000 2.6 250 07:44 08.07.2020
6001 Clouds 12 1014 87 10000 2.6 240 07:22 08.07.2020
6002 Clouds 12 1014 87 10000 1 230 06:53 08.07.2020
6003 Clouds 12 1014 87 10000 1 230 06:31 08.07.2020
6004 Clouds 11 1014 93 10000 1.5 230 05:50 08.07.2020
6005 Clouds 11 1015 93 10000 1.5 230 04:58 08.07.2020
6006 Clouds 11 1015 87 10000 2.1 250 04:20 08.07.2020
6007 Rain 12 1015 87 10000 2.1 230 02:20 08.07.2020
6008 Rain 12 1016 76 10000 2.1 270 01:44 08.07.2020
6009 Rain 13 1016 71 10000 3.6 270 00:59 08.07.2020
6010 Clouds 13 1016 71 10000 4.6 270 00:25 08.07.2020
6011 Clouds 13 1016 71 10000 4.6 260 23:55 07.07.2020
6012 Clouds 13 1016 71 10000 4.6 260 23:37 07.07.2020
6013 Rain 13 1016 76 10000 3.6 260 23:18 07.07.2020
6014 Rain 14 1016 71 10000 3.6 270 22:41 07.07.2020
6015 Clouds 14 1016 71 10000 4.1 280 22:22 07.07.2020
6016 Clouds 14 1016 71 10000 4.1 280 21:59 07.07.2020
6017 Clouds 14 1016 67 10000 4.1 270 21:39 07.07.2020
6018 Clouds 15 1016 62 10000 4.1 280 21:21 07.07.2020
6019 Clouds 15 1016 67 10000 2.6 280 20:57 07.07.2020
6020 Clouds 15 1016 67 10000 2.6 280 20:39 07.07.2020
6021 Clouds 15 1016 62 10000 3.6 290 20:20 07.07.2020
6022 Clouds 16 1016 67 10000 5.1 290 19:41 07.07.2020
6023 Clouds 16 1017 67 10000 6.2 290 19:21 07.07.2020
6024 Clouds 16 1017 67 10000 4.6 300 18:58 07.07.2020
6025 Clouds 16 1017 67 10000 4.6 300 18:40 07.07.2020
6026 Clouds 16 1017 82 10000 3.1 290 18:21 07.07.2020
6027 Clouds 15 1017 82 10000 3.6 260 17:58 07.07.2020
6028 Clouds 15 1017 82 10000 3.6 260 17:38 07.07.2020
6029 Rain 15 1017 87 10000 5.1 260 17:20 07.07.2020
6030 Rain 15 1017 76 10000 6.7 270 16:43 07.07.2020
6031 Rain 15 1017 87 10000 4.6 280 16:24 07.07.2020
6032 Rain 15 1017 87 10000 4.6 280 15:58 07.07.2020
6033 Rain 16 1016 59 10000 6.2 240 15:39 07.07.2020
6034 Clouds 18 1016 52 10000 9.3 230 15:20 07.07.2020
6035 Clouds 18 1017 48 10000 8.7 240 14:47 07.07.2020
6036 Clouds 19 1017 48 10000 8.2 240 14:27 07.07.2020
6037 Clouds 19 1017 48 10000 8.2 240 13:59 07.07.2020
6038 Clouds 19 1017 48 10000 8.2 230 13:38 07.07.2020
6039 Clouds 19 1017 52 10000 7.7 230 13:18 07.07.2020
6040 Clouds 19 1018 52 10000 5.7 240 12:41 07.07.2020
6041 Clouds 18 1018 55 10000 4.1 220 12:22 07.07.2020
6042 Clouds 18 1018 55 10000 4.1 220 12:22 07.07.2020
6043 Clouds 17 1018 55 10000 4.1 240 11:58 07.07.2020
6044 Clouds 17 1018 55 10000 4.1 240 11:40 07.07.2020
6045 Clouds 16 1019 63 10000 4.1 250 11:20 07.07.2020
6046 Clouds 16 1019 63 10000 6.2 250 10:57 07.07.2020
6047 Clouds 16 1019 63 10000 6.2 250 10:37 07.07.2020
6048 Clouds 16 1019 63 10000 5.7 250 10:18 07.07.2020
6049 Clouds 15 1019 67 10000 5.7 270 09:41 07.07.2020
6050 Clouds 14 1019 72 10000 5.1 250 09:21 07.07.2020
6051 Clouds 13 1019 71 10000 4.6 250 08:42 07.07.2020
6052 Clouds 13 1019 82 10000 4.1 250 08:24 07.07.2020
6053 Clouds 12 1019 81 10000 4.1 250 07:47 07.07.2020
6054 Clouds 12 1019 87 10000 4.1 260 07:25 07.07.2020
6055 Clouds 11 1019 93 10000 3.1 260 06:50 07.07.2020
6056 Clouds 11 1019 93 10000 3.1 260 06:50 07.07.2020
6057 Clear 10 1019 93 10000 1 0 06:31 07.07.2020
6058 Clear 10 1018 93 10000 2.1 270 05:54 07.07.2020
6059 Clear 10 1018 93 10000 3.1 250 05:23 07.07.2020
6060 Clouds 10 1018 93 10000 3.6 250 04:42 07.07.2020
6061 Clouds 11 1019 87 10000 4.1 260 03:41 07.07.2020
6062 Clouds 11 1019 87 10000 4.6 270 02:28 07.07.2020
6063 Clear 11 1018 93 10000 3.6 250 01:25 07.07.2020
6064 Clouds 11 1018 93 10000 4.6 260 00:56 07.07.2020
6065 Clouds 11 1018 93 10000 4.6 260 00:38 07.07.2020
6066 Clouds 12 1018 93 10000 3.1 260 00:19 07.07.2020
6067 Clouds 12 1018 87 10000 3.6 270 23:42 06.07.2020
6068 Clouds 12 1017 93 10000 4.1 260 23:23 06.07.2020
6069 Clouds 13 1017 87 10000 4.1 260 22:55 06.07.2020
6070 Clouds 13 1017 87 10000 4.1 260 22:37 06.07.2020
6071 Clouds 13 1017 87 10000 4.1 260 22:18 06.07.2020
6072 Clouds 13 1016 87 10000 3.6 260 21:55 06.07.2020
6073 Clouds 13 1016 87 10000 3.6 260 21:36 06.07.2020
6074 Rain 13 1016 82 10000 4.6 270 21:18 06.07.2020
6075 Rain 14 1016 76 8000 8.2 290 20:40 06.07.2020
6076 Clouds 15 1015 67 10000 7.2 280 20:20 06.07.2020
6077 Rain 16 1015 67 10000 8.7 300 19:58 06.07.2020
6078 Rain 16 1015 67 10000 8.7 300 19:39 06.07.2020
6079 Clouds 16 1014 63 10000 10.8 300 19:21 06.07.2020
6080 Clouds 17 1014 55 10000 9.8 290 18:57 06.07.2020
6081 Clouds 17 1014 55 10000 9.8 290 18:39 06.07.2020
6082 Clouds 17 1014 59 10000 9.3 280 18:21 06.07.2020
6083 Clouds 18 1013 63 10000 7.7 270 17:46 06.07.2020
6084 Rain 16 1013 72 10000 10.3 290 17:28 06.07.2020
6085 Clouds 16 1013 63 10000 10.8 300 16:59 06.07.2020
6086 Clouds 17 1013 63 10000 10.8 300 16:41 06.07.2020
6087 Clouds 18 1012 55 10000 11.3 300 16:22 06.07.2020
6088 Clouds 18 1012 59 10000 11.3 300 15:44 06.07.2020
6089 Clouds 18 1012 67 10000 8.7 300 15:26 06.07.2020
6090 Clouds 17 1012 67 10000 8.7 300 14:57 06.07.2020
6091 Clouds 17 1012 67 10000 8.7 300 14:57 06.07.2020
6092 Clouds 16 1011 72 10000 9.3 300 14:38 06.07.2020
6093 Thunderstorm 16 1011 82 10000 8.7 270 14:20 06.07.2020
6094 Thunderstorm 15 1011 82 10000 8.7 270 13:58 06.07.2020
6095 Clouds 16 1010 59 10000 9.3 250 13:39 06.07.2020
6096 Rain 16 1010 72 10000 11.3 250 13:20 06.07.2020
6097 Clouds 18 1010 59 10000 9.8 250 12:43 06.07.2020
6098 Clouds 18 1009 59 10000 9.8 260 12:20 06.07.2020
6099 Clouds 17 1009 67 10000 9.8 250 11:58 06.07.2020
6100 Clouds 17 1009 67 10000 9.8 250 11:40 06.07.2020
6101 Clouds 17 1009 77 10000 7.2 260 11:22 06.07.2020
6102 Rain 16 1009 72 10000 8.2 260 10:58 06.07.2020
6103 Rain 16 1009 72 10000 8.2 260 10:39 06.07.2020
6104 Clouds 16 1009 67 10000 9.8 250 10:18 06.07.2020
6105 Clouds 16 1008 67 10000 9.3 250 09:45 06.07.2020
6106 Clouds 15 1008 77 10000 7.7 250 09:22 06.07.2020
6107 Clouds 15 1008 77 10000 7.7 250 09:22 06.07.2020
6108 Clouds 15 1008 77 10000 7.7 250 08:59 06.07.2020
6109 Clouds 13 1008 82 10000 7.7 260 08:40 06.07.2020
6110 Clouds 14 1008 72 10000 8.7 240 08:20 06.07.2020
6111 Clear 14 1008 72 10000 7.7 240 07:47 06.07.2020
6112 Clear 13 1008 76 10000 6.7 240 07:29 06.07.2020
6113 Clear 13 1007 82 10000 5.7 230 06:49 06.07.2020
6114 Clear 13 1007 82 10000 4.6 220 06:31 06.07.2020
6115 Clouds 13 1007 82 10000 5.1 230 05:44 06.07.2020
6116 Clouds 13 1007 82 10000 5.7 240 05:25 06.07.2020
6117 Clouds 15 1007 72 10000 6.7 240 03:53 06.07.2020
6118 Clouds 14 1007 82 10000 4.6 230 02:29 06.07.2020
6119 Clouds 15 1007 87 10000 3.1 200 01:54 06.07.2020
6120 Clouds 15 1007 87 10000 3.1 250 00:49 06.07.2020
6121 Clouds 14 1008 93 10000 1.5 270 00:23 06.07.2020
6122 Clouds 15 1007 87 10000 1.5 250 23:56 05.07.2020
6123 Clouds 15 1007 87 10000 1.5 250 23:38 05.07.2020
6124 Clouds 16 1008 82 10000 1.5 290 23:19 05.07.2020
6125 Clouds 16 1008 77 10000 2.6 300 22:42 05.07.2020
6126 Clouds 17 1007 68 10000 3.6 320 22:21 05.07.2020
6127 Clouds 18 1007 72 10000 4.1 310 21:59 05.07.2020
6128 Clouds 18 1007 72 10000 4.1 310 21:41 05.07.2020
6129 Rain 19 1007 60 10000 7.2 270 21:19 05.07.2020
6130 Rain 19 1007 60 10000 7.2 270 20:59 05.07.2020
6131 Clouds 20 1007 56 10000 7.7 270 20:41 05.07.2020
6132 Clouds 20 1007 56 10000 8.2 270 20:22 05.07.2020
6133 Clouds 21 1007 53 10000 8.2 260 19:57 05.07.2020
6134 Clouds 21 1007 53 10000 8.2 260 19:39 05.07.2020
6135 Clouds 21 1007 53 10000 8.2 260 19:19 05.07.2020
6136 Clouds 22 1007 53 10000 8.7 260 18:42 05.07.2020
6137 Clouds 22 1007 56 10000 8.7 260 18:23 05.07.2020
6138 Clouds 22 1007 56 10000 8.2 260 17:59 05.07.2020
6139 Clouds 21 1007 56 10000 8.2 260 17:41 05.07.2020
6140 Clouds 23 1007 50 10000 10.8 250 17:19 05.07.2020
6141 Clouds 21 1008 60 10000 11.3 250 16:45 05.07.2020
6142 Clouds 21 1007 60 10000 11.3 250 16:26 05.07.2020
6143 Clouds 21 1007 60 10000 11.3 250 15:59 05.07.2020
6144 Clouds 21 1007 68 10000 9.3 250 15:39 05.07.2020
6145 Clouds 21 1007 77 10000 9.8 250 15:19 05.07.2020
6146 Rain 20 1007 88 10000 9.8 240 14:43 05.07.2020
6147 Drizzle 20 1007 88 10000 10.3 240 14:23 05.07.2020
6148 Drizzle 19 1007 88 10000 10.3 240 13:59 05.07.2020
6149 Drizzle 19 1007 88 10000 8.7 230 13:40 05.07.2020
6150 Rain 19 1007 88 10000 8.7 230 13:20 05.07.2020
6151 Rain 19 1007 88 10000 7.2 230 12:44 05.07.2020
6152 Rain 18 1007 93 7000 7.7 230 12:20 05.07.2020
6153 Rain 18 1007 88 7000 9.3 240 11:56 05.07.2020
6154 Rain 18 1007 88 7000 9.3 240 11:38 05.07.2020
6155 Rain 19 1007 82 8000 9.3 230 11:18 05.07.2020
6156 Rain 19 1007 82 8000 9.3 230 11:18 05.07.2020
6157 Clouds 19 1007 77 10000 10.3 240 10:54 05.07.2020
6158 Clouds 19 1007 77 10000 10.3 240 10:36 05.07.2020
6159 Clouds 19 1007 77 10000 9.8 230 10:18 05.07.2020
6160 Clouds 19 1006 82 10000 9.8 230 09:41 05.07.2020
6161 Clouds 18 1006 88 10000 8.2 220 09:20 05.07.2020
6162 Clouds 18 1006 82 10000 8.2 230 08:56 05.07.2020
6163 Clouds 18 1006 82 10000 8.2 230 08:37 05.07.2020
6164 Clouds 18 1006 82 10000 8.7 220 08:18 05.07.2020
6165 Clouds 18 1007 82 10000 7.7 240 07:39 05.07.2020
6166 Clouds 18 1007 88 10000 6.2 230 07:21 05.07.2020
6167 Clouds 18 1007 88 10000 6.7 240 06:45 05.07.2020
6168 Clouds 18 1007 93 10000 6.2 220 04:27 05.07.2020
6169 Drizzle 18 1008 93 3500 5.1 220 03:18 05.07.2020
6170 Clouds 18 1008 93 10000 6.2 220 02:40 05.07.2020
6171 Drizzle 18 1009 93 5000 6.2 220 01:59 05.07.2020
6172 Drizzle 18 1009 93 10000 5.7 210 01:28 05.07.2020
6173 Clouds 18 1009 88 10000 6.2 210 00:53 05.07.2020
6174 Clouds 18 1009 88 10000 6.2 210 00:31 05.07.2020
6175 Clouds 18 1010 88 10000 5.7 210 23:58 04.07.2020
6176 Clouds 18 1010 88 10000 5.7 210 23:40 04.07.2020
6177 Clouds 18 1010 88 10000 6.2 220 23:22 04.07.2020
6178 Drizzle 18 1010 88 10000 6.7 210 22:43 04.07.2020
6179 Clouds 18 1010 88 10000 5.7 220 22:25 04.07.2020
6180 Clouds 17 1010 88 10000 5.7 220 21:58 04.07.2020
6181 Drizzle 17 1010 88 10000 6.2 230 21:40 04.07.2020
6182 Drizzle 17 1011 88 10000 6.2 220 21:22 04.07.2020
6183 Drizzle 17 1011 88 10000 6.7 220 20:54 04.07.2020
6184 Drizzle 17 1011 88 10000 6.7 220 20:36 04.07.2020
6185 Clouds 17 1011 88 10000 5.1 220 20:18 04.07.2020
6186 Clouds 17 1011 88 10000 6.7 220 19:41 04.07.2020
6187 Drizzle 17 1011 93 10000 6.2 220 19:21 04.07.2020
6188 Drizzle 17 1011 93 2200 5.1 230 18:55 04.07.2020
6189 Drizzle 17 1011 93 2200 5.1 230 18:36 04.07.2020
6190 Drizzle 17 1012 93 2200 5.1 230 18:18 04.07.2020
6191 Drizzle 17 1011 93 3500 7.7 230 17:42 04.07.2020
6192 Clouds 18 1011 82 10000 8.2 230 17:22 04.07.2020
6193 Clouds 18 1011 82 10000 8.7 220 16:56 04.07.2020
6194 Clouds 18 1011 82 10000 8.7 220 16:37 04.07.2020
6195 Clouds 19 1011 72 10000 8.7 230 16:18 04.07.2020
6196 Clouds 19 1011 68 10000 8.7 230 15:45 04.07.2020
6197 Clouds 19 1011 72 10000 9.3 230 15:26 04.07.2020
6198 Clouds 19 1011 72 10000 9.3 230 14:59 04.07.2020
6199 Clouds 19 1011 72 10000 9.3 230 14:59 04.07.2020
6200 Clouds 19 1011 68 10000 9.8 230 14:37 04.07.2020
6201 Clouds 20 1011 64 10000 8.7 220 14:19 04.07.2020
6202 Clouds 20 1011 64 10000 7.2 210 13:56 04.07.2020
6203 Clouds 20 1011 64 10000 7.2 210 13:37 04.07.2020
6204 Clouds 18 1011 72 10000 6.7 210 13:18 04.07.2020
6205 Clouds 18 1011 72 10000 8.2 210 12:42 04.07.2020
6206 Clouds 18 1012 72 10000 6.7 220 12:20 04.07.2020
6207 Clouds 17 1012 77 10000 7.7 220 11:46 04.07.2020
6208 Clouds 17 1012 77 10000 7.2 220 11:25 04.07.2020
6209 Clouds 17 1012 77 10000 7.2 220 11:00 04.07.2020
6210 Clouds 17 1012 72 10000 8.2 230 10:41 04.07.2020
6211 Clouds 17 1012 72 10000 8.2 230 10:21 04.07.2020
6212 Clouds 16 1012 77 10000 8.7 230 09:58 04.07.2020
6213 Clouds 16 1012 77 10000 8.7 230 09:58 04.07.2020
6214 Clouds 16 1012 77 10000 8.7 230 09:37 04.07.2020
6215 Clouds 16 1012 72 10000 7.2 230 09:18 04.07.2020
6216 Clouds 16 1012 82 10000 7.2 240 08:46 04.07.2020
6217 Clouds 15 1012 82 10000 6.2 230 08:27 04.07.2020
6218 Rain 15 1012 82 10000 3.6 210 07:46 04.07.2020
6219 Rain 15 1013 82 10000 4.1 220 07:28 04.07.2020
6220 Rain 15 1013 77 10000 6.7 230 06:55 04.07.2020
6221 Rain 16 1013 72 10000 6.2 220 06:23 04.07.2020
6222 Rain 16 1013 67 10000 6.2 220 05:36 04.07.2020
6223 Clouds 16 1013 63 10000 6.7 230 04:44 04.07.2020
6224 Clouds 16 1013 72 10000 4.6 220 03:18 04.07.2020
6225 Clouds 16 1014 77 10000 4.1 220 02:26 04.07.2020
6226 Clouds 16 1014 82 10000 3.6 210 01:32 04.07.2020
6227 Clouds 16 1014 87 10000 3.1 200 00:44 04.07.2020
6228 Clouds 17 1014 82 10000 2.6 210 00:25 04.07.2020
6229 Clouds 17 1014 77 10000 2.6 210 23:41 03.07.2020
6230 Clouds 17 1014 87 10000 2.1 200 23:19 03.07.2020
6231 Clouds 17 1014 87 10000 2.1 200 22:59 03.07.2020
6232 Clouds 18 1014 82 10000 2.1 220 22:39 03.07.2020
6233 Clouds 19 1014 77 10000 2.6 210 22:21 03.07.2020
6234 Clouds 18 1014 77 10000 2.1 210 21:54 03.07.2020
6235 Clouds 19 1014 77 10000 2.1 210 21:36 03.07.2020
6236 Clouds 19 1014 72 10000 3.6 230 21:18 03.07.2020
6237 Clouds 20 1014 72 10000 3.6 210 20:42 03.07.2020
6238 Clouds 20 1014 72 10000 3.6 210 20:23 03.07.2020
6239 Rain 19 1014 72 10000 3.6 220 19:42 03.07.2020
6240 Clouds 20 1014 72 10000 3.6 220 19:21 03.07.2020
6241 Clouds 20 1014 77 10000 3.1 210 18:58 03.07.2020
6242 Clouds 20 1014 77 10000 3.1 210 18:40 03.07.2020
6243 Rain 19 1014 82 10000 8.2 230 18:22 03.07.2020
6244 Rain 20 1014 60 10000 6.7 230 17:45 03.07.2020
6245 Clouds 21 1014 56 10000 7.2 230 17:23 03.07.2020
6246 Clouds 22 1014 56 10000 7.2 230 16:59 03.07.2020
6247 Clouds 22 1014 53 10000 7.7 230 16:39 03.07.2020
6248 Clouds 22 1014 53 10000 7.7 230 16:20 03.07.2020
6249 Clouds 21 1014 56 10000 6.7 230 15:42 03.07.2020
6250 Clouds 21 1015 60 10000 8.2 230 15:22 03.07.2020
6251 Clouds 21 1015 60 10000 8.2 230 15:22 03.07.2020
6252 Clouds 21 1015 56 10000 7.7 220 14:55 03.07.2020
6253 Clouds 21 1015 56 10000 7.7 220 14:37 03.07.2020
6254 Clouds 20 1015 60 10000 6.2 230 14:18 03.07.2020
6255 Clouds 20 1015 64 10000 7.2 240 13:41 03.07.2020
6256 Clouds 20 1015 64 10000 6.2 230 13:23 03.07.2020
6257 Clouds 20 1015 68 10000 5.7 250 12:45 03.07.2020
6258 Clouds 19 1015 63 10000 5.7 240 12:23 03.07.2020
6259 Clouds 19 1015 72 10000 4.6 260 11:57 03.07.2020
6260 Clouds 18 1015 72 10000 4.6 260 11:39 03.07.2020
6261 Rain 18 1015 77 10000 5.7 220 11:19 03.07.2020
6262 Clouds 18 1015 77 10000 4.1 250 10:55 03.07.2020
6263 Clouds 17 1015 77 10000 4.1 250 10:36 03.07.2020
6264 Clouds 17 1015 82 10000 4.1 240 10:18 03.07.2020
6265 Clouds 16 1014 87 10000 3.6 250 09:40 03.07.2020
6266 Clouds 15 1014 87 10000 3.1 250 09:22 03.07.2020
6267 Clouds 15 1014 87 10000 3.1 250 08:58 03.07.2020
6268 Clouds 15 1014 87 10000 2.6 250 08:38 03.07.2020
6269 Clouds 14 1014 87 10000 2.1 230 08:18 03.07.2020
6270 Clouds 14 1014 93 10000 1 0 07:47 03.07.2020
6271 Clouds 14 1014 93 10000 3.41 229 07:23 03.07.2020
6272 Clouds 12 1014 93 10000 0.5 0 06:40 03.07.2020
6273 Mist 11 1013 100 3500 1 0 05:56 03.07.2020
6274 Clear 12 1013 93 10000 2.6 210 04:28 03.07.2020
6275 Clear 13 1013 100 10000 1.5 230 02:57 03.07.2020
6276 Clear 13 1013 100 10000 1.5 230 02:32 03.07.2020
6277 Clouds 13 1012 100 8000 2.1 220 01:54 03.07.2020
6278 Clouds 14 1012 100 8000 2.6 220 01:23 03.07.2020
6279 Clouds 14 1012 100 8000 1.5 210 00:44 03.07.2020
6280 Clouds 14 1012 93 10000 1.5 210 00:20 03.07.2020
6281 Clouds 14 1012 93 10000 2.1 270 23:43 02.07.2020
6282 Rain 15 1012 87 10000 3.1 290 23:20 02.07.2020
6283 Thunderstorm 15 1011 93 10000 2.6 280 22:57 02.07.2020
6284 Thunderstorm 15 1011 93 10000 2.6 280 22:39 02.07.2020
6285 Thunderstorm 15 1011 93 4000 4.6 330 22:20 02.07.2020
6286 Thunderstorm 15 1011 93 4000 4.6 330 22:20 02.07.2020
6287 Rain 16 1010 88 10000 1.5 240 21:54 02.07.2020
6288 Rain 16 1010 88 10000 1.5 240 21:36 02.07.2020
6289 Rain 16 1010 88 10000 1.5 240 21:36 02.07.2020
6290 Thunderstorm 17 1010 77 10000 2.6 200 21:18 02.07.2020
6291 Clouds 18 1010 77 10000 2.1 220 20:42 02.07.2020
6292 Clouds 19 1010 72 10000 2.6 220 20:21 02.07.2020
6293 Clouds 19 1010 72 10000 3.1 260 19:57 02.07.2020
6294 Clouds 18 1010 82 10000 2.6 270 19:38 02.07.2020
6295 Clouds 18 1010 82 10000 2.6 270 19:20 02.07.2020
6296 Clouds 18 1010 82 10000 3.1 290 18:57 02.07.2020
6297 Clouds 18 1010 82 10000 3.1 290 18:38 02.07.2020
6298 Clouds 18 1010 82 10000 3.6 290 18:20 02.07.2020
6299 Clouds 18 1009 77 10000 4.6 290 17:40 02.07.2020
6300 Rain 18 1010 82 10000 3.6 290 17:20 02.07.2020
6301 Rain 18 1010 82 7000 7.2 300 16:56 02.07.2020
6302 Rain 18 1010 82 7000 7.2 300 16:38 02.07.2020
6303 Rain 20 1008 53 10000 7.7 230 16:19 02.07.2020
6304 Rain 22 1009 53 10000 5.7 230 15:55 02.07.2020
6305 Rain 22 1009 53 10000 5.7 230 15:36 02.07.2020
6306 Clouds 22 1009 50 10000 6.7 230 15:18 02.07.2020
6307 Rain 21 1009 56 10000 7.2 240 14:43 02.07.2020
6308 Rain 21 1009 64 10000 6.7 240 14:20 02.07.2020
6309 Rain 21 1009 68 10000 5.1 230 13:56 02.07.2020
6310 Rain 21 1009 68 10000 5.1 230 13:37 02.07.2020
6311 Rain 21 1009 64 10000 5.1 240 13:18 02.07.2020
6312 Rain 20 1009 68 10000 6.2 240 12:41 02.07.2020
6313 Rain 19 1009 82 10000 4.6 230 12:22 02.07.2020
6314 Rain 19 1009 82 10000 4.6 230 12:22 02.07.2020
6315 Clouds 19 1009 72 10000 5.1 260 11:55 02.07.2020
6316 Clouds 19 1009 72 10000 5.1 260 11:37 02.07.2020
6317 Clouds 19 1009 72 10000 5.7 240 11:19 02.07.2020
6318 Clouds 18 1008 72 10000 4.1 250 10:42 02.07.2020
6319 Rain 17 1008 82 10000 4.6 230 10:23 02.07.2020
6320 Clouds 17 1008 77 10000 5.1 230 09:44 02.07.2020
6321 Clouds 17 1008 77 10000 5.7 230 09:23 02.07.2020
6322 Clouds 17 1008 77 10000 5.7 230 08:59 02.07.2020
6323 Clouds 16 1008 87 10000 4.6 240 08:40 02.07.2020
6324 Rain 16 1008 82 10000 4.1 240 08:20 02.07.2020
6325 Rain 15 1008 87 10000 4.6 240 07:42 02.07.2020
6326 Rain 14 1007 87 10000 3.1 230 07:22 02.07.2020
6327 Clouds 14 1007 87 10000 2.6 210 06:47 02.07.2020
6328 Clouds 14 1007 87 10000 2.1 200 06:27 02.07.2020
6329 Clouds 14 1007 87 10000 2.1 200 05:49 02.07.2020
6330 Clouds 14 1007 87 10000 2.6 210 04:55 02.07.2020
6331 Clear 14 1007 87 10000 2.6 220 03:34 02.07.2020
6332 Clouds 14 1007 82 10000 3.1 210 01:51 02.07.2020
6333 Clouds 15 1007 82 10000 2.6 220 00:44 02.07.2020
6334 Clouds 15 1007 82 10000 3.1 230 00:19 02.07.2020
6335 Clouds 16 1006 82 10000 3.6 240 23:43 01.07.2020
6336 Clouds 17 1006 77 10000 4.1 260 23:23 01.07.2020
6337 Clouds 18 1006 68 10000 5.1 280 22:55 01.07.2020
6338 Clouds 18 1006 68 10000 5.1 280 22:37 01.07.2020
6339 Clouds 18 1006 68 10000 5.1 280 22:18 01.07.2020
6340 Clouds 18 1005 63 10000 7.7 260 21:57 01.07.2020
6341 Clouds 19 1005 63 10000 7.7 260 21:39 01.07.2020
6342 Clouds 20 1005 60 10000 7.7 260 21:20 01.07.2020
6343 Clouds 20 1005 64 10000 7.7 270 20:46 01.07.2020
6344 Clouds 20 1005 64 10000 7.7 270 20:28 01.07.2020
6345 Clouds 21 1004 73 10000 7.2 220 19:58 01.07.2020
6346 Clouds 21 1004 73 10000 7.2 220 19:40 01.07.2020
6347 Clouds 20 1004 82 10000 5.7 210 19:20 01.07.2020
6348 Clouds 21 1004 82 10000 5.1 210 18:56 01.07.2020
6349 Clouds 21 1004 82 10000 5.1 210 18:38 01.07.2020
6350 Clouds 21 1004 82 10000 6.2 210 18:20 01.07.2020
6351 Clouds 20 1004 82 10000 6.7 210 17:55 01.07.2020
6352 Clouds 20 1004 82 10000 6.7 210 17:37 01.07.2020
6353 Rain 21 1004 82 10000 4.6 220 17:18 01.07.2020
6354 Rain 19 1004 88 10000 5.7 210 16:42 01.07.2020
6355 Clouds 19 1004 88 10000 7.2 210 16:23 01.07.2020
6356 Rain 19 1004 100 10000 6.2 210 15:43 01.07.2020
6357 Rain 19 1004 88 10000 5.7 220 15:23 01.07.2020
6358 Rain 20 1004 88 10000 5.7 220 14:58 01.07.2020
6359 Clouds 20 1005 82 10000 4.1 220 14:39 01.07.2020
6360 Clouds 20 1005 88 10000 3.1 190 14:20 01.07.2020
6361 Rain 19 1005 88 10000 3.6 200 13:55 01.07.2020
6362 Rain 19 1005 88 10000 3.6 200 13:37 01.07.2020
6363 Rain 18 1005 88 10000 4.1 210 13:18 01.07.2020
6364 Rain 19 1005 88 10000 3.1 200 12:41 01.07.2020
6365 Rain 18 1005 93 10000 4.1 200 12:23 01.07.2020
6366 Rain 18 1005 93 10000 4.1 200 11:59 01.07.2020
6367 Rain 18 1005 88 10000 4.1 190 11:40 01.07.2020
6368 Clouds 18 1005 88 10000 4.6 180 11:21 01.07.2020
6369 Rain 17 1005 88 10000 3.6 180 10:57 01.07.2020
6370 Rain 17 1005 88 10000 3.6 180 10:57 01.07.2020
6371 Rain 17 1005 88 10000 3.6 180 10:39 01.07.2020
6372 Clouds 17 1006 93 10000 3.1 220 10:20 01.07.2020
6373 Clouds 17 1005 88 10000 2.6 210 09:39 01.07.2020
6374 Clouds 16 1005 93 10000 3.1 200 09:20 01.07.2020
6375 Clouds 16 1005 93 10000 3.1 200 08:59 01.07.2020
6376 Clouds 16 1005 87 10000 2.1 210 08:40 01.07.2020
6377 Clouds 15 1005 93 10000 3.1 190 08:20 01.07.2020
6378 Clouds 15 1005 93 10000 2.1 210 07:43 01.07.2020
6379 Clouds 15 1005 93 10000 2.1 210 07:25 01.07.2020
6380 Clouds 14 1005 100 10000 2.1 220 06:59 01.07.2020
6381 Clouds 14 1005 100 10000 2.1 220 06:40 01.07.2020
6382 Clouds 14 1005 93 10000 2.6 200 06:20 01.07.2020
6383 Clouds 14 1005 93 10000 3.1 210 04:30 01.07.2020
6384 Clouds 14 1005 93 10000 3.6 250 03:44 01.07.2020
6385 Drizzle 14 1005 93 5000 2.1 250 03:22 01.07.2020
6386 Clouds 14 1005 93 10000 1.5 260 02:33 01.07.2020
6387 Drizzle 14 1005 93 3800 5.7 300 01:25 01.07.2020
6388 Rain 15 1005 93 10000 5.7 220 00:38 01.07.2020
6389 Clouds 15 1005 93 8000 5.7 210 00:20 01.07.2020
6390 Rain 15 1005 93 10000 4.6 200 23:40 30.06.2020
6391 Rain 15 1005 93 10000 4.6 200 23:40 30.06.2020
6392 Rain 15 1006 93 10000 3.6 200 23:20 30.06.2020
6393 Clouds 15 1006 87 10000 3.6 220 22:42 30.06.2020
6394 Clouds 15 1006 87 10000 2.1 210 22:20 30.06.2020
6395 Clouds 15 1006 82 10000 2.1 210 21:55 30.06.2020
6396 Clouds 15 1006 82 10000 2.1 210 21:37 30.06.2020
6397 Clouds 16 1006 82 10000 3.1 240 21:19 30.06.2020
6398 Clouds 15 1007 87 10000 3.1 250 20:43 30.06.2020
6399 Rain 16 1007 82 10000 6.7 240 20:21 30.06.2020
6400 Clouds 16 1007 82 10000 5.1 240 19:55 30.06.2020
6401 Clouds 16 1007 82 10000 5.1 240 19:36 30.06.2020
6402 Clouds 17 1007 63 10000 7.2 250 19:18 30.06.2020
6403 Clouds 17 1007 68 10000 7.2 240 18:42 30.06.2020
6404 Clouds 17 1007 63 10000 8.7 250 18:20 30.06.2020
6405 Clouds 18 1007 63 10000 10.3 240 17:54 30.06.2020
6406 Clouds 18 1007 63 10000 10.3 240 17:36 30.06.2020
6407 Clouds 18 1007 59 10000 8.7 230 17:18 30.06.2020
6408 Rain 17 1007 82 8000 9.8 230 16:41 30.06.2020
6409 Rain 18 1006 59 10000 6.2 230 16:21 30.06.2020
6410 Clouds 18 1007 55 10000 7.2 240 15:57 30.06.2020
6411 Clouds 18 1007 55 10000 7.2 240 15:38 30.06.2020
6412 Clouds 18 1007 59 10000 6.2 240 15:20 30.06.2020
6413 Clouds 17 1007 59 10000 6.7 230 14:44 30.06.2020
6414 Clouds 17 1007 63 10000 7.7 230 14:22 30.06.2020
6415 Clouds 17 1007 63 10000 7.7 230 13:59 30.06.2020
6416 Clouds 16 1007 67 10000 8.7 240 13:38 30.06.2020
6417 Clouds 16 1007 67 10000 9.3 230 13:19 30.06.2020
6418 Clouds 15 1007 67 10000 9.3 240 12:57 30.06.2020
6419 Clouds 15 1007 67 10000 9.3 240 12:39 30.06.2020
6420 Clouds 15 1007 67 10000 8.7 230 12:20 30.06.2020
6421 Clouds 16 1007 67 10000 7.7 220 11:57 30.06.2020
6422 Clouds 15 1007 67 10000 7.7 220 11:38 30.06.2020
6423 Clouds 15 1007 67 10000 9.3 220 11:18 30.06.2020
6424 Clouds 15 1007 72 10000 7.7 220 10:55 30.06.2020
6425 Clouds 22 1012 49 10000 8.2 250 16:38 28.06.2020
6426 Clouds 22 1012 46 10000 6.2 230 16:19 28.06.2020
6427 Clouds 22 1012 49 10000 5.7 210 15:55 28.06.2020
6428 Clouds 22 1012 49 10000 5.7 210 15:37 28.06.2020
6429 Clouds 22 1012 49 10000 6.2 230 15:18 28.06.2020
6430 Clouds 21 1012 49 10000 7.7 220 14:42 28.06.2020
6431 Clouds 21 1012 46 10000 8.2 230 14:24 28.06.2020
6432 Clouds 21 1012 56 10000 6.2 240 13:55 28.06.2020
6433 Clouds 21 1012 56 10000 6.2 240 13:36 28.06.2020
6434 Clouds 20 1011 60 10000 4.6 250 13:18 28.06.2020
6435 Clouds 20 1011 60 10000 6.7 230 12:55 28.06.2020
6436 Clouds 20 1011 60 10000 6.7 230 12:36 28.06.2020
6437 Clouds 20 1011 60 10000 7.2 230 12:18 28.06.2020
6438 Clouds 20 1011 64 10000 6.2 230 11:43 28.06.2020
6439 Clouds 20 1011 64 10000 5.7 240 11:21 28.06.2020
6440 Clouds 20 1011 64 10000 5.7 240 11:21 28.06.2020
6441 Clouds 20 1011 64 10000 5.7 240 10:59 28.06.2020
6442 Clouds 20 1010 64 10000 5.7 240 10:41 28.06.2020
6443 Clouds 20 1010 64 10000 5.7 240 10:41 28.06.2020
6444 Clouds 19 1010 72 10000 4.6 260 10:22 28.06.2020
6445 Rain 19 1010 72 10000 4.1 240 09:42 28.06.2020
6446 Rain 18 1010 72 10000 4.6 260 09:23 28.06.2020
6447 Rain 18 1010 72 10000 4.6 260 09:23 28.06.2020
6448 Rain 19 1010 72 10000 4.6 260 08:57 28.06.2020
6449 Clouds 19 1009 72 10000 3.1 230 08:39 28.06.2020
6450 Clouds 19 1009 72 10000 3.6 270 08:20 28.06.2020
6451 Clouds 18 1009 93 10000 1 0 07:39 28.06.2020
6452 Rain 17 1009 100 10000 1 0 06:58 28.06.2020
6453 Rain 17 1009 93 10000 1 0 06:32 28.06.2020
6454 Rain 17 1009 100 10000 1 120 05:54 28.06.2020
6455 Clouds 17 1009 100 10000 1 270 04:36 28.06.2020
6456 Clouds 17 1009 88 10000 3.1 150 03:18 28.06.2020
6457 Rain 17 1009 93 10000 2.6 150 02:23 28.06.2020
6458 Clouds 18 1009 93 10000 3.1 140 01:46 28.06.2020
6459 Clouds 18 1009 88 10000 2.6 140 01:22 28.06.2020
6460 Clouds 18 1009 93 10000 1.5 150 00:42 28.06.2020
6461 Clouds 18 1009 93 10000 1 0 00:21 28.06.2020
6462 Clouds 18 1009 93 10000 1 240 23:40 27.06.2020
6463 Clouds 18 1009 93 10000 1 0 23:21 27.06.2020
6464 Clouds 18 1009 88 10000 1 0 22:56 27.06.2020
6465 Clouds 18 1009 88 10000 1 0 22:38 27.06.2020
6466 Clouds 18 1009 93 10000 3.1 270 22:19 27.06.2020
6467 Clouds 19 1008 77 10000 2.6 330 21:42 27.06.2020
6468 Rain 20 1008 82 10000 3.1 330 21:20 27.06.2020
6469 Rain 21 1008 82 10000 7.2 310 20:57 27.06.2020
6470 Rain 21 1008 82 10000 7.2 310 20:37 27.06.2020
6471 Thunderstorm 23 1007 64 10000 4.6 10 20:18 27.06.2020
6472 Clouds 23 1007 69 10000 4.1 20 19:54 27.06.2020
6473 Clouds 24 1007 69 10000 4.1 20 19:36 27.06.2020
6474 Clouds 26 1007 51 10000 3.6 210 19:18 27.06.2020
6475 Clouds 27 1007 51 10000 4.6 200 18:43 27.06.2020
6476 Clouds 27 1007 54 10000 2.6 190 18:22 27.06.2020
6477 Clouds 27 1007 61 10000 1.5 190 17:55 27.06.2020
6478 Clouds 26 1007 61 10000 1.5 190 17:37 27.06.2020
6479 Clouds 25 1007 69 10000 2.1 160 17:18 27.06.2020
6480 Clouds 25 1008 69 10000 1 0 16:42 27.06.2020
6481 Thunderstorm 23 1008 82 10000 4.1 200 16:24 27.06.2020
6482 Thunderstorm 25 1008 61 10000 4.1 210 15:54 27.06.2020
6483 Thunderstorm 26 1008 61 10000 4.1 210 15:36 27.06.2020
6484 Clouds 27 1008 54 10000 4.6 210 15:18 27.06.2020
6485 Clouds 28 1008 45 10000 5.1 230 14:41 27.06.2020
6486 Clouds 28 1008 51 10000 4.1 200 14:22 27.06.2020
6487 Clouds 27 1008 54 10000 5.1 200 13:57 27.06.2020
6488 Clouds 27 1008 54 10000 5.1 200 13:37 27.06.2020
6489 Clouds 27 1008 57 10000 5.1 190 13:19 27.06.2020
6490 Clouds 27 1008 61 10000 4.1 190 12:56 27.06.2020
6491 Clouds 27 1008 61 10000 4.1 190 12:37 27.06.2020
6492 Clouds 25 1008 73 10000 3.1 210 12:19 27.06.2020
6493 Clouds 23 1008 83 10000 2.6 180 11:41 27.06.2020
6494 Clouds 22 1009 88 10000 1.5 200 11:23 27.06.2020
6495 Rain 21 1009 88 10000 1 0 10:57 27.06.2020
6496 Rain 21 1009 88 10000 1 0 10:38 27.06.2020
6497 Rain 22 1009 73 10000 5.7 240 10:18 27.06.2020
6498 Clouds 22 1009 73 10000 5.1 210 09:41 27.06.2020
6499 Clouds 22 1009 68 10000 3.6 210 09:21 27.06.2020
6500 Clouds 22 1009 68 10000 3.6 210 09:21 27.06.2020
6501 Clouds 22 1009 68 10000 3.1 190 08:56 27.06.2020
6502 Clouds 22 1009 68 10000 3.1 190 08:38 27.06.2020
6503 Clouds 21 1008 73 10000 3.1 160 08:19 27.06.2020
6504 Clouds 20 1009 72 10000 2.1 120 07:38 27.06.2020
6505 Clouds 20 1009 72 10000 2.1 120 07:19 27.06.2020
6506 Clouds 18 1008 77 10000 2.1 90 06:38 27.06.2020
6507 Clouds 18 1009 82 10000 2.1 110 06:18 27.06.2020
6508 Clouds 18 1009 77 10000 1 0 04:22 27.06.2020
6509 Clouds 19 1009 72 10000 2.1 110 03:51 27.06.2020
6510 Clouds 19 1010 72 10000 3.1 100 02:49 27.06.2020
6511 Clouds 20 1010 72 10000 3.1 100 02:29 27.06.2020
6512 Clouds 19 1010 72 10000 1.5 150 01:41 27.06.2020
6513 Clear 20 1010 64 10000 1.5 140 00:56 27.06.2020
6514 Clear 21 1010 60 10000 3.1 120 00:28 27.06.2020
6515 Clear 22 1010 53 10000 3.1 120 23:41 26.06.2020
6516 Clear 22 1010 53 10000 2.6 120 23:22 26.06.2020
6517 Clear 22 1011 64 10000 3.1 100 22:56 26.06.2020
6518 Clear 23 1011 64 10000 3.1 100 22:38 26.06.2020
6519 Clear 24 1010 50 10000 1.5 130 22:19 26.06.2020
6520 Clear 26 1010 44 10000 1.5 130 21:57 26.06.2020
6521 Clear 26 1010 44 10000 1.5 130 21:37 26.06.2020
6522 Clear 26 1010 44 10000 2.6 150 21:19 26.06.2020
6523 Clear 27 1010 44 10000 3.1 160 20:43 26.06.2020
6524 Rain 28 1010 39 10000 3.6 140 20:21 26.06.2020
6525 Rain 29 1010 35 10000 4.6 130 19:47 26.06.2020
6526 Rain 29 1010 35 10000 3.6 130 19:23 26.06.2020
6527 Rain 29 1010 37 10000 4.1 120 18:57 26.06.2020
6528 Rain 29 1010 37 10000 4.1 120 18:37 26.06.2020
6529 Clear 29 1011 37 10000 5.1 120 18:19 26.06.2020
6530 Clear 28 1011 39 10000 3.6 120 17:44 26.06.2020
6531 Clear 29 1012 37 10000 4.6 110 17:24 26.06.2020
6532 Clear 29 1012 37 10000 5.1 120 16:49 26.06.2020
6533 Clear 29 1012 37 10000 5.1 120 16:27 26.06.2020
6534 Clear 30 1012 33 10000 5.7 130 15:55 26.06.2020
6535 Clear 30 1012 33 10000 5.7 130 15:37 26.06.2020
6536 Clear 29 1012 33 10000 6.2 150 15:19 26.06.2020
6537 Clear 28 1013 35 10000 5.1 120 14:57 26.06.2020
6538 Clear 29 1013 35 10000 5.1 120 14:38 26.06.2020
6539 Clear 28 1013 35 10000 4.6 150 14:20 26.06.2020
6540 Clear 28 1013 34 10000 5.1 140 13:44 26.06.2020
6541 Clear 28 1014 37 10000 6.7 140 13:23 26.06.2020
6542 Clear 27 1014 39 10000 6.7 150 12:56 26.06.2020
6543 Clear 27 1014 39 10000 6.7 150 12:37 26.06.2020
6544 Clear 27 1014 39 10000 6.2 130 12:18 26.06.2020
6545 Clear 27 1015 42 10000 5.7 140 11:55 26.06.2020
6546 Clear 26 1015 42 10000 5.7 140 11:36 26.06.2020
6547 Clear 26 1015 44 10000 6.2 150 11:18 26.06.2020
6548 Clear 25 1015 47 10000 5.7 130 10:55 26.06.2020
6549 Clear 26 1015 47 10000 5.7 130 10:37 26.06.2020
6550 Clear 26 1015 47 10000 4.6 130 10:18 26.06.2020
6551 Clear 24 1016 50 10000 4.1 130 09:41 26.06.2020
6552 Clear 22 1016 56 10000 5.1 140 09:20 26.06.2020
6553 Clear 21 1016 56 10000 3.6 130 08:45 26.06.2020
6554 Clear 20 1016 64 10000 4.1 120 08:27 26.06.2020
6555 Clear 20 1016 64 10000 3.6 100 07:48 26.06.2020
6556 Clear 19 1016 68 10000 3.6 100 07:23 26.06.2020
6557 Clear 17 1016 68 10000 3.1 110 06:52 26.06.2020
6558 Clear 17 1016 72 10000 2.6 110 06:30 26.06.2020
6559 Clear 17 1016 72 10000 2.6 110 05:55 26.06.2020
6560 Clear 18 1016 72 10000 2.6 110 05:29 26.06.2020
6561 Clear 19 1017 72 10000 2.6 100 02:40 26.06.2020
6562 Clear 19 1017 72 10000 2.6 100 01:39 26.06.2020
6563 Clear 20 1017 68 10000 2.1 90 00:55 26.06.2020
6564 Clear 20 1017 68 10000 2.1 90 00:32 26.06.2020
6565 Clear 22 1018 57 10000 2.1 130 23:48 25.06.2020
6566 Clear 22 1018 57 10000 3.1 100 23:23 25.06.2020
6567 Clear 23 1018 57 10000 3.1 100 22:59 25.06.2020
6568 Clear 23 1018 53 10000 3.1 110 22:39 25.06.2020
6569 Clear 23 1018 53 10000 2.1 100 22:20 25.06.2020
6570 Clear 23 1018 53 10000 2.1 100 22:20 25.06.2020
6571 Clear 25 1017 47 10000 2.6 110 21:58 25.06.2020
6572 Clear 26 1017 47 10000 2.6 110 21:40 25.06.2020
6573 Clear 26 1017 47 10000 2.6 110 21:40 25.06.2020
6574 Clouds 26 1017 44 10000 3.1 110 21:21 25.06.2020
6575 Clouds 27 1017 44 10000 3.1 110 20:59 25.06.2020
6576 Clouds 27 1017 44 10000 3.6 130 20:41 25.06.2020
6577 Rain 27 1017 42 10000 5.1 110 20:22 25.06.2020
6578 Rain 28 1018 45 10000 4.6 110 19:56 25.06.2020
6579 Rain 27 1018 45 10000 4.6 110 19:37 25.06.2020
6580 Clouds 27 1018 45 10000 5.1 130 19:18 25.06.2020
6581 Clouds 27 1018 51 10000 5.1 90 18:40 25.06.2020
6582 Clouds 27 1018 51 10000 6.2 90 18:21 25.06.2020
6583 Clouds 27 1018 51 10000 6.7 90 17:55 25.06.2020
6584 Clouds 27 1018 51 10000 6.7 90 17:37 25.06.2020
6585 Clouds 27 1019 48 10000 5.7 100 17:19 25.06.2020
6586 Clouds 27 1019 48 10000 6.2 90 16:41 25.06.2020
6587 Clouds 28 1019 51 10000 6.7 100 16:20 25.06.2020
6588 Clouds 28 1019 51 10000 6.2 100 15:45 25.06.2020
6589 Rain 27 1019 48 10000 5.1 90 15:27 25.06.2020
6590 Rain 28 1019 48 10000 5.1 90 14:58 25.06.2020
6591 Clear 27 1020 47 10000 6.7 90 14:40 25.06.2020
6592 Clouds 27 1020 47 10000 7.7 60 14:22 25.06.2020
6593 Clouds 27 1020 45 10000 6.7 70 13:56 25.06.2020
6594 Clouds 27 1020 45 10000 6.7 70 13:37 25.06.2020
6595 Clear 27 1021 45 10000 5.1 50 13:19 25.06.2020
6596 Clear 27 1021 47 10000 5.1 80 12:44 25.06.2020
6597 Clear 26 1021 50 10000 5.1 60 12:20 25.06.2020
6598 Clear 25 1021 53 10000 5.1 70 11:56 25.06.2020
6599 Clear 25 1021 53 10000 5.1 70 11:38 25.06.2020
6600 Clear 25 1022 53 10000 4.6 60 11:20 25.06.2020
6601 Clear 25 1022 53 10000 3.6 50 10:42 25.06.2020
6602 Clear 24 1022 60 10000 3.1 60 10:23 25.06.2020
6603 Clear 22 1022 60 10000 2.6 40 09:41 25.06.2020
6604 Clear 21 1022 64 10000 3.1 60 09:23 25.06.2020
6605 Clear 20 1022 68 10000 4.1 70 08:47 25.06.2020
6606 Clouds 19 1022 72 10000 3.6 60 08:21 25.06.2020
6607 Clouds 18 1023 72 10000 4.6 60 07:57 25.06.2020
6608 Clouds 18 1023 72 10000 4.6 60 07:38 25.06.2020
6609 Clouds 18 1023 77 10000 4.1 60 07:20 25.06.2020
6610 Clouds 17 1023 82 10000 2.6 50 06:30 25.06.2020
6611 Clouds 16 1023 82 10000 2.6 50 05:55 25.06.2020
6612 Clouds 16 1023 82 10000 2.6 50 05:29 25.06.2020
6613 Clouds 17 1023 77 10000 3.6 70 03:36 25.06.2020
6614 Clouds 18 1024 77 10000 3.6 70 02:45 25.06.2020
6615 Clouds 18 1024 77 10000 3.1 70 02:19 25.06.2020
6616 Clouds 19 1024 72 10000 4.6 80 01:41 25.06.2020
6617 Clouds 19 1024 64 10000 4.1 80 00:50 25.06.2020
6618 Clouds 20 1024 64 10000 4.6 70 00:22 25.06.2020
6619 Clouds 20 1024 68 10000 3.1 70 23:58 24.06.2020
6620 Clouds 19 1024 68 10000 3.1 70 23:38 24.06.2020
6621 Clouds 21 1023 60 10000 2.6 100 23:19 24.06.2020
6622 Clouds 22 1023 56 10000 2.6 110 22:42 24.06.2020
6623 Clouds 22 1023 56 10000 2.6 110 22:42 24.06.2020
6624 Clouds 23 1023 47 10000 4.1 110 22:21 24.06.2020
6625 Clouds 23 1023 47 10000 3.1 90 21:57 24.06.2020
6626 Clouds 24 1023 47 10000 3.1 90 21:37 24.06.2020
6627 Clouds 25 1023 41 10000 4.1 100 21:19 24.06.2020
6628 Clouds 25 1023 41 10000 4.1 100 20:59 24.06.2020
6629 Clouds 25 1023 39 10000 4.6 110 20:40 24.06.2020
6630 Clouds 26 1023 39 10000 5.1 90 20:22 24.06.2020
6631 Clouds 26 1023 39 10000 5.1 90 19:59 24.06.2020
6632 Clouds 27 1023 36 10000 3.6 90 19:39 24.06.2020
6633 Clouds 26 1023 36 10000 4.1 90 19:21 24.06.2020
6634 Clouds 26 1023 36 10000 4.6 90 18:58 24.06.2020
6635 Clouds 26 1023 36 10000 4.6 90 18:58 24.06.2020
6636 Clouds 27 1023 36 10000 4.6 90 18:40 24.06.2020
6637 Clouds 27 1023 36 10000 5.1 90 18:21 24.06.2020
6638 Clouds 27 1023 36 10000 3.6 90 17:56 24.06.2020
6639 Clouds 27 1023 36 10000 3.6 90 17:38 24.06.2020
6640 Clear 27 1023 34 10000 5.1 80 17:19 24.06.2020
6641 Clear 27 1024 34 10000 4.1 100 16:56 24.06.2020
6642 Clear 27 1024 34 10000 4.1 100 16:38 24.06.2020
6643 Clear 27 1024 32 10000 4.1 70 16:20 24.06.2020
6644 Clear 27 1024 30 10000 5.7 90 15:56 24.06.2020
6645 Clear 26 1024 30 10000 5.7 90 15:37 24.06.2020
6646 Clear 26 1024 30 10000 4.1 100 15:19 24.06.2020
6647 Clear 26 1024 29 10000 3.6 90 14:43 24.06.2020
6648 Clear 25 1024 29 10000 4.1 90 14:24 24.06.2020
6649 Clear 26 1025 27 10000 3.6 0 13:43 24.06.2020
6650 Clear 25 1025 31 10000 3.1 90 13:22 24.06.2020
6651 Clear 25 1025 36 10000 3.6 50 12:57 24.06.2020
6652 Clear 25 1025 36 10000 3.6 50 12:38 24.06.2020
6653 Clear 24 1025 38 10000 3.6 60 12:20 24.06.2020
6654 Clear 23 1025 41 10000 3.1 80 11:55 24.06.2020
6655 Clear 24 1025 41 10000 3.1 80 11:37 24.06.2020
6656 Clear 23 1025 40 10000 3.6 80 11:18 24.06.2020
6657 Clear 22 1025 46 10000 3.6 90 10:43 24.06.2020
6658 Clear 23 1026 46 10000 4.6 80 10:19 24.06.2020
6659 Clear 21 1025 49 10000 3.1 100 09:43 24.06.2020
6660 Clear 20 1026 52 10000 3.1 110 09:22 24.06.2020
6661 Clear 19 1025 56 10000 2.6 60 08:44 24.06.2020
6662 Clear 18 1025 59 10000 1.5 70 08:26 24.06.2020
6663 Clear 17 1025 63 10000 1.5 60 07:55 24.06.2020
6664 Clear 16 1025 77 10000 0.5 0 07:37 24.06.2020
6665 Clear 16 1025 77 10000 0.5 0 07:18 24.06.2020
6666 Clear 13 1025 82 10000 2.1 60 06:39 24.06.2020
6667 Clear 13 1025 76 10000 1.5 60 06:21 24.06.2020
6668 Clear 13 1025 71 10000 1.5 70 05:32 24.06.2020
6669 Clear 13 1025 71 10000 2.1 90 04:37 24.06.2020
6670 Clear 13 1025 71 10000 1 0 03:37 24.06.2020
6671 Clear 15 1025 63 10000 1.5 70 02:52 24.06.2020
6672 Clear 15 1025 77 10000 0.5 0 01:59 24.06.2020
6673 Clear 16 1025 63 10000 2.1 40 00:50 24.06.2020
6674 Clear 17 1025 63 10000 2.1 50 00:31 24.06.2020
6675 Clear 17 1025 59 10000 2.6 30 23:47 23.06.2020
6676 Clear 18 1025 59 10000 3.1 30 23:21 23.06.2020
6677 Clear 19 1025 56 10000 4.1 40 22:58 23.06.2020
6678 Clear 19 1025 56 10000 4.1 40 22:40 23.06.2020
6679 Clear 21 1025 52 10000 4.1 40 22:18 23.06.2020
6680 Clear 21 1025 53 10000 4.1 40 21:54 23.06.2020
6681 Clear 22 1025 53 10000 4.1 40 21:36 23.06.2020
6682 Clear 22 1024 46 10000 5.1 30 21:18 23.06.2020
6683 Clear 23 1024 38 10000 3.6 30 20:54 23.06.2020
6684 Clear 23 1024 38 10000 3.6 30 20:36 23.06.2020
6685 Clear 24 1024 36 10000 4.1 30 20:18 23.06.2020
6686 C